﻿<?xml version="1.0" encoding="utf-8"?><gpx creator="Garmin Desktop App" version="1.1" xsi:schemaLocation="http://www.topografix.com/GPX/1/1 http://www.topografix.com/GPX/1/1/gpx.xsd http://www.garmin.com/xmlschemas/WaypointExtension/v1 http://www8.garmin.com/xmlschemas/WaypointExtensionv1.xsd http://www.garmin.com/xmlschemas/TrackPointExtension/v1 http://www.garmin.com/xmlschemas/TrackPointExtensionv1.xsd http://www.garmin.com/xmlschemas/GpxExtensions/v3 http://www8.garmin.com/xmlschemas/GpxExtensionsv3.xsd http://www.garmin.com/xmlschemas/ActivityExtension/v1 http://www8.garmin.com/xmlschemas/ActivityExtensionv1.xsd http://www.garmin.com/xmlschemas/AdventuresExtensions/v1 http://www8.garmin.com/xmlschemas/AdventuresExtensionv1.xsd http://www.garmin.com/xmlschemas/PressureExtension/v1 http://www.garmin.com/xmlschemas/PressureExtensionv1.xsd http://www.garmin.com/xmlschemas/TripExtensions/v1 http://www.garmin.com/xmlschemas/TripExtensionsv1.xsd http://www.garmin.com/xmlschemas/TripMetaDataExtensions/v1 http://www.garmin.com/xmlschemas/TripMetaDataExtensionsv1.xsd http://www.garmin.com/xmlschemas/ViaPointTransportationModeExtensions/v1 http://www.garmin.com/xmlschemas/ViaPointTransportationModeExtensionsv1.xsd http://www.garmin.com/xmlschemas/CreationTimeExtension/v1 http://www.garmin.com/xmlschemas/CreationTimeExtensionsv1.xsd http://www.garmin.com/xmlschemas/AccelerationExtension/v1 http://www.garmin.com/xmlschemas/AccelerationExtensionv1.xsd http://www.garmin.com/xmlschemas/PowerExtension/v1 http://www.garmin.com/xmlschemas/PowerExtensionv1.xsd http://www.garmin.com/xmlschemas/VideoExtension/v1 http://www.garmin.com/xmlschemas/VideoExtensionv1.xsd" xmlns="http://www.topografix.com/GPX/1/1" xmlns:xsi="http://www.w3.org/2001/XMLSchema-instance" xmlns:wptx1="http://www.garmin.com/xmlschemas/WaypointExtension/v1" xmlns:gpxtrx="http://www.garmin.com/xmlschemas/GpxExtensions/v3" xmlns:gpxtpx="http://www.garmin.com/xmlschemas/TrackPointExtension/v1" xmlns:gpxx="http://www.garmin.com/xmlschemas/GpxExtensions/v3" xmlns:trp="http://www.garmin.com/xmlschemas/TripExtensions/v1" xmlns:adv="http://www.garmin.com/xmlschemas/AdventuresExtensions/v1" xmlns:prs="http://www.garmin.com/xmlschemas/PressureExtension/v1" xmlns:tmd="http://www.garmin.com/xmlschemas/TripMetaDataExtensions/v1" xmlns:vptm="http://www.garmin.com/xmlschemas/ViaPointTransportationModeExtensions/v1" xmlns:ctx="http://www.garmin.com/xmlschemas/CreationTimeExtension/v1" xmlns:gpxacc="http://www.garmin.com/xmlschemas/AccelerationExtension/v1" xmlns:gpxpx="http://www.garmin.com/xmlschemas/PowerExtension/v1" xmlns:vidx1="http://www.garmin.com/xmlschemas/VideoExtension/v1">

  <metadata>
    <link href="http://www.garmin.com">
      <text>Garmin International</text>
    </link>
    <time>2016-07-19T12:21:01Z</time>
    <bounds maxlat="45.833003176376224" maxlon="7.822648258879781" minlat="45.797325856983662" minlon="7.743426784873009" />
  </metadata>

  <trk>
    <name>traversata-champoluc-gressoney-m-testa-grigia2016-07-17</name>
    <extensions>
      <gpxx:TrackExtension>
        <gpxx:DisplayColor>Yellow</gpxx:DisplayColor>
      </gpxx:TrackExtension>
      <gpxtrkx:TrackStatsExtension xmlns:gpxtrkx="http://www.garmin.com/xmlschemas/TrackStatsExtension/v1">
        <gpxtrkx:Distance>17182</gpxtrkx:Distance>
        <gpxtrkx:TotalElapsedTime>29043</gpxtrkx:TotalElapsedTime>
        <gpxtrkx:MovingTime>20399</gpxtrkx:MovingTime>
        <gpxtrkx:StoppedTime>8534</gpxtrkx:StoppedTime>
        <gpxtrkx:MovingSpeed>1</gpxtrkx:MovingSpeed>
        <gpxtrkx:MaxSpeed>2</gpxtrkx:MaxSpeed>
        <gpxtrkx:MaxElevation>3325</gpxtrkx:MaxElevation>
        <gpxtrkx:MinElevation>1444</gpxtrkx:MinElevation>
        <gpxtrkx:Ascent>1357</gpxtrkx:Ascent>
        <gpxtrkx:Descent>1899</gpxtrkx:Descent>
        <gpxtrkx:AvgAscentRate>0</gpxtrkx:AvgAscentRate>
        <gpxtrkx:MaxAscentRate>0</gpxtrkx:MaxAscentRate>
        <gpxtrkx:AvgDescentRate>0</gpxtrkx:AvgDescentRate>
        <gpxtrkx:MaxDescentRate>-0</gpxtrkx:MaxDescentRate>
      </gpxtrkx:TrackStatsExtension>
    </extensions>
    <trkseg>
      <trkpt lat="45.832863450050354" lon="7.743426784873009">
        <ele>1987.6600000000001</ele>
        <time>2016-07-17T08:30:02Z</time>
      </trkpt>
      <trkpt lat="45.832857834175229" lon="7.743492834270001">
        <ele>1985.74</ele>
        <time>2016-07-17T08:30:07Z</time>
      </trkpt>
      <trkpt lat="45.832846686244011" lon="7.743699699640274">
        <ele>1988.6199999999999</ele>
        <time>2016-07-17T08:30:20Z</time>
      </trkpt>
      <trkpt lat="45.832848697900772" lon="7.743753511458635">
        <ele>1988.6199999999999</ele>
        <time>2016-07-17T08:30:26Z</time>
      </trkpt>
      <trkpt lat="45.832858253270388" lon="7.743839006870985">
        <ele>1988.6199999999999</ele>
        <time>2016-07-17T08:30:31Z</time>
      </trkpt>
      <trkpt lat="45.832862528041005" lon="7.743875803425908">
        <ele>1988.6199999999999</ele>
        <time>2016-07-17T08:30:33Z</time>
      </trkpt>
      <trkpt lat="45.832862528041005" lon="7.743921903893352">
        <ele>1989.0999999999999</ele>
        <time>2016-07-17T08:30:36Z</time>
      </trkpt>
      <trkpt lat="45.832905694842339" lon="7.744111251085997">
        <ele>1990.0699999999999</ele>
        <time>2016-07-17T08:30:49Z</time>
      </trkpt>
      <trkpt lat="45.83294584415853" lon="7.744311662390828">
        <ele>1991.99</ele>
        <time>2016-07-17T08:31:02Z</time>
      </trkpt>
      <trkpt lat="45.832977192476392" lon="7.744456334039569">
        <ele>1993.9100000000001</ele>
        <time>2016-07-17T08:31:12Z</time>
      </trkpt>
      <trkpt lat="45.833003176376224" lon="7.744608381763101">
        <ele>1995.3499999999999</ele>
        <time>2016-07-17T08:31:23Z</time>
      </trkpt>
      <trkpt lat="45.832985574379563" lon="7.744744587689638">
        <ele>1997.28</ele>
        <time>2016-07-17T08:31:35Z</time>
      </trkpt>
      <trkpt lat="45.83297953940928" lon="7.744788927957416">
        <ele>1997.76</ele>
        <time>2016-07-17T08:31:39Z</time>
      </trkpt>
      <trkpt lat="45.832966212183237" lon="7.744929157197475">
        <ele>1999.6800000000001</ele>
        <time>2016-07-17T08:31:50Z</time>
      </trkpt>
      <trkpt lat="45.83293167874217" lon="7.74507743306458">
        <ele>2002.5599999999999</ele>
        <time>2016-07-17T08:32:03Z</time>
      </trkpt>
      <trkpt lat="45.832867892459035" lon="7.745238617062569">
        <ele>2004.49</ele>
        <time>2016-07-17T08:32:15Z</time>
      </trkpt>
      <trkpt lat="45.832864372059703" lon="7.745248507708311">
        <ele>2004.49</ele>
        <time>2016-07-17T08:32:16Z</time>
      </trkpt>
      <trkpt lat="45.832859175279737" lon="7.74525873363018">
        <ele>2004.97</ele>
        <time>2016-07-17T08:32:17Z</time>
      </trkpt>
      <trkpt lat="45.832809051498771" lon="7.745356718078256">
        <ele>2006.4100000000001</ele>
        <time>2016-07-17T08:32:26Z</time>
      </trkpt>
      <trkpt lat="45.832799663767219" lon="7.745389910414815">
        <ele>2006.8900000000001</ele>
        <time>2016-07-17T08:32:29Z</time>
      </trkpt>
      <trkpt lat="45.832781055942178" lon="7.745439112186432">
        <ele>2007.3699999999999</ele>
        <time>2016-07-17T08:32:33Z</time>
      </trkpt>
      <trkpt lat="45.832769656553864" lon="7.745464341714978">
        <ele>2007.3699999999999</ele>
        <time>2016-07-17T08:32:35Z</time>
      </trkpt>
      <trkpt lat="45.832738978788257" lon="7.745536928996444">
        <ele>2008.3299999999999</ele>
        <time>2016-07-17T08:32:41Z</time>
      </trkpt>
      <trkpt lat="45.832691621035337" lon="7.745628794655204">
        <ele>2009.29</ele>
        <time>2016-07-17T08:32:49Z</time>
      </trkpt>
      <trkpt lat="45.832669157534838" lon="7.745666261762381">
        <ele>2009.77</ele>
        <time>2016-07-17T08:32:53Z</time>
      </trkpt>
      <trkpt lat="45.832656668499112" lon="7.745687384158373">
        <ele>2009.77</ele>
        <time>2016-07-17T08:32:55Z</time>
      </trkpt>
      <trkpt lat="45.832623392343521" lon="7.745756953954697">
        <ele>2010.73</ele>
        <time>2016-07-17T08:33:01Z</time>
      </trkpt>
      <trkpt lat="45.832619788125157" lon="7.74578302167356">
        <ele>2011.22</ele>
        <time>2016-07-17T08:33:04Z</time>
      </trkpt>
      <trkpt lat="45.832578716799617" lon="7.745861141011119">
        <ele>2012.1800000000001</ele>
        <time>2016-07-17T08:33:11Z</time>
      </trkpt>
      <trkpt lat="45.832557426765561" lon="7.745913108810782">
        <ele>2012.1800000000001</ele>
        <time>2016-07-17T08:33:15Z</time>
      </trkpt>
      <trkpt lat="45.832497328519821" lon="7.746035903692246">
        <ele>2013.6199999999999</ele>
        <time>2016-07-17T08:33:25Z</time>
      </trkpt>
      <trkpt lat="45.832447372376919" lon="7.746154339984059">
        <ele>2015.0599999999999</ele>
        <time>2016-07-17T08:33:35Z</time>
      </trkpt>
      <trkpt lat="45.832433626055717" lon="7.746172025799751">
        <ele>2015.0599999999999</ele>
        <time>2016-07-17T08:33:37Z</time>
      </trkpt>
      <trkpt lat="45.83239171653986" lon="7.746291384100914">
        <ele>2016.5</ele>
        <time>2016-07-17T08:33:47Z</time>
      </trkpt>
      <trkpt lat="45.832362128421664" lon="7.746352152898908">
        <ele>2016.98</ele>
        <time>2016-07-17T08:33:52Z</time>
      </trkpt>
      <trkpt lat="45.832344526425004" lon="7.746410239487886">
        <ele>2016.98</ele>
        <time>2016-07-17T08:33:56Z</time>
      </trkpt>
      <trkpt lat="45.832273783162236" lon="7.746578799560666">
        <ele>2017.46</ele>
        <time>2016-07-17T08:34:09Z</time>
      </trkpt>
      <trkpt lat="45.83224025554955" lon="7.746710814535618">
        <ele>2018.4300000000001</ele>
        <time>2016-07-17T08:34:19Z</time>
      </trkpt>
      <trkpt lat="45.832203794270754" lon="7.746854312717915">
        <ele>2019.3900000000001</ele>
        <time>2016-07-17T08:34:29Z</time>
      </trkpt>
      <trkpt lat="45.832137828692794" lon="7.747000074014068">
        <ele>2019.8699999999999</ele>
        <time>2016-07-17T08:34:40Z</time>
      </trkpt>
      <trkpt lat="45.832117041572928" lon="7.747029745951295">
        <ele>2020.3499999999999</ele>
        <time>2016-07-17T08:34:46Z</time>
      </trkpt>
      <trkpt lat="45.832106396555901" lon="7.747053802013397">
        <ele>2020.3499999999999</ele>
        <time>2016-07-17T08:34:48Z</time>
      </trkpt>
      <trkpt lat="45.832011764869094" lon="7.747199395671487">
        <ele>2022.27</ele>
        <time>2016-07-17T08:35:00Z</time>
      </trkpt>
      <trkpt lat="45.831962898373604" lon="7.747326968237758">
        <ele>2024.1900000000001</ele>
        <time>2016-07-17T08:35:10Z</time>
      </trkpt>
      <trkpt lat="45.831861644983292" lon="7.747432580217719">
        <ele>2026.5999999999999</ele>
        <time>2016-07-17T08:35:23Z</time>
      </trkpt>
      <trkpt lat="45.831776401028037" lon="7.747484128922224">
        <ele>2028.52</ele>
        <time>2016-07-17T08:35:33Z</time>
      </trkpt>
      <trkpt lat="45.831678416579962" lon="7.747555123642087">
        <ele>2030.4400000000001</ele>
        <time>2016-07-17T08:35:45Z</time>
      </trkpt>
      <trkpt lat="45.831579258665442" lon="7.74763491936028">
        <ele>2029.96</ele>
        <time>2016-07-17T08:35:56Z</time>
      </trkpt>
      <trkpt lat="45.831505749374628" lon="7.747759139165282">
        <ele>2031.4000000000001</ele>
        <time>2016-07-17T08:36:07Z</time>
      </trkpt>
      <trkpt lat="45.831436766311526" lon="7.747828457504511">
        <ele>2032.3599999999999</ele>
        <time>2016-07-17T08:36:16Z</time>
      </trkpt>
      <trkpt lat="45.831415811553597" lon="7.747859302908182">
        <ele>2032.8399999999999</ele>
        <time>2016-07-17T08:36:19Z</time>
      </trkpt>
      <trkpt lat="45.831314222887158" lon="7.747994335368276">
        <ele>2033.8099999999999</ele>
        <time>2016-07-17T08:36:31Z</time>
      </trkpt>
      <trkpt lat="45.831225961446762" lon="7.748114615678787">
        <ele>2034.77</ele>
        <time>2016-07-17T08:36:42Z</time>
      </trkpt>
      <trkpt lat="45.831130407750607" lon="7.748208492994309">
        <ele>2036.21</ele>
        <time>2016-07-17T08:36:55Z</time>
      </trkpt>
      <trkpt lat="45.831120684742928" lon="7.748213522136211">
        <ele>2036.21</ele>
        <time>2016-07-17T08:36:56Z</time>
      </trkpt>
      <trkpt lat="45.831040218472481" lon="7.748302705585957">
        <ele>2037.1700000000001</ele>
        <time>2016-07-17T08:37:07Z</time>
      </trkpt>
      <trkpt lat="45.830973330885172" lon="7.748350063338876">
        <ele>2037.6500000000001</ele>
        <time>2016-07-17T08:37:19Z</time>
      </trkpt>
      <trkpt lat="45.830972911790013" lon="7.748341513797641">
        <ele>2037.6500000000001</ele>
        <time>2016-07-17T08:37:24Z</time>
      </trkpt>
      <trkpt lat="45.830918764695525" lon="7.748393313959241">
        <ele>2037.6500000000001</ele>
        <time>2016-07-17T08:37:29Z</time>
      </trkpt>
      <trkpt lat="45.830742241814733" lon="7.748505547642708">
        <ele>2039.0899999999999</ele>
        <time>2016-07-17T08:37:42Z</time>
      </trkpt>
      <trkpt lat="45.830594385042787" lon="7.748588025569916">
        <ele>2040.05</ele>
        <time>2016-07-17T08:37:54Z</time>
      </trkpt>
      <trkpt lat="45.830389950424433" lon="7.748630521818996">
        <ele>2041.5</ele>
        <time>2016-07-17T08:38:09Z</time>
      </trkpt>
      <trkpt lat="45.83035902120173" lon="7.748649381101131">
        <ele>2042.46</ele>
        <time>2016-07-17T08:38:12Z</time>
      </trkpt>
      <trkpt lat="45.83032239228487" lon="7.748687267303467">
        <ele>2042.46</ele>
        <time>2016-07-17T08:38:16Z</time>
      </trkpt>
      <trkpt lat="45.830251900479198" lon="7.748738564550877">
        <ele>2042.9400000000001</ele>
        <time>2016-07-17T08:38:22Z</time>
      </trkpt>
      <trkpt lat="45.830110246315598" lon="7.748941406607628">
        <ele>2044.3800000000001</ele>
        <time>2016-07-17T08:38:36Z</time>
      </trkpt>
      <trkpt lat="45.829983847215772" lon="7.749094041064382">
        <ele>2045.3399999999999</ele>
        <time>2016-07-17T08:38:48Z</time>
      </trkpt>
      <trkpt lat="45.829927772283554" lon="7.749165873974562">
        <ele>2046.3</ele>
        <time>2016-07-17T08:38:54Z</time>
      </trkpt>
      <trkpt lat="45.829875217750669" lon="7.749174423515797">
        <ele>2047.26</ele>
        <time>2016-07-17T08:39:03Z</time>
      </trkpt>
      <trkpt lat="45.829880330711603" lon="7.749151792377234">
        <ele>2047.26</ele>
        <time>2016-07-17T08:39:20Z</time>
      </trkpt>
      <trkpt lat="45.829885276034474" lon="7.749149948358536">
        <ele>2047.26</ele>
        <time>2016-07-17T08:39:32Z</time>
      </trkpt>
      <trkpt lat="45.829864405095577" lon="7.749173250049353">
        <ele>2047.26</ele>
        <time>2016-07-17T08:39:42Z</time>
      </trkpt>
      <trkpt lat="45.82980397157371" lon="7.749244915321469">
        <ele>2048.71</ele>
        <time>2016-07-17T08:39:53Z</time>
      </trkpt>
      <trkpt lat="45.829749740660191" lon="7.749298643320799">
        <ele>2050.6300000000001</ele>
        <time>2016-07-17T08:40:05Z</time>
      </trkpt>
      <trkpt lat="45.829729707911611" lon="7.749305684119463">
        <ele>2051.1100000000001</ele>
        <time>2016-07-17T08:40:18Z</time>
      </trkpt>
      <trkpt lat="45.829674135893583" lon="7.749362513422966">
        <ele>2053.0300000000002</ele>
        <time>2016-07-17T08:40:28Z</time>
      </trkpt>
      <trkpt lat="45.829611774533987" lon="7.749369805678725">
        <ele>2054.96</ele>
        <time>2016-07-17T08:40:39Z</time>
      </trkpt>
      <trkpt lat="45.829586209729314" lon="7.749475166201592">
        <ele>2056.4000000000001</ele>
        <time>2016-07-17T08:40:48Z</time>
      </trkpt>
      <trkpt lat="45.829571038484573" lon="7.74959234520793">
        <ele>2058.8000000000002</ele>
        <time>2016-07-17T08:40:58Z</time>
      </trkpt>
      <trkpt lat="45.829571122303605" lon="7.74969007819891">
        <ele>2060.2399999999998</ele>
        <time>2016-07-17T08:41:08Z</time>
      </trkpt>
      <trkpt lat="45.829575229436159" lon="7.749802563339472">
        <ele>2061.6799999999998</ele>
        <time>2016-07-17T08:41:19Z</time>
      </trkpt>
      <trkpt lat="45.829578666016459" lon="7.749827457591891">
        <ele>2062.1700000000001</ele>
        <time>2016-07-17T08:41:28Z</time>
      </trkpt>
      <trkpt lat="45.829565254971385" lon="7.749795019626617">
        <ele>2062.1700000000001</ele>
        <time>2016-07-17T08:41:44Z</time>
      </trkpt>
      <trkpt lat="45.829573888331652" lon="7.749879760667682">
        <ele>2062.6500000000001</ele>
        <time>2016-07-17T08:41:58Z</time>
      </trkpt>
      <trkpt lat="45.829591155052185" lon="7.750022923573852">
        <ele>2065.0500000000002</ele>
        <time>2016-07-17T08:42:10Z</time>
      </trkpt>
      <trkpt lat="45.829569781199098" lon="7.750125518068671">
        <ele>2066.9699999999998</ele>
        <time>2016-07-17T08:42:19Z</time>
      </trkpt>
      <trkpt lat="45.829559555277228" lon="7.750248396769166">
        <ele>2068.8899999999999</ele>
        <time>2016-07-17T08:42:29Z</time>
      </trkpt>
      <trkpt lat="45.829554609954357" lon="7.750272788107395">
        <ele>2069.8600000000001</ele>
        <time>2016-07-17T08:42:31Z</time>
      </trkpt>
      <trkpt lat="45.829542959108949" lon="7.750354763120413">
        <ele>2070.8200000000002</ele>
        <time>2016-07-17T08:42:37Z</time>
      </trkpt>
      <trkpt lat="45.829530889168382" lon="7.750394996255636">
        <ele>2071.7800000000002</ele>
        <time>2016-07-17T08:42:40Z</time>
      </trkpt>
      <trkpt lat="45.829510521143675" lon="7.750474708154798">
        <ele>2072.2600000000002</ele>
        <time>2016-07-17T08:42:45Z</time>
      </trkpt>
      <trkpt lat="45.829431312158704" lon="7.750668078660965">
        <ele>2073.2199999999998</ele>
        <time>2016-07-17T08:42:57Z</time>
      </trkpt>
      <trkpt lat="45.829328130930662" lon="7.750873602926731">
        <ele>2072.7399999999998</ele>
        <time>2016-07-17T08:43:09Z</time>
      </trkpt>
      <trkpt lat="45.82919561304152" lon="7.751111816614866">
        <ele>2071.7800000000002</ele>
        <time>2016-07-17T08:43:23Z</time>
      </trkpt>
      <trkpt lat="45.829045409336686" lon="7.751366794109345">
        <ele>2070.8200000000002</ele>
        <time>2016-07-17T08:43:38Z</time>
      </trkpt>
      <trkpt lat="45.828918591141701" lon="7.751569719985127">
        <ele>2070.3400000000001</ele>
        <time>2016-07-17T08:43:51Z</time>
      </trkpt>
      <trkpt lat="45.828886656090617" lon="7.751628309488297">
        <ele>2070.3400000000001</ele>
        <time>2016-07-17T08:43:55Z</time>
      </trkpt>
      <trkpt lat="45.828862013295293" lon="7.751687150448561">
        <ele>2070.3400000000001</ele>
        <time>2016-07-17T08:43:59Z</time>
      </trkpt>
      <trkpt lat="45.828779367730021" lon="7.75192117318511">
        <ele>2071.3000000000002</ele>
        <time>2016-07-17T08:44:12Z</time>
      </trkpt>
      <trkpt lat="45.828735614195466" lon="7.752125775441527">
        <ele>2074.1799999999998</ele>
        <time>2016-07-17T08:44:23Z</time>
      </trkpt>
      <trkpt lat="45.828653471544385" lon="7.752363402396441">
        <ele>2076.0999999999999</ele>
        <time>2016-07-17T08:44:36Z</time>
      </trkpt>
      <trkpt lat="45.828509386628866" lon="7.752517880871892">
        <ele>2077.5500000000002</ele>
        <time>2016-07-17T08:44:48Z</time>
      </trkpt>
      <trkpt lat="45.828289948403835" lon="7.752584517002106">
        <ele>2074.6599999999999</ele>
        <time>2016-07-17T08:45:02Z</time>
      </trkpt>
      <trkpt lat="45.828103367239237" lon="7.752529615536332">
        <ele>2074.1799999999998</ele>
        <time>2016-07-17T08:45:14Z</time>
      </trkpt>
      <trkpt lat="45.827967915683985" lon="7.752579152584076">
        <ele>2073.2199999999998</ele>
        <time>2016-07-17T08:45:25Z</time>
      </trkpt>
      <trkpt lat="45.827796170488" lon="7.752728182822466">
        <ele>2072.2600000000002</ele>
        <time>2016-07-17T08:45:37Z</time>
      </trkpt>
      <trkpt lat="45.82767597399652" lon="7.75277235545218">
        <ele>2069.3800000000001</ele>
        <time>2016-07-17T08:45:45Z</time>
      </trkpt>
      <trkpt lat="45.827515879645944" lon="7.752885343506932">
        <ele>2065.5300000000002</ele>
        <time>2016-07-17T08:45:56Z</time>
      </trkpt>
      <trkpt lat="45.827393922954798" lon="7.753009479492903">
        <ele>2062.6500000000001</ele>
        <time>2016-07-17T08:46:06Z</time>
      </trkpt>
      <trkpt lat="45.827370705083013" lon="7.753034373745322">
        <ele>2063.1300000000001</ele>
        <time>2016-07-17T08:46:08Z</time>
      </trkpt>
      <trkpt lat="45.827365340664983" lon="7.753048622980714">
        <ele>2063.1300000000001</ele>
        <time>2016-07-17T08:46:09Z</time>
      </trkpt>
      <trkpt lat="45.827325023710728" lon="7.753182146698237">
        <ele>2064.5700000000002</ele>
        <time>2016-07-17T08:46:22Z</time>
      </trkpt>
      <trkpt lat="45.827322509139776" lon="7.753186505287886">
        <ele>2064.5700000000002</ele>
        <time>2016-07-17T08:46:37Z</time>
      </trkpt>
      <trkpt lat="45.827319491654634" lon="7.753198323771358">
        <ele>2065.5300000000002</ele>
        <time>2016-07-17T08:46:48Z</time>
      </trkpt>
      <trkpt lat="45.827314797788858" lon="7.753187762573361">
        <ele>2065.5300000000002</ele>
        <time>2016-07-17T08:47:02Z</time>
      </trkpt>
      <trkpt lat="45.827316557988524" lon="7.75319404900074">
        <ele>2065.5300000000002</ele>
        <time>2016-07-17T08:47:20Z</time>
      </trkpt>
      <trkpt lat="45.827318066731095" lon="7.753216680139303">
        <ele>2065.5300000000002</ele>
        <time>2016-07-17T08:47:31Z</time>
      </trkpt>
      <trkpt lat="45.827309181913733" lon="7.753202933818102">
        <ele>2065.5300000000002</ele>
        <time>2016-07-17T08:47:50Z</time>
      </trkpt>
      <trkpt lat="45.827314965426922" lon="7.753312401473522">
        <ele>2066.4899999999998</ele>
        <time>2016-07-17T08:48:02Z</time>
      </trkpt>
      <trkpt lat="45.827307673171163" lon="7.753320699557662">
        <ele>2066.4899999999998</ele>
        <time>2016-07-17T08:48:21Z</time>
      </trkpt>
      <trkpt lat="45.82730314694345" lon="7.753427904099226">
        <ele>2068.4099999999999</ele>
        <time>2016-07-17T08:48:36Z</time>
      </trkpt>
      <trkpt lat="45.827286131680012" lon="7.753567881882191">
        <ele>2070.8200000000002</ele>
        <time>2016-07-17T08:48:46Z</time>
      </trkpt>
      <trkpt lat="45.827247323468328" lon="7.753725964576006">
        <ele>2072.7399999999998</ele>
        <time>2016-07-17T08:49:00Z</time>
      </trkpt>
      <trkpt lat="45.827233325690031" lon="7.753755301237106">
        <ele>2072.7399999999998</ele>
        <time>2016-07-17T08:49:12Z</time>
      </trkpt>
      <trkpt lat="45.827222345396876" lon="7.753853285685182">
        <ele>2073.6999999999998</ele>
        <time>2016-07-17T08:49:25Z</time>
      </trkpt>
      <trkpt lat="45.827198373153806" lon="7.753983959555626">
        <ele>2075.6199999999999</ele>
        <time>2016-07-17T08:49:35Z</time>
      </trkpt>
      <trkpt lat="45.827195607125759" lon="7.753993095830083">
        <ele>2075.6199999999999</ele>
        <time>2016-07-17T08:49:36Z</time>
      </trkpt>
      <trkpt lat="45.827138023450971" lon="7.754148412495852">
        <ele>2076.0999999999999</ele>
        <time>2016-07-17T08:49:46Z</time>
      </trkpt>
      <trkpt lat="45.827106758952141" lon="7.754325857385993">
        <ele>2077.0700000000002</ele>
        <time>2016-07-17T08:49:58Z</time>
      </trkpt>
      <trkpt lat="45.827093180269003" lon="7.754431637004018">
        <ele>2078.5100000000002</ele>
        <time>2016-07-17T08:50:05Z</time>
      </trkpt>
      <trkpt lat="45.827090917155147" lon="7.754443874582648">
        <ele>2078.5100000000002</ele>
        <time>2016-07-17T08:50:06Z</time>
      </trkpt>
      <trkpt lat="45.827089659869671" lon="7.754459213465452">
        <ele>2078.5100000000002</ele>
        <time>2016-07-17T08:50:07Z</time>
      </trkpt>
      <trkpt lat="45.827072812244296" lon="7.754507325589657">
        <ele>2078.0300000000002</ele>
        <time>2016-07-17T08:50:15Z</time>
      </trkpt>
      <trkpt lat="45.827059568837285" lon="7.754648309201002">
        <ele>2079.4699999999998</ele>
        <time>2016-07-17T08:50:25Z</time>
      </trkpt>
      <trkpt lat="45.827043391764164" lon="7.754754507914186">
        <ele>2080.4299999999998</ele>
        <time>2016-07-17T08:50:33Z</time>
      </trkpt>
      <trkpt lat="45.827032830566168" lon="7.754869759082794">
        <ele>2081.3899999999999</ele>
        <time>2016-07-17T08:50:42Z</time>
      </trkpt>
      <trkpt lat="45.82703341729939" lon="7.754885014146566">
        <ele>2081.3899999999999</ele>
        <time>2016-07-17T08:50:43Z</time>
      </trkpt>
      <trkpt lat="45.82703392021358" lon="7.754902448505163">
        <ele>2081.3899999999999</ele>
        <time>2016-07-17T08:50:44Z</time>
      </trkpt>
      <trkpt lat="45.827051941305399" lon="7.755096824839711">
        <ele>2080.9099999999999</ele>
        <time>2016-07-17T08:50:55Z</time>
      </trkpt>
      <trkpt lat="45.827054958790541" lon="7.75511140935123">
        <ele>2081.3899999999999</ele>
        <time>2016-07-17T08:50:56Z</time>
      </trkpt>
      <trkpt lat="45.827056132256985" lon="7.755132028833032">
        <ele>2081.3899999999999</ele>
        <time>2016-07-17T08:50:57Z</time>
      </trkpt>
      <trkpt lat="45.827067783102393" lon="7.755280304700136">
        <ele>2082.3499999999999</ele>
        <time>2016-07-17T08:51:08Z</time>
      </trkpt>
      <trkpt lat="45.827064597979188" lon="7.755321292206645">
        <ele>2081.8699999999999</ele>
        <time>2016-07-17T08:51:10Z</time>
      </trkpt>
      <trkpt lat="45.827066609635949" lon="7.755340738222003">
        <ele>2082.3499999999999</ele>
        <time>2016-07-17T08:51:11Z</time>
      </trkpt>
      <trkpt lat="45.827067364007235" lon="7.755358088761568">
        <ele>2082.3499999999999</ele>
        <time>2016-07-17T08:51:12Z</time>
      </trkpt>
      <trkpt lat="45.827071890234947" lon="7.755373008549213">
        <ele>2082.8299999999999</ele>
        <time>2016-07-17T08:51:13Z</time>
      </trkpt>
      <trkpt lat="45.827074069529772" lon="7.755388934165239">
        <ele>2082.8299999999999</ele>
        <time>2016-07-17T08:51:14Z</time>
      </trkpt>
      <trkpt lat="45.827072393149137" lon="7.755405697971582">
        <ele>2082.8299999999999</ele>
        <time>2016-07-17T08:51:15Z</time>
      </trkpt>
      <trkpt lat="45.827068956568837" lon="7.755419863387942">
        <ele>2082.8299999999999</ele>
        <time>2016-07-17T08:51:16Z</time>
      </trkpt>
      <trkpt lat="45.827068286016583" lon="7.755439560860395">
        <ele>2083.3099999999999</ele>
        <time>2016-07-17T08:51:17Z</time>
      </trkpt>
      <trkpt lat="45.827069208025932" lon="7.75545883923769">
        <ele>2083.3099999999999</ele>
        <time>2016-07-17T08:51:18Z</time>
      </trkpt>
      <trkpt lat="45.827070800587535" lon="7.75547836907208">
        <ele>2083.79</ele>
        <time>2016-07-17T08:51:19Z</time>
      </trkpt>
      <trkpt lat="45.827069459483027" lon="7.755500664934516">
        <ele>2083.3099999999999</ele>
        <time>2016-07-17T08:51:20Z</time>
      </trkpt>
      <trkpt lat="45.827070046216249" lon="7.755516590550542">
        <ele>2084.2800000000002</ele>
        <time>2016-07-17T08:51:21Z</time>
      </trkpt>
      <trkpt lat="45.827032662928104" lon="7.755768466740847">
        <ele>2082.8299999999999</ele>
        <time>2016-07-17T08:51:33Z</time>
      </trkpt>
      <trkpt lat="45.827011037617922" lon="7.756042471155524">
        <ele>2083.3099999999999</ele>
        <time>2016-07-17T08:51:47Z</time>
      </trkpt>
      <trkpt lat="45.827000979334116" lon="7.756256042048335">
        <ele>2084.2800000000002</ele>
        <time>2016-07-17T08:51:59Z</time>
      </trkpt>
      <trkpt lat="45.826973738148808" lon="7.756340112537146">
        <ele>2085.7199999999998</ele>
        <time>2016-07-17T08:52:06Z</time>
      </trkpt>
      <trkpt lat="45.826957728713751" lon="7.756360061466694">
        <ele>2085.7199999999998</ele>
        <time>2016-07-17T08:52:08Z</time>
      </trkpt>
      <trkpt lat="45.826908191666007" lon="7.756425943225622">
        <ele>2087.1599999999999</ele>
        <time>2016-07-17T08:52:17Z</time>
      </trkpt>
      <trkpt lat="45.826863264665008" lon="7.756583690643311">
        <ele>2089.0799999999999</ele>
        <time>2016-07-17T08:52:28Z</time>
      </trkpt>
      <trkpt lat="45.826866533607244" lon="7.756721321493387">
        <ele>2090.52</ele>
        <time>2016-07-17T08:52:38Z</time>
      </trkpt>
      <trkpt lat="45.82684968598187" lon="7.756839841604233">
        <ele>2091.9699999999998</ele>
        <time>2016-07-17T08:52:47Z</time>
      </trkpt>
      <trkpt lat="45.82686971873045" lon="7.756971521303058">
        <ele>2093.4099999999999</ele>
        <time>2016-07-17T08:52:57Z</time>
      </trkpt>
      <trkpt lat="45.826877597719431" lon="7.756980992853642">
        <ele>2093.4099999999999</ele>
        <time>2016-07-17T08:52:58Z</time>
      </trkpt>
      <trkpt lat="45.826896959915757" lon="7.757003121078014">
        <ele>2093.8899999999999</ele>
        <time>2016-07-17T08:53:01Z</time>
      </trkpt>
      <trkpt lat="45.826912131160498" lon="7.756998091936112">
        <ele>2094.3699999999999</ele>
        <time>2016-07-17T08:53:10Z</time>
      </trkpt>
      <trkpt lat="45.8269137237221" lon="7.756994655355811">
        <ele>2094.3699999999999</ele>
        <time>2016-07-17T08:53:32Z</time>
      </trkpt>
      <trkpt lat="45.826900145038962" lon="7.756986441090703">
        <ele>2093.8899999999999</ele>
        <time>2016-07-17T08:53:51Z</time>
      </trkpt>
      <trkpt lat="45.826919171959162" lon="7.757062297314405">
        <ele>2094.3699999999999</ele>
        <time>2016-07-17T08:53:56Z</time>
      </trkpt>
      <trkpt lat="45.826954543590546" lon="7.75715533643961">
        <ele>2094.8499999999999</ele>
        <time>2016-07-17T08:54:04Z</time>
      </trkpt>
      <trkpt lat="45.826988322660327" lon="7.757222056388855">
        <ele>2096.29</ele>
        <time>2016-07-17T08:54:13Z</time>
      </trkpt>
      <trkpt lat="45.826975163072348" lon="7.757306126877666">
        <ele>2096.29</ele>
        <time>2016-07-17T08:54:18Z</time>
      </trkpt>
      <trkpt lat="45.826973738148808" lon="7.757322220131755">
        <ele>2096.29</ele>
        <time>2016-07-17T08:54:19Z</time>
      </trkpt>
      <trkpt lat="45.826968541368842" lon="7.757337307557464">
        <ele>2096.77</ele>
        <time>2016-07-17T08:54:20Z</time>
      </trkpt>
      <trkpt lat="45.826963093131781" lon="7.757353065535426">
        <ele>2096.29</ele>
        <time>2016-07-17T08:54:21Z</time>
      </trkpt>
      <trkpt lat="45.826958399266005" lon="7.757370080798864">
        <ele>2096.29</ele>
        <time>2016-07-17T08:54:22Z</time>
      </trkpt>
      <trkpt lat="45.826957309618592" lon="7.757394388318062">
        <ele>2096.29</ele>
        <time>2016-07-17T08:54:24Z</time>
      </trkpt>
      <trkpt lat="45.826949765905738" lon="7.757489522919059">
        <ele>2098.21</ele>
        <time>2016-07-17T08:54:35Z</time>
      </trkpt>
      <trkpt lat="45.826959405094385" lon="7.757537718862295">
        <ele>2098.6999999999998</ele>
        <time>2016-07-17T08:54:51Z</time>
      </trkpt>
      <trkpt lat="45.826962254941463" lon="7.757557081058621">
        <ele>2099.1799999999998</ele>
        <time>2016-07-17T08:54:53Z</time>
      </trkpt>
      <trkpt lat="45.82696259021759" lon="7.757630171254277">
        <ele>2100.1399999999999</ele>
        <time>2016-07-17T08:54:59Z</time>
      </trkpt>
      <trkpt lat="45.826964015141129" lon="7.757645593956113">
        <ele>2100.1399999999999</ele>
        <time>2016-07-17T08:55:00Z</time>
      </trkpt>
      <trkpt lat="45.826950771734118" lon="7.757657999172807">
        <ele>2100.1399999999999</ele>
        <time>2016-07-17T08:55:08Z</time>
      </trkpt>
      <trkpt lat="45.826949346810579" lon="7.757656322792172">
        <ele>2100.6199999999999</ele>
        <time>2016-07-17T08:55:21Z</time>
      </trkpt>
      <trkpt lat="45.826937779784203" lon="7.757655819877982">
        <ele>2100.6199999999999</ele>
        <time>2016-07-17T08:55:43Z</time>
      </trkpt>
      <trkpt lat="45.826941635459661" lon="7.757694963365793">
        <ele>2101.0999999999999</ele>
        <time>2016-07-17T08:56:01Z</time>
      </trkpt>
      <trkpt lat="45.826943144202232" lon="7.757850950583816">
        <ele>2103.02</ele>
        <time>2016-07-17T08:56:11Z</time>
      </trkpt>
      <trkpt lat="45.826894529163837" lon="7.758032418787479">
        <ele>2104.9400000000001</ele>
        <time>2016-07-17T08:56:24Z</time>
      </trkpt>
      <trkpt lat="45.826868209987879" lon="7.758162589743733">
        <ele>2105.9099999999999</ele>
        <time>2016-07-17T08:56:34Z</time>
      </trkpt>
      <trkpt lat="45.826835269108415" lon="7.758341794833541">
        <ele>2107.3499999999999</ele>
        <time>2016-07-17T08:56:46Z</time>
      </trkpt>
      <trkpt lat="45.826815906912088" lon="7.758462578058243">
        <ele>2107.8299999999999</ele>
        <time>2016-07-17T08:56:55Z</time>
      </trkpt>
      <trkpt lat="45.826818086206913" lon="7.758630970492959">
        <ele>2109.75</ele>
        <time>2016-07-17T08:57:09Z</time>
      </trkpt>
      <trkpt lat="45.826835855841637" lon="7.75868914090097">
        <ele>2110.23</ele>
        <time>2016-07-17T08:57:15Z</time>
      </trkpt>
      <trkpt lat="45.826819678768516" lon="7.758746724575758">
        <ele>2111.1900000000001</ele>
        <time>2016-07-17T08:57:27Z</time>
      </trkpt>
      <trkpt lat="45.826826803386211" lon="7.758716382086277">
        <ele>2111.1900000000001</ele>
        <time>2016-07-17T08:57:33Z</time>
      </trkpt>
      <trkpt lat="45.826809788122773" lon="7.758560394868255">
        <ele>2109.75</ele>
        <time>2016-07-17T08:57:44Z</time>
      </trkpt>
      <trkpt lat="45.826793862506747" lon="7.758536254987121">
        <ele>2109.27</ele>
        <time>2016-07-17T08:57:55Z</time>
      </trkpt>
      <trkpt lat="45.826795287430286" lon="7.758531896397471">
        <ele>2109.27</ele>
        <time>2016-07-17T08:58:06Z</time>
      </trkpt>
      <trkpt lat="45.826811967417598" lon="7.758535081520677">
        <ele>2109.27</ele>
        <time>2016-07-17T08:58:20Z</time>
      </trkpt>
      <trkpt lat="45.826802998781204" lon="7.758553689345717">
        <ele>2109.27</ele>
        <time>2016-07-17T08:58:35Z</time>
      </trkpt>
      <trkpt lat="45.826812051236629" lon="7.758544636890292">
        <ele>2109.27</ele>
        <time>2016-07-17T08:58:55Z</time>
      </trkpt>
      <trkpt lat="45.826822696253657" lon="7.758605070412159">
        <ele>2109.75</ele>
        <time>2016-07-17T08:58:59Z</time>
      </trkpt>
      <trkpt lat="45.826822025701404" lon="7.758619487285614">
        <ele>2109.75</ele>
        <time>2016-07-17T08:59:00Z</time>
      </trkpt>
      <trkpt lat="45.82682135514915" lon="7.758636418730021">
        <ele>2109.75</ele>
        <time>2016-07-17T08:59:01Z</time>
      </trkpt>
      <trkpt lat="45.826838705688715" lon="7.758808499202132">
        <ele>2112.1500000000001</ele>
        <time>2016-07-17T08:59:13Z</time>
      </trkpt>
      <trkpt lat="45.826830826699734" lon="7.758951662108302">
        <ele>2112.1500000000001</ele>
        <time>2016-07-17T08:59:21Z</time>
      </trkpt>
      <trkpt lat="45.826837532222271" lon="7.759098429232836">
        <ele>2112.6300000000001</ele>
        <time>2016-07-17T08:59:29Z</time>
      </trkpt>
      <trkpt lat="45.826835939660668" lon="7.759115612134337">
        <ele>2113.1199999999999</ele>
        <time>2016-07-17T08:59:30Z</time>
      </trkpt>
      <trkpt lat="45.826835688203573" lon="7.759135896340013">
        <ele>2113.1199999999999</ele>
        <time>2016-07-17T08:59:31Z</time>
      </trkpt>
      <trkpt lat="45.826837029308081" lon="7.759152492508292">
        <ele>2113.1199999999999</ele>
        <time>2016-07-17T08:59:32Z</time>
      </trkpt>
      <trkpt lat="45.826838370412588" lon="7.759170345962048">
        <ele>2113.1199999999999</ele>
        <time>2016-07-17T08:59:33Z</time>
      </trkpt>
      <trkpt lat="45.826812637969851" lon="7.759347958490253">
        <ele>2115.04</ele>
        <time>2016-07-17T08:59:44Z</time>
      </trkpt>
      <trkpt lat="45.826787576079369" lon="7.759446362033486">
        <ele>2116</ele>
        <time>2016-07-17T08:59:50Z</time>
      </trkpt>
      <trkpt lat="45.826768213883042" lon="7.759558092802763">
        <ele>2116.96</ele>
        <time>2016-07-17T08:59:58Z</time>
      </trkpt>
      <trkpt lat="45.826780451461673" lon="7.759562702849507">
        <ele>2116.96</ele>
        <time>2016-07-17T08:59:59Z</time>
      </trkpt>
      <trkpt lat="45.826789336279035" lon="7.759612826630473">
        <ele>2117.9200000000001</ele>
        <time>2016-07-17T09:00:03Z</time>
      </trkpt>
      <trkpt lat="45.826786486431956" lon="7.759626908227801">
        <ele>2117.9200000000001</ele>
        <time>2016-07-17T09:00:04Z</time>
      </trkpt>
      <trkpt lat="45.826782211661339" lon="7.75968792848289">
        <ele>2118.8800000000001</ele>
        <time>2016-07-17T09:00:09Z</time>
      </trkpt>
      <trkpt lat="45.826779445633292" lon="7.759705949574709">
        <ele>2119.3600000000001</ele>
        <time>2016-07-17T09:00:10Z</time>
      </trkpt>
      <trkpt lat="45.826786402612925" lon="7.759777782484889">
        <ele>2120.3200000000002</ele>
        <time>2016-07-17T09:00:17Z</time>
      </trkpt>
      <trkpt lat="45.826787073165178" lon="7.759881634265184">
        <ele>2121.29</ele>
        <time>2016-07-17T09:00:26Z</time>
      </trkpt>
      <trkpt lat="45.826787073165178" lon="7.75998841971159">
        <ele>2123.21</ele>
        <time>2016-07-17T09:00:36Z</time>
      </trkpt>
      <trkpt lat="45.826799562200904" lon="7.760098055005074">
        <ele>2125.6100000000001</ele>
        <time>2016-07-17T09:00:48Z</time>
      </trkpt>
      <trkpt lat="45.826767878606915" lon="7.76017164811492">
        <ele>2127.0500000000002</ele>
        <time>2016-07-17T09:00:57Z</time>
      </trkpt>
      <trkpt lat="45.826747342944145" lon="7.760255467146635">
        <ele>2128.98</ele>
        <time>2016-07-17T09:01:07Z</time>
      </trkpt>
      <trkpt lat="45.826743319630623" lon="7.760320594534278">
        <ele>2130.4200000000001</ele>
        <time>2016-07-17T09:01:17Z</time>
      </trkpt>
      <trkpt lat="45.826739128679037" lon="7.760365437716246">
        <ele>2131.8600000000001</ele>
        <time>2016-07-17T09:01:28Z</time>
      </trkpt>
      <trkpt lat="45.826752707362175" lon="7.760428888723254">
        <ele>2133.3000000000002</ele>
        <time>2016-07-17T09:01:37Z</time>
      </trkpt>
      <trkpt lat="45.826754886657" lon="7.760504996404052">
        <ele>2135.71</ele>
        <time>2016-07-17T09:01:45Z</time>
      </trkpt>
      <trkpt lat="45.826745750382543" lon="7.760599795728922">
        <ele>2137.1500000000001</ele>
        <time>2016-07-17T09:01:56Z</time>
      </trkpt>
      <trkpt lat="45.826711803674698" lon="7.760722087696195">
        <ele>2139.5500000000002</ele>
        <time>2016-07-17T09:02:07Z</time>
      </trkpt>
      <trkpt lat="45.826678946614265" lon="7.760803727433085">
        <ele>2140.9899999999998</ele>
        <time>2016-07-17T09:02:16Z</time>
      </trkpt>
      <trkpt lat="45.826680874451995" lon="7.760893078520894">
        <ele>2142.4400000000001</ele>
        <time>2016-07-17T09:02:25Z</time>
      </trkpt>
      <trkpt lat="45.826640473678708" lon="7.760959547013044">
        <ele>2143.4000000000001</ele>
        <time>2016-07-17T09:02:36Z</time>
      </trkpt>
      <trkpt lat="45.826627062633634" lon="7.761031715199351">
        <ele>2144.8400000000001</ele>
        <time>2016-07-17T09:02:45Z</time>
      </trkpt>
      <trkpt lat="45.826590601354837" lon="7.761076893657446">
        <ele>2145.8000000000002</ele>
        <time>2016-07-17T09:02:58Z</time>
      </trkpt>
      <trkpt lat="45.826560342684388" lon="7.761141518130899">
        <ele>2147.7199999999998</ele>
        <time>2016-07-17T09:03:07Z</time>
      </trkpt>
      <trkpt lat="45.826496137306094" lon="7.761234305799007">
        <ele>2149.6500000000001</ele>
        <time>2016-07-17T09:03:19Z</time>
      </trkpt>
      <trkpt lat="45.826437044888735" lon="7.761250399053097">
        <ele>2150.1300000000001</ele>
        <time>2016-07-17T09:03:24Z</time>
      </trkpt>
      <trkpt lat="45.82635473459959" lon="7.76136539876461">
        <ele>2151.5700000000002</ele>
        <time>2016-07-17T09:03:34Z</time>
      </trkpt>
      <trkpt lat="45.826281644403934" lon="7.761440668255091">
        <ele>2153.9699999999998</ele>
        <time>2016-07-17T09:03:45Z</time>
      </trkpt>
      <trkpt lat="45.826263539493084" lon="7.761574191972613">
        <ele>2155.8899999999999</ele>
        <time>2016-07-17T09:03:56Z</time>
      </trkpt>
      <trkpt lat="45.826203189790249" lon="7.76167712174356">
        <ele>2157.8200000000002</ele>
        <time>2016-07-17T09:04:07Z</time>
      </trkpt>
      <trkpt lat="45.826152060180902" lon="7.761731017380953">
        <ele>2160.2199999999998</ele>
        <time>2016-07-17T09:04:17Z</time>
      </trkpt>
      <trkpt lat="45.826131692156196" lon="7.761777536943555">
        <ele>2160.6999999999998</ele>
        <time>2016-07-17T09:04:22Z</time>
      </trkpt>
      <trkpt lat="45.826092129573226" lon="7.761821122840047">
        <ele>2163.0999999999999</ele>
        <time>2016-07-17T09:04:31Z</time>
      </trkpt>
      <trkpt lat="45.826092213392258" lon="7.761893291026354">
        <ele>2164.0599999999999</ele>
        <time>2016-07-17T09:04:41Z</time>
      </trkpt>
      <trkpt lat="45.826091039925814" lon="7.761915000155568">
        <ele>2163.0999999999999</ele>
        <time>2016-07-17T09:04:43Z</time>
      </trkpt>
      <trkpt lat="45.826031193137169" lon="7.761939978227019">
        <ele>2164.0599999999999</ele>
        <time>2016-07-17T09:04:51Z</time>
      </trkpt>
      <trkpt lat="45.825914349406958" lon="7.761869318783283">
        <ele>2164.5500000000002</ele>
        <time>2016-07-17T09:05:00Z</time>
      </trkpt>
      <trkpt lat="45.82584067247808" lon="7.761813495308161">
        <ele>2165.5100000000002</ele>
        <time>2016-07-17T09:05:07Z</time>
      </trkpt>
      <trkpt lat="45.825828602537513" lon="7.761809974908829">
        <ele>2165.5100000000002</ele>
        <time>2016-07-17T09:05:08Z</time>
      </trkpt>
      <trkpt lat="45.825773198157549" lon="7.761815339326859">
        <ele>2166.4699999999998</ele>
        <time>2016-07-17T09:05:13Z</time>
      </trkpt>
      <trkpt lat="45.825676890090108" lon="7.761875353753567">
        <ele>2167.4299999999998</ele>
        <time>2016-07-17T09:05:23Z</time>
      </trkpt>
      <trkpt lat="45.825579492375255" lon="7.761951461434364">
        <ele>2168.3899999999999</ele>
        <time>2016-07-17T09:05:32Z</time>
      </trkpt>
      <trkpt lat="45.825451668351889" lon="7.762012565508485">
        <ele>2169.3499999999999</ele>
        <time>2016-07-17T09:05:42Z</time>
      </trkpt>
      <trkpt lat="45.825417805463076" lon="7.762084901332855">
        <ele>2169.8299999999999</ele>
        <time>2016-07-17T09:05:48Z</time>
      </trkpt>
      <trkpt lat="45.825424762442708" lon="7.762175425887108">
        <ele>2171.27</ele>
        <time>2016-07-17T09:05:55Z</time>
      </trkpt>
      <trkpt lat="45.8254199847579" lon="7.762191100046039">
        <ele>2171.27</ele>
        <time>2016-07-17T09:05:56Z</time>
      </trkpt>
      <trkpt lat="45.825414452701807" lon="7.762208953499794">
        <ele>2171.7600000000002</ele>
        <time>2016-07-17T09:05:57Z</time>
      </trkpt>
      <trkpt lat="45.82541017793119" lon="7.762228567153215">
        <ele>2171.7600000000002</ele>
        <time>2016-07-17T09:05:58Z</time>
      </trkpt>
      <trkpt lat="45.825405567884445" lon="7.762243570759893">
        <ele>2171.7600000000002</ele>
        <time>2016-07-17T09:05:59Z</time>
      </trkpt>
      <trkpt lat="45.825401963666081" lon="7.762258155271411">
        <ele>2171.7600000000002</ele>
        <time>2016-07-17T09:06:00Z</time>
      </trkpt>
      <trkpt lat="45.825397437438369" lon="7.762274835258722">
        <ele>2171.7600000000002</ele>
        <time>2016-07-17T09:06:01Z</time>
      </trkpt>
      <trkpt lat="45.825384026393294" lon="7.762349601835012">
        <ele>2172.2399999999998</ele>
        <time>2016-07-17T09:06:06Z</time>
      </trkpt>
      <trkpt lat="45.825379500165582" lon="7.762363934889436">
        <ele>2172.2399999999998</ele>
        <time>2016-07-17T09:06:07Z</time>
      </trkpt>
      <trkpt lat="45.825373129919171" lon="7.762382291257381">
        <ele>2172.2399999999998</ele>
        <time>2016-07-17T09:06:08Z</time>
      </trkpt>
      <trkpt lat="45.825368771329522" lon="7.762400815263391">
        <ele>2172.7199999999998</ele>
        <time>2016-07-17T09:06:09Z</time>
      </trkpt>
      <trkpt lat="45.825367765501142" lon="7.762416321784258">
        <ele>2172.7199999999998</ele>
        <time>2016-07-17T09:06:10Z</time>
      </trkpt>
      <trkpt lat="45.825366424396634" lon="7.76242914609611">
        <ele>2172.7199999999998</ele>
        <time>2016-07-17T09:06:11Z</time>
      </trkpt>
      <trkpt lat="45.825365418568254" lon="7.762487065047026">
        <ele>2173.1999999999998</ele>
        <time>2016-07-17T09:06:17Z</time>
      </trkpt>
      <trkpt lat="45.825324850156903" lon="7.76258697733283">
        <ele>2174.6399999999999</ele>
        <time>2016-07-17T09:06:24Z</time>
      </trkpt>
      <trkpt lat="45.82531345076859" lon="7.762602902948856">
        <ele>2174.6399999999999</ele>
        <time>2016-07-17T09:06:25Z</time>
      </trkpt>
      <trkpt lat="45.82530515268445" lon="7.762617152184248">
        <ele>2174.1599999999999</ele>
        <time>2016-07-17T09:06:26Z</time>
      </trkpt>
      <trkpt lat="45.825300123542547" lon="7.762632155790925">
        <ele>2174.1599999999999</ele>
        <time>2016-07-17T09:06:27Z</time>
      </trkpt>
      <trkpt lat="45.825273133814335" lon="7.762752436101437">
        <ele>2176.0799999999999</ele>
        <time>2016-07-17T09:06:38Z</time>
      </trkpt>
      <trkpt lat="45.825287299230695" lon="7.762828711420298">
        <ele>2178</ele>
        <time>2016-07-17T09:06:48Z</time>
      </trkpt>
      <trkpt lat="45.825275480747223" lon="7.762936167418957">
        <ele>2179.9299999999998</ele>
        <time>2016-07-17T09:06:59Z</time>
      </trkpt>
      <trkpt lat="45.825244383886456" lon="7.763051083311439">
        <ele>2181.3699999999999</ele>
        <time>2016-07-17T09:07:09Z</time>
      </trkpt>
      <trkpt lat="45.825227368623018" lon="7.763142110779882">
        <ele>2183.77</ele>
        <time>2016-07-17T09:07:19Z</time>
      </trkpt>
      <trkpt lat="45.825210520997643" lon="7.763221068307757">
        <ele>2185.21</ele>
        <time>2016-07-17T09:07:29Z</time>
      </trkpt>
      <trkpt lat="45.825213538482785" lon="7.763349143788219">
        <ele>2186.1799999999998</ele>
        <time>2016-07-17T09:07:39Z</time>
      </trkpt>
      <trkpt lat="45.825228206813335" lon="7.763363728299737">
        <ele>2186.6599999999999</ele>
        <time>2016-07-17T09:07:42Z</time>
      </trkpt>
      <trkpt lat="45.825215550139546" lon="7.763434387743473">
        <ele>2188.5799999999999</ele>
        <time>2016-07-17T09:07:52Z</time>
      </trkpt>
      <trkpt lat="45.825213957577944" lon="7.763509741052985">
        <ele>2190.5</ele>
        <time>2016-07-17T09:08:01Z</time>
      </trkpt>
      <trkpt lat="45.825224937871099" lon="7.763585262000561">
        <ele>2192.4200000000001</ele>
        <time>2016-07-17T09:08:10Z</time>
      </trkpt>
      <trkpt lat="45.825185878202319" lon="7.763594649732113">
        <ele>2192.9000000000001</ele>
        <time>2016-07-17T09:08:20Z</time>
      </trkpt>
      <trkpt lat="45.825147991999984" lon="7.763602025806904">
        <ele>2193.8699999999999</ele>
        <time>2016-07-17T09:08:29Z</time>
      </trkpt>
      <trkpt lat="45.825113374739885" lon="7.763646952807903">
        <ele>2194.8299999999999</ele>
        <time>2016-07-17T09:08:41Z</time>
      </trkpt>
      <trkpt lat="45.825095856562257" lon="7.763693472370505">
        <ele>2196.75</ele>
        <time>2016-07-17T09:08:49Z</time>
      </trkpt>
      <trkpt lat="45.825059060007334" lon="7.763786930590868">
        <ele>2198.6700000000001</ele>
        <time>2016-07-17T09:09:00Z</time>
      </trkpt>
      <trkpt lat="45.825027795508504" lon="7.763871168717742">
        <ele>2201.0799999999999</ele>
        <time>2016-07-17T09:09:11Z</time>
      </trkpt>
      <trkpt lat="45.82503785379231" lon="7.763944258913398">
        <ele>2203.48</ele>
        <time>2016-07-17T09:09:22Z</time>
      </trkpt>
      <trkpt lat="45.825034836307168" lon="7.7640166785568">
        <ele>2204.9200000000001</ele>
        <time>2016-07-17T09:09:31Z</time>
      </trkpt>
      <trkpt lat="45.825033579021692" lon="7.764092618599534">
        <ele>2207.3200000000002</ele>
        <time>2016-07-17T09:09:42Z</time>
      </trkpt>
      <trkpt lat="45.825033411383629" lon="7.764142993837595">
        <ele>2209.25</ele>
        <time>2016-07-17T09:09:51Z</time>
      </trkpt>
      <trkpt lat="45.825042463839054" lon="7.764141065999866">
        <ele>2210.6900000000001</ele>
        <time>2016-07-17T09:09:59Z</time>
      </trkpt>
      <trkpt lat="45.825084540992975" lon="7.764116590842605">
        <ele>2212.1300000000001</ele>
        <time>2016-07-17T09:10:08Z</time>
      </trkpt>
      <trkpt lat="45.825074063614011" lon="7.764210719615221">
        <ele>2214.5300000000002</ele>
        <time>2016-07-17T09:10:18Z</time>
      </trkpt>
      <trkpt lat="45.825043553486466" lon="7.764264447614551">
        <ele>2215.98</ele>
        <time>2016-07-17T09:10:26Z</time>
      </trkpt>
      <trkpt lat="45.82503592595458" lon="7.764286072924733">
        <ele>2215.98</ele>
        <time>2016-07-17T09:10:28Z</time>
      </trkpt>
      <trkpt lat="45.825021509081125" lon="7.764350613579154">
        <ele>2217.9000000000001</ele>
        <time>2016-07-17T09:10:37Z</time>
      </trkpt>
      <trkpt lat="45.824980521574616" lon="7.764423619955778">
        <ele>2220.3000000000002</ele>
        <time>2016-07-17T09:10:50Z</time>
      </trkpt>
      <trkpt lat="45.824907850474119" lon="7.764434181153774">
        <ele>2222.2199999999998</ele>
        <time>2016-07-17T09:11:01Z</time>
      </trkpt>
      <trkpt lat="45.824859067797661" lon="7.764401407912374">
        <ele>2224.1500000000001</ele>
        <time>2016-07-17T09:11:12Z</time>
      </trkpt>
      <trkpt lat="45.824803244322538" lon="7.764342231675983">
        <ele>2226.5500000000002</ele>
        <time>2016-07-17T09:11:23Z</time>
      </trkpt>
      <trkpt lat="45.824773237109184" lon="7.764340722933412">
        <ele>2227.0300000000002</ele>
        <time>2016-07-17T09:11:34Z</time>
      </trkpt>
      <trkpt lat="45.824783127754927" lon="7.764429235830903">
        <ele>2228.4699999999998</ele>
        <time>2016-07-17T09:11:44Z</time>
      </trkpt>
      <trkpt lat="45.824812967330217" lon="7.764540463685989">
        <ele>2230.8800000000001</ele>
        <time>2016-07-17T09:11:57Z</time>
      </trkpt>
      <trkpt lat="45.824823025614023" lon="7.764612464234233">
        <ele>2232.8000000000002</ele>
        <time>2016-07-17T09:12:07Z</time>
      </trkpt>
      <trkpt lat="45.824807686731219" lon="7.764688907191157">
        <ele>2234.7199999999998</ele>
        <time>2016-07-17T09:12:18Z</time>
      </trkpt>
      <trkpt lat="45.824815314263105" lon="7.764754202216864">
        <ele>2236.1599999999999</ele>
        <time>2016-07-17T09:12:29Z</time>
      </trkpt>
      <trkpt lat="45.82479989156127" lon="7.764801057055593">
        <ele>2237.6100000000001</ele>
        <time>2016-07-17T09:12:38Z</time>
      </trkpt>
      <trkpt lat="45.824840208515525" lon="7.764808349311352">
        <ele>2239.0500000000002</ele>
        <time>2016-07-17T09:12:48Z</time>
      </trkpt>
      <trkpt lat="45.824842471629381" lon="7.764853611588478">
        <ele>2240.0100000000002</ele>
        <time>2016-07-17T09:12:56Z</time>
      </trkpt>
      <trkpt lat="45.824824031442404" lon="7.764960480853915">
        <ele>2242.4099999999999</ele>
        <time>2016-07-17T09:13:07Z</time>
      </trkpt>
      <trkpt lat="45.824782205745578" lon="7.765076737850905">
        <ele>2243.8499999999999</ele>
        <time>2016-07-17T09:13:17Z</time>
      </trkpt>
      <trkpt lat="45.824773740023375" lon="7.765199448913336">
        <ele>2244.8200000000002</ele>
        <time>2016-07-17T09:13:26Z</time>
      </trkpt>
      <trkpt lat="45.82477105781436" lon="7.765324087813497">
        <ele>2246.7399999999998</ele>
        <time>2016-07-17T09:13:37Z</time>
      </trkpt>
      <trkpt lat="45.824756724759936" lon="7.765433890745044">
        <ele>2248.6599999999999</ele>
        <time>2016-07-17T09:13:48Z</time>
      </trkpt>
      <trkpt lat="45.824756305664778" lon="7.765514273196459">
        <ele>2250.5799999999999</ele>
        <time>2016-07-17T09:13:57Z</time>
      </trkpt>
      <trkpt lat="45.824733758345246" lon="7.765629692003131">
        <ele>2252.0300000000002</ele>
        <time>2016-07-17T09:14:08Z</time>
      </trkpt>
      <trkpt lat="45.824738368391991" lon="7.765735723078251">
        <ele>2252.9899999999998</ele>
        <time>2016-07-17T09:14:19Z</time>
      </trkpt>
      <trkpt lat="45.824748259037733" lon="7.765781572088599">
        <ele>2252.9899999999998</ele>
        <time>2016-07-17T09:14:32Z</time>
      </trkpt>
      <trkpt lat="45.824754042550921" lon="7.765796575695276">
        <ele>2254.4299999999998</ele>
        <time>2016-07-17T09:14:41Z</time>
      </trkpt>
      <trkpt lat="45.82475446164608" lon="7.765787774696946">
        <ele>2254.4299999999998</ele>
        <time>2016-07-17T09:14:56Z</time>
      </trkpt>
      <trkpt lat="45.824761250987649" lon="7.765796240419149">
        <ele>2254.4299999999998</ele>
        <time>2016-07-17T09:15:09Z</time>
      </trkpt>
      <trkpt lat="45.824756473302841" lon="7.765862792730331">
        <ele>2254.4299999999998</ele>
        <time>2016-07-17T09:15:14Z</time>
      </trkpt>
      <trkpt lat="45.824758401140571" lon="7.765859356150031">
        <ele>2254.4299999999998</ele>
        <time>2016-07-17T09:15:24Z</time>
      </trkpt>
      <trkpt lat="45.824755886569619" lon="7.765878969803453">
        <ele>2254.9099999999999</ele>
        <time>2016-07-17T09:15:42Z</time>
      </trkpt>
      <trkpt lat="45.824740631505847" lon="7.765864469110966">
        <ele>2254.9099999999999</ele>
        <time>2016-07-17T09:15:53Z</time>
      </trkpt>
      <trkpt lat="45.824748761951923" lon="7.765861200168729">
        <ele>2254.9099999999999</ele>
        <time>2016-07-17T09:16:07Z</time>
      </trkpt>
      <trkpt lat="45.82475395873189" lon="7.765864888206124">
        <ele>2254.9099999999999</ele>
        <time>2016-07-17T09:16:15Z</time>
      </trkpt>
      <trkpt lat="45.824753288179636" lon="7.765872599557042">
        <ele>2255.3899999999999</ele>
        <time>2016-07-17T09:16:25Z</time>
      </trkpt>
      <trkpt lat="45.82475739531219" lon="7.765864636749029">
        <ele>2255.3899999999999</ele>
        <time>2016-07-17T09:16:39Z</time>
      </trkpt>
      <trkpt lat="45.824765441939235" lon="7.765881232917309">
        <ele>2255.8699999999999</ele>
        <time>2016-07-17T09:16:49Z</time>
      </trkpt>
      <trkpt lat="45.824775584042072" lon="7.765918029472232">
        <ele>2255.8699999999999</ele>
        <time>2016-07-17T09:17:02Z</time>
      </trkpt>
      <trkpt lat="45.824752869084477" lon="7.765910737216473">
        <ele>2255.8699999999999</ele>
        <time>2016-07-17T09:17:16Z</time>
      </trkpt>
      <trkpt lat="45.824746247380972" lon="7.765902103856206">
        <ele>2255.3899999999999</ele>
        <time>2016-07-17T09:17:24Z</time>
      </trkpt>
      <trkpt lat="45.824775416404009" lon="7.765904283151031">
        <ele>2255.3899999999999</ele>
        <time>2016-07-17T09:17:35Z</time>
      </trkpt>
      <trkpt lat="45.824764100834727" lon="7.765925489366055">
        <ele>2255.8699999999999</ele>
        <time>2016-07-17T09:17:43Z</time>
      </trkpt>
      <trkpt lat="45.824764017015696" lon="7.765943594276905">
        <ele>2255.8699999999999</ele>
        <time>2016-07-17T09:17:55Z</time>
      </trkpt>
      <trkpt lat="45.82478036172688" lon="7.765946360304952">
        <ele>2256.3499999999999</ele>
        <time>2016-07-17T09:18:06Z</time>
      </trkpt>
      <trkpt lat="45.824775584042072" lon="7.765927584841847">
        <ele>2256.3499999999999</ele>
        <time>2016-07-17T09:18:25Z</time>
      </trkpt>
      <trkpt lat="45.824764939025044" lon="7.765953401103616">
        <ele>2256.3499999999999</ele>
        <time>2016-07-17T09:18:40Z</time>
      </trkpt>
      <trkpt lat="45.824774829670787" lon="7.76597267948091">
        <ele>2256.8299999999999</ele>
        <time>2016-07-17T09:18:53Z</time>
      </trkpt>
      <trkpt lat="45.824770387262106" lon="7.765985084697604">
        <ele>2256.3499999999999</ele>
        <time>2016-07-17T09:19:14Z</time>
      </trkpt>
      <trkpt lat="45.824764939025044" lon="7.766047362238169">
        <ele>2256.8299999999999</ele>
        <time>2016-07-17T09:19:24Z</time>
      </trkpt>
      <trkpt lat="45.824763430282474" lon="7.766062449663878">
        <ele>2256.8299999999999</ele>
        <time>2016-07-17T09:19:25Z</time>
      </trkpt>
      <trkpt lat="45.824761418625712" lon="7.766137467697263">
        <ele>2257.79</ele>
        <time>2016-07-17T09:19:34Z</time>
      </trkpt>
      <trkpt lat="45.824758065864444" lon="7.766239559277892">
        <ele>2259.2399999999998</ele>
        <time>2016-07-17T09:19:44Z</time>
      </trkpt>
      <trkpt lat="45.824749851599336" lon="7.766321450471878">
        <ele>2259.7199999999998</ele>
        <time>2016-07-17T09:19:54Z</time>
      </trkpt>
      <trkpt lat="45.824699811637402" lon="7.766438210383058">
        <ele>2261.1599999999999</ele>
        <time>2016-07-17T09:20:06Z</time>
      </trkpt>
      <trkpt lat="45.824669888243079" lon="7.766538290306926">
        <ele>2262.1199999999999</ele>
        <time>2016-07-17T09:20:17Z</time>
      </trkpt>
      <trkpt lat="45.824639713391662" lon="7.766665443778038">
        <ele>2263.5599999999999</ele>
        <time>2016-07-17T09:20:29Z</time>
      </trkpt>
      <trkpt lat="45.824623955413699" lon="7.766762841492891">
        <ele>2265</ele>
        <time>2016-07-17T09:20:38Z</time>
      </trkpt>
      <trkpt lat="45.824619848281145" lon="7.766786394640803">
        <ele>2265</ele>
        <time>2016-07-17T09:20:40Z</time>
      </trkpt>
      <trkpt lat="45.824558073654771" lon="7.766874153167009">
        <ele>2265.96</ele>
        <time>2016-07-17T09:20:51Z</time>
      </trkpt>
      <trkpt lat="45.824546506628394" lon="7.766910027712584">
        <ele>2266.4499999999998</ele>
        <time>2016-07-17T09:20:54Z</time>
      </trkpt>
      <trkpt lat="45.824517337605357" lon="7.76704128831625">
        <ele>2267.8899999999999</ele>
        <time>2016-07-17T09:21:05Z</time>
      </trkpt>
      <trkpt lat="45.824495293200016" lon="7.767118904739618">
        <ele>2269.3299999999999</ele>
        <time>2016-07-17T09:21:16Z</time>
      </trkpt>
      <trkpt lat="45.824472242966294" lon="7.767215799540281">
        <ele>2270.77</ele>
        <time>2016-07-17T09:21:25Z</time>
      </trkpt>
      <trkpt lat="45.824445085600019" lon="7.767329541966319">
        <ele>2272.21</ele>
        <time>2016-07-17T09:21:36Z</time>
      </trkpt>
      <trkpt lat="45.824428489431739" lon="7.767415037378669">
        <ele>2273.6599999999999</ele>
        <time>2016-07-17T09:21:47Z</time>
      </trkpt>
      <trkpt lat="45.824405271559954" lon="7.767471615225077">
        <ele>2275.5799999999999</ele>
        <time>2016-07-17T09:21:54Z</time>
      </trkpt>
      <trkpt lat="45.824340060353279" lon="7.767545627430081">
        <ele>2276.0599999999999</ele>
        <time>2016-07-17T09:22:05Z</time>
      </trkpt>
      <trkpt lat="45.824305107817054" lon="7.767585860565305">
        <ele>2277.02</ele>
        <time>2016-07-17T09:22:11Z</time>
      </trkpt>
      <trkpt lat="45.82424433901906" lon="7.767647299915552">
        <ele>2278.46</ele>
        <time>2016-07-17T09:22:21Z</time>
      </trkpt>
      <trkpt lat="45.824182229116559" lon="7.767689460888505">
        <ele>2279.9000000000001</ele>
        <time>2016-07-17T09:22:32Z</time>
      </trkpt>
      <trkpt lat="45.824142917990685" lon="7.76773514226079">
        <ele>2281.3499999999999</ele>
        <time>2016-07-17T09:22:42Z</time>
      </trkpt>
      <trkpt lat="45.824085753411055" lon="7.76778057217598">
        <ele>2282.3099999999999</ele>
        <time>2016-07-17T09:22:49Z</time>
      </trkpt>
      <trkpt lat="45.824055075645447" lon="7.767838574945927">
        <ele>2282.3099999999999</ele>
        <time>2016-07-17T09:23:00Z</time>
      </trkpt>
      <trkpt lat="45.824024900794029" lon="7.767897583544254">
        <ele>2282.79</ele>
        <time>2016-07-17T09:23:05Z</time>
      </trkpt>
      <trkpt lat="45.823985505849123" lon="7.767958268523216">
        <ele>2283.27</ele>
        <time>2016-07-17T09:23:11Z</time>
      </trkpt>
      <trkpt lat="45.823979219421744" lon="7.767971092835069">
        <ele>2283.27</ele>
        <time>2016-07-17T09:23:12Z</time>
      </trkpt>
      <trkpt lat="45.823914762586355" lon="7.768085254356265">
        <ele>2283.75</ele>
        <time>2016-07-17T09:23:22Z</time>
      </trkpt>
      <trkpt lat="45.823894897475839" lon="7.768206456676126">
        <ele>2285.1900000000001</ele>
        <time>2016-07-17T09:23:32Z</time>
      </trkpt>
      <trkpt lat="45.823852987959981" lon="7.768381470814347">
        <ele>2285.1900000000001</ele>
        <time>2016-07-17T09:23:44Z</time>
      </trkpt>
      <trkpt lat="45.823837649077177" lon="7.76844366453588">
        <ele>2286.1500000000001</ele>
        <time>2016-07-17T09:23:54Z</time>
      </trkpt>
      <trkpt lat="45.823803870007396" lon="7.768595544621348">
        <ele>2285.6700000000001</ele>
        <time>2016-07-17T09:24:04Z</time>
      </trkpt>
      <trkpt lat="45.823799762874842" lon="7.768611805513501">
        <ele>2285.6700000000001</ele>
        <time>2016-07-17T09:24:05Z</time>
      </trkpt>
      <trkpt lat="45.82380311563611" lon="7.768718423321843">
        <ele>2286.1500000000001</ele>
        <time>2016-07-17T09:24:14Z</time>
      </trkpt>
      <trkpt lat="45.823807641863823" lon="7.768732588738203">
        <ele>2286.6300000000001</ele>
        <time>2016-07-17T09:24:15Z</time>
      </trkpt>
      <trkpt lat="45.82380018197" lon="7.768786735832691">
        <ele>2286.6300000000001</ele>
        <time>2016-07-17T09:24:19Z</time>
      </trkpt>
      <trkpt lat="45.823794063180685" lon="7.768807439133525">
        <ele>2286.6300000000001</ele>
        <time>2016-07-17T09:24:20Z</time>
      </trkpt>
      <trkpt lat="45.823762463405728" lon="7.768942639231682">
        <ele>2286.6300000000001</ele>
        <time>2016-07-17T09:24:29Z</time>
      </trkpt>
      <trkpt lat="45.8237224817276" lon="7.76911748573184">
        <ele>2287.5900000000001</ele>
        <time>2016-07-17T09:24:41Z</time>
      </trkpt>
      <trkpt lat="45.823705215007067" lon="7.769248662516475">
        <ele>2288.5599999999999</ele>
        <time>2016-07-17T09:24:51Z</time>
      </trkpt>
      <trkpt lat="45.823674537241459" lon="7.769391071051359">
        <ele>2290.48</ele>
        <time>2016-07-17T09:25:03Z</time>
      </trkpt>
      <trkpt lat="45.823613097891212" lon="7.769568180665374">
        <ele>2289.04</ele>
        <time>2016-07-17T09:25:14Z</time>
      </trkpt>
      <trkpt lat="45.823560040444136" lon="7.769719306379557">
        <ele>2289.04</ele>
        <time>2016-07-17T09:25:26Z</time>
      </trkpt>
      <trkpt lat="45.823494074866176" lon="7.76986800134182">
        <ele>2289.04</ele>
        <time>2016-07-17T09:25:37Z</time>
      </trkpt>
      <trkpt lat="45.823436239734292" lon="7.770011834800243">
        <ele>2289.52</ele>
        <time>2016-07-17T09:25:47Z</time>
      </trkpt>
      <trkpt lat="45.823387959972024" lon="7.770173437893391">
        <ele>2289.52</ele>
        <time>2016-07-17T09:25:58Z</time>
      </trkpt>
      <trkpt lat="45.823378656059504" lon="7.770195314660668">
        <ele>2290</ele>
        <time>2016-07-17T09:26:00Z</time>
      </trkpt>
      <trkpt lat="45.82337211817503" lon="7.770209731534123">
        <ele>2289.52</ele>
        <time>2016-07-17T09:26:01Z</time>
      </trkpt>
      <trkpt lat="45.823342278599739" lon="7.77031903155148">
        <ele>2290.48</ele>
        <time>2016-07-17T09:26:12Z</time>
      </trkpt>
      <trkpt lat="45.823332974687219" lon="7.770368149504066">
        <ele>2291.4400000000001</ele>
        <time>2016-07-17T09:26:17Z</time>
      </trkpt>
      <trkpt lat="45.823322916403413" lon="7.770376447588205">
        <ele>2290.96</ele>
        <time>2016-07-17T09:26:18Z</time>
      </trkpt>
      <trkpt lat="45.823314199224114" lon="7.770385332405567">
        <ele>2290.96</ele>
        <time>2016-07-17T09:26:19Z</time>
      </trkpt>
      <trkpt lat="45.823203390464187" lon="7.770512402057648">
        <ele>2290.48</ele>
        <time>2016-07-17T09:26:31Z</time>
      </trkpt>
      <trkpt lat="45.823184866458178" lon="7.770526232197881">
        <ele>2290.48</ele>
        <time>2016-07-17T09:26:33Z</time>
      </trkpt>
      <trkpt lat="45.823176903650165" lon="7.770538050681353">
        <ele>2290.48</ele>
        <time>2016-07-17T09:26:34Z</time>
      </trkpt>
      <trkpt lat="45.823169695213437" lon="7.770552970468998">
        <ele>2290</ele>
        <time>2016-07-17T09:26:35Z</time>
      </trkpt>
      <trkpt lat="45.823160726577044" lon="7.77056579478085">
        <ele>2290</ele>
        <time>2016-07-17T09:26:36Z</time>
      </trkpt>
      <trkpt lat="45.823119822889566" lon="7.770558586344123">
        <ele>2290.96</ele>
        <time>2016-07-17T09:26:41Z</time>
      </trkpt>
      <trkpt lat="45.82309995777905" lon="7.770576775074005">
        <ele>2290.96</ele>
        <time>2016-07-17T09:26:44Z</time>
      </trkpt>
      <trkpt lat="45.82305209711194" lon="7.77068255469203">
        <ele>2290.96</ele>
        <time>2016-07-17T09:26:53Z</time>
      </trkpt>
      <trkpt lat="45.822976157069206" lon="7.770723290741444">
        <ele>2291.9200000000001</ele>
        <time>2016-07-17T09:27:02Z</time>
      </trkpt>
      <trkpt lat="45.822903318330646" lon="7.770751873031259">
        <ele>2291.9200000000001</ele>
        <time>2016-07-17T09:27:10Z</time>
      </trkpt>
      <trkpt lat="45.822806591168046" lon="7.77084524743259">
        <ele>2292.8800000000001</ele>
        <time>2016-07-17T09:27:23Z</time>
      </trkpt>
      <trkpt lat="45.822753868997097" lon="7.77084868401289">
        <ele>2292.8800000000001</ele>
        <time>2016-07-17T09:27:32Z</time>
      </trkpt>
      <trkpt lat="45.822709780186415" lon="7.770848600193858">
        <ele>2293.3600000000001</ele>
        <time>2016-07-17T09:27:41Z</time>
      </trkpt>
      <trkpt lat="45.822668289765716" lon="7.770807696506381">
        <ele>2294.8000000000002</ele>
        <time>2016-07-17T09:27:47Z</time>
      </trkpt>
      <trkpt lat="45.822615567594767" lon="7.77081985026598">
        <ele>2295.77</ele>
        <time>2016-07-17T09:27:55Z</time>
      </trkpt>
      <trkpt lat="45.822583632543683" lon="7.770815659314394">
        <ele>2296.73</ele>
        <time>2016-07-17T09:28:00Z</time>
      </trkpt>
      <trkpt lat="45.822519259527326" lon="7.770854886621237">
        <ele>2297.6900000000001</ele>
        <time>2016-07-17T09:28:08Z</time>
      </trkpt>
      <trkpt lat="45.822511212900281" lon="7.77086234651506">
        <ele>2298.1700000000001</ele>
        <time>2016-07-17T09:28:09Z</time>
      </trkpt>
      <trkpt lat="45.822447510436177" lon="7.770902831107378">
        <ele>2299.1300000000001</ele>
        <time>2016-07-17T09:28:17Z</time>
      </trkpt>
      <trkpt lat="45.822364026680589" lon="7.77092881500721">
        <ele>2300.0900000000001</ele>
        <time>2016-07-17T09:28:26Z</time>
      </trkpt>
      <trkpt lat="45.822341227903962" lon="7.770946836099029">
        <ele>2300.5700000000002</ele>
        <time>2016-07-17T09:28:29Z</time>
      </trkpt>
      <trkpt lat="45.822330331429839" lon="7.77095421217382">
        <ele>2300.5700000000002</ele>
        <time>2016-07-17T09:28:30Z</time>
      </trkpt>
      <trkpt lat="45.822283895686269" lon="7.771013556048274">
        <ele>2301.5300000000002</ele>
        <time>2016-07-17T09:28:38Z</time>
      </trkpt>
      <trkpt lat="45.822245003655553" lon="7.771115899085999">
        <ele>2302.4899999999998</ele>
        <time>2016-07-17T09:28:47Z</time>
      </trkpt>
      <trkpt lat="45.822225138545036" lon="7.771145235747099">
        <ele>2302.98</ele>
        <time>2016-07-17T09:28:50Z</time>
      </trkpt>
      <trkpt lat="45.822216169908643" lon="7.771156886592507">
        <ele>2302.98</ele>
        <time>2016-07-17T09:28:51Z</time>
      </trkpt>
      <trkpt lat="45.822189012542367" lon="7.771207010373473">
        <ele>2303.46</ele>
        <time>2016-07-17T09:28:56Z</time>
      </trkpt>
      <trkpt lat="45.822183061391115" lon="7.771219918504357">
        <ele>2303.46</ele>
        <time>2016-07-17T09:28:57Z</time>
      </trkpt>
      <trkpt lat="45.822122376412153" lon="7.771284962072969">
        <ele>2304.9000000000001</ele>
        <time>2016-07-17T09:29:06Z</time>
      </trkpt>
      <trkpt lat="45.822073677554727" lon="7.771313712000847">
        <ele>2305.8600000000001</ele>
        <time>2016-07-17T09:29:13Z</time>
      </trkpt>
      <trkpt lat="45.822026655077934" lon="7.771402895450592">
        <ele>2306.8200000000002</ele>
        <time>2016-07-17T09:29:22Z</time>
      </trkpt>
      <trkpt lat="45.822018356993794" lon="7.771413875743747">
        <ele>2306.8200000000002</ele>
        <time>2016-07-17T09:29:23Z</time>
      </trkpt>
      <trkpt lat="45.821985583752394" lon="7.771444721147418">
        <ele>2307.3000000000002</ele>
        <time>2016-07-17T09:29:26Z</time>
      </trkpt>
      <trkpt lat="45.821917606517673" lon="7.771508758887649">
        <ele>2308.2600000000002</ele>
        <time>2016-07-17T09:29:35Z</time>
      </trkpt>
      <trkpt lat="45.821909895166755" lon="7.771516721695662">
        <ele>2308.2600000000002</ele>
        <time>2016-07-17T09:29:36Z</time>
      </trkpt>
      <trkpt lat="45.821900255978107" lon="7.77152786962688">
        <ele>2308.2600000000002</ele>
        <time>2016-07-17T09:29:37Z</time>
      </trkpt>
      <trkpt lat="45.821823393926024" lon="7.77159777469933">
        <ele>2308.7399999999998</ele>
        <time>2016-07-17T09:29:46Z</time>
      </trkpt>
      <trkpt lat="45.821773018687963" lon="7.771609844639897">
        <ele>2309.2199999999998</ele>
        <time>2016-07-17T09:29:52Z</time>
      </trkpt>
      <trkpt lat="45.821702610701323" lon="7.771671786904335">
        <ele>2311.1500000000001</ele>
        <time>2016-07-17T09:30:02Z</time>
      </trkpt>
      <trkpt lat="45.821634046733379" lon="7.771738758310676">
        <ele>2311.6300000000001</ele>
        <time>2016-07-17T09:30:11Z</time>
      </trkpt>
      <trkpt lat="45.821603871881962" lon="7.771776141598821">
        <ele>2312.5900000000001</ele>
        <time>2016-07-17T09:30:16Z</time>
      </trkpt>
      <trkpt lat="45.82156271673739" lon="7.771810591220856">
        <ele>2313.5500000000002</ele>
        <time>2016-07-17T09:30:22Z</time>
      </trkpt>
      <trkpt lat="45.821528770029545" lon="7.771837329491973">
        <ele>2314.5100000000002</ele>
        <time>2016-07-17T09:30:30Z</time>
      </trkpt>
      <trkpt lat="45.821476969867945" lon="7.771845459938049">
        <ele>2316.4299999999998</ele>
        <time>2016-07-17T09:30:40Z</time>
      </trkpt>
      <trkpt lat="45.821431875228882" lon="7.771872533485293">
        <ele>2317.8800000000001</ele>
        <time>2016-07-17T09:30:50Z</time>
      </trkpt>
      <trkpt lat="45.821402287110686" lon="7.771877143532038">
        <ele>2318.3600000000001</ele>
        <time>2016-07-17T09:30:53Z</time>
      </trkpt>
      <trkpt lat="45.821349900215864" lon="7.771888459101319">
        <ele>2319.8000000000002</ele>
        <time>2016-07-17T09:31:03Z</time>
      </trkpt>
      <trkpt lat="45.821300530806184" lon="7.771926345303655">
        <ele>2322.1999999999998</ele>
        <time>2016-07-17T09:31:14Z</time>
      </trkpt>
      <trkpt lat="45.8212617225945" lon="7.771945707499981">
        <ele>2322.6799999999998</ele>
        <time>2016-07-17T09:31:19Z</time>
      </trkpt>
      <trkpt lat="45.821211682632565" lon="7.771976804360747">
        <ele>2324.1199999999999</ele>
        <time>2016-07-17T09:31:28Z</time>
      </trkpt>
      <trkpt lat="45.821184273809195" lon="7.771978564560413">
        <ele>2324.6100000000001</ele>
        <time>2016-07-17T09:31:31Z</time>
      </trkpt>
      <trkpt lat="45.821140939369798" lon="7.772011505439878">
        <ele>2326.5300000000002</ele>
        <time>2016-07-17T09:31:40Z</time>
      </trkpt>
      <trkpt lat="45.82109265960753" lon="7.772011673077941">
        <ele>2327.0100000000002</ele>
        <time>2016-07-17T09:31:46Z</time>
      </trkpt>
      <trkpt lat="45.821049576625228" lon="7.772040171548724">
        <ele>2328.4499999999998</ele>
        <time>2016-07-17T09:31:55Z</time>
      </trkpt>
      <trkpt lat="45.821023341268301" lon="7.772101778537035">
        <ele>2329.8899999999999</ele>
        <time>2016-07-17T09:32:03Z</time>
      </trkpt>
      <trkpt lat="45.820969948545098" lon="7.772135054692626">
        <ele>2331.3299999999999</ele>
        <time>2016-07-17T09:32:13Z</time>
      </trkpt>
      <trkpt lat="45.820915047079325" lon="7.772174701094627">
        <ele>2333.2600000000002</ele>
        <time>2016-07-17T09:32:24Z</time>
      </trkpt>
      <trkpt lat="45.8209387678653" lon="7.77217386290431">
        <ele>2333.2600000000002</ele>
        <time>2016-07-17T09:32:41Z</time>
      </trkpt>
      <trkpt lat="45.820917226374149" lon="7.772244857624173">
        <ele>2335.1799999999998</ele>
        <time>2016-07-17T09:32:50Z</time>
      </trkpt>
      <trkpt lat="45.82087623886764" lon="7.772318283095956">
        <ele>2336.6199999999999</ele>
        <time>2016-07-17T09:32:59Z</time>
      </trkpt>
      <trkpt lat="45.820812033489347" lon="7.772406628355384">
        <ele>2339.02</ele>
        <time>2016-07-17T09:33:11Z</time>
      </trkpt>
      <trkpt lat="45.820767190307379" lon="7.772465888410807">
        <ele>2340.4699999999998</ele>
        <time>2016-07-17T09:33:21Z</time>
      </trkpt>
      <trkpt lat="45.820743972435594" lon="7.772462535649538">
        <ele>2340.9499999999998</ele>
        <time>2016-07-17T09:33:24Z</time>
      </trkpt>
      <trkpt lat="45.820668367668986" lon="7.772513329982758">
        <ele>2342.8699999999999</ele>
        <time>2016-07-17T09:33:34Z</time>
      </trkpt>
      <trkpt lat="45.820649340748787" lon="7.772539230063558">
        <ele>2343.3499999999999</ele>
        <time>2016-07-17T09:33:37Z</time>
      </trkpt>
      <trkpt lat="45.820589493960142" lon="7.772578289732337">
        <ele>2343.8299999999999</ele>
        <time>2016-07-17T09:33:46Z</time>
      </trkpt>
      <trkpt lat="45.820555547252297" lon="7.772591952234507">
        <ele>2344.79</ele>
        <time>2016-07-17T09:33:56Z</time>
      </trkpt>
      <trkpt lat="45.820552278310061" lon="7.772625982761383">
        <ele>2346.7199999999998</ele>
        <time>2016-07-17T09:34:10Z</time>
      </trkpt>
      <trkpt lat="45.820551356300712" lon="7.772651044651866">
        <ele>2348.1599999999999</ele>
        <time>2016-07-17T09:34:19Z</time>
      </trkpt>
      <trkpt lat="45.820585722103715" lon="7.772667724639177">
        <ele>2349.5999999999999</ele>
        <time>2016-07-17T09:34:31Z</time>
      </trkpt>
      <trkpt lat="45.820562923327088" lon="7.772694211453199">
        <ele>2349.5999999999999</ele>
        <time>2016-07-17T09:34:45Z</time>
      </trkpt>
      <trkpt lat="45.820558061823249" lon="7.772734612226486">
        <ele>2351.04</ele>
        <time>2016-07-17T09:34:53Z</time>
      </trkpt>
      <trkpt lat="45.820519169792533" lon="7.772721033543348">
        <ele>2352.96</ele>
        <time>2016-07-17T09:35:03Z</time>
      </trkpt>
      <trkpt lat="45.820550685748458" lon="7.772805774584413">
        <ele>2354.8899999999999</ele>
        <time>2016-07-17T09:35:14Z</time>
      </trkpt>
      <trkpt lat="45.820550434291363" lon="7.772879535332322">
        <ele>2356.3299999999999</ele>
        <time>2016-07-17T09:35:23Z</time>
      </trkpt>
      <trkpt lat="45.820541884750128" lon="7.77291851118207">
        <ele>2356.3299999999999</ele>
        <time>2016-07-17T09:35:26Z</time>
      </trkpt>
      <trkpt lat="45.820538112893701" lon="7.772991517558694">
        <ele>2358.25</ele>
        <time>2016-07-17T09:35:39Z</time>
      </trkpt>
      <trkpt lat="45.820515565574169" lon="7.772978022694588">
        <ele>2359.6900000000001</ele>
        <time>2016-07-17T09:35:48Z</time>
      </trkpt>
      <trkpt lat="45.820485893636942" lon="7.772967126220465">
        <ele>2362.5799999999999</ele>
        <time>2016-07-17T09:35:59Z</time>
      </trkpt>
      <trkpt lat="45.820458820089698" lon="7.772947764024139">
        <ele>2363.0599999999999</ele>
        <time>2016-07-17T09:36:08Z</time>
      </trkpt>
      <trkpt lat="45.820439709350467" lon="7.772922366857529">
        <ele>2364.98</ele>
        <time>2016-07-17T09:36:20Z</time>
      </trkpt>
      <trkpt lat="45.820418503135443" lon="7.772917672991753">
        <ele>2366.4200000000001</ele>
        <time>2016-07-17T09:36:30Z</time>
      </trkpt>
      <trkpt lat="45.820421352982521" lon="7.77297617867589">
        <ele>2367.8600000000001</ele>
        <time>2016-07-17T09:36:41Z</time>
      </trkpt>
      <trkpt lat="45.820381036028266" lon="7.773001240566373">
        <ele>2369.79</ele>
        <time>2016-07-17T09:36:52Z</time>
      </trkpt>
      <trkpt lat="45.820343736559153" lon="7.77294198051095">
        <ele>2371.23</ele>
        <time>2016-07-17T09:37:03Z</time>
      </trkpt>
      <trkpt lat="45.820313477888703" lon="7.772976094856858">
        <ele>2372.1900000000001</ele>
        <time>2016-07-17T09:37:08Z</time>
      </trkpt>
      <trkpt lat="45.820283554494381" lon="7.773013981059194">
        <ele>2373.6300000000001</ele>
        <time>2016-07-17T09:37:17Z</time>
      </trkpt>
      <trkpt lat="45.820289505645633" lon="7.77304214425385">
        <ele>2375.0700000000002</ele>
        <time>2016-07-17T09:37:27Z</time>
      </trkpt>
      <trkpt lat="45.820256983861327" lon="7.773046335205436">
        <ele>2376.52</ele>
        <time>2016-07-17T09:37:37Z</time>
      </trkpt>
      <trkpt lat="45.820235442370176" lon="7.773061422631145">
        <ele>2377.96</ele>
        <time>2016-07-17T09:37:48Z</time>
      </trkpt>
      <trkpt lat="45.820193197578192" lon="7.773034768179059">
        <ele>2379.4000000000001</ele>
        <time>2016-07-17T09:37:59Z</time>
      </trkpt>
      <trkpt lat="45.820184731855989" lon="7.773071648553014">
        <ele>2380.8400000000001</ele>
        <time>2016-07-17T09:38:12Z</time>
      </trkpt>
      <trkpt lat="45.820147767663002" lon="7.773104840889573">
        <ele>2382.2800000000002</ele>
        <time>2016-07-17T09:38:22Z</time>
      </trkpt>
      <trkpt lat="45.820127986371517" lon="7.773146079853177">
        <ele>2383.73</ele>
        <time>2016-07-17T09:38:32Z</time>
      </trkpt>
      <trkpt lat="45.820107366889715" lon="7.773191928863525">
        <ele>2385.6500000000001</ele>
        <time>2016-07-17T09:38:42Z</time>
      </trkpt>
      <trkpt lat="45.820068558678031" lon="7.773212213069201">
        <ele>2387.5700000000002</ele>
        <time>2016-07-17T09:38:52Z</time>
      </trkpt>
      <trkpt lat="45.820071240887046" lon="7.773249847814441">
        <ele>2389.0100000000002</ele>
        <time>2016-07-17T09:39:02Z</time>
      </trkpt>
      <trkpt lat="45.820048609748483" lon="7.773286812007427">
        <ele>2389.9699999999998</ele>
        <time>2016-07-17T09:39:08Z</time>
      </trkpt>
      <trkpt lat="45.820002928376198" lon="7.773300306871533">
        <ele>2391.4200000000001</ele>
        <time>2016-07-17T09:39:17Z</time>
      </trkpt>
      <trkpt lat="45.82001818343997" lon="7.77335244230926">
        <ele>2392.8600000000001</ele>
        <time>2016-07-17T09:39:27Z</time>
      </trkpt>
      <trkpt lat="45.819991193711758" lon="7.773348754271865">
        <ele>2393.8200000000002</ele>
        <time>2016-07-17T09:39:36Z</time>
      </trkpt>
      <trkpt lat="45.819969484582543" lon="7.773420168086886">
        <ele>2395.2600000000002</ele>
        <time>2016-07-17T09:39:45Z</time>
      </trkpt>
      <trkpt lat="45.819949535652995" lon="7.773495353758335">
        <ele>2397.1799999999998</ele>
        <time>2016-07-17T09:39:56Z</time>
      </trkpt>
      <trkpt lat="45.819931598380208" lon="7.773538939654827">
        <ele>2398.6300000000001</ele>
        <time>2016-07-17T09:40:06Z</time>
      </trkpt>
      <trkpt lat="45.819936878979206" lon="7.773600798100233">
        <ele>2400.5500000000002</ele>
        <time>2016-07-17T09:40:18Z</time>
      </trkpt>
      <trkpt lat="45.81994442269206" lon="7.773640947416425">
        <ele>2401.9899999999998</ele>
        <time>2016-07-17T09:40:28Z</time>
      </trkpt>
      <trkpt lat="45.819935286417603" lon="7.773651089519262">
        <ele>2402.9499999999998</ele>
        <time>2016-07-17T09:40:36Z</time>
      </trkpt>
      <trkpt lat="45.819949032738805" lon="7.773700207471848">
        <ele>2404.8800000000001</ele>
        <time>2016-07-17T09:40:47Z</time>
      </trkpt>
      <trkpt lat="45.819961354136467" lon="7.773764748126268">
        <ele>2406.8000000000002</ele>
        <time>2016-07-17T09:40:59Z</time>
      </trkpt>
      <trkpt lat="45.819994211196899" lon="7.773795761168003">
        <ele>2408.2399999999998</ele>
        <time>2016-07-17T09:41:09Z</time>
      </trkpt>
      <trkpt lat="45.820019021630287" lon="7.773843370378017">
        <ele>2409.1999999999998</ele>
        <time>2016-07-17T09:41:18Z</time>
      </trkpt>
      <trkpt lat="45.820020865648985" lon="7.773883184418082">
        <ele>2411.1199999999999</ele>
        <time>2016-07-17T09:41:28Z</time>
      </trkpt>
      <trkpt lat="45.82008121535182" lon="7.773918053135276">
        <ele>2412.0900000000001</ele>
        <time>2016-07-17T09:41:36Z</time>
      </trkpt>
      <trkpt lat="45.820084484294057" lon="7.774009583517909">
        <ele>2414.0100000000002</ele>
        <time>2016-07-17T09:41:46Z</time>
      </trkpt>
      <trkpt lat="45.820096721872687" lon="7.774057779461145">
        <ele>2415.4499999999998</ele>
        <time>2016-07-17T09:41:58Z</time>
      </trkpt>
      <trkpt lat="45.820081131532788" lon="7.774121984839439">
        <ele>2416.8899999999999</ele>
        <time>2016-07-17T09:42:10Z</time>
      </trkpt>
      <trkpt lat="45.82007777877152" lon="7.774170432239771">
        <ele>2418.8099999999999</ele>
        <time>2016-07-17T09:42:22Z</time>
      </trkpt>
      <trkpt lat="45.820080628618598" lon="7.774179400876164">
        <ele>2418.8099999999999</ele>
        <time>2016-07-17T09:42:23Z</time>
      </trkpt>
      <trkpt lat="45.820090686902404" lon="7.774242348968983">
        <ele>2420.2600000000002</ele>
        <time>2016-07-17T09:42:33Z</time>
      </trkpt>
      <trkpt lat="45.820096135139465" lon="7.774286353960633">
        <ele>2421.2199999999998</ele>
        <time>2016-07-17T09:42:42Z</time>
      </trkpt>
      <trkpt lat="45.820080880075693" lon="7.774313259869814">
        <ele>2422.1799999999998</ele>
        <time>2016-07-17T09:42:55Z</time>
      </trkpt>
      <trkpt lat="45.82009538076818" lon="7.77432331815362">
        <ele>2423.6199999999999</ele>
        <time>2016-07-17T09:43:06Z</time>
      </trkpt>
      <trkpt lat="45.820118431001902" lon="7.774322396144271">
        <ele>2424.5799999999999</ele>
        <time>2016-07-17T09:43:18Z</time>
      </trkpt>
      <trkpt lat="45.820144666358829" lon="7.774375705048442">
        <ele>2425.54</ele>
        <time>2016-07-17T09:43:30Z</time>
      </trkpt>
      <trkpt lat="45.820154557004571" lon="7.774423733353615">
        <ele>2427.4699999999998</ele>
        <time>2016-07-17T09:43:39Z</time>
      </trkpt>
      <trkpt lat="45.820187833160162" lon="7.774455333128572">
        <ele>2429.3899999999999</ele>
        <time>2016-07-17T09:43:49Z</time>
      </trkpt>
      <trkpt lat="45.820198226720095" lon="7.774538481608033">
        <ele>2430.8299999999999</ele>
        <time>2016-07-17T09:44:00Z</time>
      </trkpt>
      <trkpt lat="45.820197975263" lon="7.774562118574977">
        <ele>2432.27</ele>
        <time>2016-07-17T09:44:04Z</time>
      </trkpt>
      <trkpt lat="45.820217002183199" lon="7.774629509076476">
        <ele>2433.23</ele>
        <time>2016-07-17T09:44:13Z</time>
      </trkpt>
      <trkpt lat="45.82023661583662" lon="7.774724056944251">
        <ele>2434.6799999999998</ele>
        <time>2016-07-17T09:44:25Z</time>
      </trkpt>
      <trkpt lat="45.820259666070342" lon="7.774783400818706">
        <ele>2436.1199999999999</ele>
        <time>2016-07-17T09:44:36Z</time>
      </trkpt>
      <trkpt lat="45.820265701040626" lon="7.774837631732225">
        <ele>2438.04</ele>
        <time>2016-07-17T09:44:47Z</time>
      </trkpt>
      <trkpt lat="45.820301240310073" lon="7.774876104667783">
        <ele>2439.96</ele>
        <time>2016-07-17T09:44:58Z</time>
      </trkpt>
      <trkpt lat="45.820301491767168" lon="7.774916337803006">
        <ele>2440.9200000000001</ele>
        <time>2016-07-17T09:45:07Z</time>
      </trkpt>
      <trkpt lat="45.82033921033144" lon="7.774963527917862">
        <ele>2442.8499999999999</ele>
        <time>2016-07-17T09:45:19Z</time>
      </trkpt>
      <trkpt lat="45.820361590012908" lon="7.775001246482134">
        <ele>2443.8099999999999</ele>
        <time>2016-07-17T09:45:26Z</time>
      </trkpt>
      <trkpt lat="45.820359326899052" lon="7.775017255917192">
        <ele>2443.8099999999999</ele>
        <time>2016-07-17T09:45:27Z</time>
      </trkpt>
      <trkpt lat="45.820388831198215" lon="7.775059416890144">
        <ele>2444.77</ele>
        <time>2016-07-17T09:45:35Z</time>
      </trkpt>
      <trkpt lat="45.820428393781185" lon="7.775120604783297">
        <ele>2446.21</ele>
        <time>2016-07-17T09:45:45Z</time>
      </trkpt>
      <trkpt lat="45.820429902523756" lon="7.775178356096149">
        <ele>2447.1700000000001</ele>
        <time>2016-07-17T09:45:55Z</time>
      </trkpt>
      <trkpt lat="45.820418754592538" lon="7.775198807939887">
        <ele>2448.1300000000001</ele>
        <time>2016-07-17T09:45:57Z</time>
      </trkpt>
      <trkpt lat="45.820445828139782" lon="7.775238621979952">
        <ele>2448.6199999999999</ele>
        <time>2016-07-17T09:46:05Z</time>
      </trkpt>
      <trkpt lat="45.820430656895041" lon="7.775282794609666">
        <ele>2449.5799999999999</ele>
        <time>2016-07-17T09:46:14Z</time>
      </trkpt>
      <trkpt lat="45.820432668551803" lon="7.775331493467093">
        <ele>2451.5</ele>
        <time>2016-07-17T09:46:23Z</time>
      </trkpt>
      <trkpt lat="45.820450019091368" lon="7.77536703273654">
        <ele>2452.46</ele>
        <time>2016-07-17T09:46:32Z</time>
      </trkpt>
      <trkpt lat="45.820461167022586" lon="7.775405924767256">
        <ele>2452.9400000000001</ele>
        <time>2016-07-17T09:46:40Z</time>
      </trkpt>
      <trkpt lat="45.820451276376843" lon="7.775419838726521">
        <ele>2452.46</ele>
        <time>2016-07-17T09:46:43Z</time>
      </trkpt>
      <trkpt lat="45.820441469550133" lon="7.77541883289814">
        <ele>2452.46</ele>
        <time>2016-07-17T09:46:44Z</time>
      </trkpt>
      <trkpt lat="45.820454461500049" lon="7.77541933581233">
        <ele>2453.4200000000001</ele>
        <time>2016-07-17T09:46:53Z</time>
      </trkpt>
      <trkpt lat="45.820489246398211" lon="7.775472057983279">
        <ele>2455.3400000000001</ele>
        <time>2016-07-17T09:47:02Z</time>
      </trkpt>
      <trkpt lat="45.820515565574169" lon="7.775558978319168">
        <ele>2456.3099999999999</ele>
        <time>2016-07-17T09:47:12Z</time>
      </trkpt>
      <trkpt lat="45.820527886971831" lon="7.775636008009315">
        <ele>2458.71</ele>
        <time>2016-07-17T09:47:24Z</time>
      </trkpt>
      <trkpt lat="45.82056837156415" lon="7.775679342448711">
        <ele>2460.1500000000001</ele>
        <time>2016-07-17T09:47:35Z</time>
      </trkpt>
      <trkpt lat="45.820583626627922" lon="7.775682946667075">
        <ele>2461.5900000000001</ele>
        <time>2016-07-17T09:47:39Z</time>
      </trkpt>
      <trkpt lat="45.820607347413898" lon="7.775747152045369">
        <ele>2463.52</ele>
        <time>2016-07-17T09:47:51Z</time>
      </trkpt>
      <trkpt lat="45.820597121492028" lon="7.775791911408305">
        <ele>2464.48</ele>
        <time>2016-07-17T09:48:01Z</time>
      </trkpt>
      <trkpt lat="45.820599971339107" lon="7.775831054896116">
        <ele>2466.4000000000001</ele>
        <time>2016-07-17T09:48:11Z</time>
      </trkpt>
      <trkpt lat="45.820595026016235" lon="7.775880340486765">
        <ele>2467.3600000000001</ele>
        <time>2016-07-17T09:48:19Z</time>
      </trkpt>
      <trkpt lat="45.82063190639019" lon="7.775898696854711">
        <ele>2468.3200000000002</ele>
        <time>2016-07-17T09:48:28Z</time>
      </trkpt>
      <trkpt lat="45.820610364899039" lon="7.775936750695109">
        <ele>2469.2800000000002</ele>
        <time>2016-07-17T09:48:39Z</time>
      </trkpt>
      <trkpt lat="45.820624697953463" lon="7.775993663817644">
        <ele>2471.21</ele>
        <time>2016-07-17T09:48:50Z</time>
      </trkpt>
      <trkpt lat="45.820625955238938" lon="7.776034567505121">
        <ele>2472.1700000000001</ele>
        <time>2016-07-17T09:48:59Z</time>
      </trkpt>
      <trkpt lat="45.820628637447953" lon="7.776096509769559">
        <ele>2474.0900000000001</ele>
        <time>2016-07-17T09:49:09Z</time>
      </trkpt>
      <trkpt lat="45.820627631619573" lon="7.77612098492682">
        <ele>2476.0100000000002</ele>
        <time>2016-07-17T09:49:20Z</time>
      </trkpt>
      <trkpt lat="45.820651352405548" lon="7.776165744289756">
        <ele>2476.9699999999998</ele>
        <time>2016-07-17T09:49:30Z</time>
      </trkpt>
      <trkpt lat="45.820655710995197" lon="7.776205223053694">
        <ele>2477.9400000000001</ele>
        <time>2016-07-17T09:49:39Z</time>
      </trkpt>
      <trkpt lat="45.820661745965481" lon="7.776231039315462">
        <ele>2478.9000000000001</ele>
        <time>2016-07-17T09:49:48Z</time>
      </trkpt>
      <trkpt lat="45.820679012686014" lon="7.77627688832581">
        <ele>2480.3400000000001</ele>
        <time>2016-07-17T09:49:57Z</time>
      </trkpt>
      <trkpt lat="45.820689657703042" lon="7.77631058357656">
        <ele>2481.7800000000002</ele>
        <time>2016-07-17T09:50:06Z</time>
      </trkpt>
      <trkpt lat="45.820699967443943" lon="7.776339584961534">
        <ele>2482.7399999999998</ele>
        <time>2016-07-17T09:50:17Z</time>
      </trkpt>
      <trkpt lat="45.820703990757465" lon="7.776371268555522">
        <ele>2483.2199999999998</ele>
        <time>2016-07-17T09:50:25Z</time>
      </trkpt>
      <trkpt lat="45.820701643824577" lon="7.776410914957523">
        <ele>2485.1500000000001</ele>
        <time>2016-07-17T09:50:34Z</time>
      </trkpt>
      <trkpt lat="45.820721257477999" lon="7.776438994333148">
        <ele>2486.1100000000001</ele>
        <time>2016-07-17T09:50:44Z</time>
      </trkpt>
      <trkpt lat="45.820717150345445" lon="7.776509821414948">
        <ele>2487.5500000000002</ele>
        <time>2016-07-17T09:50:57Z</time>
      </trkpt>
      <trkpt lat="45.820718826726079" lon="7.776522226631641">
        <ele>2488.0300000000002</ele>
        <time>2016-07-17T09:50:58Z</time>
      </trkpt>
      <trkpt lat="45.820741457864642" lon="7.776592299342156">
        <ele>2488.0300000000002</ele>
        <time>2016-07-17T09:51:07Z</time>
      </trkpt>
      <trkpt lat="45.820751683786511" lon="7.776672346517444">
        <ele>2489.4699999999998</ele>
        <time>2016-07-17T09:51:17Z</time>
      </trkpt>
      <trkpt lat="45.820758389309049" lon="7.776732780039311">
        <ele>2491.3899999999999</ele>
        <time>2016-07-17T09:51:27Z</time>
      </trkpt>
      <trkpt lat="45.820790827274323" lon="7.776764547452331">
        <ele>2492.8400000000001</ele>
        <time>2016-07-17T09:51:37Z</time>
      </trkpt>
      <trkpt lat="45.82081463187933" lon="7.776813749223948">
        <ele>2494.2800000000002</ele>
        <time>2016-07-17T09:51:48Z</time>
      </trkpt>
      <trkpt lat="45.820824690163136" lon="7.776817353442311">
        <ele>2494.7600000000002</ele>
        <time>2016-07-17T09:51:58Z</time>
      </trkpt>
      <trkpt lat="45.820851512253284" lon="7.776853395625949">
        <ele>2495.7199999999998</ele>
        <time>2016-07-17T09:52:10Z</time>
      </trkpt>
      <trkpt lat="45.820873640477657" lon="7.776873344555497">
        <ele>2497.1599999999999</ele>
        <time>2016-07-17T09:52:21Z</time>
      </trkpt>
      <trkpt lat="45.820878250524402" lon="7.77691894210875">
        <ele>2499.0799999999999</ele>
        <time>2016-07-17T09:52:31Z</time>
      </trkpt>
      <trkpt lat="45.820912029594183" lon="7.776907375082374">
        <ele>2500.0500000000002</ele>
        <time>2016-07-17T09:52:42Z</time>
      </trkpt>
      <trkpt lat="45.820946143940091" lon="7.77697317302227">
        <ele>2501.4899999999998</ele>
        <time>2016-07-17T09:52:52Z</time>
      </trkpt>
      <trkpt lat="45.820951340720057" lon="7.777006197720766">
        <ele>2502.9299999999998</ele>
        <time>2016-07-17T09:53:00Z</time>
      </trkpt>
      <trkpt lat="45.820907335728407" lon="7.777019524946809">
        <ele>2504.3699999999999</ele>
        <time>2016-07-17T09:53:12Z</time>
      </trkpt>
      <trkpt lat="45.820914627984166" lon="7.777061518281698">
        <ele>2505.3299999999999</ele>
        <time>2016-07-17T09:53:22Z</time>
      </trkpt>
      <trkpt lat="45.820875149220228" lon="7.777063362300396">
        <ele>2507.2600000000002</ele>
        <time>2016-07-17T09:53:33Z</time>
      </trkpt>
      <trkpt lat="45.820861235260963" lon="7.777076438069344">
        <ele>2508.2199999999998</ele>
        <time>2016-07-17T09:53:46Z</time>
      </trkpt>
      <trkpt lat="45.820845980197191" lon="7.777107954025269">
        <ele>2510.1399999999999</ele>
        <time>2016-07-17T09:53:56Z</time>
      </trkpt>
      <trkpt lat="45.820893589407206" lon="7.77712463401258">
        <ele>2511.0999999999999</ele>
        <time>2016-07-17T09:54:05Z</time>
      </trkpt>
      <trkpt lat="45.820863749831915" lon="7.777140559628606">
        <ele>2512.54</ele>
        <time>2016-07-17T09:54:14Z</time>
      </trkpt>
      <trkpt lat="45.820834999904037" lon="7.777134357020259">
        <ele>2513.98</ele>
        <time>2016-07-17T09:54:26Z</time>
      </trkpt>
      <trkpt lat="45.82083759829402" lon="7.777181211858988">
        <ele>2515.9099999999999</ele>
        <time>2016-07-17T09:54:36Z</time>
      </trkpt>
      <trkpt lat="45.820872047916055" lon="7.777190683409572">
        <ele>2516.3899999999999</ele>
        <time>2016-07-17T09:54:45Z</time>
      </trkpt>
      <trkpt lat="45.820891577750444" lon="7.777240891009569">
        <ele>2517.8299999999999</ele>
        <time>2016-07-17T09:54:53Z</time>
      </trkpt>
      <trkpt lat="45.820905156433582" lon="7.777276346459985">
        <ele>2518.79</ele>
        <time>2016-07-17T09:55:06Z</time>
      </trkpt>
      <trkpt lat="45.820882776752114" lon="7.777294702827931">
        <ele>2521.1900000000001</ele>
        <time>2016-07-17T09:55:17Z</time>
      </trkpt>
      <trkpt lat="45.820853104814887" lon="7.777324626222253">
        <ele>2523.1199999999999</ele>
        <time>2016-07-17T09:55:28Z</time>
      </trkpt>
      <trkpt lat="45.820880262181163" lon="7.7773273922503">
        <ele>2523.1199999999999</ele>
        <time>2016-07-17T09:55:45Z</time>
      </trkpt>
      <trkpt lat="45.820891158655286" lon="7.777345329523087">
        <ele>2523.5999999999999</ele>
        <time>2016-07-17T09:55:50Z</time>
      </trkpt>
      <trkpt lat="45.820882609114051" lon="7.777413306757808">
        <ele>2525.52</ele>
        <time>2016-07-17T09:55:59Z</time>
      </trkpt>
      <trkpt lat="45.820881687104702" lon="7.777455970644951">
        <ele>2527.4400000000001</ele>
        <time>2016-07-17T09:56:07Z</time>
      </trkpt>
      <trkpt lat="45.820888811722398" lon="7.777519756928086">
        <ele>2529.8499999999999</ele>
        <time>2016-07-17T09:56:19Z</time>
      </trkpt>
      <trkpt lat="45.820897361263633" lon="7.777534341439605">
        <ele>2530.8099999999999</ele>
        <time>2016-07-17T09:56:28Z</time>
      </trkpt>
      <trkpt lat="45.820877328515053" lon="7.777558732777834">
        <ele>2531.77</ele>
        <time>2016-07-17T09:56:44Z</time>
      </trkpt>
      <trkpt lat="45.820865174755454" lon="7.777593098580837">
        <ele>2533.21</ele>
        <time>2016-07-17T09:56:55Z</time>
      </trkpt>
      <trkpt lat="45.820890907198191" lon="7.777616735547781">
        <ele>2534.6500000000001</ele>
        <time>2016-07-17T09:57:05Z</time>
      </trkpt>
      <trkpt lat="45.820906832814217" lon="7.777630984783173">
        <ele>2536.0999999999999</ele>
        <time>2016-07-17T09:57:17Z</time>
      </trkpt>
      <trkpt lat="45.820897947996855" lon="7.777688065543771">
        <ele>2537.0599999999999</ele>
        <time>2016-07-17T09:57:28Z</time>
      </trkpt>
      <trkpt lat="45.820885375142097" lon="7.777719665318728">
        <ele>2538.5</ele>
        <time>2016-07-17T09:57:39Z</time>
      </trkpt>
      <trkpt lat="45.820845309644938" lon="7.777725029736757">
        <ele>2539.9400000000001</ele>
        <time>2016-07-17T09:57:48Z</time>
      </trkpt>
      <trkpt lat="45.820876657962799" lon="7.77776132337749">
        <ele>2541.3800000000001</ele>
        <time>2016-07-17T09:57:59Z</time>
      </trkpt>
      <trkpt lat="45.820833407342434" lon="7.777781523764134">
        <ele>2542.8200000000002</ele>
        <time>2016-07-17T09:58:10Z</time>
      </trkpt>
      <trkpt lat="45.820785127580166" lon="7.777793593704701">
        <ele>2543.79</ele>
        <time>2016-07-17T09:58:17Z</time>
      </trkpt>
      <trkpt lat="45.820811111479998" lon="7.777825780212879">
        <ele>2545.23</ele>
        <time>2016-07-17T09:58:26Z</time>
      </trkpt>
      <trkpt lat="45.820826534181833" lon="7.777863582596183">
        <ele>2546.6700000000001</ele>
        <time>2016-07-17T09:58:37Z</time>
      </trkpt>
      <trkpt lat="45.820808093994856" lon="7.777928374707699">
        <ele>2547.6300000000001</ele>
        <time>2016-07-17T09:58:48Z</time>
      </trkpt>
      <trkpt lat="45.820815805345774" lon="7.777931895107031">
        <ele>2549.0700000000002</ele>
        <time>2016-07-17T09:58:56Z</time>
      </trkpt>
      <trkpt lat="45.820841789245605" lon="7.777960142120719">
        <ele>2550.5100000000002</ele>
        <time>2016-07-17T09:59:07Z</time>
      </trkpt>
      <trkpt lat="45.820839945226908" lon="7.777937008067966">
        <ele>2551.96</ele>
        <time>2016-07-17T09:59:17Z</time>
      </trkpt>
      <trkpt lat="45.820835502818227" lon="7.777948323637247">
        <ele>2551.96</ele>
        <time>2016-07-17T09:59:30Z</time>
      </trkpt>
      <trkpt lat="45.820879088714719" lon="7.777941031381488">
        <ele>2553.4000000000001</ele>
        <time>2016-07-17T09:59:52Z</time>
      </trkpt>
      <trkpt lat="45.820912029594183" lon="7.777954107150435">
        <ele>2554.8400000000001</ele>
        <time>2016-07-17T10:00:03Z</time>
      </trkpt>
      <trkpt lat="45.820948574692011" lon="7.77797925285995">
        <ele>2556.2800000000002</ele>
        <time>2016-07-17T10:00:12Z</time>
      </trkpt>
      <trkpt lat="45.82097296603024" lon="7.778003644198179">
        <ele>2557.2399999999998</ele>
        <time>2016-07-17T10:00:21Z</time>
      </trkpt>
      <trkpt lat="45.820991490036249" lon="7.778037004172802">
        <ele>2558.6900000000001</ele>
        <time>2016-07-17T10:00:30Z</time>
      </trkpt>
      <trkpt lat="45.820980258285999" lon="7.778047397732735">
        <ele>2559.6500000000001</ele>
        <time>2016-07-17T10:00:40Z</time>
      </trkpt>
      <trkpt lat="45.820997944101691" lon="7.778097186237574">
        <ele>2561.0900000000001</ele>
        <time>2016-07-17T10:00:55Z</time>
      </trkpt>
      <trkpt lat="45.821013282984495" lon="7.778135826811194">
        <ele>2563.9699999999998</ele>
        <time>2016-07-17T10:01:06Z</time>
      </trkpt>
      <trkpt lat="45.821000710129738" lon="7.778149070218206">
        <ele>2564.4499999999998</ele>
        <time>2016-07-17T10:01:20Z</time>
      </trkpt>
      <trkpt lat="45.821018815040588" lon="7.77820254676044">
        <ele>2566.3800000000001</ele>
        <time>2016-07-17T10:01:30Z</time>
      </trkpt>
      <trkpt lat="45.82098470069468" lon="7.778220484033227">
        <ele>2568.7800000000002</ele>
        <time>2016-07-17T10:01:40Z</time>
      </trkpt>
      <trkpt lat="45.821007583290339" lon="7.778256274759769">
        <ele>2569.7399999999998</ele>
        <time>2016-07-17T10:01:50Z</time>
      </trkpt>
      <trkpt lat="45.821011019870639" lon="7.778274966403842">
        <ele>2571.6599999999999</ele>
        <time>2016-07-17T10:02:01Z</time>
      </trkpt>
      <trkpt lat="45.821051923558116" lon="7.778301704674959">
        <ele>2573.1100000000001</ele>
        <time>2016-07-17T10:02:12Z</time>
      </trkpt>
      <trkpt lat="45.82107606343925" lon="7.778307823464274">
        <ele>2575.0300000000002</ele>
        <time>2016-07-17T10:02:22Z</time>
      </trkpt>
      <trkpt lat="45.821107411757112" lon="7.778313606977463">
        <ele>2575.9899999999998</ele>
        <time>2016-07-17T10:02:32Z</time>
      </trkpt>
      <trkpt lat="45.821128115057945" lon="7.778339758515358">
        <ele>2577.4299999999998</ele>
        <time>2016-07-17T10:02:41Z</time>
      </trkpt>
      <trkpt lat="45.821117553859949" lon="7.778365993872285">
        <ele>2578.3899999999999</ele>
        <time>2016-07-17T10:02:51Z</time>
      </trkpt>
      <trkpt lat="45.821154182776809" lon="7.778402371332049">
        <ele>2580.3200000000002</ele>
        <time>2016-07-17T10:03:01Z</time>
      </trkpt>
      <trkpt lat="45.821138173341751" lon="7.778464648872614">
        <ele>2581.2800000000002</ele>
        <time>2016-07-17T10:03:10Z</time>
      </trkpt>
      <trkpt lat="45.821144124493003" lon="7.778508737683296">
        <ele>2582.2399999999998</ele>
        <time>2016-07-17T10:03:18Z</time>
      </trkpt>
      <trkpt lat="45.821171198040247" lon="7.778565315529704">
        <ele>2582.7199999999998</ele>
        <time>2016-07-17T10:03:26Z</time>
      </trkpt>
      <trkpt lat="45.821179579943419" lon="7.778589958325028">
        <ele>2582.7199999999998</ele>
        <time>2016-07-17T10:03:28Z</time>
      </trkpt>
      <trkpt lat="45.821227608248591" lon="7.778598172590137">
        <ele>2583.1999999999998</ele>
        <time>2016-07-17T10:03:37Z</time>
      </trkpt>
      <trkpt lat="45.821269350126386" lon="7.778657348826528">
        <ele>2584.6399999999999</ele>
        <time>2016-07-17T10:03:46Z</time>
      </trkpt>
      <trkpt lat="45.821316288784146" lon="7.778703197836876">
        <ele>2586.0799999999999</ele>
        <time>2016-07-17T10:03:57Z</time>
      </trkpt>
      <trkpt lat="45.821348559111357" lon="7.778786513954401">
        <ele>2587.04</ele>
        <time>2016-07-17T10:04:07Z</time>
      </trkpt>
      <trkpt lat="45.821354258805513" lon="7.778839655220509">
        <ele>2588.4899999999998</ele>
        <time>2016-07-17T10:04:16Z</time>
      </trkpt>
      <trkpt lat="45.821382002905011" lon="7.778889611363411">
        <ele>2590.4099999999999</ele>
        <time>2016-07-17T10:04:26Z</time>
      </trkpt>
      <trkpt lat="45.821406058967113" lon="7.778976950794458">
        <ele>2591.8499999999999</ele>
        <time>2016-07-17T10:04:37Z</time>
      </trkpt>
      <trkpt lat="45.821448303759098" lon="7.779063116759062">
        <ele>2592.3299999999999</ele>
        <time>2016-07-17T10:04:47Z</time>
      </trkpt>
      <trkpt lat="45.821457020938396" lon="7.77912799268961">
        <ele>2593.29</ele>
        <time>2016-07-17T10:04:59Z</time>
      </trkpt>
      <trkpt lat="45.821466157212853" lon="7.779210973531008">
        <ele>2593.77</ele>
        <time>2016-07-17T10:05:09Z</time>
      </trkpt>
      <trkpt lat="45.821446124464273" lon="7.779306527227163">
        <ele>2595.2199999999998</ele>
        <time>2016-07-17T10:05:20Z</time>
      </trkpt>
      <trkpt lat="45.821426343172789" lon="7.779376599937677">
        <ele>2596.6599999999999</ele>
        <time>2016-07-17T10:05:28Z</time>
      </trkpt>
      <trkpt lat="45.82141662016511" lon="7.779431333765388">
        <ele>2597.1399999999999</ele>
        <time>2016-07-17T10:05:33Z</time>
      </trkpt>
      <trkpt lat="45.821411591023207" lon="7.779445247724652">
        <ele>2597.6199999999999</ele>
        <time>2016-07-17T10:05:34Z</time>
      </trkpt>
      <trkpt lat="45.821363478899002" lon="7.779532419517636">
        <ele>2598.5799999999999</ele>
        <time>2016-07-17T10:05:44Z</time>
      </trkpt>
      <trkpt lat="45.821325927972794" lon="7.779641384258866">
        <ele>2600.02</ele>
        <time>2016-07-17T10:05:56Z</time>
      </trkpt>
      <trkpt lat="45.821307487785816" lon="7.779684131965041">
        <ele>2600.02</ele>
        <time>2016-07-17T10:06:01Z</time>
      </trkpt>
      <trkpt lat="45.821296758949757" lon="7.779688071459532">
        <ele>2600.02</ele>
        <time>2016-07-17T10:06:02Z</time>
      </trkpt>
      <trkpt lat="45.821251161396503" lon="7.779670134186745">
        <ele>2600.5</ele>
        <time>2016-07-17T10:06:10Z</time>
      </trkpt>
      <trkpt lat="45.821267925202847" lon="7.779758898541331">
        <ele>2603.3899999999999</ele>
        <time>2016-07-17T10:06:20Z</time>
      </trkpt>
      <trkpt lat="45.821269014850259" lon="7.77981991879642">
        <ele>2604.3499999999999</ele>
        <time>2016-07-17T10:06:32Z</time>
      </trkpt>
      <trkpt lat="45.821262979879975" lon="7.779839113354683">
        <ele>2605.3099999999999</ele>
        <time>2016-07-17T10:06:41Z</time>
      </trkpt>
      <trkpt lat="45.82127739675343" lon="7.779898121953011">
        <ele>2606.75</ele>
        <time>2016-07-17T10:06:51Z</time>
      </trkpt>
      <trkpt lat="45.821299105882645" lon="7.779972134158015">
        <ele>2608.1900000000001</ele>
        <time>2016-07-17T10:07:01Z</time>
      </trkpt>
      <trkpt lat="45.821281671524048" lon="7.780067436397076">
        <ele>2610.1199999999999</ele>
        <time>2016-07-17T10:07:12Z</time>
      </trkpt>
      <trkpt lat="45.821293406188488" lon="7.780141783878207">
        <ele>2611.5599999999999</ele>
        <time>2016-07-17T10:07:21Z</time>
      </trkpt>
      <trkpt lat="45.821289047598839" lon="7.780230296775699">
        <ele>2613</ele>
        <time>2016-07-17T10:07:31Z</time>
      </trkpt>
      <trkpt lat="45.821266835555434" lon="7.780312774702907">
        <ele>2615.4000000000001</ele>
        <time>2016-07-17T10:07:42Z</time>
      </trkpt>
      <trkpt lat="45.821247054263949" lon="7.7803442068398">
        <ele>2615.8800000000001</ele>
        <time>2016-07-17T10:07:46Z</time>
      </trkpt>
      <trkpt lat="45.821203049272299" lon="7.780449651181698">
        <ele>2616.8499999999999</ele>
        <time>2016-07-17T10:07:55Z</time>
      </trkpt>
      <trkpt lat="45.821156445890665" lon="7.780548306182027">
        <ele>2617.8099999999999</ele>
        <time>2016-07-17T10:08:07Z</time>
      </trkpt>
      <trkpt lat="45.821155775338411" lon="7.780615277588368">
        <ele>2619.25</ele>
        <time>2016-07-17T10:08:16Z</time>
      </trkpt>
      <trkpt lat="45.821161726489663" lon="7.780605051666498">
        <ele>2619.25</ele>
        <time>2016-07-17T10:08:27Z</time>
      </trkpt>
      <trkpt lat="45.821163654327393" lon="7.780618378892541">
        <ele>2619.73</ele>
        <time>2016-07-17T10:08:38Z</time>
      </trkpt>
      <trkpt lat="45.821146387606859" lon="7.780658360570669">
        <ele>2620.6900000000001</ele>
        <time>2016-07-17T10:08:49Z</time>
      </trkpt>
      <trkpt lat="45.821100873872638" lon="7.780705047771335">
        <ele>2620.6900000000001</ele>
        <time>2016-07-17T10:09:03Z</time>
      </trkpt>
      <trkpt lat="45.821082349866629" lon="7.780675711110234">
        <ele>2620.6900000000001</ele>
        <time>2016-07-17T10:09:12Z</time>
      </trkpt>
      <trkpt lat="45.82107019610703" lon="7.780655259266496">
        <ele>2621.1700000000001</ele>
        <time>2016-07-17T10:09:22Z</time>
      </trkpt>
      <trkpt lat="45.821078158915043" lon="7.780627515166998">
        <ele>2621.1700000000001</ele>
        <time>2016-07-17T10:09:39Z</time>
      </trkpt>
      <trkpt lat="45.821077656000853" lon="7.780648302286863">
        <ele>2620.6900000000001</ele>
        <time>2016-07-17T10:10:03Z</time>
      </trkpt>
      <trkpt lat="45.82109609618783" lon="7.780685434117913">
        <ele>2621.1700000000001</ele>
        <time>2016-07-17T10:10:09Z</time>
      </trkpt>
      <trkpt lat="45.821073548868299" lon="7.780716614797711">
        <ele>2621.1700000000001</ele>
        <time>2016-07-17T10:10:16Z</time>
      </trkpt>
      <trkpt lat="45.821078578010201" lon="7.780712507665157">
        <ele>2621.1700000000001</ele>
        <time>2016-07-17T10:10:46Z</time>
      </trkpt>
      <trkpt lat="45.821059383451939" lon="7.780706807971001">
        <ele>2621.6500000000001</ele>
        <time>2016-07-17T10:10:58Z</time>
      </trkpt>
      <trkpt lat="45.821070279926062" lon="7.780707646161318">
        <ele>2622.1300000000001</ele>
        <time>2016-07-17T10:11:28Z</time>
      </trkpt>
      <trkpt lat="45.82109123468399" lon="7.780696833506227">
        <ele>2621.6500000000001</ele>
        <time>2016-07-17T10:11:43Z</time>
      </trkpt>
      <trkpt lat="45.821059718728065" lon="7.780720973387361">
        <ele>2622.1300000000001</ele>
        <time>2016-07-17T10:12:13Z</time>
      </trkpt>
      <trkpt lat="45.821050917729735" lon="7.780713094398379">
        <ele>2622.6100000000001</ele>
        <time>2016-07-17T10:12:31Z</time>
      </trkpt>
      <trkpt lat="45.821055024862289" lon="7.780707059428096">
        <ele>2622.6100000000001</ele>
        <time>2016-07-17T10:12:55Z</time>
      </trkpt>
      <trkpt lat="45.821038763970137" lon="7.780711334198713">
        <ele>2622.6100000000001</ele>
        <time>2016-07-17T10:13:23Z</time>
      </trkpt>
      <trkpt lat="45.821037422865629" lon="7.780700605362654">
        <ele>2623.0900000000001</ele>
        <time>2016-07-17T10:13:52Z</time>
      </trkpt>
      <trkpt lat="45.821037506684661" lon="7.780711920931935">
        <ele>2623.0900000000001</ele>
        <time>2016-07-17T10:14:15Z</time>
      </trkpt>
      <trkpt lat="45.820997525006533" lon="7.780720135197043">
        <ele>2623.0900000000001</ele>
        <time>2016-07-17T10:14:43Z</time>
      </trkpt>
      <trkpt lat="45.821038009598851" lon="7.780721643939614">
        <ele>2623.5799999999999</ele>
        <time>2016-07-17T10:15:03Z</time>
      </trkpt>
      <trkpt lat="45.821020491421223" lon="7.780714686959982">
        <ele>2623.5799999999999</ele>
        <time>2016-07-17T10:15:25Z</time>
      </trkpt>
      <trkpt lat="45.821022167801857" lon="7.780718123540282">
        <ele>2623.5799999999999</ele>
        <time>2016-07-17T10:15:50Z</time>
      </trkpt>
      <trkpt lat="45.821018731221557" lon="7.780712759122253">
        <ele>2623.5799999999999</ele>
        <time>2016-07-17T10:16:10Z</time>
      </trkpt>
      <trkpt lat="45.820998027920723" lon="7.780731283128262">
        <ele>2623.5799999999999</ele>
        <time>2016-07-17T10:16:38Z</time>
      </trkpt>
      <trkpt lat="45.820995094254613" lon="7.780736479908228">
        <ele>2623.5799999999999</ele>
        <time>2016-07-17T10:16:59Z</time>
      </trkpt>
      <trkpt lat="45.821001632139087" lon="7.780702281743288">
        <ele>2624.0599999999999</ele>
        <time>2016-07-17T10:17:28Z</time>
      </trkpt>
      <trkpt lat="45.820995345711708" lon="7.780711334198713">
        <ele>2624.0599999999999</ele>
        <time>2016-07-17T10:17:55Z</time>
      </trkpt>
      <trkpt lat="45.821011019870639" lon="7.780732037499547">
        <ele>2624.0599999999999</ele>
        <time>2016-07-17T10:18:24Z</time>
      </trkpt>
      <trkpt lat="45.821002637967467" lon="7.780717452988029">
        <ele>2624.54</ele>
        <time>2016-07-17T10:18:43Z</time>
      </trkpt>
      <trkpt lat="45.821002973243594" lon="7.780721476301551">
        <ele>2624.54</ele>
        <time>2016-07-17T10:18:59Z</time>
      </trkpt>
      <trkpt lat="45.821002554148436" lon="7.78070186264813">
        <ele>2624.54</ele>
        <time>2016-07-17T10:19:18Z</time>
      </trkpt>
      <trkpt lat="45.821033399552107" lon="7.780677890405059">
        <ele>2624.54</ele>
        <time>2016-07-17T10:19:41Z</time>
      </trkpt>
      <trkpt lat="45.82104186527431" lon="7.780695911496878">
        <ele>2624.54</ele>
        <time>2016-07-17T10:19:58Z</time>
      </trkpt>
      <trkpt lat="45.821013450622559" lon="7.780717620626092">
        <ele>2624.54</ele>
        <time>2016-07-17T10:20:13Z</time>
      </trkpt>
      <trkpt lat="45.821028789505363" lon="7.780708819627762">
        <ele>2625.02</ele>
        <time>2016-07-17T10:20:28Z</time>
      </trkpt>
      <trkpt lat="45.821040272712708" lon="7.78070236556232">
        <ele>2625.02</ele>
        <time>2016-07-17T10:20:32Z</time>
      </trkpt>
      <trkpt lat="45.821012863889337" lon="7.780714686959982">
        <ele>2633.6700000000001</ele>
        <time>2016-07-17T10:20:42Z</time>
      </trkpt>
      <trkpt lat="45.821120906621218" lon="7.780667077749968">
        <ele>2626.46</ele>
        <time>2016-07-17T10:20:49Z</time>
      </trkpt>
      <trkpt lat="45.821102214977145" lon="7.780671939253807">
        <ele>2624.54</ele>
        <time>2016-07-17T10:20:51Z</time>
      </trkpt>
      <trkpt lat="45.821065418422222" lon="7.78070236556232">
        <ele>2624.54</ele>
        <time>2016-07-17T10:21:07Z</time>
      </trkpt>
      <trkpt lat="45.821067513898015" lon="7.780729774385691">
        <ele>2624.54</ele>
        <time>2016-07-17T10:21:34Z</time>
      </trkpt>
      <trkpt lat="45.821080924943089" lon="7.780699850991368">
        <ele>2625.02</ele>
        <time>2016-07-17T10:21:50Z</time>
      </trkpt>
      <trkpt lat="45.821096347644925" lon="7.780686104670167">
        <ele>2625.02</ele>
        <time>2016-07-17T10:22:18Z</time>
      </trkpt>
      <trkpt lat="45.821065753698349" lon="7.780691720545292">
        <ele>2625.5</ele>
        <time>2016-07-17T10:22:34Z</time>
      </trkpt>
      <trkpt lat="45.821082936599851" lon="7.780694402754307">
        <ele>2625.5</ele>
        <time>2016-07-17T10:22:53Z</time>
      </trkpt>
      <trkpt lat="45.821085870265961" lon="7.780691804364324">
        <ele>2625.5</ele>
        <time>2016-07-17T10:23:13Z</time>
      </trkpt>
      <trkpt lat="45.821083774790168" lon="7.780690882354975">
        <ele>2625.02</ele>
        <time>2016-07-17T10:23:14Z</time>
      </trkpt>
      <trkpt lat="45.821095257997513" lon="7.780698258429766">
        <ele>2625.98</ele>
        <time>2016-07-17T10:23:24Z</time>
      </trkpt>
      <trkpt lat="45.821105903014541" lon="7.780740670859814">
        <ele>2626.46</ele>
        <time>2016-07-17T10:23:39Z</time>
      </trkpt>
      <trkpt lat="45.821072123944759" lon="7.78073069639504">
        <ele>2626.46</ele>
        <time>2016-07-17T10:23:52Z</time>
      </trkpt>
      <trkpt lat="45.821058042347431" lon="7.780750812962651">
        <ele>2626.9400000000001</ele>
        <time>2016-07-17T10:24:07Z</time>
      </trkpt>
      <trkpt lat="45.821062484756112" lon="7.780752489343286">
        <ele>2626.46</ele>
        <time>2016-07-17T10:24:22Z</time>
      </trkpt>
      <trkpt lat="45.821029795333743" lon="7.780715608969331">
        <ele>2626.9400000000001</ele>
        <time>2016-07-17T10:24:38Z</time>
      </trkpt>
      <trkpt lat="45.820993836969137" lon="7.78073656372726">
        <ele>2627.4200000000001</ele>
        <time>2016-07-17T10:24:49Z</time>
      </trkpt>
      <trkpt lat="45.820969110354781" lon="7.780792806297541">
        <ele>2629.3400000000001</ele>
        <time>2016-07-17T10:25:00Z</time>
      </trkpt>
      <trkpt lat="45.820917142555118" lon="7.78082650154829">
        <ele>2630.3000000000002</ele>
        <time>2016-07-17T10:25:10Z</time>
      </trkpt>
      <trkpt lat="45.820903731510043" lon="7.780928928405047">
        <ele>2631.27</ele>
        <time>2016-07-17T10:25:21Z</time>
      </trkpt>
      <trkpt lat="45.820921333506703" lon="7.781020710244775">
        <ele>2632.71</ele>
        <time>2016-07-17T10:25:31Z</time>
      </trkpt>
      <trkpt lat="45.820919657126069" lon="7.781087011098862">
        <ele>2634.1500000000001</ele>
        <time>2016-07-17T10:25:42Z</time>
      </trkpt>
      <trkpt lat="45.820947987958789" lon="7.781186169013381">
        <ele>2636.0700000000002</ele>
        <time>2016-07-17T10:25:53Z</time>
      </trkpt>
      <trkpt lat="45.820976067334414" lon="7.781274765729904">
        <ele>2637.0300000000002</ele>
        <time>2016-07-17T10:26:03Z</time>
      </trkpt>
      <trkpt lat="45.820995680987835" lon="7.781351460143924">
        <ele>2638.96</ele>
        <time>2016-07-17T10:26:13Z</time>
      </trkpt>
      <trkpt lat="45.820983611047268" lon="7.781459083780646">
        <ele>2640.4000000000001</ele>
        <time>2016-07-17T10:26:24Z</time>
      </trkpt>
      <trkpt lat="45.820974642410874" lon="7.78153158724308">
        <ele>2641.3600000000001</ele>
        <time>2016-07-17T10:26:34Z</time>
      </trkpt>
      <trkpt lat="45.820978246629238" lon="7.781627979129553">
        <ele>2643.2800000000002</ele>
        <time>2016-07-17T10:26:43Z</time>
      </trkpt>
      <trkpt lat="45.82097782753408" lon="7.781648179516196">
        <ele>2643.2800000000002</ele>
        <time>2016-07-17T10:26:45Z</time>
      </trkpt>
      <trkpt lat="45.820969361811876" lon="7.781733339652419">
        <ele>2644.2399999999998</ele>
        <time>2016-07-17T10:26:55Z</time>
      </trkpt>
      <trkpt lat="45.820950837805867" lon="7.781767956912518">
        <ele>2645.21</ele>
        <time>2016-07-17T10:27:02Z</time>
      </trkpt>
      <trkpt lat="45.820902474224567" lon="7.781856218352914">
        <ele>2646.1700000000001</ele>
        <time>2016-07-17T10:27:13Z</time>
      </trkpt>
      <trkpt lat="45.820886297151446" lon="7.781944731250405">
        <ele>2647.6100000000001</ele>
        <time>2016-07-17T10:27:22Z</time>
      </trkpt>
      <trkpt lat="45.820854362100363" lon="7.781990077346563">
        <ele>2648.5700000000002</ele>
        <time>2016-07-17T10:27:28Z</time>
      </trkpt>
      <trkpt lat="45.820809435099363" lon="7.782053360715509">
        <ele>2650.4899999999998</ele>
        <time>2016-07-17T10:27:39Z</time>
      </trkpt>
      <trkpt lat="45.820756545290351" lon="7.782075824216008">
        <ele>2651.9299999999998</ele>
        <time>2016-07-17T10:27:49Z</time>
      </trkpt>
      <trkpt lat="45.820713965222239" lon="7.78214430436492">
        <ele>2653.8600000000001</ele>
        <time>2016-07-17T10:28:01Z</time>
      </trkpt>
      <trkpt lat="45.820712121203542" lon="7.78219954110682">
        <ele>2655.3000000000002</ele>
        <time>2016-07-17T10:28:10Z</time>
      </trkpt>
      <trkpt lat="45.820642132312059" lon="7.78223130851984">
        <ele>2656.2600000000002</ele>
        <time>2016-07-17T10:28:20Z</time>
      </trkpt>
      <trkpt lat="45.820614220574498" lon="7.782269613817334">
        <ele>2657.2199999999998</ele>
        <time>2016-07-17T10:28:32Z</time>
      </trkpt>
      <trkpt lat="45.820604916661978" lon="7.782299285754561">
        <ele>2657.6999999999998</ele>
        <time>2016-07-17T10:28:43Z</time>
      </trkpt>
      <trkpt lat="45.820585135370493" lon="7.782338010147214">
        <ele>2658.1799999999998</ele>
        <time>2016-07-17T10:28:47Z</time>
      </trkpt>
      <trkpt lat="45.820575580000877" lon="7.782436832785606">
        <ele>2660.1100000000001</ele>
        <time>2016-07-17T10:28:57Z</time>
      </trkpt>
      <trkpt lat="45.820599803701043" lon="7.782482514157891">
        <ele>2662.0300000000002</ele>
        <time>2016-07-17T10:29:06Z</time>
      </trkpt>
      <trkpt lat="45.820584380999207" lon="7.782579492777586">
        <ele>2663.9499999999998</ele>
        <time>2016-07-17T10:29:18Z</time>
      </trkpt>
      <trkpt lat="45.820565773174167" lon="7.782663311809301">
        <ele>2665.3899999999999</ele>
        <time>2016-07-17T10:29:30Z</time>
      </trkpt>
      <trkpt lat="45.820561079308391" lon="7.782726343721151">
        <ele>2666.8299999999999</ele>
        <time>2016-07-17T10:29:39Z</time>
      </trkpt>
      <trkpt lat="45.820568539202213" lon="7.782772528007627">
        <ele>2668.2800000000002</ele>
        <time>2016-07-17T10:29:47Z</time>
      </trkpt>
      <trkpt lat="45.820551356300712" lon="7.782823322340846">
        <ele>2668.7600000000002</ele>
        <time>2016-07-17T10:29:56Z</time>
      </trkpt>
      <trkpt lat="45.820524366572499" lon="7.782890209928155">
        <ele>2670.1999999999998</ele>
        <time>2016-07-17T10:30:05Z</time>
      </trkpt>
      <trkpt lat="45.820521684363484" lon="7.782923569902778">
        <ele>2671.6399999999999</ele>
        <time>2016-07-17T10:30:13Z</time>
      </trkpt>
      <trkpt lat="45.820483714342117" lon="7.782982243224978">
        <ele>2672.5999999999999</ele>
        <time>2016-07-17T10:30:23Z</time>
      </trkpt>
      <trkpt lat="45.820463513955474" lon="7.783039240166545">
        <ele>2672.5999999999999</ele>
        <time>2016-07-17T10:30:28Z</time>
      </trkpt>
      <trkpt lat="45.820456137880683" lon="7.783078048378229">
        <ele>2673.0799999999999</ele>
        <time>2016-07-17T10:30:31Z</time>
      </trkpt>
      <trkpt lat="45.820463849231601" lon="7.783118281513453">
        <ele>2674.04</ele>
        <time>2016-07-17T10:30:36Z</time>
      </trkpt>
      <trkpt lat="45.820452366024256" lon="7.783133117482066">
        <ele>2674.52</ele>
        <time>2016-07-17T10:30:38Z</time>
      </trkpt>
      <trkpt lat="45.820402326062322" lon="7.783207297325134">
        <ele>2676.9299999999998</ele>
        <time>2016-07-17T10:30:49Z</time>
      </trkpt>
      <trkpt lat="45.820375923067331" lon="7.783284494653344">
        <ele>2677.4099999999999</ele>
        <time>2016-07-17T10:30:59Z</time>
      </trkpt>
      <trkpt lat="45.820359326899052" lon="7.783311065286398">
        <ele>2678.3699999999999</ele>
        <time>2016-07-17T10:31:03Z</time>
      </trkpt>
      <trkpt lat="45.820321524515748" lon="7.783378455787897">
        <ele>2679.8099999999999</ele>
        <time>2016-07-17T10:31:12Z</time>
      </trkpt>
      <trkpt lat="45.820301491767168" lon="7.7834611851722">
        <ele>2680.77</ele>
        <time>2016-07-17T10:31:22Z</time>
      </trkpt>
      <trkpt lat="45.820250865072012" lon="7.783479038625956">
        <ele>2682.2199999999998</ele>
        <time>2016-07-17T10:31:31Z</time>
      </trkpt>
      <trkpt lat="45.82023267634213" lon="7.783475602045655">
        <ele>2682.2199999999998</ele>
        <time>2016-07-17T10:31:41Z</time>
      </trkpt>
      <trkpt lat="45.820234520360827" lon="7.783444002270699">
        <ele>2682.6999999999998</ele>
        <time>2016-07-17T10:31:51Z</time>
      </trkpt>
      <trkpt lat="45.820239381864667" lon="7.783451545983553">
        <ele>2682.6999999999998</ele>
        <time>2016-07-17T10:32:03Z</time>
      </trkpt>
      <trkpt lat="45.820243991911411" lon="7.783438134938479">
        <ele>2682.6999999999998</ele>
        <time>2016-07-17T10:32:21Z</time>
      </trkpt>
      <trkpt lat="45.820231838151813" lon="7.783507537096739">
        <ele>2683.1799999999998</ele>
        <time>2016-07-17T10:32:44Z</time>
      </trkpt>
      <trkpt lat="45.82025078125298" lon="7.783567719161511">
        <ele>2683.6599999999999</ele>
        <time>2016-07-17T10:32:55Z</time>
      </trkpt>
      <trkpt lat="45.820244746282697" lon="7.783582555130124">
        <ele>2683.6599999999999</ele>
        <time>2016-07-17T10:32:56Z</time>
      </trkpt>
      <trkpt lat="45.820212056860328" lon="7.783654304221273">
        <ele>2685.0999999999999</ele>
        <time>2016-07-17T10:33:07Z</time>
      </trkpt>
      <trkpt lat="45.820216666907072" lon="7.783674504607916">
        <ele>2685.0999999999999</ele>
        <time>2016-07-17T10:33:18Z</time>
      </trkpt>
      <trkpt lat="45.820241896435618" lon="7.783708702772856">
        <ele>2685.5799999999999</ele>
        <time>2016-07-17T10:33:29Z</time>
      </trkpt>
      <trkpt lat="45.820191856473684" lon="7.78368104249239">
        <ele>2685.5799999999999</ele>
        <time>2016-07-17T10:33:44Z</time>
      </trkpt>
      <trkpt lat="45.82019655033946" lon="7.783645587041974">
        <ele>2686.0599999999999</ele>
        <time>2016-07-17T10:34:11Z</time>
      </trkpt>
      <trkpt lat="45.820213565602899" lon="7.783653466030955">
        <ele>2685.5799999999999</ele>
        <time>2016-07-17T10:34:21Z</time>
      </trkpt>
      <trkpt lat="45.820206524804235" lon="7.78365857899189">
        <ele>2685.5799999999999</ele>
        <time>2016-07-17T10:34:45Z</time>
      </trkpt>
      <trkpt lat="45.82019361667335" lon="7.783759832382202">
        <ele>2686.0599999999999</ele>
        <time>2016-07-17T10:34:57Z</time>
      </trkpt>
      <trkpt lat="45.820170985534787" lon="7.783799730241299">
        <ele>2686.54</ele>
        <time>2016-07-17T10:35:00Z</time>
      </trkpt>
      <trkpt lat="45.820119604468346" lon="7.783934595063329">
        <ele>2687.98</ele>
        <time>2016-07-17T10:35:10Z</time>
      </trkpt>
      <trkpt lat="45.820102337747812" lon="7.78397181071341">
        <ele>2688.46</ele>
        <time>2016-07-17T10:35:13Z</time>
      </trkpt>
      <trkpt lat="45.820050621405244" lon="7.784028807654977">
        <ele>2689.9099999999999</ele>
        <time>2016-07-17T10:35:20Z</time>
      </trkpt>
      <trkpt lat="45.820019440725446" lon="7.784096784889698">
        <ele>2690.3899999999999</ele>
        <time>2016-07-17T10:35:26Z</time>
      </trkpt>
      <trkpt lat="45.819950290024281" lon="7.784158727154136">
        <ele>2691.8299999999999</ele>
        <time>2016-07-17T10:35:35Z</time>
      </trkpt>
      <trkpt lat="45.819918438792229" lon="7.784192757681012">
        <ele>2692.3099999999999</ele>
        <time>2016-07-17T10:35:39Z</time>
      </trkpt>
      <trkpt lat="45.819888263940811" lon="7.784247575327754">
        <ele>2693.27</ele>
        <time>2016-07-17T10:35:44Z</time>
      </trkpt>
      <trkpt lat="45.819837553426623" lon="7.784313876181841">
        <ele>2694.71</ele>
        <time>2016-07-17T10:35:52Z</time>
      </trkpt>
      <trkpt lat="45.819824561476707" lon="7.784402053803206">
        <ele>2696.1500000000001</ele>
        <time>2016-07-17T10:36:01Z</time>
      </trkpt>
      <trkpt lat="45.819801427423954" lon="7.784498361870647">
        <ele>2697.5999999999999</ele>
        <time>2016-07-17T10:36:11Z</time>
      </trkpt>
      <trkpt lat="45.819797404110432" lon="7.784589137881994">
        <ele>2698.5599999999999</ele>
        <time>2016-07-17T10:36:21Z</time>
      </trkpt>
      <trkpt lat="45.819766726344824" lon="7.784617803990841">
        <ele>2699.52</ele>
        <time>2016-07-17T10:36:30Z</time>
      </trkpt>
      <trkpt lat="45.819771839305758" lon="7.78461922891438">
        <ele>2699.52</ele>
        <time>2016-07-17T10:36:46Z</time>
      </trkpt>
      <trkpt lat="45.819789944216609" lon="7.784645045176148">
        <ele>2699.52</ele>
        <time>2016-07-17T10:37:06Z</time>
      </trkpt>
      <trkpt lat="45.819771001115441" lon="7.784669101238251">
        <ele>2700</ele>
        <time>2016-07-17T10:37:19Z</time>
      </trkpt>
      <trkpt lat="45.819777455180883" lon="7.784761972725391">
        <ele>2701.9200000000001</ele>
        <time>2016-07-17T10:37:30Z</time>
      </trkpt>
      <trkpt lat="45.819777706637979" lon="7.784831877797842">
        <ele>2702.8800000000001</ele>
        <time>2016-07-17T10:37:39Z</time>
      </trkpt>
      <trkpt lat="45.819750465452671" lon="7.784942016005516">
        <ele>2704.8099999999999</ele>
        <time>2016-07-17T10:37:50Z</time>
      </trkpt>
      <trkpt lat="45.819742754101753" lon="7.784969760105014">
        <ele>2705.29</ele>
        <time>2016-07-17T10:37:53Z</time>
      </trkpt>
      <trkpt lat="45.819748118519783" lon="7.785051232203841">
        <ele>2706.25</ele>
        <time>2016-07-17T10:38:02Z</time>
      </trkpt>
      <trkpt lat="45.819770330563188" lon="7.785105295479298">
        <ele>2708.1700000000001</ele>
        <time>2016-07-17T10:38:09Z</time>
      </trkpt>
      <trkpt lat="45.819759182631969" lon="7.785193054005504">
        <ele>2710.0900000000001</ele>
        <time>2016-07-17T10:38:18Z</time>
      </trkpt>
      <trkpt lat="45.819746693596244" lon="7.785209314897656">
        <ele>2711.0599999999999</ele>
        <time>2016-07-17T10:38:21Z</time>
      </trkpt>
      <trkpt lat="45.819707382470369" lon="7.78527201153338">
        <ele>2712.02</ele>
        <time>2016-07-17T10:38:30Z</time>
      </trkpt>
      <trkpt lat="45.819697575643659" lon="7.785348957404494">
        <ele>2713.9400000000001</ele>
        <time>2016-07-17T10:38:39Z</time>
      </trkpt>
      <trkpt lat="45.819695983082056" lon="7.785402936860919">
        <ele>2715.3800000000001</ele>
        <time>2016-07-17T10:38:45Z</time>
      </trkpt>
      <trkpt lat="45.819702772423625" lon="7.785472506657243">
        <ele>2718.27</ele>
        <time>2016-07-17T10:38:54Z</time>
      </trkpt>
      <trkpt lat="45.819678800180554" lon="7.785520451143384">
        <ele>2718.75</ele>
        <time>2016-07-17T10:39:02Z</time>
      </trkpt>
      <trkpt lat="45.819687601178885" lon="7.785581974312663">
        <ele>2720.1900000000001</ele>
        <time>2016-07-17T10:39:12Z</time>
      </trkpt>
      <trkpt lat="45.819687684997916" lon="7.78564240783453">
        <ele>2722.1100000000001</ele>
        <time>2016-07-17T10:39:20Z</time>
      </trkpt>
      <trkpt lat="45.819648457691073" lon="7.785662021487951">
        <ele>2724.0300000000002</ele>
        <time>2016-07-17T10:39:29Z</time>
      </trkpt>
      <trkpt lat="45.819664383307099" lon="7.785709043964744">
        <ele>2725.48</ele>
        <time>2016-07-17T10:39:38Z</time>
      </trkpt>
      <trkpt lat="45.819607973098755" lon="7.785739721730351">
        <ele>2726.9200000000001</ele>
        <time>2016-07-17T10:39:46Z</time>
      </trkpt>
      <trkpt lat="45.819598669186234" lon="7.785738548263907">
        <ele>2726.9200000000001</ele>
        <time>2016-07-17T10:40:00Z</time>
      </trkpt>
      <trkpt lat="45.819617360830307" lon="7.78581390157342">
        <ele>2729.3200000000002</ele>
        <time>2016-07-17T10:40:11Z</time>
      </trkpt>
      <trkpt lat="45.819604368880391" lon="7.785884225741029">
        <ele>2731.2399999999998</ele>
        <time>2016-07-17T10:40:21Z</time>
      </trkpt>
      <trkpt lat="45.819632364436984" lon="7.785953124985099">
        <ele>2733.1700000000001</ele>
        <time>2016-07-17T10:40:29Z</time>
      </trkpt>
      <trkpt lat="45.819572182372212" lon="7.786004086956382">
        <ele>2734.6100000000001</ele>
        <time>2016-07-17T10:40:38Z</time>
      </trkpt>
      <trkpt lat="45.81957008689642" lon="7.786029819399118">
        <ele>2735.5700000000002</ele>
        <time>2016-07-17T10:40:42Z</time>
      </trkpt>
      <trkpt lat="45.819572601467371" lon="7.786081368103623">
        <ele>2737.0100000000002</ele>
        <time>2016-07-17T10:40:50Z</time>
      </trkpt>
      <trkpt lat="45.819599591195583" lon="7.786135096102953">
        <ele>2738.9299999999998</ele>
        <time>2016-07-17T10:40:58Z</time>
      </trkpt>
      <trkpt lat="45.819594897329807" lon="7.786199552938342">
        <ele>2740.3800000000001</ele>
        <time>2016-07-17T10:41:07Z</time>
      </trkpt>
      <trkpt lat="45.819580648094416" lon="7.786253532394767">
        <ele>2742.3000000000002</ele>
        <time>2016-07-17T10:41:14Z</time>
      </trkpt>
      <trkpt lat="45.8195935562253" lon="7.786283204331994">
        <ele>2743.2600000000002</ele>
        <time>2016-07-17T10:41:19Z</time>
      </trkpt>
      <trkpt lat="45.819615432992578" lon="7.786302650347352">
        <ele>2744.2199999999998</ele>
        <time>2016-07-17T10:41:22Z</time>
      </trkpt>
      <trkpt lat="45.819588024169207" lon="7.786343134939671">
        <ele>2745.6599999999999</ele>
        <time>2016-07-17T10:41:31Z</time>
      </trkpt>
      <trkpt lat="45.819567237049341" lon="7.786399042233825">
        <ele>2748.0700000000002</ele>
        <time>2016-07-17T10:41:43Z</time>
      </trkpt>
      <trkpt lat="45.819570505991578" lon="7.786443885415793">
        <ele>2749.0300000000002</ele>
        <time>2016-07-17T10:41:48Z</time>
      </trkpt>
      <trkpt lat="45.819575283676386" lon="7.786484705284238">
        <ele>2749.9899999999998</ele>
        <time>2016-07-17T10:41:53Z</time>
      </trkpt>
      <trkpt lat="45.819542929530144" lon="7.786520244553685">
        <ele>2751.9099999999999</ele>
        <time>2016-07-17T10:42:02Z</time>
      </trkpt>
      <trkpt lat="45.819542426615953" lon="7.786593167111278">
        <ele>2753.8299999999999</ele>
        <time>2016-07-17T10:42:13Z</time>
      </trkpt>
      <trkpt lat="45.819563632830977" lon="7.786619737744331">
        <ele>2754.8000000000002</ele>
        <time>2016-07-17T10:42:21Z</time>
      </trkpt>
      <trkpt lat="45.819543264806271" lon="7.786670364439488">
        <ele>2756.2399999999998</ele>
        <time>2016-07-17T10:42:30Z</time>
      </trkpt>
      <trkpt lat="45.81956815905869" lon="7.786734737455845">
        <ele>2758.1599999999999</ele>
        <time>2016-07-17T10:42:40Z</time>
      </trkpt>
      <trkpt lat="45.8195486292243" lon="7.786799613386393">
        <ele>2760.0799999999999</ele>
        <time>2016-07-17T10:42:51Z</time>
      </trkpt>
      <trkpt lat="45.819530272856355" lon="7.786809923127294">
        <ele>2760.5599999999999</ele>
        <time>2016-07-17T10:42:55Z</time>
      </trkpt>
      <trkpt lat="45.819534799084067" lon="7.786862645298243">
        <ele>2762</ele>
        <time>2016-07-17T10:43:03Z</time>
      </trkpt>
      <trkpt lat="45.819532284513116" lon="7.78693187981844">
        <ele>2763.4499999999998</ele>
        <time>2016-07-17T10:43:13Z</time>
      </trkpt>
      <trkpt lat="45.819548042491078" lon="7.786946380510926">
        <ele>2764.8899999999999</ele>
        <time>2016-07-17T10:43:20Z</time>
      </trkpt>
      <trkpt lat="45.819574361667037" lon="7.786970101296902">
        <ele>2765.8499999999999</ele>
        <time>2016-07-17T10:43:29Z</time>
      </trkpt>
      <trkpt lat="45.819559693336487" lon="7.787046795710921">
        <ele>2767.77</ele>
        <time>2016-07-17T10:43:39Z</time>
      </trkpt>
      <trkpt lat="45.81947922706604" lon="7.787092141807079">
        <ele>2770.1799999999998</ele>
        <time>2016-07-17T10:43:51Z</time>
      </trkpt>
      <trkpt lat="45.819518622010946" lon="7.787170261144638">
        <ele>2772.0999999999999</ele>
        <time>2016-07-17T10:44:01Z</time>
      </trkpt>
      <trkpt lat="45.819551395252347" lon="7.787181325256825">
        <ele>2772.0999999999999</ele>
        <time>2016-07-17T10:44:11Z</time>
      </trkpt>
      <trkpt lat="45.819534966722131" lon="7.787277298048139">
        <ele>2774.5</ele>
        <time>2016-07-17T10:44:21Z</time>
      </trkpt>
      <trkpt lat="45.819503953680396" lon="7.787346113473177">
        <ele>2776.4200000000001</ele>
        <time>2016-07-17T10:44:31Z</time>
      </trkpt>
      <trkpt lat="45.819514766335487" lon="7.787389028817415">
        <ele>2777.8699999999999</ele>
        <time>2016-07-17T10:44:41Z</time>
      </trkpt>
      <trkpt lat="45.819498002529144" lon="7.787369331344962">
        <ele>2778.3499999999999</ele>
        <time>2016-07-17T10:44:53Z</time>
      </trkpt>
      <trkpt lat="45.819498002529144" lon="7.787351058796048">
        <ele>2777.8699999999999</ele>
        <time>2016-07-17T10:45:07Z</time>
      </trkpt>
      <trkpt lat="45.819509401917458" lon="7.787384921684861">
        <ele>2778.8299999999999</ele>
        <time>2016-07-17T10:45:15Z</time>
      </trkpt>
      <trkpt lat="45.819503283128142" lon="7.787360949441791">
        <ele>2778.8299999999999</ele>
        <time>2016-07-17T10:45:27Z</time>
      </trkpt>
      <trkpt lat="45.819506719708443" lon="7.787352735176683">
        <ele>2779.3099999999999</ele>
        <time>2016-07-17T10:45:41Z</time>
      </trkpt>
      <trkpt lat="45.819522393867373" lon="7.787355417385697">
        <ele>2778.8299999999999</ele>
        <time>2016-07-17T10:45:56Z</time>
      </trkpt>
      <trkpt lat="45.819523986428976" lon="7.787378635257483">
        <ele>2778.8299999999999</ele>
        <time>2016-07-17T10:46:07Z</time>
      </trkpt>
      <trkpt lat="45.819533206522465" lon="7.787381820380688">
        <ele>2778.8299999999999</ele>
        <time>2016-07-17T10:46:19Z</time>
      </trkpt>
      <trkpt lat="45.819526920095086" lon="7.787382574751973">
        <ele>2779.3099999999999</ele>
        <time>2016-07-17T10:46:32Z</time>
      </trkpt>
      <trkpt lat="45.8195158559829" lon="7.787379054352641">
        <ele>2779.3099999999999</ele>
        <time>2016-07-17T10:46:47Z</time>
      </trkpt>
      <trkpt lat="45.819512084126472" lon="7.787367403507233">
        <ele>2780.75</ele>
        <time>2016-07-17T10:46:59Z</time>
      </trkpt>
      <trkpt lat="45.819522980600595" lon="7.787378383800387">
        <ele>2779.3099999999999</ele>
        <time>2016-07-17T10:47:09Z</time>
      </trkpt>
      <trkpt lat="45.819512587040663" lon="7.787340162321925">
        <ele>2779.3099999999999</ele>
        <time>2016-07-17T10:47:30Z</time>
      </trkpt>
      <trkpt lat="45.819511245936155" lon="7.787349382415414">
        <ele>2779.3099999999999</ele>
        <time>2016-07-17T10:47:41Z</time>
      </trkpt>
      <trkpt lat="45.819522980600595" lon="7.787352735176683">
        <ele>2779.3099999999999</ele>
        <time>2016-07-17T10:47:54Z</time>
      </trkpt>
      <trkpt lat="45.819516945630312" lon="7.787381904199719">
        <ele>2779.3099999999999</ele>
        <time>2016-07-17T10:48:13Z</time>
      </trkpt>
      <trkpt lat="45.819522393867373" lon="7.787404535338283">
        <ele>2779.3099999999999</ele>
        <time>2016-07-17T10:48:28Z</time>
      </trkpt>
      <trkpt lat="45.819538990035653" lon="7.787382071837783">
        <ele>2779.79</ele>
        <time>2016-07-17T10:48:44Z</time>
      </trkpt>
      <trkpt lat="45.819539744406939" lon="7.787387520074844">
        <ele>2779.79</ele>
        <time>2016-07-17T10:48:58Z</time>
      </trkpt>
      <trkpt lat="45.81955592148006" lon="7.787391627207398">
        <ele>2779.79</ele>
        <time>2016-07-17T10:49:10Z</time>
      </trkpt>
      <trkpt lat="45.819547204300761" lon="7.78739363886416">
        <ele>2780.27</ele>
        <time>2016-07-17T10:49:21Z</time>
      </trkpt>
      <trkpt lat="45.819565895944834" lon="7.787406882271171">
        <ele>2780.27</ele>
        <time>2016-07-17T10:49:37Z</time>
      </trkpt>
      <trkpt lat="45.819560782983899" lon="7.787428088486195">
        <ele>2780.27</ele>
        <time>2016-07-17T10:49:56Z</time>
      </trkpt>
      <trkpt lat="45.819554664194584" lon="7.787385424599052">
        <ele>2780.27</ele>
        <time>2016-07-17T10:50:11Z</time>
      </trkpt>
      <trkpt lat="45.819565644487739" lon="7.787403864786029">
        <ele>2780.27</ele>
        <time>2016-07-17T10:50:24Z</time>
      </trkpt>
      <trkpt lat="45.819530189037323" lon="7.787367906421423">
        <ele>2780.75</ele>
        <time>2016-07-17T10:50:37Z</time>
      </trkpt>
      <trkpt lat="45.819534379988909" lon="7.787367403507233">
        <ele>2780.27</ele>
        <time>2016-07-17T10:50:53Z</time>
      </trkpt>
      <trkpt lat="45.819537481293082" lon="7.787369918078184">
        <ele>2780.75</ele>
        <time>2016-07-17T10:51:10Z</time>
      </trkpt>
      <trkpt lat="45.819544605910778" lon="7.787379557266831">
        <ele>2780.75</ele>
        <time>2016-07-17T10:51:25Z</time>
      </trkpt>
      <trkpt lat="45.819560447707772" lon="7.787375282496214">
        <ele>2780.75</ele>
        <time>2016-07-17T10:51:36Z</time>
      </trkpt>
      <trkpt lat="45.819554161280394" lon="7.787359692156315">
        <ele>2781.23</ele>
        <time>2016-07-17T10:51:55Z</time>
      </trkpt>
      <trkpt lat="45.819530272856355" lon="7.787366649135947">
        <ele>2781.23</ele>
        <time>2016-07-17T10:52:16Z</time>
      </trkpt>
      <trkpt lat="45.819536307826638" lon="7.787363044917584">
        <ele>2781.23</ele>
        <time>2016-07-17T10:52:19Z</time>
      </trkpt>
      <trkpt lat="45.819601938128471" lon="7.78735407628119">
        <ele>2781.71</ele>
        <time>2016-07-17T10:52:28Z</time>
      </trkpt>
      <trkpt lat="45.819615349173546" lon="7.787336306646466">
        <ele>2781.71</ele>
        <time>2016-07-17T10:52:30Z</time>
      </trkpt>
      <trkpt lat="45.819649128243327" lon="7.787327338010073">
        <ele>2781.71</ele>
        <time>2016-07-17T10:52:40Z</time>
      </trkpt>
      <trkpt lat="45.819705286994576" lon="7.787284171208739">
        <ele>2781.71</ele>
        <time>2016-07-17T10:52:49Z</time>
      </trkpt>
      <trkpt lat="45.819759434089065" lon="7.787260198965669">
        <ele>2781.71</ele>
        <time>2016-07-17T10:52:58Z</time>
      </trkpt>
      <trkpt lat="45.81979095004499" lon="7.787245698273182">
        <ele>2781.71</ele>
        <time>2016-07-17T10:53:09Z</time>
      </trkpt>
      <trkpt lat="45.819858005270362" lon="7.787224743515253">
        <ele>2782.6700000000001</ele>
        <time>2016-07-17T10:53:19Z</time>
      </trkpt>
      <trkpt lat="45.819933526217937" lon="7.787213092669845">
        <ele>2785.0799999999999</ele>
        <time>2016-07-17T10:53:30Z</time>
      </trkpt>
      <trkpt lat="45.820005610585213" lon="7.787151150405407">
        <ele>2786.52</ele>
        <time>2016-07-17T10:53:42Z</time>
      </trkpt>
      <trkpt lat="45.820037294179201" lon="7.787106223404408">
        <ele>2788.4400000000001</ele>
        <time>2016-07-17T10:53:53Z</time>
      </trkpt>
      <trkpt lat="45.820108540356159" lon="7.787133632227778">
        <ele>2789.8800000000001</ele>
        <time>2016-07-17T10:54:04Z</time>
      </trkpt>
      <trkpt lat="45.820162435993552" lon="7.787111336365342">
        <ele>2792.29</ele>
        <time>2016-07-17T10:54:15Z</time>
      </trkpt>
      <trkpt lat="45.820210296660662" lon="7.787060290575028">
        <ele>2793.73</ele>
        <time>2016-07-17T10:54:27Z</time>
      </trkpt>
      <trkpt lat="45.820249691605568" lon="7.787071187049151">
        <ele>2794.6900000000001</ele>
        <time>2016-07-17T10:54:35Z</time>
      </trkpt>
      <trkpt lat="45.820286571979523" lon="7.787104547023773">
        <ele>2796.1300000000001</ele>
        <time>2016-07-17T10:54:45Z</time>
      </trkpt>
      <trkpt lat="45.820304341614246" lon="7.787204878404737">
        <ele>2797.5700000000002</ele>
        <time>2016-07-17T10:54:55Z</time>
      </trkpt>
      <trkpt lat="45.820358488708735" lon="7.787229688838124">
        <ele>2798.54</ele>
        <time>2016-07-17T10:55:03Z</time>
      </trkpt>
      <trkpt lat="45.820432333275676" lon="7.787262797355652">
        <ele>2800.46</ele>
        <time>2016-07-17T10:55:14Z</time>
      </trkpt>
      <trkpt lat="45.820465609431267" lon="7.787264892831445">
        <ele>2801.4200000000001</ele>
        <time>2016-07-17T10:55:23Z</time>
      </trkpt>
      <trkpt lat="45.820510620251298" lon="7.787283835932612">
        <ele>2802.8600000000001</ele>
        <time>2016-07-17T10:55:33Z</time>
      </trkpt>
      <trkpt lat="45.820543980225921" lon="7.787290457636118">
        <ele>2804.7800000000002</ele>
        <time>2016-07-17T10:55:43Z</time>
      </trkpt>
      <trkpt lat="45.820570550858974" lon="7.787294900044799">
        <ele>2806.71</ele>
        <time>2016-07-17T10:55:55Z</time>
      </trkpt>
      <trkpt lat="45.820611119270325" lon="7.78732624836266">
        <ele>2808.1500000000001</ele>
        <time>2016-07-17T10:56:05Z</time>
      </trkpt>
      <trkpt lat="45.82065093331039" lon="7.787326751276851">
        <ele>2810.0700000000002</ele>
        <time>2016-07-17T10:56:16Z</time>
      </trkpt>
      <trkpt lat="45.820670966058969" lon="7.787350807338953">
        <ele>2811.9899999999998</ele>
        <time>2016-07-17T10:56:26Z</time>
      </trkpt>
      <trkpt lat="45.820681694895029" lon="7.787410654127598">
        <ele>2812.96</ele>
        <time>2016-07-17T10:56:36Z</time>
      </trkpt>
      <trkpt lat="45.820709858089685" lon="7.787369498983026">
        <ele>2814.8800000000001</ele>
        <time>2016-07-17T10:56:47Z</time>
      </trkpt>
      <trkpt lat="45.820739027112722" lon="7.787391878664494">
        <ele>2815.8400000000001</ele>
        <time>2016-07-17T10:56:56Z</time>
      </trkpt>
      <trkpt lat="45.820731651037931" lon="7.787448205053806">
        <ele>2818.2399999999998</ele>
        <time>2016-07-17T10:57:05Z</time>
      </trkpt>
      <trkpt lat="45.820776075124741" lon="7.787439906969667">
        <ele>2818.7199999999998</ele>
        <time>2016-07-17T10:57:14Z</time>
      </trkpt>
      <trkpt lat="45.820789067074656" lon="7.787485169246793">
        <ele>2819.6799999999998</ele>
        <time>2016-07-17T10:57:22Z</time>
      </trkpt>
      <trkpt lat="45.820796526968479" lon="7.787445187568665">
        <ele>2820.6500000000001</ele>
        <time>2016-07-17T10:57:31Z</time>
      </trkpt>
      <trkpt lat="45.820837682113051" lon="7.787473183125258">
        <ele>2822.0900000000001</ele>
        <time>2016-07-17T10:57:41Z</time>
      </trkpt>
      <trkpt lat="45.820858804509044" lon="7.787474188953638">
        <ele>2823.0500000000002</ele>
        <time>2016-07-17T10:57:51Z</time>
      </trkpt>
      <trkpt lat="45.820895684882998" lon="7.787465723231435">
        <ele>2824.9699999999998</ele>
        <time>2016-07-17T10:58:01Z</time>
      </trkpt>
      <trkpt lat="45.820908257737756" lon="7.787474356591702">
        <ele>2826.4099999999999</ele>
        <time>2016-07-17T10:58:13Z</time>
      </trkpt>
      <trkpt lat="45.820924267172813" lon="7.787565803155303">
        <ele>2827.8499999999999</ele>
        <time>2016-07-17T10:58:24Z</time>
      </trkpt>
      <trkpt lat="45.820947904139757" lon="7.787537137046456">
        <ele>2829.3000000000002</ele>
        <time>2016-07-17T10:58:33Z</time>
      </trkpt>
      <trkpt lat="45.820987550541759" lon="7.787560019642115">
        <ele>2831.2199999999998</ele>
        <time>2016-07-17T10:58:44Z</time>
      </trkpt>
      <trkpt lat="45.820974390953779" lon="7.78759254142642">
        <ele>2832.6599999999999</ele>
        <time>2016-07-17T10:58:53Z</time>
      </trkpt>
      <trkpt lat="45.820990400388837" lon="7.787552978843451">
        <ele>2834.0999999999999</ele>
        <time>2016-07-17T10:59:03Z</time>
      </trkpt>
      <trkpt lat="45.82102233543992" lon="7.787509812042117">
        <ele>2835.5500000000002</ele>
        <time>2016-07-17T10:59:13Z</time>
      </trkpt>
      <trkpt lat="45.821040943264961" lon="7.787465052679181">
        <ele>2836.5100000000002</ele>
        <time>2016-07-17T10:59:22Z</time>
      </trkpt>
      <trkpt lat="45.821082098409534" lon="7.787518948316574">
        <ele>2838.4299999999998</ele>
        <time>2016-07-17T10:59:32Z</time>
      </trkpt>
      <trkpt lat="45.821101041510701" lon="7.787467483431101">
        <ele>2839.3899999999999</ele>
        <time>2016-07-17T10:59:43Z</time>
      </trkpt>
      <trkpt lat="45.821141023188829" lon="7.787452647462487">
        <ele>2841.3099999999999</ele>
        <time>2016-07-17T10:59:53Z</time>
      </trkpt>
      <trkpt lat="45.821154685690999" lon="7.78752850368619">
        <ele>2842.2800000000002</ele>
        <time>2016-07-17T11:00:03Z</time>
      </trkpt>
      <trkpt lat="45.821161223575473" lon="7.787517188116908">
        <ele>2842.7600000000002</ele>
        <time>2016-07-17T11:00:05Z</time>
      </trkpt>
      <trkpt lat="45.821177987381816" lon="7.78753194026649">
        <ele>2844.1999999999998</ele>
        <time>2016-07-17T11:00:14Z</time>
      </trkpt>
      <trkpt lat="45.821178238838911" lon="7.787547614425421">
        <ele>2844.1999999999998</ele>
        <time>2016-07-17T11:00:16Z</time>
      </trkpt>
      <trkpt lat="45.821186117827892" lon="7.787510231137276">
        <ele>2845.6399999999999</ele>
        <time>2016-07-17T11:00:25Z</time>
      </trkpt>
      <trkpt lat="45.821194499731064" lon="7.787443595007062">
        <ele>2847.5599999999999</ele>
        <time>2016-07-17T11:00:35Z</time>
      </trkpt>
      <trkpt lat="45.821205312386155" lon="7.787452144548297">
        <ele>2848.04</ele>
        <time>2016-07-17T11:00:44Z</time>
      </trkpt>
      <trkpt lat="45.821237079799175" lon="7.787397662177682">
        <ele>2849.9699999999998</ele>
        <time>2016-07-17T11:00:55Z</time>
      </trkpt>
      <trkpt lat="45.821274211630225" lon="7.787334294989705">
        <ele>2851.4099999999999</ele>
        <time>2016-07-17T11:01:06Z</time>
      </trkpt>
      <trkpt lat="45.821272702887654" lon="7.78732281178236">
        <ele>2852.3699999999999</ele>
        <time>2016-07-17T11:01:08Z</time>
      </trkpt>
      <trkpt lat="45.82125736400485" lon="7.787263719365001">
        <ele>2853.3299999999999</ele>
        <time>2016-07-17T11:01:19Z</time>
      </trkpt>
      <trkpt lat="45.821251999586821" lon="7.787196664139628">
        <ele>2854.77</ele>
        <time>2016-07-17T11:01:30Z</time>
      </trkpt>
      <trkpt lat="45.821258034557104" lon="7.787130195647478">
        <ele>2857.1799999999998</ele>
        <time>2016-07-17T11:01:41Z</time>
      </trkpt>
      <trkpt lat="45.821316288784146" lon="7.787095410749316">
        <ele>2858.6199999999999</ele>
        <time>2016-07-17T11:01:51Z</time>
      </trkpt>
      <trkpt lat="45.82132182084024" lon="7.78699591755867">
        <ele>2860.54</ele>
        <time>2016-07-17T11:02:03Z</time>
      </trkpt>
      <trkpt lat="45.821351241320372" lon="7.787042437121272">
        <ele>2862.46</ele>
        <time>2016-07-17T11:02:13Z</time>
      </trkpt>
      <trkpt lat="45.821351828053594" lon="7.786974795162678">
        <ele>2863.9000000000001</ele>
        <time>2016-07-17T11:02:24Z</time>
      </trkpt>
      <trkpt lat="45.821396671235561" lon="7.787016872316599">
        <ele>2865.3499999999999</ele>
        <time>2016-07-17T11:02:33Z</time>
      </trkpt>
      <trkpt lat="45.821403041481972" lon="7.78702667914331">
        <ele>2865.8299999999999</ele>
        <time>2016-07-17T11:02:42Z</time>
      </trkpt>
      <trkpt lat="45.821432378143072" lon="7.787007903680205">
        <ele>2868.23</ele>
        <time>2016-07-17T11:02:53Z</time>
      </trkpt>
      <trkpt lat="45.821474036201835" lon="7.787006059661508">
        <ele>2870.1500000000001</ele>
        <time>2016-07-17T11:03:05Z</time>
      </trkpt>
      <trkpt lat="45.82149432040751" lon="7.787071019411087">
        <ele>2871.5999999999999</ele>
        <time>2016-07-17T11:03:13Z</time>
      </trkpt>
      <trkpt lat="45.821533380076289" lon="7.787019219249487">
        <ele>2873.04</ele>
        <time>2016-07-17T11:03:23Z</time>
      </trkpt>
      <trkpt lat="45.821549389511347" lon="7.787094740197063">
        <ele>2874.48</ele>
        <time>2016-07-17T11:03:33Z</time>
      </trkpt>
      <trkpt lat="45.821570931002498" lon="7.787122232839465">
        <ele>2876.4000000000001</ele>
        <time>2016-07-17T11:03:43Z</time>
      </trkpt>
      <trkpt lat="45.821577804163098" lon="7.787137571722269">
        <ele>2877.3600000000001</ele>
        <time>2016-07-17T11:03:54Z</time>
      </trkpt>
      <trkpt lat="45.821619210764766" lon="7.787100942805409">
        <ele>2879.29</ele>
        <time>2016-07-17T11:04:05Z</time>
      </trkpt>
      <trkpt lat="45.821644105017185" lon="7.787182666361332">
        <ele>2880.73</ele>
        <time>2016-07-17T11:04:15Z</time>
      </trkpt>
      <trkpt lat="45.821665814146399" lon="7.787159029394388">
        <ele>2882.1700000000001</ele>
        <time>2016-07-17T11:04:25Z</time>
      </trkpt>
      <trkpt lat="45.821688361465931" lon="7.787172021344304">
        <ele>2883.6100000000001</ele>
        <time>2016-07-17T11:04:34Z</time>
      </trkpt>
      <trkpt lat="45.821714932098985" lon="7.787133129313588">
        <ele>2885.0500000000002</ele>
        <time>2016-07-17T11:04:44Z</time>
      </trkpt>
      <trkpt lat="45.821713926270604" lon="7.78723044320941">
        <ele>2886.5</ele>
        <time>2016-07-17T11:04:54Z</time>
      </trkpt>
      <trkpt lat="45.821725912392139" lon="7.787292804569006">
        <ele>2887.46</ele>
        <time>2016-07-17T11:05:04Z</time>
      </trkpt>
      <trkpt lat="45.821748292073607" lon="7.787306886166334">
        <ele>2889.3800000000001</ele>
        <time>2016-07-17T11:05:14Z</time>
      </trkpt>
      <trkpt lat="45.821783244609833" lon="7.787344437092543">
        <ele>2890.8200000000002</ele>
        <time>2016-07-17T11:05:24Z</time>
      </trkpt>
      <trkpt lat="45.821794811636209" lon="7.787423813715577">
        <ele>2892.7399999999998</ele>
        <time>2016-07-17T11:05:35Z</time>
      </trkpt>
      <trkpt lat="45.821804953739047" lon="7.787413923069835">
        <ele>2893.23</ele>
        <time>2016-07-17T11:05:43Z</time>
      </trkpt>
      <trkpt lat="45.821820544078946" lon="7.787411995232105">
        <ele>2894.6700000000001</ele>
        <time>2016-07-17T11:05:53Z</time>
      </trkpt>
      <trkpt lat="45.821818951517344" lon="7.787398835644126">
        <ele>2894.1900000000001</ele>
        <time>2016-07-17T11:06:12Z</time>
      </trkpt>
      <trkpt lat="45.821815598756075" lon="7.787418365478516">
        <ele>2894.6700000000001</ele>
        <time>2016-07-17T11:06:28Z</time>
      </trkpt>
      <trkpt lat="45.821814928203821" lon="7.787409564480186">
        <ele>2894.6700000000001</ele>
        <time>2016-07-17T11:06:47Z</time>
      </trkpt>
      <trkpt lat="45.821856334805489" lon="7.787460191175342">
        <ele>2896.1100000000001</ele>
        <time>2016-07-17T11:06:58Z</time>
      </trkpt>
      <trkpt lat="45.821900842711329" lon="7.787473602220416">
        <ele>2898.0300000000002</ele>
        <time>2016-07-17T11:07:09Z</time>
      </trkpt>
      <trkpt lat="45.821952726691961" lon="7.787472261115909">
        <ele>2899.4699999999998</ele>
        <time>2016-07-17T11:07:19Z</time>
      </trkpt>
      <trkpt lat="45.821969658136368" lon="7.78752900660038">
        <ele>2901.8800000000001</ele>
        <time>2016-07-17T11:07:29Z</time>
      </trkpt>
      <trkpt lat="45.821978794410825" lon="7.787590110674501">
        <ele>2903.3200000000002</ele>
        <time>2016-07-17T11:07:39Z</time>
      </trkpt>
      <trkpt lat="45.822007292881608" lon="7.787539986893535">
        <ele>2904.7600000000002</ele>
        <time>2016-07-17T11:07:49Z</time>
      </trkpt>
      <trkpt lat="45.822036294266582" lon="7.787507884204388">
        <ele>2906.1999999999998</ele>
        <time>2016-07-17T11:07:59Z</time>
      </trkpt>
      <trkpt lat="45.822060266509652" lon="7.787532694637775">
        <ele>2908.1300000000001</ele>
        <time>2016-07-17T11:08:09Z</time>
      </trkpt>
      <trkpt lat="45.822068899869919" lon="7.787496065720916">
        <ele>2909.5700000000002</ele>
        <time>2016-07-17T11:08:20Z</time>
      </trkpt>
      <trkpt lat="45.822070157155395" lon="7.787435464560986">
        <ele>2911.4899999999998</ele>
        <time>2016-07-17T11:08:31Z</time>
      </trkpt>
      <trkpt lat="45.822103517130017" lon="7.787459855899215">
        <ele>2913.4099999999999</ele>
        <time>2016-07-17T11:08:41Z</time>
      </trkpt>
      <trkpt lat="45.822112234309316" lon="7.787527916952968">
        <ele>2914.8499999999999</ele>
        <time>2016-07-17T11:08:51Z</time>
      </trkpt>
      <trkpt lat="45.822131847962737" lon="7.78749480843544">
        <ele>2916.3000000000002</ele>
        <time>2016-07-17T11:09:00Z</time>
      </trkpt>
      <trkpt lat="45.822173422202468" lon="7.787445522844791">
        <ele>2917.2600000000002</ele>
        <time>2016-07-17T11:09:10Z</time>
      </trkpt>
      <trkpt lat="45.822208290919662" lon="7.787503357976675">
        <ele>2918.6999999999998</ele>
        <time>2016-07-17T11:09:19Z</time>
      </trkpt>
      <trkpt lat="45.822242572903633" lon="7.787557421252132">
        <ele>2920.1399999999999</ele>
        <time>2016-07-17T11:09:29Z</time>
      </trkpt>
      <trkpt lat="45.822266880422831" lon="7.787545351311564">
        <ele>2921.5799999999999</ele>
        <time>2016-07-17T11:09:39Z</time>
      </trkpt>
      <trkpt lat="45.822301330044866" lon="7.787565551698208">
        <ele>2923.5100000000002</ele>
        <time>2016-07-17T11:09:49Z</time>
      </trkpt>
      <trkpt lat="45.822317842394114" lon="7.787603102624416">
        <ele>2925.4299999999998</ele>
        <time>2016-07-17T11:09:58Z</time>
      </trkpt>
      <trkpt lat="45.822304096072912" lon="7.787661273032427">
        <ele>2926.8699999999999</ele>
        <time>2016-07-17T11:10:08Z</time>
      </trkpt>
      <trkpt lat="45.822269897907972" lon="7.787723802030087">
        <ele>2928.3099999999999</ele>
        <time>2016-07-17T11:10:19Z</time>
      </trkpt>
      <trkpt lat="45.822301832959056" lon="7.787707876414061">
        <ele>2929.75</ele>
        <time>2016-07-17T11:10:31Z</time>
      </trkpt>
      <trkpt lat="45.822300491854548" lon="7.787750037387013">
        <ele>2931.1999999999998</ele>
        <time>2016-07-17T11:10:40Z</time>
      </trkpt>
      <trkpt lat="45.822296300902963" lon="7.787819691002369">
        <ele>2932.6399999999999</ele>
        <time>2016-07-17T11:10:51Z</time>
      </trkpt>
      <trkpt lat="45.822281632572412" lon="7.787845088168979">
        <ele>2934.0799999999999</ele>
        <time>2016-07-17T11:11:02Z</time>
      </trkpt>
      <trkpt lat="45.822325386106968" lon="7.787788677960634">
        <ele>2936</ele>
        <time>2016-07-17T11:11:13Z</time>
      </trkpt>
      <trkpt lat="45.822375174611807" lon="7.787779038771987">
        <ele>2937.4499999999998</ele>
        <time>2016-07-17T11:11:25Z</time>
      </trkpt>
      <trkpt lat="45.822412306442857" lon="7.787775937467814">
        <ele>2938.4099999999999</ele>
        <time>2016-07-17T11:11:36Z</time>
      </trkpt>
      <trkpt lat="45.822443906217813" lon="7.787750456482172">
        <ele>2940.3299999999999</ele>
        <time>2016-07-17T11:11:46Z</time>
      </trkpt>
      <trkpt lat="45.822466285899282" lon="7.787771914154291">
        <ele>2941.77</ele>
        <time>2016-07-17T11:11:55Z</time>
      </trkpt>
      <trkpt lat="45.822492772713304" lon="7.787781888619065">
        <ele>2943.21</ele>
        <time>2016-07-17T11:12:06Z</time>
      </trkpt>
      <trkpt lat="45.822511129081249" lon="7.787819774821401">
        <ele>2944.6599999999999</ele>
        <time>2016-07-17T11:12:15Z</time>
      </trkpt>
      <trkpt lat="45.822517331689596" lon="7.787849362939596">
        <ele>2946.5799999999999</ele>
        <time>2016-07-17T11:12:28Z</time>
      </trkpt>
      <trkpt lat="45.82248623482883" lon="7.787870233878493">
        <ele>2947.54</ele>
        <time>2016-07-17T11:12:40Z</time>
      </trkpt>
      <trkpt lat="45.822485145181417" lon="7.787884818390012">
        <ele>2947.54</ele>
        <time>2016-07-17T11:13:02Z</time>
      </trkpt>
      <trkpt lat="45.822490509599447" lon="7.787893367931247">
        <ele>2948.5</ele>
        <time>2016-07-17T11:13:15Z</time>
      </trkpt>
      <trkpt lat="45.822499059140682" lon="7.787876939401031">
        <ele>2948.5</ele>
        <time>2016-07-17T11:13:30Z</time>
      </trkpt>
      <trkpt lat="45.822476930916309" lon="7.787909545004368">
        <ele>2947.54</ele>
        <time>2016-07-17T11:13:45Z</time>
      </trkpt>
      <trkpt lat="45.822475338354707" lon="7.787899738177657">
        <ele>2948.5</ele>
        <time>2016-07-17T11:13:49Z</time>
      </trkpt>
      <trkpt lat="45.822483720257878" lon="7.787885405123234">
        <ele>2948.98</ele>
        <time>2016-07-17T11:14:05Z</time>
      </trkpt>
      <trkpt lat="45.822475254535675" lon="7.787880543619394">
        <ele>2949.46</ele>
        <time>2016-07-17T11:14:22Z</time>
      </trkpt>
      <trkpt lat="45.822480786591768" lon="7.78788666240871">
        <ele>2949.9400000000001</ele>
        <time>2016-07-17T11:14:35Z</time>
      </trkpt>
      <trkpt lat="45.822490090504289" lon="7.78788959607482">
        <ele>2949.9400000000001</ele>
        <time>2016-07-17T11:14:56Z</time>
      </trkpt>
      <trkpt lat="45.822522360831499" lon="7.787932008504868">
        <ele>2950.9000000000001</ele>
        <time>2016-07-17T11:15:06Z</time>
      </trkpt>
      <trkpt lat="45.822508949786425" lon="7.787947012111545">
        <ele>2950.9000000000001</ele>
        <time>2016-07-17T11:15:08Z</time>
      </trkpt>
      <trkpt lat="45.822506519034505" lon="7.787980875000358">
        <ele>2952.8299999999999</ele>
        <time>2016-07-17T11:15:19Z</time>
      </trkpt>
      <trkpt lat="45.822545746341348" lon="7.787977941334248">
        <ele>2954.27</ele>
        <time>2016-07-17T11:15:28Z</time>
      </trkpt>
      <trkpt lat="45.822549434378743" lon="7.788021191954613">
        <ele>2956.6700000000001</ele>
        <time>2016-07-17T11:15:38Z</time>
      </trkpt>
      <trkpt lat="45.822534766048193" lon="7.78807139955461">
        <ele>2958.5900000000001</ele>
        <time>2016-07-17T11:15:48Z</time>
      </trkpt>
      <trkpt lat="45.822534430772066" lon="7.788114314898849">
        <ele>2960.52</ele>
        <time>2016-07-17T11:15:58Z</time>
      </trkpt>
      <trkpt lat="45.822571394965053" lon="7.788093611598015">
        <ele>2962.4400000000001</ele>
        <time>2016-07-17T11:16:08Z</time>
      </trkpt>
      <trkpt lat="45.822580195963383" lon="7.788084223866463">
        <ele>2962.9200000000001</ele>
        <time>2016-07-17T11:16:12Z</time>
      </trkpt>
      <trkpt lat="45.822623446583748" lon="7.788076093420386">
        <ele>2964.8400000000001</ele>
        <time>2016-07-17T11:16:22Z</time>
      </trkpt>
      <trkpt lat="45.822681952267885" lon="7.78809729963541">
        <ele>2966.29</ele>
        <time>2016-07-17T11:16:33Z</time>
      </trkpt>
      <trkpt lat="45.822736183181405" lon="7.788123115897179">
        <ele>2967.73</ele>
        <time>2016-07-17T11:16:44Z</time>
      </trkpt>
      <trkpt lat="45.822774572297931" lon="7.788100400939584">
        <ele>2967.73</ele>
        <time>2016-07-17T11:16:54Z</time>
      </trkpt>
      <trkpt lat="45.822834670543671" lon="7.788126384839416">
        <ele>2968.21</ele>
        <time>2016-07-17T11:17:03Z</time>
      </trkpt>
      <trkpt lat="45.822826959192753" lon="7.788171730935574">
        <ele>2969.1700000000001</ele>
        <time>2016-07-17T11:17:12Z</time>
      </trkpt>
      <trkpt lat="45.82283559255302" lon="7.788210455328226">
        <ele>2970.6100000000001</ele>
        <time>2016-07-17T11:17:23Z</time>
      </trkpt>
      <trkpt lat="45.822823187336326" lon="7.788247251883149">
        <ele>2973.0100000000002</ele>
        <time>2016-07-17T11:17:35Z</time>
      </trkpt>
      <trkpt lat="45.822806255891919" lon="7.788280444219708">
        <ele>2974.46</ele>
        <time>2016-07-17T11:17:44Z</time>
      </trkpt>
      <trkpt lat="45.822777589783072" lon="7.788306763395667">
        <ele>2976.3800000000001</ele>
        <time>2016-07-17T11:17:54Z</time>
      </trkpt>
      <trkpt lat="45.822798125445843" lon="7.788316318765283">
        <ele>2977.3400000000001</ele>
        <time>2016-07-17T11:18:04Z</time>
      </trkpt>
      <trkpt lat="45.822795275598764" lon="7.788381781429052">
        <ele>2979.2600000000002</ele>
        <time>2016-07-17T11:18:14Z</time>
      </trkpt>
      <trkpt lat="45.822749007493258" lon="7.788397874683142">
        <ele>2981.1900000000001</ele>
        <time>2016-07-17T11:18:25Z</time>
      </trkpt>
      <trkpt lat="45.822729812934995" lon="7.788424361497164">
        <ele>2982.6300000000001</ele>
        <time>2016-07-17T11:18:34Z</time>
      </trkpt>
      <trkpt lat="45.822702739387751" lon="7.788471635431051">
        <ele>2984.0700000000002</ele>
        <time>2016-07-17T11:18:44Z</time>
      </trkpt>
      <trkpt lat="45.822685388848186" lon="7.788476329296827">
        <ele>2985.0300000000002</ele>
        <time>2016-07-17T11:18:55Z</time>
      </trkpt>
      <trkpt lat="45.822686394676566" lon="7.788516143336892">
        <ele>2986.4699999999998</ele>
        <time>2016-07-17T11:19:05Z</time>
      </trkpt>
      <trkpt lat="45.82267876714468" lon="7.788559226319194">
        <ele>2987.9099999999999</ele>
        <time>2016-07-17T11:19:14Z</time>
      </trkpt>
      <trkpt lat="45.822662841528654" lon="7.788574146106839">
        <ele>2989.3600000000001</ele>
        <time>2016-07-17T11:19:21Z</time>
      </trkpt>
      <trkpt lat="45.822672145441175" lon="7.788592167198658">
        <ele>2990.3200000000002</ele>
        <time>2016-07-17T11:19:31Z</time>
      </trkpt>
      <trkpt lat="45.822655381634831" lon="7.788605662062764">
        <ele>2992.2399999999998</ele>
        <time>2016-07-17T11:19:41Z</time>
      </trkpt>
      <trkpt lat="45.822636103257537" lon="7.788624688982964">
        <ele>2992.2399999999998</ele>
        <time>2016-07-17T11:19:51Z</time>
      </trkpt>
      <trkpt lat="45.822615986689925" lon="7.788669364526868">
        <ele>2994.1599999999999</ele>
        <time>2016-07-17T11:20:00Z</time>
      </trkpt>
      <trkpt lat="45.822601150721312" lon="7.788667771965265">
        <ele>2993.6799999999998</ele>
        <time>2016-07-17T11:20:08Z</time>
      </trkpt>
      <trkpt lat="45.822599306702614" lon="7.788677494972944">
        <ele>2994.1599999999999</ele>
        <time>2016-07-17T11:20:24Z</time>
      </trkpt>
      <trkpt lat="45.822596373036504" lon="7.788679841905832">
        <ele>2994.1599999999999</ele>
        <time>2016-07-17T11:20:39Z</time>
      </trkpt>
      <trkpt lat="45.822591762989759" lon="7.788670202717185">
        <ele>2994.6399999999999</ele>
        <time>2016-07-17T11:20:50Z</time>
      </trkpt>
      <trkpt lat="45.822556307539344" lon="7.78870708309114">
        <ele>2996.0900000000001</ele>
        <time>2016-07-17T11:20:59Z</time>
      </trkpt>
      <trkpt lat="45.822565024718642" lon="7.78874421492219">
        <ele>2998.0100000000002</ele>
        <time>2016-07-17T11:21:09Z</time>
      </trkpt>
      <trkpt lat="45.822552451863885" lon="7.788768773898482">
        <ele>3001.3699999999999</ele>
        <time>2016-07-17T11:21:16Z</time>
      </trkpt>
      <trkpt lat="45.822550691664219" lon="7.788771791383624">
        <ele>3000.4099999999999</ele>
        <time>2016-07-17T11:21:17Z</time>
      </trkpt>
      <trkpt lat="45.822560247033834" lon="7.788796685636044">
        <ele>3000.8899999999999</ele>
        <time>2016-07-17T11:21:27Z</time>
      </trkpt>
      <trkpt lat="45.822570472955704" lon="7.788835410028696">
        <ele>3002.3299999999999</ele>
        <time>2016-07-17T11:21:37Z</time>
      </trkpt>
      <trkpt lat="45.822575334459543" lon="7.788880672305822">
        <ele>3004.2600000000002</ele>
        <time>2016-07-17T11:21:46Z</time>
      </trkpt>
      <trkpt lat="45.822581201791763" lon="7.788893077522516">
        <ele>3004.7399999999998</ele>
        <time>2016-07-17T11:21:56Z</time>
      </trkpt>
      <trkpt lat="45.822576507925987" lon="7.788884108886123">
        <ele>3004.7399999999998</ele>
        <time>2016-07-17T11:22:05Z</time>
      </trkpt>
      <trkpt lat="45.822568042203784" lon="7.788880672305822">
        <ele>3004.7399999999998</ele>
        <time>2016-07-17T11:22:25Z</time>
      </trkpt>
      <trkpt lat="45.822589416056871" lon="7.788900705054402">
        <ele>3005.2199999999998</ele>
        <time>2016-07-17T11:22:43Z</time>
      </trkpt>
      <trkpt lat="45.822604335844517" lon="7.788873380050063">
        <ele>3005.6999999999998</ele>
        <time>2016-07-17T11:22:55Z</time>
      </trkpt>
      <trkpt lat="45.822615986689925" lon="7.788829542696476">
        <ele>3006.1799999999998</ele>
        <time>2016-07-17T11:23:06Z</time>
      </trkpt>
      <trkpt lat="45.822620848193765" lon="7.788833063095808">
        <ele>3007.6199999999999</ele>
        <time>2016-07-17T11:23:16Z</time>
      </trkpt>
      <trkpt lat="45.822632918134332" lon="7.78883071616292">
        <ele>3007.1399999999999</ele>
        <time>2016-07-17T11:23:32Z</time>
      </trkpt>
      <trkpt lat="45.822619842365384" lon="7.788844965398312">
        <ele>3007.1399999999999</ele>
        <time>2016-07-17T11:23:44Z</time>
      </trkpt>
      <trkpt lat="45.822626883164048" lon="7.788870194926858">
        <ele>3007.1399999999999</ele>
        <time>2016-07-17T11:23:57Z</time>
      </trkpt>
      <trkpt lat="45.822605593129992" lon="7.788856700062752">
        <ele>3006.1799999999998</ele>
        <time>2016-07-17T11:24:08Z</time>
      </trkpt>
      <trkpt lat="45.822601150721312" lon="7.788849826902151">
        <ele>3006.6599999999999</ele>
        <time>2016-07-17T11:24:26Z</time>
      </trkpt>
      <trkpt lat="45.822599977254868" lon="7.788851922377944">
        <ele>3006.6599999999999</ele>
        <time>2016-07-17T11:24:47Z</time>
      </trkpt>
      <trkpt lat="45.822608442977071" lon="7.788851838558912">
        <ele>3006.6599999999999</ele>
        <time>2016-07-17T11:25:08Z</time>
      </trkpt>
      <trkpt lat="45.822605593129992" lon="7.78886734507978">
        <ele>3006.6599999999999</ele>
        <time>2016-07-17T11:25:21Z</time>
      </trkpt>
      <trkpt lat="45.822605174034834" lon="7.788870865479112">
        <ele>3006.1799999999998</ele>
        <time>2016-07-17T11:25:42Z</time>
      </trkpt>
      <trkpt lat="45.822634343057871" lon="7.788861142471433">
        <ele>3007.6199999999999</ele>
        <time>2016-07-17T11:25:55Z</time>
      </trkpt>
      <trkpt lat="45.822628894820809" lon="7.788847731426358">
        <ele>3007.6199999999999</ele>
        <time>2016-07-17T11:26:11Z</time>
      </trkpt>
      <trkpt lat="45.822632079944015" lon="7.788868099451065">
        <ele>3007.1399999999999</ele>
        <time>2016-07-17T11:26:24Z</time>
      </trkpt>
      <trkpt lat="45.822663176804781" lon="7.788866842165589">
        <ele>3008.5799999999999</ele>
        <time>2016-07-17T11:26:34Z</time>
      </trkpt>
      <trkpt lat="45.822673905640841" lon="7.788947643712163">
        <ele>3010.9899999999998</ele>
        <time>2016-07-17T11:26:44Z</time>
      </trkpt>
      <trkpt lat="45.822644736617804" lon="7.788963820785284">
        <ele>3010.5100000000002</ele>
        <time>2016-07-17T11:26:52Z</time>
      </trkpt>
      <trkpt lat="45.82265043631196" lon="7.788954265415669">
        <ele>3010.5100000000002</ele>
        <time>2016-07-17T11:27:09Z</time>
      </trkpt>
      <trkpt lat="45.822663009166718" lon="7.788991564884782">
        <ele>3012.4299999999998</ele>
        <time>2016-07-17T11:27:22Z</time>
      </trkpt>
      <trkpt lat="45.82268362864852" lon="7.789033055305481">
        <ele>3013.3899999999999</ele>
        <time>2016-07-17T11:27:31Z</time>
      </trkpt>
      <trkpt lat="45.822699470445514" lon="7.789074461907148">
        <ele>3014.8299999999999</ele>
        <time>2016-07-17T11:27:42Z</time>
      </trkpt>
      <trkpt lat="45.822701146826148" lon="7.789123831316829">
        <ele>3015.79</ele>
        <time>2016-07-17T11:27:51Z</time>
      </trkpt>
      <trkpt lat="45.822685388848186" lon="7.789161885157228">
        <ele>3016.75</ele>
        <time>2016-07-17T11:28:01Z</time>
      </trkpt>
      <trkpt lat="45.822697458788753" lon="7.789147300645709">
        <ele>3016.75</ele>
        <time>2016-07-17T11:28:19Z</time>
      </trkpt>
      <trkpt lat="45.822709864005446" lon="7.789152497425675">
        <ele>3016.75</ele>
        <time>2016-07-17T11:28:32Z</time>
      </trkpt>
      <trkpt lat="45.822696117684245" lon="7.789207734167576">
        <ele>3016.75</ele>
        <time>2016-07-17T11:28:44Z</time>
      </trkpt>
      <trkpt lat="45.822705756872892" lon="7.789300018921495">
        <ele>3018.1999999999998</ele>
        <time>2016-07-17T11:28:54Z</time>
      </trkpt>
      <trkpt lat="45.822704331949353" lon="7.789374450221658">
        <ele>3019.1599999999999</ele>
        <time>2016-07-17T11:29:03Z</time>
      </trkpt>
      <trkpt lat="45.822689579799771" lon="7.789451899006963">
        <ele>3020.5999999999999</ele>
        <time>2016-07-17T11:29:14Z</time>
      </trkpt>
      <trkpt lat="45.8226880710572" lon="7.789452401921153">
        <ele>3021.0799999999999</ele>
        <time>2016-07-17T11:29:15Z</time>
      </trkpt>
      <trkpt lat="45.82266652956605" lon="7.789472183212638">
        <ele>3021.0799999999999</ele>
        <time>2016-07-17T11:29:25Z</time>
      </trkpt>
      <trkpt lat="45.822646412998438" lon="7.789575280621648">
        <ele>3021.5599999999999</ele>
        <time>2016-07-17T11:29:35Z</time>
      </trkpt>
      <trkpt lat="45.822657728567719" lon="7.789663877338171">
        <ele>3022.52</ele>
        <time>2016-07-17T11:29:44Z</time>
      </trkpt>
      <trkpt lat="45.822680443525314" lon="7.789712660014629">
        <ele>3024.4400000000001</ele>
        <time>2016-07-17T11:29:54Z</time>
      </trkpt>
      <trkpt lat="45.82266753539443" lon="7.789800418540835">
        <ele>3026.3699999999999</ele>
        <time>2016-07-17T11:30:03Z</time>
      </trkpt>
      <trkpt lat="45.822655968368053" lon="7.789870575070381">
        <ele>3027.3299999999999</ele>
        <time>2016-07-17T11:30:13Z</time>
      </trkpt>
      <trkpt lat="45.822676839306951" lon="7.789922207593918">
        <ele>3030.21</ele>
        <time>2016-07-17T11:30:25Z</time>
      </trkpt>
      <trkpt lat="45.822701901197433" lon="7.789937714114785">
        <ele>3032.1399999999999</ele>
        <time>2016-07-17T11:30:36Z</time>
      </trkpt>
      <trkpt lat="45.822738530114293" lon="7.789954897016287">
        <ele>3034.0599999999999</ele>
        <time>2016-07-17T11:30:48Z</time>
      </trkpt>
      <trkpt lat="45.822755126282573" lon="7.789970235899091">
        <ele>3035.98</ele>
        <time>2016-07-17T11:30:59Z</time>
      </trkpt>
      <trkpt lat="45.822787312790751" lon="7.789983144029975">
        <ele>3036.9400000000001</ele>
        <time>2016-07-17T11:31:09Z</time>
      </trkpt>
      <trkpt lat="45.822815056890249" lon="7.789970152080059">
        <ele>3038.3800000000001</ele>
        <time>2016-07-17T11:31:20Z</time>
      </trkpt>
      <trkpt lat="45.82284196279943" lon="7.789961183443666">
        <ele>3039.8299999999999</ele>
        <time>2016-07-17T11:31:30Z</time>
      </trkpt>
      <trkpt lat="45.822857804596424" lon="7.789945425465703">
        <ele>3041.27</ele>
        <time>2016-07-17T11:31:39Z</time>
      </trkpt>
      <trkpt lat="45.82287666387856" lon="7.789962273091078">
        <ele>3042.71</ele>
        <time>2016-07-17T11:31:49Z</time>
      </trkpt>
      <trkpt lat="45.822900636121631" lon="7.790003763511777">
        <ele>3044.6300000000001</ele>
        <time>2016-07-17T11:32:02Z</time>
      </trkpt>
      <trkpt lat="45.822916142642498" lon="7.789971325546503">
        <ele>3046.5599999999999</ele>
        <time>2016-07-17T11:32:12Z</time>
      </trkpt>
      <trkpt lat="45.822927709668875" lon="7.789918603375554">
        <ele>3047.52</ele>
        <time>2016-07-17T11:32:23Z</time>
      </trkpt>
      <trkpt lat="45.822939276695251" lon="7.789990771561861">
        <ele>3048.96</ele>
        <time>2016-07-17T11:32:32Z</time>
      </trkpt>
      <trkpt lat="45.82295972853899" lon="7.789962608367205">
        <ele>3050.4000000000001</ele>
        <time>2016-07-17T11:32:43Z</time>
      </trkpt>
      <trkpt lat="45.822985377162695" lon="7.789988173171878">
        <ele>3052.3200000000002</ele>
        <time>2016-07-17T11:32:53Z</time>
      </trkpt>
      <trkpt lat="45.82300566136837" lon="7.789966212585568">
        <ele>3053.77</ele>
        <time>2016-07-17T11:33:03Z</time>
      </trkpt>
      <trkpt lat="45.823026113212109" lon="7.78993159532547">
        <ele>3055.21</ele>
        <time>2016-07-17T11:33:12Z</time>
      </trkpt>
      <trkpt lat="45.823031896725297" lon="7.790007535368204">
        <ele>3057.1300000000001</ele>
        <time>2016-07-17T11:33:24Z</time>
      </trkpt>
      <trkpt lat="45.823040278628469" lon="7.790040308609605">
        <ele>3058.5700000000002</ele>
        <time>2016-07-17T11:33:33Z</time>
      </trkpt>
      <trkpt lat="45.82308579236269" lon="7.790041230618954">
        <ele>3060.4899999999998</ele>
        <time>2016-07-17T11:33:44Z</time>
      </trkpt>
      <trkpt lat="45.823098532855511" lon="7.79002002440393">
        <ele>3061.9400000000001</ele>
        <time>2016-07-17T11:33:53Z</time>
      </trkpt>
      <trkpt lat="45.82310389727354" lon="7.789930924773216">
        <ele>3061.9400000000001</ele>
        <time>2016-07-17T11:34:03Z</time>
      </trkpt>
      <trkpt lat="45.823161229491234" lon="7.789849704131484">
        <ele>3062.4200000000001</ele>
        <time>2016-07-17T11:34:14Z</time>
      </trkpt>
      <trkpt lat="45.823193332180381" lon="7.789810141548514">
        <ele>3062.4200000000001</ele>
        <time>2016-07-17T11:34:21Z</time>
      </trkpt>
      <trkpt lat="45.823202887549996" lon="7.789779379963875">
        <ele>3062.9000000000001</ele>
        <time>2016-07-17T11:34:25Z</time>
      </trkpt>
      <trkpt lat="45.823271786794066" lon="7.7897659689188">
        <ele>3063.8600000000001</ele>
        <time>2016-07-17T11:34:37Z</time>
      </trkpt>
      <trkpt lat="45.823295842856169" lon="7.78980259783566">
        <ele>3065.3000000000002</ele>
        <time>2016-07-17T11:34:47Z</time>
      </trkpt>
      <trkpt lat="45.823302129283547" lon="7.789811231195927">
        <ele>3065.7800000000002</ele>
        <time>2016-07-17T11:34:56Z</time>
      </trkpt>
      <trkpt lat="45.823353007435799" lon="7.789813075214624">
        <ele>3066.7399999999998</ele>
        <time>2016-07-17T11:35:06Z</time>
      </trkpt>
      <trkpt lat="45.823433725163341" lon="7.789824390783906">
        <ele>3067.2199999999998</ele>
        <time>2016-07-17T11:35:17Z</time>
      </trkpt>
      <trkpt lat="45.823500612750649" lon="7.789809135720134">
        <ele>3067.6999999999998</ele>
        <time>2016-07-17T11:35:27Z</time>
      </trkpt>
      <trkpt lat="45.823549227789044" lon="7.789824055507779">
        <ele>3068.6700000000001</ele>
        <time>2016-07-17T11:35:34Z</time>
      </trkpt>
      <trkpt lat="45.823605386540294" lon="7.789864372462034">
        <ele>3070.5900000000001</ele>
        <time>2016-07-17T11:35:46Z</time>
      </trkpt>
      <trkpt lat="45.823661210015416" lon="7.789849117398262">
        <ele>3072.0300000000002</ele>
        <time>2016-07-17T11:35:56Z</time>
      </trkpt>
      <trkpt lat="45.82375030964613" lon="7.789890775457025">
        <ele>3073.9499999999998</ele>
        <time>2016-07-17T11:36:09Z</time>
      </trkpt>
      <trkpt lat="45.823781155049801" lon="7.789909718558192">
        <ele>3075.4000000000001</ele>
        <time>2016-07-17T11:36:18Z</time>
      </trkpt>
      <trkpt lat="45.823816359043121" lon="7.789922459051013">
        <ele>3076.8400000000001</ele>
        <time>2016-07-17T11:36:27Z</time>
      </trkpt>
      <trkpt lat="45.823882492259145" lon="7.78992279432714">
        <ele>3078.2800000000002</ele>
        <time>2016-07-17T11:36:37Z</time>
      </trkpt>
      <trkpt lat="45.823933705687523" lon="7.789900749921799">
        <ele>3079.7199999999998</ele>
        <time>2016-07-17T11:36:49Z</time>
      </trkpt>
      <trkpt lat="45.823966395109892" lon="7.789911814033985">
        <ele>3081.6399999999999</ele>
        <time>2016-07-17T11:36:59Z</time>
      </trkpt>
      <trkpt lat="45.824033785611391" lon="7.789860516786575">
        <ele>3083.0900000000001</ele>
        <time>2016-07-17T11:37:12Z</time>
      </trkpt>
      <trkpt lat="45.824078880250454" lon="7.789873676374555">
        <ele>3084.5300000000002</ele>
        <time>2016-07-17T11:37:22Z</time>
      </trkpt>
      <trkpt lat="45.824128082022071" lon="7.789870658889413">
        <ele>3085.4899999999998</ele>
        <time>2016-07-17T11:37:32Z</time>
      </trkpt>
      <trkpt lat="45.824197735637426" lon="7.789888009428978">
        <ele>3087.4099999999999</ele>
        <time>2016-07-17T11:37:45Z</time>
      </trkpt>
      <trkpt lat="45.824254648759961" lon="7.789897480979562">
        <ele>3089.8099999999999</ele>
        <time>2016-07-17T11:37:59Z</time>
      </trkpt>
      <trkpt lat="45.824302677065134" lon="7.789922710508108">
        <ele>3091.7399999999998</ele>
        <time>2016-07-17T11:38:12Z</time>
      </trkpt>
      <trkpt lat="45.824363278225064" lon="7.789914328604937">
        <ele>3092.2199999999998</ele>
        <time>2016-07-17T11:38:23Z</time>
      </trkpt>
      <trkpt lat="45.824443660676479" lon="7.789917010813952">
        <ele>3093.6599999999999</ele>
        <time>2016-07-17T11:38:34Z</time>
      </trkpt>
      <trkpt lat="45.824520858004689" lon="7.789910053834319">
        <ele>3094.6199999999999</ele>
        <time>2016-07-17T11:38:45Z</time>
      </trkpt>
      <trkpt lat="45.824598642066121" lon="7.789919273927808">
        <ele>3095.5799999999999</ele>
        <time>2016-07-17T11:38:56Z</time>
      </trkpt>
      <trkpt lat="45.824675168842077" lon="7.789952717721462">
        <ele>3097.02</ele>
        <time>2016-07-17T11:39:07Z</time>
      </trkpt>
      <trkpt lat="45.82475789822638" lon="7.789963614195585">
        <ele>3098.4699999999998</ele>
        <time>2016-07-17T11:39:21Z</time>
      </trkpt>
      <trkpt lat="45.824794443324208" lon="7.789951041340828">
        <ele>3098.9499999999998</ele>
        <time>2016-07-17T11:39:27Z</time>
      </trkpt>
      <trkpt lat="45.824830150231719" lon="7.789960093796253">
        <ele>3098.9499999999998</ele>
        <time>2016-07-17T11:39:32Z</time>
      </trkpt>
      <trkpt lat="45.824868371710181" lon="7.789976438507438">
        <ele>3098.4699999999998</ele>
        <time>2016-07-17T11:39:37Z</time>
      </trkpt>
      <trkpt lat="45.824939450249076" lon="7.79004005715251">
        <ele>3098.4699999999998</ele>
        <time>2016-07-17T11:39:47Z</time>
      </trkpt>
      <trkpt lat="45.824992759153247" lon="7.790112225338817">
        <ele>3099.9099999999999</ele>
        <time>2016-07-17T11:39:58Z</time>
      </trkpt>
      <trkpt lat="45.825025197118521" lon="7.790142484009266">
        <ele>3101.8299999999999</ele>
        <time>2016-07-17T11:40:08Z</time>
      </trkpt>
      <trkpt lat="45.825102394446731" lon="7.790201241150498">
        <ele>3103.75</ele>
        <time>2016-07-17T11:40:20Z</time>
      </trkpt>
      <trkpt lat="45.82513315603137" lon="7.790256310254335">
        <ele>3105.1999999999998</ele>
        <time>2016-07-17T11:40:30Z</time>
      </trkpt>
      <trkpt lat="45.825185626745224" lon="7.790270559489727">
        <ele>3105.6799999999998</ele>
        <time>2016-07-17T11:40:40Z</time>
      </trkpt>
      <trkpt lat="45.82521328702569" lon="7.790331076830626">
        <ele>3107.1199999999999</ele>
        <time>2016-07-17T11:40:49Z</time>
      </trkpt>
      <trkpt lat="45.825292160734534" lon="7.790340129286051">
        <ele>3108.5599999999999</ele>
        <time>2016-07-17T11:41:01Z</time>
      </trkpt>
      <trkpt lat="45.825339769944549" lon="7.790391761809588">
        <ele>3110</ele>
        <time>2016-07-17T11:41:12Z</time>
      </trkpt>
      <trkpt lat="45.825380589812994" lon="7.790433084592223">
        <ele>3110.96</ele>
        <time>2016-07-17T11:41:22Z</time>
      </trkpt>
      <trkpt lat="45.825418476015329" lon="7.790466360747814">
        <ele>3112.8899999999999</ele>
        <time>2016-07-17T11:41:32Z</time>
      </trkpt>
      <trkpt lat="45.825500786304474" lon="7.790487483143807">
        <ele>3113.3699999999999</ele>
        <time>2016-07-17T11:41:44Z</time>
      </trkpt>
      <trkpt lat="45.825548814609647" lon="7.790493266656995">
        <ele>3115.29</ele>
        <time>2016-07-17T11:41:54Z</time>
      </trkpt>
      <trkpt lat="45.825596004724503" lon="7.79051648452878">
        <ele>3117.21</ele>
        <time>2016-07-17T11:42:06Z</time>
      </trkpt>
      <trkpt lat="45.825639339163899" lon="7.790563423186541">
        <ele>3118.6500000000001</ele>
        <time>2016-07-17T11:42:17Z</time>
      </trkpt>
      <trkpt lat="45.825719553977251" lon="7.790617318823934">
        <ele>3120.5799999999999</ele>
        <time>2016-07-17T11:42:30Z</time>
      </trkpt>
      <trkpt lat="45.825757691636682" lon="7.790682446211577">
        <ele>3121.54</ele>
        <time>2016-07-17T11:42:42Z</time>
      </trkpt>
      <trkpt lat="45.825751656666398" lon="7.790671046823263">
        <ele>3121.0599999999999</ele>
        <time>2016-07-17T11:43:02Z</time>
      </trkpt>
      <trkpt lat="45.825764564797282" lon="7.790655875578523">
        <ele>3121.54</ele>
        <time>2016-07-17T11:43:14Z</time>
      </trkpt>
      <trkpt lat="45.825760373845696" lon="7.79067724943161">
        <ele>3120.5799999999999</ele>
        <time>2016-07-17T11:43:33Z</time>
      </trkpt>
      <trkpt lat="45.825754087418318" lon="7.790674231946468">
        <ele>3120.5799999999999</ele>
        <time>2016-07-17T11:43:53Z</time>
      </trkpt>
      <trkpt lat="45.825747381895781" lon="7.790666772052646">
        <ele>3120.5799999999999</ele>
        <time>2016-07-17T11:44:06Z</time>
      </trkpt>
      <trkpt lat="45.825755763798952" lon="7.790672974660993">
        <ele>3120.5799999999999</ele>
        <time>2016-07-17T11:44:21Z</time>
      </trkpt>
      <trkpt lat="45.825749225914478" lon="7.790676997974515">
        <ele>3121.54</ele>
        <time>2016-07-17T11:44:39Z</time>
      </trkpt>
      <trkpt lat="45.825747884809971" lon="7.790639027953148">
        <ele>3121.54</ele>
        <time>2016-07-17T11:44:50Z</time>
      </trkpt>
      <trkpt lat="45.825760457664728" lon="7.790652355179191">
        <ele>3121.54</ele>
        <time>2016-07-17T11:45:02Z</time>
      </trkpt>
      <trkpt lat="45.825763894245028" lon="7.790655288845301">
        <ele>3121.54</ele>
        <time>2016-07-17T11:45:20Z</time>
      </trkpt>
      <trkpt lat="45.825781244784594" lon="7.790649589151144">
        <ele>3122.02</ele>
        <time>2016-07-17T11:45:31Z</time>
      </trkpt>
      <trkpt lat="45.825770348310471" lon="7.790661156177521">
        <ele>3122.02</ele>
        <time>2016-07-17T11:45:43Z</time>
      </trkpt>
      <trkpt lat="45.825775796547532" lon="7.790665850043297">
        <ele>3121.54</ele>
        <time>2016-07-17T11:46:05Z</time>
      </trkpt>
      <trkpt lat="45.825775545090437" lon="7.790666520595551">
        <ele>3121.54</ele>
        <time>2016-07-17T11:46:22Z</time>
      </trkpt>
      <trkpt lat="45.825768001377583" lon="7.790604159235954">
        <ele>3121.0599999999999</ele>
        <time>2016-07-17T11:46:29Z</time>
      </trkpt>
      <trkpt lat="45.825769258663058" lon="7.79062494635582">
        <ele>3120.5799999999999</ele>
        <time>2016-07-17T11:46:44Z</time>
      </trkpt>
      <trkpt lat="45.825780741870403" lon="7.790629975497723">
        <ele>3122.02</ele>
        <time>2016-07-17T11:46:55Z</time>
      </trkpt>
      <trkpt lat="45.825773952528834" lon="7.790650092065334">
        <ele>3122.02</ele>
        <time>2016-07-17T11:47:07Z</time>
      </trkpt>
      <trkpt lat="45.825788034126163" lon="7.790634837001562">
        <ele>3122.02</ele>
        <time>2016-07-17T11:47:18Z</time>
      </trkpt>
      <trkpt lat="45.825772527605295" lon="7.790649756789208">
        <ele>3121.0599999999999</ele>
        <time>2016-07-17T11:47:30Z</time>
      </trkpt>
      <trkpt lat="45.825800020247698" lon="7.790661826729775">
        <ele>3122.02</ele>
        <time>2016-07-17T11:47:46Z</time>
      </trkpt>
      <trkpt lat="45.825793230906129" lon="7.790650762617588">
        <ele>3122.02</ele>
        <time>2016-07-17T11:48:05Z</time>
      </trkpt>
      <trkpt lat="45.825760373845696" lon="7.79068018309772">
        <ele>3122.02</ele>
        <time>2016-07-17T11:48:15Z</time>
      </trkpt>
      <trkpt lat="45.8257688395679" lon="7.790688900277019">
        <ele>3122.02</ele>
        <time>2016-07-17T11:48:28Z</time>
      </trkpt>
      <trkpt lat="45.825779652222991" lon="7.790661491453648">
        <ele>3122.5</ele>
        <time>2016-07-17T11:48:43Z</time>
      </trkpt>
      <trkpt lat="45.825803708285093" lon="7.790609858930111">
        <ele>3122.98</ele>
        <time>2016-07-17T11:48:52Z</time>
      </trkpt>
      <trkpt lat="45.825825249776244" lon="7.790618827566505">
        <ele>3122.98</ele>
        <time>2016-07-17T11:49:01Z</time>
      </trkpt>
      <trkpt lat="45.825838660821319" lon="7.790620839223266">
        <ele>3122.98</ele>
        <time>2016-07-17T11:49:16Z</time>
      </trkpt>
      <trkpt lat="45.825803708285093" lon="7.790639279410243">
        <ele>3123.46</ele>
        <time>2016-07-17T11:49:27Z</time>
      </trkpt>
      <trkpt lat="45.825774036347866" lon="7.79067330993712">
        <ele>3122.5</ele>
        <time>2016-07-17T11:49:38Z</time>
      </trkpt>
      <trkpt lat="45.825772611424327" lon="7.79067138209939">
        <ele>3122.5</ele>
        <time>2016-07-17T11:49:49Z</time>
      </trkpt>
      <trkpt lat="45.825761631131172" lon="7.790663167834282">
        <ele>3122.02</ele>
        <time>2016-07-17T11:49:59Z</time>
      </trkpt>
      <trkpt lat="45.825803373008966" lon="7.790625197812915">
        <ele>3122.5</ele>
        <time>2016-07-17T11:50:10Z</time>
      </trkpt>
      <trkpt lat="45.825862130150199" lon="7.79056878760457">
        <ele>3123.9400000000001</ele>
        <time>2016-07-17T11:50:20Z</time>
      </trkpt>
      <trkpt lat="45.825928095728159" lon="7.790508940815926">
        <ele>3123.9400000000001</ele>
        <time>2016-07-17T11:50:29Z</time>
      </trkpt>
      <trkpt lat="45.825975788757205" lon="7.790488740429282">
        <ele>3125.8600000000001</ele>
        <time>2016-07-17T11:50:39Z</time>
      </trkpt>
      <trkpt lat="45.826003365218639" lon="7.790469881147146">
        <ele>3126.3400000000001</ele>
        <time>2016-07-17T11:50:44Z</time>
      </trkpt>
      <trkpt lat="45.826090620830655" lon="7.790422942489386">
        <ele>3127.3099999999999</ele>
        <time>2016-07-17T11:50:55Z</time>
      </trkpt>
      <trkpt lat="45.82614409737289" lon="7.790383882820606">
        <ele>3126.8299999999999</ele>
        <time>2016-07-17T11:51:02Z</time>
      </trkpt>
      <trkpt lat="45.826217019930482" lon="7.790301153436303">
        <ele>3127.3099999999999</ele>
        <time>2016-07-17T11:51:13Z</time>
      </trkpt>
      <trkpt lat="45.826268065720797" lon="7.790225716307759">
        <ele>3128.75</ele>
        <time>2016-07-17T11:51:25Z</time>
      </trkpt>
      <trkpt lat="45.826290864497423" lon="7.790216999128461">
        <ele>3130.6700000000001</ele>
        <time>2016-07-17T11:51:31Z</time>
      </trkpt>
      <trkpt lat="45.82630536518991" lon="7.790159415453672">
        <ele>3132.1100000000001</ele>
        <time>2016-07-17T11:51:41Z</time>
      </trkpt>
      <trkpt lat="45.826347945258021" lon="7.790165366604924">
        <ele>3134.04</ele>
        <time>2016-07-17T11:51:49Z</time>
      </trkpt>
      <trkpt lat="45.826380886137486" lon="7.790143322199583">
        <ele>3135.96</ele>
        <time>2016-07-17T11:52:00Z</time>
      </trkpt>
      <trkpt lat="45.826406031847" lon="7.790141645818949">
        <ele>3135.96</ele>
        <time>2016-07-17T11:52:09Z</time>
      </trkpt>
      <trkpt lat="45.826484654098749" lon="7.790124882012606">
        <ele>3137.4000000000001</ele>
        <time>2016-07-17T11:52:21Z</time>
      </trkpt>
      <trkpt lat="45.826520277187228" lon="7.790063442662358">
        <ele>3138.8400000000001</ele>
        <time>2016-07-17T11:52:32Z</time>
      </trkpt>
      <trkpt lat="45.826583812013268" lon="7.790014324709773">
        <ele>3139.8000000000002</ele>
        <time>2016-07-17T11:52:44Z</time>
      </trkpt>
      <trkpt lat="45.826655812561512" lon="7.789991861209273">
        <ele>3141.25</ele>
        <time>2016-07-17T11:52:56Z</time>
      </trkpt>
      <trkpt lat="45.826709875836968" lon="7.789929416030645">
        <ele>3143.1700000000001</ele>
        <time>2016-07-17T11:53:07Z</time>
      </trkpt>
      <trkpt lat="45.82675002515316" lon="7.789967134594917">
        <ele>3144.6100000000001</ele>
        <time>2016-07-17T11:53:17Z</time>
      </trkpt>
      <trkpt lat="45.826786486431956" lon="7.7900146599859">
        <ele>3146.0500000000002</ele>
        <time>2016-07-17T11:53:29Z</time>
      </trkpt>
      <trkpt lat="45.826811045408249" lon="7.790000913664699">
        <ele>3147.0100000000002</ele>
        <time>2016-07-17T11:53:37Z</time>
      </trkpt>
      <trkpt lat="45.826842896640301" lon="7.789952466264367">
        <ele>3149.4200000000001</ele>
        <time>2016-07-17T11:53:49Z</time>
      </trkpt>
      <trkpt lat="45.826906180009246" lon="7.789923213422298">
        <ele>3150.3800000000001</ele>
        <time>2016-07-17T11:53:59Z</time>
      </trkpt>
      <trkpt lat="45.826954795047641" lon="7.789878370240331">
        <ele>3151.8200000000002</ele>
        <time>2016-07-17T11:54:11Z</time>
      </trkpt>
      <trkpt lat="45.82702754996717" lon="7.789850123226643">
        <ele>3153.2600000000002</ele>
        <time>2016-07-17T11:54:22Z</time>
      </trkpt>
      <trkpt lat="45.827052528038621" lon="7.789799412712455">
        <ele>3154.2199999999998</ele>
        <time>2016-07-17T11:54:34Z</time>
      </trkpt>
      <trkpt lat="45.82709058187902" lon="7.789767310023308">
        <ele>3156.1500000000001</ele>
        <time>2016-07-17T11:54:43Z</time>
      </trkpt>
      <trkpt lat="45.827124193310738" lon="7.789718443527818">
        <ele>3157.5900000000001</ele>
        <time>2016-07-17T11:54:53Z</time>
      </trkpt>
      <trkpt lat="45.827150512486696" lon="7.789709810167551">
        <ele>3158.5500000000002</ele>
        <time>2016-07-17T11:55:02Z</time>
      </trkpt>
      <trkpt lat="45.827202647924423" lon="7.789693716913462">
        <ele>3159.9899999999998</ele>
        <time>2016-07-17T11:55:13Z</time>
      </trkpt>
      <trkpt lat="45.827195858582854" lon="7.789627918973565">
        <ele>3160.9499999999998</ele>
        <time>2016-07-17T11:55:23Z</time>
      </trkpt>
      <trkpt lat="45.827237432822585" lon="7.789589865133166">
        <ele>3163.3600000000001</ele>
        <time>2016-07-17T11:55:33Z</time>
      </trkpt>
      <trkpt lat="45.827288059517741" lon="7.78963546268642">
        <ele>3164.8000000000002</ele>
        <time>2016-07-17T11:55:45Z</time>
      </trkpt>
      <trkpt lat="45.827303230762482" lon="7.789598079398274">
        <ele>3165.2800000000002</ele>
        <time>2016-07-17T11:55:55Z</time>
      </trkpt>
      <trkpt lat="45.827354863286018" lon="7.789593553170562">
        <ele>3167.1999999999998</ele>
        <time>2016-07-17T11:56:05Z</time>
      </trkpt>
      <trkpt lat="45.827398197725415" lon="7.789632193744183">
        <ele>3168.6399999999999</ele>
        <time>2016-07-17T11:56:16Z</time>
      </trkpt>
      <trkpt lat="45.827443460002542" lon="7.789603276178241">
        <ele>3170.0799999999999</ele>
        <time>2016-07-17T11:56:28Z</time>
      </trkpt>
      <trkpt lat="45.827452093362808" lon="7.78955583460629">
        <ele>3171.5300000000002</ele>
        <time>2016-07-17T11:56:40Z</time>
      </trkpt>
      <trkpt lat="45.827445136383176" lon="7.789502190425992">
        <ele>3172.4899999999998</ele>
        <time>2016-07-17T11:56:50Z</time>
      </trkpt>
      <trkpt lat="45.827462151646614" lon="7.78948743827641">
        <ele>3173.9299999999998</ele>
        <time>2016-07-17T11:56:54Z</time>
      </trkpt>
      <trkpt lat="45.827513113617897" lon="7.789484923705459">
        <ele>3174.8899999999999</ele>
        <time>2016-07-17T11:57:05Z</time>
      </trkpt>
      <trkpt lat="45.827562734484673" lon="7.789446953684092">
        <ele>3177.29</ele>
        <time>2016-07-17T11:57:16Z</time>
      </trkpt>
      <trkpt lat="45.827610092237592" lon="7.789479056373239">
        <ele>3177.7800000000002</ele>
        <time>2016-07-17T11:57:25Z</time>
      </trkpt>
      <trkpt lat="45.827645799145103" lon="7.789468495175242">
        <ele>3178.7399999999998</ele>
        <time>2016-07-17T11:57:35Z</time>
      </trkpt>
      <trkpt lat="45.827680332586169" lon="7.789454245939851">
        <ele>3180.1799999999998</ele>
        <time>2016-07-17T11:57:44Z</time>
      </trkpt>
      <trkpt lat="45.827697431668639" lon="7.789451815187931">
        <ele>3180.6599999999999</ele>
        <time>2016-07-17T11:57:58Z</time>
      </trkpt>
      <trkpt lat="45.827731965109706" lon="7.789437146857381">
        <ele>3182.5799999999999</ele>
        <time>2016-07-17T11:58:09Z</time>
      </trkpt>
      <trkpt lat="45.827765660360456" lon="7.789441086351872">
        <ele>3184.02</ele>
        <time>2016-07-17T11:58:17Z</time>
      </trkpt>
      <trkpt lat="45.827779155224562" lon="7.789400098845363">
        <ele>3184.98</ele>
        <time>2016-07-17T11:58:29Z</time>
      </trkpt>
      <trkpt lat="45.827808324247599" lon="7.789368834346533">
        <ele>3187.3899999999999</ele>
        <time>2016-07-17T11:58:38Z</time>
      </trkpt>
      <trkpt lat="45.827820897102356" lon="7.789337486028671">
        <ele>3187.8699999999999</ele>
        <time>2016-07-17T11:58:49Z</time>
      </trkpt>
      <trkpt lat="45.827840259298682" lon="7.789320051670075">
        <ele>3189.79</ele>
        <time>2016-07-17T11:58:59Z</time>
      </trkpt>
      <trkpt lat="45.827867751941085" lon="7.789345281198621">
        <ele>3190.27</ele>
        <time>2016-07-17T11:59:09Z</time>
      </trkpt>
      <trkpt lat="45.827915109694004" lon="7.789326757192612">
        <ele>3191.71</ele>
        <time>2016-07-17T11:59:19Z</time>
      </trkpt>
      <trkpt lat="45.827973950654268" lon="7.789353579282761">
        <ele>3190.75</ele>
        <time>2016-07-17T11:59:28Z</time>
      </trkpt>
      <trkpt lat="45.828022230416536" lon="7.789332456886768">
        <ele>3192.6799999999998</ele>
        <time>2016-07-17T11:59:41Z</time>
      </trkpt>
      <trkpt lat="45.828074868768454" lon="7.789402948692441">
        <ele>3193.1599999999999</ele>
        <time>2016-07-17T11:59:51Z</time>
      </trkpt>
      <trkpt lat="45.828115101903677" lon="7.789416024461389">
        <ele>3194.5999999999999</ele>
        <time>2016-07-17T12:00:01Z</time>
      </trkpt>
      <trkpt lat="45.828121555969119" lon="7.789455838501453">
        <ele>3194.5999999999999</ele>
        <time>2016-07-17T12:00:15Z</time>
      </trkpt>
      <trkpt lat="45.828127842396498" lon="7.789452318102121">
        <ele>3194.5999999999999</ele>
        <time>2016-07-17T12:00:28Z</time>
      </trkpt>
      <trkpt lat="45.828136391937733" lon="7.789463885128498">
        <ele>3194.5999999999999</ele>
        <time>2016-07-17T12:00:44Z</time>
      </trkpt>
      <trkpt lat="45.82813236862421" lon="7.789461705833674">
        <ele>3195.0799999999999</ele>
        <time>2016-07-17T12:01:00Z</time>
      </trkpt>
      <trkpt lat="45.828137481585145" lon="7.789462292566896">
        <ele>3195.0799999999999</ele>
        <time>2016-07-17T12:01:14Z</time>
      </trkpt>
      <trkpt lat="45.828203530982137" lon="7.78949280269444">
        <ele>3196.04</ele>
        <time>2016-07-17T12:01:25Z</time>
      </trkpt>
      <trkpt lat="45.828280560672283" lon="7.789458939805627">
        <ele>3197.48</ele>
        <time>2016-07-17T12:01:37Z</time>
      </trkpt>
      <trkpt lat="45.828321129083633" lon="7.789453491568565">
        <ele>3198.9200000000001</ele>
        <time>2016-07-17T12:01:45Z</time>
      </trkpt>
      <trkpt lat="45.828354740515351" lon="7.789425244554877">
        <ele>3200.3699999999999</ele>
        <time>2016-07-17T12:01:55Z</time>
      </trkpt>
      <trkpt lat="45.828401762992144" lon="7.789412001147866">
        <ele>3202.29</ele>
        <time>2016-07-17T12:02:07Z</time>
      </trkpt>
      <trkpt lat="45.828439481556416" lon="7.789416695013642">
        <ele>3204.21</ele>
        <time>2016-07-17T12:02:18Z</time>
      </trkpt>
      <trkpt lat="45.828468482941389" lon="7.789373779669404">
        <ele>3205.6500000000001</ele>
        <time>2016-07-17T12:02:28Z</time>
      </trkpt>
      <trkpt lat="45.828435625880957" lon="7.789333630353212">
        <ele>3207.5799999999999</ele>
        <time>2016-07-17T12:02:38Z</time>
      </trkpt>
      <trkpt lat="45.828394470736384" lon="7.789284931495786">
        <ele>3208.0599999999999</ele>
        <time>2016-07-17T12:02:48Z</time>
      </trkpt>
      <trkpt lat="45.828417604789138" lon="7.789211170747876">
        <ele>3209.98</ele>
        <time>2016-07-17T12:02:58Z</time>
      </trkpt>
      <trkpt lat="45.828457921743393" lon="7.789241764694452">
        <ele>3210.9400000000001</ele>
        <time>2016-07-17T12:03:09Z</time>
      </trkpt>
      <trkpt lat="45.828488012775779" lon="7.789284428581595">
        <ele>3210.9400000000001</ele>
        <time>2016-07-17T12:03:19Z</time>
      </trkpt>
      <trkpt lat="45.828525563701987" lon="7.789243357256055">
        <ele>3212.8600000000001</ele>
        <time>2016-07-17T12:03:30Z</time>
      </trkpt>
      <trkpt lat="45.828591445460916" lon="7.789207817986608">
        <ele>3214.3099999999999</ele>
        <time>2016-07-17T12:03:41Z</time>
      </trkpt>
      <trkpt lat="45.828641233965755" lon="7.789189796894789">
        <ele>3216.71</ele>
        <time>2016-07-17T12:03:51Z</time>
      </trkpt>
      <trkpt lat="45.828693453222513" lon="7.789134308695793">
        <ele>3216.23</ele>
        <time>2016-07-17T12:04:02Z</time>
      </trkpt>
      <trkpt lat="45.828722873702645" lon="7.789101116359234">
        <ele>3217.6700000000001</ele>
        <time>2016-07-17T12:04:13Z</time>
      </trkpt>
      <trkpt lat="45.8287338539958" lon="7.789032887667418">
        <ele>3220.0700000000002</ele>
        <time>2016-07-17T12:04:24Z</time>
      </trkpt>
      <trkpt lat="45.82876905798912" lon="7.788972873240709">
        <ele>3220.5500000000002</ele>
        <time>2016-07-17T12:04:34Z</time>
      </trkpt>
      <trkpt lat="45.828855810686946" lon="7.788964491337538">
        <ele>3221.0300000000002</ele>
        <time>2016-07-17T12:04:46Z</time>
      </trkpt>
      <trkpt lat="45.828865701332688" lon="7.788935406133533">
        <ele>3222</ele>
        <time>2016-07-17T12:04:56Z</time>
      </trkpt>
      <trkpt lat="45.828894702717662" lon="7.788885869085789">
        <ele>3223.4400000000001</ele>
        <time>2016-07-17T12:05:05Z</time>
      </trkpt>
      <trkpt lat="45.82892244681716" lon="7.788938926532865">
        <ele>3224.8800000000001</ele>
        <time>2016-07-17T12:05:17Z</time>
      </trkpt>
      <trkpt lat="45.828944323584437" lon="7.788984272629023">
        <ele>3225.8400000000001</ele>
        <time>2016-07-17T12:05:28Z</time>
      </trkpt>
      <trkpt lat="45.828968128189445" lon="7.788979578763247">
        <ele>3226.8000000000002</ele>
        <time>2016-07-17T12:05:40Z</time>
      </trkpt>
      <trkpt lat="45.828981790691614" lon="7.788898777216673">
        <ele>3228.73</ele>
        <time>2016-07-17T12:05:52Z</time>
      </trkpt>
      <trkpt lat="45.829023364931345" lon="7.788948398083448">
        <ele>3230.1700000000001</ele>
        <time>2016-07-17T12:06:04Z</time>
      </trkpt>
      <trkpt lat="45.82906954921782" lon="7.788929622620344">
        <ele>3231.6100000000001</ele>
        <time>2016-07-17T12:06:17Z</time>
      </trkpt>
      <trkpt lat="45.829092934727669" lon="7.788855861872435">
        <ele>3233.5300000000002</ele>
        <time>2016-07-17T12:06:28Z</time>
      </trkpt>
      <trkpt lat="45.829138699918985" lon="7.788870865479112">
        <ele>3235.4499999999998</ele>
        <time>2016-07-17T12:06:38Z</time>
      </trkpt>
      <trkpt lat="45.829156218096614" lon="7.788833063095808">
        <ele>3236.9000000000001</ele>
        <time>2016-07-17T12:06:49Z</time>
      </trkpt>
      <trkpt lat="45.829173820093274" lon="7.788740023970604">
        <ele>3237.3800000000001</ele>
        <time>2016-07-17T12:07:01Z</time>
      </trkpt>
      <trkpt lat="45.82918438129127" lon="7.788713956251741">
        <ele>3237.8600000000001</ele>
        <time>2016-07-17T12:07:13Z</time>
      </trkpt>
      <trkpt lat="45.829251687973738" lon="7.788609014824033">
        <ele>3239.3000000000002</ele>
        <time>2016-07-17T12:07:25Z</time>
      </trkpt>
      <trkpt lat="45.829288819804788" lon="7.788547156378627">
        <ele>3240.2600000000002</ele>
        <time>2016-07-17T12:07:36Z</time>
      </trkpt>
      <trkpt lat="45.829335674643517" lon="7.788454368710518">
        <ele>3240.2600000000002</ele>
        <time>2016-07-17T12:07:48Z</time>
      </trkpt>
      <trkpt lat="45.829380517825484" lon="7.788372896611691">
        <ele>3240.2600000000002</ele>
        <time>2016-07-17T12:07:59Z</time>
      </trkpt>
      <trkpt lat="45.829404322430491" lon="7.788326209411025">
        <ele>3241.2199999999998</ele>
        <time>2016-07-17T12:08:10Z</time>
      </trkpt>
      <trkpt lat="45.829417901113629" lon="7.788319671526551">
        <ele>3241.6999999999998</ele>
        <time>2016-07-17T12:08:25Z</time>
      </trkpt>
      <trkpt lat="45.829451512545347" lon="7.788226213306189">
        <ele>3241.2199999999998</ele>
        <time>2016-07-17T12:08:36Z</time>
      </trkpt>
      <trkpt lat="45.829481687396765" lon="7.788227386772633">
        <ele>3243.1399999999999</ele>
        <time>2016-07-17T12:08:47Z</time>
      </trkpt>
      <trkpt lat="45.82952837459743" lon="7.788216071203351">
        <ele>3245.0700000000002</ele>
        <time>2016-07-17T12:08:56Z</time>
      </trkpt>
      <trkpt lat="45.829554190859199" lon="7.788211461156607">
        <ele>3247.4699999999998</ele>
        <time>2016-07-17T12:09:06Z</time>
      </trkpt>
      <trkpt lat="45.829583276063204" lon="7.788191428408027">
        <ele>3249.3899999999999</ele>
        <time>2016-07-17T12:09:15Z</time>
      </trkpt>
      <trkpt lat="45.829618815332651" lon="7.788199726492167">
        <ele>3251.3200000000002</ele>
        <time>2016-07-17T12:09:26Z</time>
      </trkpt>
      <trkpt lat="45.829627783969045" lon="7.788247251883149">
        <ele>3253.2399999999998</ele>
        <time>2016-07-17T12:09:38Z</time>
      </trkpt>
      <trkpt lat="45.829635411500931" lon="7.788233170285821">
        <ele>3251.8000000000002</ele>
        <time>2016-07-17T12:09:54Z</time>
      </trkpt>
      <trkpt lat="45.829634573310614" lon="7.78822772204876">
        <ele>3251.8000000000002</ele>
        <time>2016-07-17T12:10:12Z</time>
      </trkpt>
      <trkpt lat="45.829667178913951" lon="7.788187740370631">
        <ele>3253.2399999999998</ele>
        <time>2016-07-17T12:10:25Z</time>
      </trkpt>
      <trkpt lat="45.829666424542665" lon="7.788204252719879">
        <ele>3253.7199999999998</ele>
        <time>2016-07-17T12:10:37Z</time>
      </trkpt>
      <trkpt lat="45.829672124236822" lon="7.788186399266124">
        <ele>3254.1999999999998</ele>
        <time>2016-07-17T12:10:54Z</time>
      </trkpt>
      <trkpt lat="45.829716883599758" lon="7.788127474486828">
        <ele>3255.1599999999999</ele>
        <time>2016-07-17T12:11:05Z</time>
      </trkpt>
      <trkpt lat="45.829766672104597" lon="7.788069890812039">
        <ele>3257.0799999999999</ele>
        <time>2016-07-17T12:11:17Z</time>
      </trkpt>
      <trkpt lat="45.829802379012108" lon="7.787999650463462">
        <ele>3257.0799999999999</ele>
        <time>2016-07-17T12:11:28Z</time>
      </trkpt>
      <trkpt lat="45.829839091747999" lon="7.787934271618724">
        <ele>3258.5300000000002</ele>
        <time>2016-07-17T12:11:38Z</time>
      </trkpt>
      <trkpt lat="45.829849233850837" lon="7.787898313254118">
        <ele>3258.0500000000002</ele>
        <time>2016-07-17T12:11:51Z</time>
      </trkpt>
      <trkpt lat="45.829913523048162" lon="7.787870820611715">
        <ele>3260.4499999999998</ele>
        <time>2016-07-17T12:12:04Z</time>
      </trkpt>
      <trkpt lat="45.829950487241149" lon="7.787848692387343">
        <ele>3261.8899999999999</ele>
        <time>2016-07-17T12:12:14Z</time>
      </trkpt>
      <trkpt lat="45.829979153349996" lon="7.787836119532585">
        <ele>3263.8099999999999</ele>
        <time>2016-07-17T12:12:24Z</time>
      </trkpt>
      <trkpt lat="45.829996168613434" lon="7.787836454808712">
        <ele>3265.7399999999998</ele>
        <time>2016-07-17T12:12:32Z</time>
      </trkpt>
      <trkpt lat="45.830002203583717" lon="7.787848776206374">
        <ele>3266.6999999999998</ele>
        <time>2016-07-17T12:12:42Z</time>
      </trkpt>
      <trkpt lat="45.830015949904919" lon="7.787855146452785">
        <ele>3267.1799999999998</ele>
        <time>2016-07-17T12:13:00Z</time>
      </trkpt>
      <trkpt lat="45.830011088401079" lon="7.787853553891182">
        <ele>3267.1799999999998</ele>
        <time>2016-07-17T12:13:18Z</time>
      </trkpt>
      <trkpt lat="45.830010501667857" lon="7.7878422383219">
        <ele>3267.6599999999999</ele>
        <time>2016-07-17T12:13:21Z</time>
      </trkpt>
      <trkpt lat="45.830008238554001" lon="7.787868808954954">
        <ele>3267.1799999999998</ele>
        <time>2016-07-17T12:13:30Z</time>
      </trkpt>
      <trkpt lat="45.830007400363684" lon="7.787865120917559">
        <ele>3266.6999999999998</ele>
        <time>2016-07-17T12:13:42Z</time>
      </trkpt>
      <trkpt lat="45.830013183876872" lon="7.787857493385673">
        <ele>3267.6599999999999</ele>
        <time>2016-07-17T12:13:50Z</time>
      </trkpt>
      <trkpt lat="45.830040173605084" lon="7.787854056805372">
        <ele>3267.6599999999999</ele>
        <time>2016-07-17T12:13:58Z</time>
      </trkpt>
      <trkpt lat="45.830026092007756" lon="7.787857241928577">
        <ele>3268.1399999999999</ele>
        <time>2016-07-17T12:14:11Z</time>
      </trkpt>
      <trkpt lat="45.830018380656838" lon="7.787844249978662">
        <ele>3268.1399999999999</ele>
        <time>2016-07-17T12:14:26Z</time>
      </trkpt>
      <trkpt lat="45.830022906884551" lon="7.78784659691155">
        <ele>3269.0999999999999</ele>
        <time>2016-07-17T12:14:40Z</time>
      </trkpt>
      <trkpt lat="45.83002676256001" lon="7.787855314090848">
        <ele>3269.5799999999999</ele>
        <time>2016-07-17T12:14:53Z</time>
      </trkpt>
      <trkpt lat="45.830019554123282" lon="7.78784709982574">
        <ele>3269.5799999999999</ele>
        <time>2016-07-17T12:15:07Z</time>
      </trkpt>
      <trkpt lat="45.83002433180809" lon="7.787842573598027">
        <ele>3269.5799999999999</ele>
        <time>2016-07-17T12:15:21Z</time>
      </trkpt>
      <trkpt lat="45.830027516931295" lon="7.787846932187676">
        <ele>3269.5799999999999</ele>
        <time>2016-07-17T12:15:36Z</time>
      </trkpt>
      <trkpt lat="45.830028522759676" lon="7.787847435101867">
        <ele>3270.0599999999999</ele>
        <time>2016-07-17T12:15:54Z</time>
      </trkpt>
      <trkpt lat="45.830026678740978" lon="7.787847770377994">
        <ele>3269.5799999999999</ele>
        <time>2016-07-17T12:16:12Z</time>
      </trkpt>
      <trkpt lat="45.830028858035803" lon="7.787857158109546">
        <ele>3270.0599999999999</ele>
        <time>2016-07-17T12:16:28Z</time>
      </trkpt>
      <trkpt lat="45.830026930198073" lon="7.787845339626074">
        <ele>3269.5799999999999</ele>
        <time>2016-07-17T12:16:47Z</time>
      </trkpt>
      <trkpt lat="45.830020224675536" lon="7.787851374596357">
        <ele>3270.54</ele>
        <time>2016-07-17T12:17:02Z</time>
      </trkpt>
      <trkpt lat="45.830021984875202" lon="7.787844082340598">
        <ele>3270.0599999999999</ele>
        <time>2016-07-17T12:17:18Z</time>
      </trkpt>
      <trkpt lat="45.830023242160678" lon="7.787851290777326">
        <ele>3270.0599999999999</ele>
        <time>2016-07-17T12:17:28Z</time>
      </trkpt>
      <trkpt lat="45.830019721761346" lon="7.787852212786675">
        <ele>3270.0599999999999</ele>
        <time>2016-07-17T12:17:48Z</time>
      </trkpt>
      <trkpt lat="45.830034390091896" lon="7.787816673517227">
        <ele>3271.5</ele>
        <time>2016-07-17T12:18:00Z</time>
      </trkpt>
      <trkpt lat="45.830111503601074" lon="7.78779337182641">
        <ele>3273.4299999999998</ele>
        <time>2016-07-17T12:18:13Z</time>
      </trkpt>
      <trkpt lat="45.83014452829957" lon="7.787762861698866">
        <ele>3274.8699999999999</ele>
        <time>2016-07-17T12:18:23Z</time>
      </trkpt>
      <trkpt lat="45.83019683137536" lon="7.787682395428419">
        <ele>3277.27</ele>
        <time>2016-07-17T12:18:36Z</time>
      </trkpt>
      <trkpt lat="45.830207811668515" lon="7.787676695734263">
        <ele>3278.23</ele>
        <time>2016-07-17T12:18:50Z</time>
      </trkpt>
      <trkpt lat="45.830243770033121" lon="7.787642665207386">
        <ele>3278.71</ele>
        <time>2016-07-17T12:19:02Z</time>
      </trkpt>
      <trkpt lat="45.830323146656156" lon="7.787580220028758">
        <ele>3280.6399999999999</ele>
        <time>2016-07-17T12:19:16Z</time>
      </trkpt>
      <trkpt lat="45.830379975959659" lon="7.787526743486524">
        <ele>3281.5999999999999</ele>
        <time>2016-07-17T12:19:26Z</time>
      </trkpt>
      <trkpt lat="45.830427249893546" lon="7.787512158975005">
        <ele>3282.5599999999999</ele>
        <time>2016-07-17T12:19:38Z</time>
      </trkpt>
      <trkpt lat="45.830454071983695" lon="7.78750947676599">
        <ele>3282.5599999999999</ele>
        <time>2016-07-17T12:19:52Z</time>
      </trkpt>
      <trkpt lat="45.830487348139286" lon="7.78749237768352">
        <ele>3284</ele>
        <time>2016-07-17T12:20:07Z</time>
      </trkpt>
      <trkpt lat="45.830515762791038" lon="7.787462286651135">
        <ele>3284.48</ele>
        <time>2016-07-17T12:20:17Z</time>
      </trkpt>
      <trkpt lat="45.830532107502222" lon="7.787451473996043">
        <ele>3284.96</ele>
        <time>2016-07-17T12:20:25Z</time>
      </trkpt>
      <trkpt lat="45.830558007583022" lon="7.787432195618749">
        <ele>3285.4400000000001</ele>
        <time>2016-07-17T12:20:40Z</time>
      </trkpt>
      <trkpt lat="45.830586170777678" lon="7.787427082657814">
        <ele>3285.4400000000001</ele>
        <time>2016-07-17T12:20:51Z</time>
      </trkpt>
      <trkpt lat="45.830604275688529" lon="7.787426328286529">
        <ele>3284.96</ele>
        <time>2016-07-17T12:21:05Z</time>
      </trkpt>
      <trkpt lat="45.830639228224754" lon="7.78739950619638">
        <ele>3284.48</ele>
        <time>2016-07-17T12:21:16Z</time>
      </trkpt>
      <trkpt lat="45.830679712817073" lon="7.787387520074844">
        <ele>3284</ele>
        <time>2016-07-17T12:21:26Z</time>
      </trkpt>
      <trkpt lat="45.830721706151962" lon="7.787328846752644">
        <ele>3285.4400000000001</ele>
        <time>2016-07-17T12:21:37Z</time>
      </trkpt>
      <trkpt lat="45.830719862133265" lon="7.787290709093213">
        <ele>3287.3699999999999</ele>
        <time>2016-07-17T12:21:49Z</time>
      </trkpt>
      <trkpt lat="45.830741403624415" lon="7.787296157330275">
        <ele>3287.3699999999999</ele>
        <time>2016-07-17T12:22:08Z</time>
      </trkpt>
      <trkpt lat="45.830762861296535" lon="7.787285847589374">
        <ele>3287.3699999999999</ele>
        <time>2016-07-17T12:22:17Z</time>
      </trkpt>
      <trkpt lat="45.830747690051794" lon="7.787255086004734">
        <ele>3287.8499999999999</ele>
        <time>2016-07-17T12:22:33Z</time>
      </trkpt>
      <trkpt lat="45.830735536292195" lon="7.787262126803398">
        <ele>3288.8099999999999</ele>
        <time>2016-07-17T12:22:43Z</time>
      </trkpt>
      <trkpt lat="45.830717431381345" lon="7.78725584037602">
        <ele>3289.77</ele>
        <time>2016-07-17T12:22:55Z</time>
      </trkpt>
      <trkpt lat="45.830709217116237" lon="7.787216110154986">
        <ele>3291.21</ele>
        <time>2016-07-17T12:23:05Z</time>
      </trkpt>
      <trkpt lat="45.830695638433099" lon="7.7872084826231">
        <ele>3292.6500000000001</ele>
        <time>2016-07-17T12:23:15Z</time>
      </trkpt>
      <trkpt lat="45.830691028386354" lon="7.787172272801399">
        <ele>3294.0900000000001</ele>
        <time>2016-07-17T12:23:25Z</time>
      </trkpt>
      <trkpt lat="45.830715587362647" lon="7.787185264751315">
        <ele>3294.5799999999999</ele>
        <time>2016-07-17T12:23:39Z</time>
      </trkpt>
      <trkpt lat="45.830736206844449" lon="7.787168249487877">
        <ele>3295.0599999999999</ele>
        <time>2016-07-17T12:23:55Z</time>
      </trkpt>
      <trkpt lat="45.830716090276837" lon="7.787159448489547">
        <ele>3296.98</ele>
        <time>2016-07-17T12:24:11Z</time>
      </trkpt>
      <trkpt lat="45.830739308148623" lon="7.787121897563338">
        <ele>3299.3800000000001</ele>
        <time>2016-07-17T12:24:22Z</time>
      </trkpt>
      <trkpt lat="45.83075188100338" lon="7.787075294181705">
        <ele>3300.8200000000002</ele>
        <time>2016-07-17T12:24:32Z</time>
      </trkpt>
      <trkpt lat="45.830775015056133" lon="7.78704428113997">
        <ele>3301.79</ele>
        <time>2016-07-17T12:24:45Z</time>
      </trkpt>
      <trkpt lat="45.830789431929588" lon="7.787023158743978">
        <ele>3303.71</ele>
        <time>2016-07-17T12:24:55Z</time>
      </trkpt>
      <trkpt lat="45.830744588747621" lon="7.78703011572361">
        <ele>3305.1500000000001</ele>
        <time>2016-07-17T12:25:05Z</time>
      </trkpt>
      <trkpt lat="45.830706115812063" lon="7.787030031904578">
        <ele>3306.5900000000001</ele>
        <time>2016-07-17T12:25:15Z</time>
      </trkpt>
      <trkpt lat="45.830683149397373" lon="7.786969263106585">
        <ele>3307.5500000000002</ele>
        <time>2016-07-17T12:25:28Z</time>
      </trkpt>
      <trkpt lat="45.830716844648123" lon="7.786920061334968">
        <ele>3308.5100000000002</ele>
        <time>2016-07-17T12:25:39Z</time>
      </trkpt>
      <trkpt lat="45.830750288441777" lon="7.786896843463182">
        <ele>3309.96</ele>
        <time>2016-07-17T12:25:51Z</time>
      </trkpt>
      <trkpt lat="45.830752551555634" lon="7.786809168756008">
        <ele>3311.4000000000001</ele>
        <time>2016-07-17T12:26:02Z</time>
      </trkpt>
      <trkpt lat="45.830765124410391" lon="7.786738760769367">
        <ele>3312.3600000000001</ele>
        <time>2016-07-17T12:26:13Z</time>
      </trkpt>
      <trkpt lat="45.83078901283443" lon="7.786721410229802">
        <ele>3313.8000000000002</ele>
        <time>2016-07-17T12:26:25Z</time>
      </trkpt>
      <trkpt lat="45.830800076946616" lon="7.786744209006429">
        <ele>3313.3200000000002</ele>
        <time>2016-07-17T12:26:36Z</time>
      </trkpt>
      <trkpt lat="45.830813655629754" lon="7.786677908152342">
        <ele>3313.8000000000002</ele>
        <time>2016-07-17T12:26:52Z</time>
      </trkpt>
      <trkpt lat="45.830815080553293" lon="7.786649744957686">
        <ele>3314.2800000000002</ele>
        <time>2016-07-17T12:27:00Z</time>
      </trkpt>
      <trkpt lat="45.830804435536265" lon="7.786639099940658">
        <ele>3314.2800000000002</ele>
        <time>2016-07-17T12:27:11Z</time>
      </trkpt>
      <trkpt lat="45.830804100260139" lon="7.786642452701926">
        <ele>3314.7600000000002</ele>
        <time>2016-07-17T12:27:29Z</time>
      </trkpt>
      <trkpt lat="45.830802256241441" lon="7.78664655983448">
        <ele>3313.3200000000002</ele>
        <time>2016-07-17T12:27:41Z</time>
      </trkpt>
      <trkpt lat="45.830813152715564" lon="7.786633484065533">
        <ele>3313.3200000000002</ele>
        <time>2016-07-17T12:27:58Z</time>
      </trkpt>
      <trkpt lat="45.830830000340939" lon="7.786631723865867">
        <ele>3314.2800000000002</ele>
        <time>2016-07-17T12:28:10Z</time>
      </trkpt>
      <trkpt lat="45.830851206555963" lon="7.786581767722964">
        <ele>3313.8000000000002</ele>
        <time>2016-07-17T12:28:19Z</time>
      </trkpt>
      <trkpt lat="45.830850871279836" lon="7.786575481295586">
        <ele>3314.7600000000002</ele>
        <time>2016-07-17T12:28:23Z</time>
      </trkpt>
      <trkpt lat="45.830857241526246" lon="7.786636669188738">
        <ele>3314.2800000000002</ele>
        <time>2016-07-17T12:28:39Z</time>
      </trkpt>
      <trkpt lat="45.830844584852457" lon="7.786666424944997">
        <ele>3313.8000000000002</ele>
        <time>2016-07-17T12:28:48Z</time>
      </trkpt>
      <trkpt lat="45.830842405557632" lon="7.786628371104598">
        <ele>3314.7600000000002</ele>
        <time>2016-07-17T12:28:58Z</time>
      </trkpt>
      <trkpt lat="45.830837795510888" lon="7.78658788651228">
        <ele>3313.8000000000002</ele>
        <time>2016-07-17T12:29:07Z</time>
      </trkpt>
      <trkpt lat="45.830794963985682" lon="7.786554275080562">
        <ele>3312.3600000000001</ele>
        <time>2016-07-17T12:29:17Z</time>
      </trkpt>
      <trkpt lat="45.830788174644113" lon="7.786591658368707">
        <ele>3312.8400000000001</ele>
        <time>2016-07-17T12:29:29Z</time>
      </trkpt>
      <trkpt lat="45.830798484385014" lon="7.786599956452847">
        <ele>3313.3200000000002</ele>
        <time>2016-07-17T12:29:41Z</time>
      </trkpt>
      <trkpt lat="45.830800663679838" lon="7.786589143797755">
        <ele>3313.8000000000002</ele>
        <time>2016-07-17T12:29:45Z</time>
      </trkpt>
      <trkpt lat="45.830775015056133" lon="7.786582019180059">
        <ele>3312.8400000000001</ele>
        <time>2016-07-17T12:29:54Z</time>
      </trkpt>
      <trkpt lat="45.830778367817402" lon="7.786581432446837">
        <ele>3312.3600000000001</ele>
        <time>2016-07-17T12:30:24Z</time>
      </trkpt>
      <trkpt lat="45.830782474949956" lon="7.786587970331311">
        <ele>3312.8400000000001</ele>
        <time>2016-07-17T12:30:55Z</time>
      </trkpt>
      <trkpt lat="45.830779960379004" lon="7.786593670025468">
        <ele>3312.8400000000001</ele>
        <time>2016-07-17T12:31:25Z</time>
      </trkpt>
      <trkpt lat="45.830783313140273" lon="7.78659132309258">
        <ele>3312.8400000000001</ele>
        <time>2016-07-17T12:31:51Z</time>
      </trkpt>
      <trkpt lat="45.830769566819072" lon="7.78658495284617">
        <ele>3312.8400000000001</ele>
        <time>2016-07-17T12:32:15Z</time>
      </trkpt>
      <trkpt lat="45.830778451636434" lon="7.786586964502931">
        <ele>3312.8400000000001</ele>
        <time>2016-07-17T12:32:41Z</time>
      </trkpt>
      <trkpt lat="45.830781469121575" lon="7.786589479073882">
        <ele>3313.3200000000002</ele>
        <time>2016-07-17T12:33:17Z</time>
      </trkpt>
      <trkpt lat="45.830780630931258" lon="7.786595094949007">
        <ele>3312.8400000000001</ele>
        <time>2016-07-17T12:33:43Z</time>
      </trkpt>
      <trkpt lat="45.830774931237102" lon="7.786586713045836">
        <ele>3312.8400000000001</ele>
        <time>2016-07-17T12:34:30Z</time>
      </trkpt>
      <trkpt lat="45.830777697265148" lon="7.786590401083231">
        <ele>3313.3200000000002</ele>
        <time>2016-07-17T12:34:58Z</time>
      </trkpt>
      <trkpt lat="45.83077141083777" lon="7.786584785208106">
        <ele>3314.2800000000002</ele>
        <time>2016-07-17T12:35:32Z</time>
      </trkpt>
      <trkpt lat="45.830756323412061" lon="7.786560142412782">
        <ele>3312.8400000000001</ele>
        <time>2016-07-17T12:35:45Z</time>
      </trkpt>
      <trkpt lat="45.830771494656801" lon="7.786561148241162">
        <ele>3314.2800000000002</ele>
        <time>2016-07-17T12:36:08Z</time>
      </trkpt>
      <trkpt lat="45.830774931237102" lon="7.786592161282897">
        <ele>3313.8000000000002</ele>
        <time>2016-07-17T12:36:33Z</time>
      </trkpt>
      <trkpt lat="45.830778954550624" lon="7.786602303385735">
        <ele>3313.8000000000002</ele>
        <time>2016-07-17T12:37:12Z</time>
      </trkpt>
      <trkpt lat="45.830770991742611" lon="7.786596519872546">
        <ele>3313.8000000000002</ele>
        <time>2016-07-17T12:37:46Z</time>
      </trkpt>
      <trkpt lat="45.830778116360307" lon="7.786591574549675">
        <ele>3314.2800000000002</ele>
        <time>2016-07-17T12:38:22Z</time>
      </trkpt>
      <trkpt lat="45.830775937065482" lon="7.786597106605768">
        <ele>3314.2800000000002</ele>
        <time>2016-07-17T12:39:09Z</time>
      </trkpt>
      <trkpt lat="45.83077727816999" lon="7.78659668751061">
        <ele>3314.7600000000002</ele>
        <time>2016-07-17T12:39:46Z</time>
      </trkpt>
      <trkpt lat="45.830773757770658" lon="7.786593167111278">
        <ele>3314.7600000000002</ele>
        <time>2016-07-17T12:40:09Z</time>
      </trkpt>
      <trkpt lat="45.83077535033226" lon="7.786599285900593">
        <ele>3314.7600000000002</ele>
        <time>2016-07-17T12:40:51Z</time>
      </trkpt>
      <trkpt lat="45.830777194350958" lon="7.786598280072212">
        <ele>3314.7600000000002</ele>
        <time>2016-07-17T12:41:34Z</time>
      </trkpt>
      <trkpt lat="45.830775517970324" lon="7.786601716652513">
        <ele>3314.7600000000002</ele>
        <time>2016-07-17T12:42:11Z</time>
      </trkpt>
      <trkpt lat="45.830775266513228" lon="7.786599704995751">
        <ele>3315.2399999999998</ele>
        <time>2016-07-17T12:42:46Z</time>
      </trkpt>
      <trkpt lat="45.830777194350958" lon="7.786599537357688">
        <ele>3315.7199999999998</ele>
        <time>2016-07-17T12:43:21Z</time>
      </trkpt>
      <trkpt lat="45.830779708921909" lon="7.786598363891244">
        <ele>3315.2399999999998</ele>
        <time>2016-07-17T12:43:51Z</time>
      </trkpt>
      <trkpt lat="45.830776523798704" lon="7.786597860977054">
        <ele>3308.0300000000002</ele>
        <time>2016-07-17T12:44:09Z</time>
      </trkpt>
      <trkpt lat="45.830776356160641" lon="7.786598280072212">
        <ele>3308.0300000000002</ele>
        <time>2016-07-17T12:44:10Z</time>
      </trkpt>
      <trkpt lat="45.830774260684848" lon="7.786602722480893">
        <ele>3315.2399999999998</ele>
        <time>2016-07-17T12:44:13Z</time>
      </trkpt>
      <trkpt lat="45.830774595960975" lon="7.786609763279557">
        <ele>3315.7199999999998</ele>
        <time>2016-07-17T12:44:45Z</time>
      </trkpt>
      <trkpt lat="45.830776859074831" lon="7.786596352234483">
        <ele>3318.6100000000001</ele>
        <time>2016-07-17T12:45:13Z</time>
      </trkpt>
      <trkpt lat="45.830745259299874" lon="7.786572044715285">
        <ele>3324.3800000000001</ele>
        <time>2016-07-17T12:45:38Z</time>
      </trkpt>
      <trkpt lat="45.830745594576001" lon="7.786572212353349">
        <ele>3315.2399999999998</ele>
        <time>2016-07-17T12:45:39Z</time>
      </trkpt>
      <trkpt lat="45.830745259299874" lon="7.786571290344">
        <ele>3315.7199999999998</ele>
        <time>2016-07-17T12:45:40Z</time>
      </trkpt>
      <trkpt lat="45.830752719193697" lon="7.786575984209776">
        <ele>3311.4000000000001</ele>
        <time>2016-07-17T12:45:44Z</time>
      </trkpt>
      <trkpt lat="45.830757077783346" lon="7.786577241495252">
        <ele>3314.7600000000002</ele>
        <time>2016-07-17T12:45:45Z</time>
      </trkpt>
      <trkpt lat="45.830766968429089" lon="7.786579923704267">
        <ele>3318.1300000000001</ele>
        <time>2016-07-17T12:45:50Z</time>
      </trkpt>
      <trkpt lat="45.8307577483356" lon="7.786580007523298">
        <ele>3316.6900000000001</ele>
        <time>2016-07-17T12:46:16Z</time>
      </trkpt>
      <trkpt lat="45.830756407231092" lon="7.786574559286237">
        <ele>3320.0500000000002</ele>
        <time>2016-07-17T12:46:36Z</time>
      </trkpt>
      <trkpt lat="45.830754898488522" lon="7.786576151847839">
        <ele>3314.7600000000002</ele>
        <time>2016-07-17T12:46:38Z</time>
      </trkpt>
      <trkpt lat="45.830757077783346" lon="7.786576822400093">
        <ele>3316.21</ele>
        <time>2016-07-17T12:46:39Z</time>
      </trkpt>
      <trkpt lat="45.830778703093529" lon="7.786571122705936">
        <ele>3320.0500000000002</ele>
        <time>2016-07-17T12:46:57Z</time>
      </trkpt>
      <trkpt lat="45.830781133845448" lon="7.786568021401763">
        <ele>3316.6900000000001</ele>
        <time>2016-07-17T12:46:58Z</time>
      </trkpt>
      <trkpt lat="45.830789264291525" lon="7.786567937582731">
        <ele>3317.6500000000001</ele>
        <time>2016-07-17T12:47:27Z</time>
      </trkpt>
      <trkpt lat="45.830785492435098" lon="7.786572128534317">
        <ele>3316.6900000000001</ele>
        <time>2016-07-17T12:47:51Z</time>
      </trkpt>
      <trkpt lat="45.830769734457135" lon="7.786575732752681">
        <ele>3324.8600000000001</ele>
        <time>2016-07-17T12:48:07Z</time>
      </trkpt>
      <trkpt lat="45.830772500485182" lon="7.786576151847839">
        <ele>3322.4499999999998</ele>
        <time>2016-07-17T12:48:08Z</time>
      </trkpt>
      <trkpt lat="45.830773338675499" lon="7.786576738581061">
        <ele>3316.21</ele>
        <time>2016-07-17T12:48:09Z</time>
      </trkpt>
      <trkpt lat="45.83077535033226" lon="7.78657958842814">
        <ele>3315.7199999999998</ele>
        <time>2016-07-17T12:48:10Z</time>
      </trkpt>
      <trkpt lat="45.83077828399837" lon="7.786599872633815">
        <ele>3315.7199999999998</ele>
        <time>2016-07-17T12:48:41Z</time>
      </trkpt>
      <trkpt lat="45.830778367817402" lon="7.786592412739992">
        <ele>3315.2399999999998</ele>
        <time>2016-07-17T12:49:05Z</time>
      </trkpt>
      <trkpt lat="45.830770405009389" lon="7.786591742187738">
        <ele>3315.7199999999998</ele>
        <time>2016-07-17T12:49:32Z</time>
      </trkpt>
      <trkpt lat="45.830774093046784" lon="7.786589646711946">
        <ele>3315.7199999999998</ele>
        <time>2016-07-17T12:50:04Z</time>
      </trkpt>
      <trkpt lat="45.830774595960975" lon="7.786594172939658">
        <ele>3315.7199999999998</ele>
        <time>2016-07-17T12:50:35Z</time>
      </trkpt>
      <trkpt lat="45.830778032541275" lon="7.786596938967705">
        <ele>3315.7199999999998</ele>
        <time>2016-07-17T12:51:11Z</time>
      </trkpt>
      <trkpt lat="45.830767471343279" lon="7.786597860977054">
        <ele>3315.7199999999998</ele>
        <time>2016-07-17T12:51:40Z</time>
      </trkpt>
      <trkpt lat="45.830777026712894" lon="7.786598866805434">
        <ele>3315.2399999999998</ele>
        <time>2016-07-17T12:52:18Z</time>
      </trkpt>
      <trkpt lat="45.830770991742611" lon="7.786594424396753">
        <ele>3315.7199999999998</ele>
        <time>2016-07-17T12:52:51Z</time>
      </trkpt>
      <trkpt lat="45.830772668123245" lon="7.786596016958356">
        <ele>3315.7199999999998</ele>
        <time>2016-07-17T12:53:25Z</time>
      </trkpt>
      <trkpt lat="45.830770572647452" lon="7.786590484902263">
        <ele>3315.7199999999998</ele>
        <time>2016-07-17T12:53:56Z</time>
      </trkpt>
      <trkpt lat="45.83076898008585" lon="7.786595094949007">
        <ele>3316.21</ele>
        <time>2016-07-17T12:54:27Z</time>
      </trkpt>
      <trkpt lat="45.830767471343279" lon="7.786592496559024">
        <ele>3315.7199999999998</ele>
        <time>2016-07-17T12:55:06Z</time>
      </trkpt>
      <trkpt lat="45.830771327018738" lon="7.786599202081561">
        <ele>3315.7199999999998</ele>
        <time>2016-07-17T12:55:36Z</time>
      </trkpt>
      <trkpt lat="45.830774595960975" lon="7.786601800471544">
        <ele>3315.7199999999998</ele>
        <time>2016-07-17T12:56:03Z</time>
      </trkpt>
      <trkpt lat="45.830774428322911" lon="7.78660548850894">
        <ele>3315.7199999999998</ele>
        <time>2016-07-17T12:56:31Z</time>
      </trkpt>
      <trkpt lat="45.830772165209055" lon="7.786599788814783">
        <ele>3316.6900000000001</ele>
        <time>2016-07-17T12:57:00Z</time>
      </trkpt>
      <trkpt lat="45.83076705224812" lon="7.786593502387404">
        <ele>3316.6900000000001</ele>
        <time>2016-07-17T12:57:21Z</time>
      </trkpt>
      <trkpt lat="45.830770321190357" lon="7.786593921482563">
        <ele>3317.1700000000001</ele>
        <time>2016-07-17T12:57:42Z</time>
      </trkpt>
      <trkpt lat="45.830778954550624" lon="7.786600543186069">
        <ele>3317.1700000000001</ele>
        <time>2016-07-17T12:58:01Z</time>
      </trkpt>
      <trkpt lat="45.830776691436768" lon="7.78659769333899">
        <ele>3316.6900000000001</ele>
        <time>2016-07-17T12:58:04Z</time>
      </trkpt>
      <trkpt lat="45.830790773034096" lon="7.786593921482563">
        <ele>3318.1300000000001</ele>
        <time>2016-07-17T12:58:11Z</time>
      </trkpt>
      <trkpt lat="45.83079244941473" lon="7.786599704995751">
        <ele>3318.1300000000001</ele>
        <time>2016-07-17T12:58:23Z</time>
      </trkpt>
      <trkpt lat="45.830795718356967" lon="7.786592915654182">
        <ele>3317.6500000000001</ele>
        <time>2016-07-17T12:58:39Z</time>
      </trkpt>
      <trkpt lat="45.830800998955965" lon="7.786591490730643">
        <ele>3317.6500000000001</ele>
        <time>2016-07-17T12:58:53Z</time>
      </trkpt>
      <trkpt lat="45.830787923187017" lon="7.786588221788406">
        <ele>3317.6500000000001</ele>
        <time>2016-07-17T12:59:05Z</time>
      </trkpt>
      <trkpt lat="45.830791527405381" lon="7.786600040271878">
        <ele>3317.6500000000001</ele>
        <time>2016-07-17T12:59:26Z</time>
      </trkpt>
      <trkpt lat="45.830784067511559" lon="7.786608003079891">
        <ele>3318.1300000000001</ele>
        <time>2016-07-17T12:59:46Z</time>
      </trkpt>
      <trkpt lat="45.830779625102878" lon="7.786590652540326">
        <ele>3317.6500000000001</ele>
        <time>2016-07-17T12:59:58Z</time>
      </trkpt>
      <trkpt lat="45.83078951574862" lon="7.786604398861527">
        <ele>3318.1300000000001</ele>
        <time>2016-07-17T13:00:10Z</time>
      </trkpt>
      <trkpt lat="45.830795634537935" lon="7.78660305775702">
        <ele>3318.1300000000001</ele>
        <time>2016-07-17T13:00:27Z</time>
      </trkpt>
      <trkpt lat="45.830785827711225" lon="7.786652008071542">
        <ele>3318.6100000000001</ele>
        <time>2016-07-17T13:00:38Z</time>
      </trkpt>
      <trkpt lat="45.830781133845448" lon="7.786677153781056">
        <ele>3318.1300000000001</ele>
        <time>2016-07-17T13:00:44Z</time>
      </trkpt>
      <trkpt lat="45.830786833539605" lon="7.786794835701585">
        <ele>3317.1700000000001</ele>
        <time>2016-07-17T13:00:52Z</time>
      </trkpt>
      <trkpt lat="45.830782726407051" lon="7.786800032481551">
        <ele>3317.6500000000001</ele>
        <time>2016-07-17T13:01:02Z</time>
      </trkpt>
      <trkpt lat="45.830781133845448" lon="7.786798356100917">
        <ele>3317.1700000000001</ele>
        <time>2016-07-17T13:01:18Z</time>
      </trkpt>
      <trkpt lat="45.830768058076501" lon="7.786810677498579">
        <ele>3317.1700000000001</ele>
        <time>2016-07-17T13:01:29Z</time>
      </trkpt>
      <trkpt lat="45.830751629546285" lon="7.786810006946325">
        <ele>3316.6900000000001</ele>
        <time>2016-07-17T13:01:41Z</time>
      </trkpt>
      <trkpt lat="45.83074115216732" lon="7.786793494597077">
        <ele>3316.6900000000001</ele>
        <time>2016-07-17T13:02:05Z</time>
      </trkpt>
      <trkpt lat="45.830738553777337" lon="7.786788549274206">
        <ele>3316.6900000000001</ele>
        <time>2016-07-17T13:02:21Z</time>
      </trkpt>
      <trkpt lat="45.830775098875165" lon="7.786862310022116">
        <ele>3316.6900000000001</ele>
        <time>2016-07-17T13:02:33Z</time>
      </trkpt>
      <trkpt lat="45.83074894733727" lon="7.786911427974701">
        <ele>3315.7199999999998</ele>
        <time>2016-07-17T13:02:40Z</time>
      </trkpt>
      <trkpt lat="45.830711731687188" lon="7.787009915336967">
        <ele>3312.3600000000001</ele>
        <time>2016-07-17T13:02:51Z</time>
      </trkpt>
      <trkpt lat="45.830734698101878" lon="7.786986278370023">
        <ele>3311.4000000000001</ele>
        <time>2016-07-17T13:03:01Z</time>
      </trkpt>
      <trkpt lat="45.830741487443447" lon="7.786983596161008">
        <ele>3311.4000000000001</ele>
        <time>2016-07-17T13:03:02Z</time>
      </trkpt>
      <trkpt lat="45.830764453858137" lon="7.787000024691224">
        <ele>3310.9200000000001</ele>
        <time>2016-07-17T13:03:04Z</time>
      </trkpt>
      <trkpt lat="45.830781720578671" lon="7.78702768497169">
        <ele>3309</ele>
        <time>2016-07-17T13:03:13Z</time>
      </trkpt>
      <trkpt lat="45.830786162987351" lon="7.787047633901238">
        <ele>3308.5100000000002</ele>
        <time>2016-07-17T13:03:18Z</time>
      </trkpt>
      <trkpt lat="45.830771494656801" lon="7.787099769338965">
        <ele>3306.5900000000001</ele>
        <time>2016-07-17T13:03:27Z</time>
      </trkpt>
      <trkpt lat="45.830742577090859" lon="7.787120807915926">
        <ele>3305.1500000000001</ele>
        <time>2016-07-17T13:03:34Z</time>
      </trkpt>
      <trkpt lat="45.830727741122246" lon="7.787125166505575">
        <ele>3304.1900000000001</ele>
        <time>2016-07-17T13:03:42Z</time>
      </trkpt>
      <trkpt lat="45.830715168267488" lon="7.787135392427445">
        <ele>3303.71</ele>
        <time>2016-07-17T13:03:54Z</time>
      </trkpt>
      <trkpt lat="45.830734698101878" lon="7.787119802087545">
        <ele>3304.6700000000001</ele>
        <time>2016-07-17T13:04:04Z</time>
      </trkpt>
      <trkpt lat="45.830742157995701" lon="7.787112174555659">
        <ele>3304.6700000000001</ele>
        <time>2016-07-17T13:04:23Z</time>
      </trkpt>
      <trkpt lat="45.830745259299874" lon="7.787118963897228">
        <ele>3304.6700000000001</ele>
        <time>2016-07-17T13:04:42Z</time>
      </trkpt>
      <trkpt lat="45.830725897103548" lon="7.787132374942303">
        <ele>3304.1900000000001</ele>
        <time>2016-07-17T13:04:56Z</time>
      </trkpt>
      <trkpt lat="45.83072304725647" lon="7.787151569500566">
        <ele>3303.23</ele>
        <time>2016-07-17T13:05:04Z</time>
      </trkpt>
      <trkpt lat="45.830710558220744" lon="7.787145283073187">
        <ele>3303.71</ele>
        <time>2016-07-17T13:05:19Z</time>
      </trkpt>
      <trkpt lat="45.830709049478173" lon="7.787156514823437">
        <ele>3302.27</ele>
        <time>2016-07-17T13:05:30Z</time>
      </trkpt>
      <trkpt lat="45.830716006457806" lon="7.787169171497226">
        <ele>3301.79</ele>
        <time>2016-07-17T13:05:43Z</time>
      </trkpt>
      <trkpt lat="45.830706702545285" lon="7.787161963060498">
        <ele>3301.3000000000002</ele>
        <time>2016-07-17T13:05:58Z</time>
      </trkpt>
      <trkpt lat="45.830716425552964" lon="7.787206135690212">
        <ele>3300.3400000000001</ele>
        <time>2016-07-17T13:06:10Z</time>
      </trkpt>
      <trkpt lat="45.830715838819742" lon="7.787181995809078">
        <ele>3299.3800000000001</ele>
        <time>2016-07-17T13:06:21Z</time>
      </trkpt>
      <trkpt lat="45.830719359219074" lon="7.787216361612082">
        <ele>3297.46</ele>
        <time>2016-07-17T13:06:31Z</time>
      </trkpt>
      <trkpt lat="45.830732434988022" lon="7.787225833162665">
        <ele>3295.54</ele>
        <time>2016-07-17T13:06:41Z</time>
      </trkpt>
      <trkpt lat="45.830739811062813" lon="7.787226000800729">
        <ele>3295.54</ele>
        <time>2016-07-17T13:06:49Z</time>
      </trkpt>
      <trkpt lat="45.830744588747621" lon="7.787247961387038">
        <ele>3294.0900000000001</ele>
        <time>2016-07-17T13:06:57Z</time>
      </trkpt>
      <trkpt lat="45.830739811062813" lon="7.78727151453495">
        <ele>3293.1300000000001</ele>
        <time>2016-07-17T13:07:06Z</time>
      </trkpt>
      <trkpt lat="45.830735117197037" lon="7.78728324919939">
        <ele>3292.6500000000001</ele>
        <time>2016-07-17T13:07:07Z</time>
      </trkpt>
      <trkpt lat="45.830709552392364" lon="7.787271598353982">
        <ele>3292.6500000000001</ele>
        <time>2016-07-17T13:07:16Z</time>
      </trkpt>
      <trkpt lat="45.830705277621746" lon="7.787298504263163">
        <ele>3292.1700000000001</ele>
        <time>2016-07-17T13:07:20Z</time>
      </trkpt>
      <trkpt lat="45.830687591806054" lon="7.787322392687202">
        <ele>3290.73</ele>
        <time>2016-07-17T13:07:32Z</time>
      </trkpt>
      <trkpt lat="45.830695638433099" lon="7.787325913086534">
        <ele>3290.73</ele>
        <time>2016-07-17T13:07:47Z</time>
      </trkpt>
      <trkpt lat="45.830692956224084" lon="7.787341922521591">
        <ele>3290.25</ele>
        <time>2016-07-17T13:07:58Z</time>
      </trkpt>
      <trkpt lat="45.830679126083851" lon="7.787368828430772">
        <ele>3289.77</ele>
        <time>2016-07-17T13:08:12Z</time>
      </trkpt>
      <trkpt lat="45.830667726695538" lon="7.787389950826764">
        <ele>3289.77</ele>
        <time>2016-07-17T13:08:25Z</time>
      </trkpt>
      <trkpt lat="45.830633863806725" lon="7.787395901978016">
        <ele>3290.25</ele>
        <time>2016-07-17T13:08:33Z</time>
      </trkpt>
      <trkpt lat="45.830574771389365" lon="7.78743077069521">
        <ele>3290.73</ele>
        <time>2016-07-17T13:08:41Z</time>
      </trkpt>
      <trkpt lat="45.830555576831102" lon="7.787456754595041">
        <ele>3291.6900000000001</ele>
        <time>2016-07-17T13:08:52Z</time>
      </trkpt>
      <trkpt lat="45.830532694235444" lon="7.787470500916243">
        <ele>3290.73</ele>
        <time>2016-07-17T13:09:02Z</time>
      </trkpt>
      <trkpt lat="45.830478128045797" lon="7.78750847093761">
        <ele>3289.29</ele>
        <time>2016-07-17T13:09:12Z</time>
      </trkpt>
      <trkpt lat="45.830457089468837" lon="7.78751970268786">
        <ele>3289.29</ele>
        <time>2016-07-17T13:09:19Z</time>
      </trkpt>
      <trkpt lat="45.830364134162664" lon="7.78758566826582">
        <ele>3287.3699999999999</ele>
        <time>2016-07-17T13:09:31Z</time>
      </trkpt>
      <trkpt lat="45.830284925177693" lon="7.787657752633095">
        <ele>3285.9200000000001</ele>
        <time>2016-07-17T13:09:42Z</time>
      </trkpt>
      <trkpt lat="45.83024226129055" lon="7.787681221961975">
        <ele>3284.48</ele>
        <time>2016-07-17T13:09:51Z</time>
      </trkpt>
      <trkpt lat="45.830188700929284" lon="7.787723131477833">
        <ele>3283.04</ele>
        <time>2016-07-17T13:10:01Z</time>
      </trkpt>
      <trkpt lat="45.830124244093895" lon="7.787761939689517">
        <ele>3279.6700000000001</ele>
        <time>2016-07-17T13:10:11Z</time>
      </trkpt>
      <trkpt lat="45.830034138634801" lon="7.787820026278496">
        <ele>3277.75</ele>
        <time>2016-07-17T13:10:24Z</time>
      </trkpt>
      <trkpt lat="45.830031456425786" lon="7.787815080955625">
        <ele>3276.79</ele>
        <time>2016-07-17T13:10:36Z</time>
      </trkpt>
      <trkpt lat="45.830028438940644" lon="7.787826899439097">
        <ele>3275.8299999999999</ele>
        <time>2016-07-17T13:10:48Z</time>
      </trkpt>
      <trkpt lat="45.830027768388391" lon="7.787842405959964">
        <ele>3275.3499999999999</ele>
        <time>2016-07-17T13:11:04Z</time>
      </trkpt>
      <trkpt lat="45.83003019914031" lon="7.787847183644772">
        <ele>3274.8699999999999</ele>
        <time>2016-07-17T13:11:23Z</time>
      </trkpt>
      <trkpt lat="45.830030953511596" lon="7.787844333797693">
        <ele>3275.3499999999999</ele>
        <time>2016-07-17T13:11:41Z</time>
      </trkpt>
      <trkpt lat="45.830029528588057" lon="7.787843747064471">
        <ele>3275.3499999999999</ele>
        <time>2016-07-17T13:12:02Z</time>
      </trkpt>
      <trkpt lat="45.830021314322948" lon="7.787826145067811">
        <ele>3274.8699999999999</ele>
        <time>2016-07-17T13:12:27Z</time>
      </trkpt>
      <trkpt lat="45.830028774216771" lon="7.787851877510548">
        <ele>3274.8699999999999</ele>
        <time>2016-07-17T13:12:51Z</time>
      </trkpt>
      <trkpt lat="45.830031288787723" lon="7.78783293440938">
        <ele>3274.8699999999999</ele>
        <time>2016-07-17T13:13:07Z</time>
      </trkpt>
      <trkpt lat="45.830021314322948" lon="7.787853553891182">
        <ele>3274.3899999999999</ele>
        <time>2016-07-17T13:13:27Z</time>
      </trkpt>
      <trkpt lat="45.830034222453833" lon="7.787841819226742">
        <ele>3274.8699999999999</ele>
        <time>2016-07-17T13:13:44Z</time>
      </trkpt>
      <trkpt lat="45.830024750903249" lon="7.78784517198801">
        <ele>3274.8699999999999</ele>
        <time>2016-07-17T13:14:04Z</time>
      </trkpt>
      <trkpt lat="45.830020476132631" lon="7.787849111482501">
        <ele>3274.8699999999999</ele>
        <time>2016-07-17T13:14:25Z</time>
      </trkpt>
      <trkpt lat="45.830021481961012" lon="7.787848692387343">
        <ele>3274.3899999999999</ele>
        <time>2016-07-17T13:14:43Z</time>
      </trkpt>
      <trkpt lat="45.83003262989223" lon="7.78784659691155">
        <ele>3274.3899999999999</ele>
        <time>2016-07-17T13:15:03Z</time>
      </trkpt>
      <trkpt lat="45.830031121149659" lon="7.787834024056792">
        <ele>3274.3899999999999</ele>
        <time>2016-07-17T13:15:16Z</time>
      </trkpt>
      <trkpt lat="45.830037575215101" lon="7.787836035713553">
        <ele>3274.3899999999999</ele>
        <time>2016-07-17T13:15:26Z</time>
      </trkpt>
      <trkpt lat="45.830028187483549" lon="7.787838969379664">
        <ele>3274.8699999999999</ele>
        <time>2016-07-17T13:15:41Z</time>
      </trkpt>
      <trkpt lat="45.830021481961012" lon="7.78783829882741">
        <ele>3274.8699999999999</ele>
        <time>2016-07-17T13:16:01Z</time>
      </trkpt>
      <trkpt lat="45.830039503052831" lon="7.787838215008378">
        <ele>3275.8299999999999</ele>
        <time>2016-07-17T13:16:21Z</time>
      </trkpt>
      <trkpt lat="45.83003212697804" lon="7.787847435101867">
        <ele>3274.8699999999999</ele>
        <time>2016-07-17T13:16:32Z</time>
      </trkpt>
      <trkpt lat="45.830025589093566" lon="7.787852212786675">
        <ele>3274.3899999999999</ele>
        <time>2016-07-17T13:16:46Z</time>
      </trkpt>
      <trkpt lat="45.830042771995068" lon="7.78783829882741">
        <ele>3275.8299999999999</ele>
        <time>2016-07-17T13:17:00Z</time>
      </trkpt>
      <trkpt lat="45.830020979046822" lon="7.787845255807042">
        <ele>3275.3499999999999</ele>
        <time>2016-07-17T13:17:16Z</time>
      </trkpt>
      <trkpt lat="45.830012178048491" lon="7.787849614396691">
        <ele>3275.3499999999999</ele>
        <time>2016-07-17T13:17:36Z</time>
      </trkpt>
      <trkpt lat="45.830010250210762" lon="7.787855481728911">
        <ele>3275.3499999999999</ele>
        <time>2016-07-17T13:18:02Z</time>
      </trkpt>
      <trkpt lat="45.829995078966022" lon="7.78789252974093">
        <ele>3272.9499999999998</ele>
        <time>2016-07-17T13:18:11Z</time>
      </trkpt>
      <trkpt lat="45.82995442673564" lon="7.787929074838758">
        <ele>3270.54</ele>
        <time>2016-07-17T13:18:23Z</time>
      </trkpt>
      <trkpt lat="45.829943027347326" lon="7.787935361266136">
        <ele>3269.5799999999999</ele>
        <time>2016-07-17T13:18:27Z</time>
      </trkpt>
      <trkpt lat="45.829925509169698" lon="7.787954723462462">
        <ele>3268.6199999999999</ele>
        <time>2016-07-17T13:18:29Z</time>
      </trkpt>
      <trkpt lat="45.829861974343657" lon="7.788026053458452">
        <ele>3265.7399999999998</ele>
        <time>2016-07-17T13:18:39Z</time>
      </trkpt>
      <trkpt lat="45.82982987165451" lon="7.788027478381991">
        <ele>3264.77</ele>
        <time>2016-07-17T13:18:50Z</time>
      </trkpt>
      <trkpt lat="45.829782681539655" lon="7.788069052621722">
        <ele>3264.29</ele>
        <time>2016-07-17T13:19:03Z</time>
      </trkpt>
      <trkpt lat="45.829773964360356" lon="7.788072908297181">
        <ele>3263.8099999999999</ele>
        <time>2016-07-17T13:19:13Z</time>
      </trkpt>
      <trkpt lat="45.829778574407101" lon="7.788061341270804">
        <ele>3262.8499999999999</ele>
        <time>2016-07-17T13:19:24Z</time>
      </trkpt>
      <trkpt lat="45.829768516123295" lon="7.788086235523224">
        <ele>3263.8099999999999</ele>
        <time>2016-07-17T13:19:37Z</time>
      </trkpt>
      <trkpt lat="45.829712441191077" lon="7.788149351254106">
        <ele>3261.8899999999999</ele>
        <time>2016-07-17T13:19:48Z</time>
      </trkpt>
      <trkpt lat="45.829665837809443" lon="7.788189668208361">
        <ele>3260.4499999999998</ele>
        <time>2016-07-17T13:20:00Z</time>
      </trkpt>
      <trkpt lat="45.829644715413451" lon="7.788199139758945">
        <ele>3259.0100000000002</ele>
        <time>2016-07-17T13:20:15Z</time>
      </trkpt>
      <trkpt lat="45.829620156437159" lon="7.788210455328226">
        <ele>3258.0500000000002</ele>
        <time>2016-07-17T13:20:27Z</time>
      </trkpt>
      <trkpt lat="45.829606745392084" lon="7.788209281861782">
        <ele>3257.5599999999999</ele>
        <time>2016-07-17T13:20:39Z</time>
      </trkpt>
      <trkpt lat="45.829586964100599" lon="7.788220429793">
        <ele>3256.1199999999999</ele>
        <time>2016-07-17T13:20:50Z</time>
      </trkpt>
      <trkpt lat="45.829552263021469" lon="7.788240797817707">
        <ele>3255.6399999999999</ele>
        <time>2016-07-17T13:21:01Z</time>
      </trkpt>
      <trkpt lat="45.829520998522639" lon="7.788255549967289">
        <ele>3253.7199999999998</ele>
        <time>2016-07-17T13:21:12Z</time>
      </trkpt>
      <trkpt lat="45.829496188089252" lon="7.788254292681813">
        <ele>3252.7600000000002</ele>
        <time>2016-07-17T13:21:21Z</time>
      </trkpt>
      <trkpt lat="45.82948487251997" lon="7.788241384550929">
        <ele>3251.8000000000002</ele>
        <time>2016-07-17T13:21:25Z</time>
      </trkpt>
      <trkpt lat="45.829453775659204" lon="7.788234008476138">
        <ele>3250.3499999999999</ele>
        <time>2016-07-17T13:21:33Z</time>
      </trkpt>
      <trkpt lat="45.829426031559706" lon="7.788249850273132">
        <ele>3248.9099999999999</ele>
        <time>2016-07-17T13:21:36Z</time>
      </trkpt>
      <trkpt lat="45.829422427341342" lon="7.788278348743916">
        <ele>3247.9499999999998</ele>
        <time>2016-07-17T13:21:45Z</time>
      </trkpt>
      <trkpt lat="45.829370375722647" lon="7.788374908268452">
        <ele>3247.4699999999998</ele>
        <time>2016-07-17T13:21:52Z</time>
      </trkpt>
      <trkpt lat="45.829364759847522" lon="7.788431737571955">
        <ele>3247.9499999999998</ele>
        <time>2016-07-17T13:21:56Z</time>
      </trkpt>
      <trkpt lat="45.829323939979076" lon="7.788492003455758">
        <ele>3247.4699999999998</ele>
        <time>2016-07-17T13:22:01Z</time>
      </trkpt>
      <trkpt lat="45.829266188666224" lon="7.788602812215686">
        <ele>3246.9899999999998</ele>
        <time>2016-07-17T13:22:09Z</time>
      </trkpt>
      <trkpt lat="45.829173400998116" lon="7.788717728108168">
        <ele>3245.0700000000002</ele>
        <time>2016-07-17T13:22:19Z</time>
      </trkpt>
      <trkpt lat="45.829157391563058" lon="7.788795679807663">
        <ele>3244.5900000000001</ele>
        <time>2016-07-17T13:22:25Z</time>
      </trkpt>
      <trkpt lat="45.829105759039521" lon="7.788892574608326">
        <ele>3241.6999999999998</ele>
        <time>2016-07-17T13:22:36Z</time>
      </trkpt>
      <trkpt lat="45.829073907807469" lon="7.788896765559912">
        <ele>3240.2600000000002</ele>
        <time>2016-07-17T13:22:44Z</time>
      </trkpt>
      <trkpt lat="45.829070890322328" lon="7.78893037699163">
        <ele>3239.3000000000002</ele>
        <time>2016-07-17T13:22:54Z</time>
      </trkpt>
      <trkpt lat="45.8290343452245" lon="7.788945883512497">
        <ele>3237.3800000000001</ele>
        <time>2016-07-17T13:23:04Z</time>
      </trkpt>
      <trkpt lat="45.829024203121662" lon="7.788937585428357">
        <ele>3237.3800000000001</ele>
        <time>2016-07-17T13:23:05Z</time>
      </trkpt>
      <trkpt lat="45.828974917531013" lon="7.788953678682447">
        <ele>3235.9400000000001</ele>
        <time>2016-07-17T13:23:15Z</time>
      </trkpt>
      <trkpt lat="45.82894348539412" lon="7.788997683674097">
        <ele>3234.0100000000002</ele>
        <time>2016-07-17T13:23:24Z</time>
      </trkpt>
      <trkpt lat="45.828918507322669" lon="7.788977986201644">
        <ele>3232.5700000000002</ele>
        <time>2016-07-17T13:23:27Z</time>
      </trkpt>
      <trkpt lat="45.828890930861235" lon="7.788906991481781">
        <ele>3231.6100000000001</ele>
        <time>2016-07-17T13:23:37Z</time>
      </trkpt>
      <trkpt lat="45.828874334692955" lon="7.788914535194635">
        <ele>3231.1300000000001</ele>
        <time>2016-07-17T13:23:48Z</time>
      </trkpt>
      <trkpt lat="45.828864276409149" lon="7.788973208516836">
        <ele>3230.1700000000001</ele>
        <time>2016-07-17T13:23:57Z</time>
      </trkpt>
      <trkpt lat="45.828835945576429" lon="7.789009166881442">
        <ele>3229.21</ele>
        <time>2016-07-17T13:24:01Z</time>
      </trkpt>
      <trkpt lat="45.828796634450555" lon="7.789005814120174">
        <ele>3228.73</ele>
        <time>2016-07-17T13:24:09Z</time>
      </trkpt>
      <trkpt lat="45.828791186213493" lon="7.789013106375933">
        <ele>3227.7600000000002</ele>
        <time>2016-07-17T13:24:19Z</time>
      </trkpt>
      <trkpt lat="45.828824210911989" lon="7.78904277831316">
        <ele>3226.3200000000002</ele>
        <time>2016-07-17T13:24:29Z</time>
      </trkpt>
      <trkpt lat="45.828810296952724" lon="7.78907504864037">
        <ele>3224.8800000000001</ele>
        <time>2016-07-17T13:24:36Z</time>
      </trkpt>
      <trkpt lat="45.828747013583779" lon="7.789103547111154">
        <ele>3224.8800000000001</ele>
        <time>2016-07-17T13:24:44Z</time>
      </trkpt>
      <trkpt lat="45.828710552304983" lon="7.789134811609983">
        <ele>3223.4400000000001</ele>
        <time>2016-07-17T13:24:51Z</time>
      </trkpt>
      <trkpt lat="45.82869429141283" lon="7.789159705862403">
        <ele>3222.96</ele>
        <time>2016-07-17T13:24:54Z</time>
      </trkpt>
      <trkpt lat="45.828653052449226" lon="7.789198933169246">
        <ele>3222.48</ele>
        <time>2016-07-17T13:24:59Z</time>
      </trkpt>
      <trkpt lat="45.828603683039546" lon="7.789215864613652">
        <ele>3221.52</ele>
        <time>2016-07-17T13:25:05Z</time>
      </trkpt>
      <trkpt lat="45.82853939384222" lon="7.789275040850043">
        <ele>3220.0700000000002</ele>
        <time>2016-07-17T13:25:14Z</time>
      </trkpt>
      <trkpt lat="45.828475020825863" lon="7.789307730272412">
        <ele>3217.1900000000001</ele>
        <time>2016-07-17T13:25:25Z</time>
      </trkpt>
      <trkpt lat="45.828447276726365" lon="7.789334133267403">
        <ele>3215.27</ele>
        <time>2016-07-17T13:25:36Z</time>
      </trkpt>
      <trkpt lat="45.828463872894645" lon="7.789396159350872">
        <ele>3212.8600000000001</ele>
        <time>2016-07-17T13:25:46Z</time>
      </trkpt>
      <trkpt lat="45.828408300876617" lon="7.789421137422323">
        <ele>3210.9400000000001</ele>
        <time>2016-07-17T13:25:56Z</time>
      </trkpt>
      <trkpt lat="45.828345855697989" lon="7.789431195706129">
        <ele>3209.5</ele>
        <time>2016-07-17T13:26:05Z</time>
      </trkpt>
      <trkpt lat="45.828283242881298" lon="7.789467992261052">
        <ele>3206.1300000000001</ele>
        <time>2016-07-17T13:26:16Z</time>
      </trkpt>
      <trkpt lat="45.828270921483636" lon="7.789474111050367">
        <ele>3205.6500000000001</ele>
        <time>2016-07-17T13:26:18Z</time>
      </trkpt>
      <trkpt lat="45.828226329758763" lon="7.789481151849031">
        <ele>3204.6900000000001</ele>
        <time>2016-07-17T13:26:27Z</time>
      </trkpt>
      <trkpt lat="45.828175703063607" lon="7.789461789652705">
        <ele>3204.21</ele>
        <time>2016-07-17T13:26:36Z</time>
      </trkpt>
      <trkpt lat="45.828166902065277" lon="7.789457263424993">
        <ele>3204.21</ele>
        <time>2016-07-17T13:26:37Z</time>
      </trkpt>
      <trkpt lat="45.828108228743076" lon="7.78940730728209">
        <ele>3203.73</ele>
        <time>2016-07-17T13:26:43Z</time>
      </trkpt>
      <trkpt lat="45.828010998666286" lon="7.789356093853712">
        <ele>3201.8099999999999</ele>
        <time>2016-07-17T13:26:52Z</time>
      </trkpt>
      <trkpt lat="45.827986523509026" lon="7.789349053055048">
        <ele>3201.3299999999999</ele>
        <time>2016-07-17T13:26:54Z</time>
      </trkpt>
      <trkpt lat="45.827922653406858" lon="7.789368750527501">
        <ele>3199.8899999999999</ele>
        <time>2016-07-17T13:27:00Z</time>
      </trkpt>
      <trkpt lat="45.827857442200184" lon="7.789353663101792">
        <ele>3198.9200000000001</ele>
        <time>2016-07-17T13:27:11Z</time>
      </trkpt>
      <trkpt lat="45.827824333682656" lon="7.789346454665065">
        <ele>3198.4400000000001</ele>
        <time>2016-07-17T13:27:21Z</time>
      </trkpt>
      <trkpt lat="45.827798265963793" lon="7.789380485191941">
        <ele>3196.04</ele>
        <time>2016-07-17T13:27:30Z</time>
      </trkpt>
      <trkpt lat="45.827777730301023" lon="7.789419461041689">
        <ele>3194.1199999999999</ele>
        <time>2016-07-17T13:27:36Z</time>
      </trkpt>
      <trkpt lat="45.827775383368134" lon="7.789466818794608">
        <ele>3192.1999999999998</ele>
        <time>2016-07-17T13:27:45Z</time>
      </trkpt>
      <trkpt lat="45.827758200466633" lon="7.789474781602621">
        <ele>3191.23</ele>
        <time>2016-07-17T13:27:54Z</time>
      </trkpt>
      <trkpt lat="45.827722996473312" lon="7.789473440498114">
        <ele>3191.23</ele>
        <time>2016-07-17T13:28:05Z</time>
      </trkpt>
      <trkpt lat="45.827701454982162" lon="7.789464220404625">
        <ele>3190.75</ele>
        <time>2016-07-17T13:28:13Z</time>
      </trkpt>
      <trkpt lat="45.827668178826571" lon="7.789487354457378">
        <ele>3188.3499999999999</ele>
        <time>2016-07-17T13:28:20Z</time>
      </trkpt>
      <trkpt lat="45.827640099450946" lon="7.789486767724156">
        <ele>3186.9099999999999</ele>
        <time>2016-07-17T13:28:24Z</time>
      </trkpt>
      <trkpt lat="45.827611768618226" lon="7.789502944797278">
        <ele>3186.9099999999999</ele>
        <time>2016-07-17T13:28:32Z</time>
      </trkpt>
      <trkpt lat="45.82760070450604" lon="7.789512248709798">
        <ele>3186.9099999999999</ele>
        <time>2016-07-17T13:28:34Z</time>
      </trkpt>
      <trkpt lat="45.827543037012219" lon="7.78948349878192">
        <ele>3185.4699999999998</ele>
        <time>2016-07-17T13:28:43Z</time>
      </trkpt>
      <trkpt lat="45.827520489692688" lon="7.789495987817645">
        <ele>3184.5</ele>
        <time>2016-07-17T13:28:47Z</time>
      </trkpt>
      <trkpt lat="45.827507162466645" lon="7.789520630612969">
        <ele>3184.02</ele>
        <time>2016-07-17T13:28:49Z</time>
      </trkpt>
      <trkpt lat="45.827471874654293" lon="7.789513589814305">
        <ele>3182.0999999999999</ele>
        <time>2016-07-17T13:28:53Z</time>
      </trkpt>
      <trkpt lat="45.827463828027248" lon="7.789508895948529">
        <ele>3182.0999999999999</ele>
        <time>2016-07-17T13:28:54Z</time>
      </trkpt>
      <trkpt lat="45.827422589063644" lon="7.789568658918142">
        <ele>3180.6599999999999</ele>
        <time>2016-07-17T13:29:01Z</time>
      </trkpt>
      <trkpt lat="45.82737497985363" lon="7.789652058854699">
        <ele>3177.29</ele>
        <time>2016-07-17T13:29:07Z</time>
      </trkpt>
      <trkpt lat="45.827364167198539" lon="7.789644934237003">
        <ele>3177.29</ele>
        <time>2016-07-17T13:29:08Z</time>
      </trkpt>
      <trkpt lat="45.827314294874668" lon="7.789610987529159">
        <ele>3175.3699999999999</ele>
        <time>2016-07-17T13:29:13Z</time>
      </trkpt>
      <trkpt lat="45.827261991798878" lon="7.789604784920812">
        <ele>3173.4499999999998</ele>
        <time>2016-07-17T13:29:18Z</time>
      </trkpt>
      <trkpt lat="45.827204240486026" lon="7.789662117138505">
        <ele>3171.5300000000002</ele>
        <time>2016-07-17T13:29:24Z</time>
      </trkpt>
      <trkpt lat="45.827149422839284" lon="7.789718359708786">
        <ele>3168.1599999999999</ele>
        <time>2016-07-17T13:29:30Z</time>
      </trkpt>
      <trkpt lat="45.827123187482357" lon="7.789707714691758">
        <ele>3167.1999999999998</ele>
        <time>2016-07-17T13:29:32Z</time>
      </trkpt>
      <trkpt lat="45.827107261866331" lon="7.789708385244012">
        <ele>3166.7199999999998</ele>
        <time>2016-07-17T13:29:35Z</time>
      </trkpt>
      <trkpt lat="45.827081445604563" lon="7.789778457954526">
        <ele>3165.2800000000002</ele>
        <time>2016-07-17T13:29:39Z</time>
      </trkpt>
      <trkpt lat="45.827044565230608" lon="7.789814500138164">
        <ele>3164.3200000000002</ele>
        <time>2016-07-17T13:29:44Z</time>
      </trkpt>
      <trkpt lat="45.826950101181865" lon="7.789889601990581">
        <ele>3161.4299999999998</ele>
        <time>2016-07-17T13:29:55Z</time>
      </trkpt>
      <trkpt lat="45.826913388445973" lon="7.789941821247339">
        <ele>3160.4699999999998</ele>
        <time>2016-07-17T13:30:00Z</time>
      </trkpt>
      <trkpt lat="45.826885225251317" lon="7.789953555911779">
        <ele>3160.9499999999998</ele>
        <time>2016-07-17T13:30:03Z</time>
      </trkpt>
      <trkpt lat="45.826866617426276" lon="7.789957746863365">
        <ele>3159.9899999999998</ele>
        <time>2016-07-17T13:30:05Z</time>
      </trkpt>
      <trkpt lat="45.826812135055661" lon="7.790025137364864">
        <ele>3157.1100000000001</ele>
        <time>2016-07-17T13:30:15Z</time>
      </trkpt>
      <trkpt lat="45.826760251075029" lon="7.790018012747169">
        <ele>3155.1799999999998</ele>
        <time>2016-07-17T13:30:23Z</time>
      </trkpt>
      <trkpt lat="45.826707445085049" lon="7.789957746863365">
        <ele>3152.7800000000002</ele>
        <time>2016-07-17T13:30:33Z</time>
      </trkpt>
      <trkpt lat="45.826663440093398" lon="7.790001416578889">
        <ele>3152.7800000000002</ele>
        <time>2016-07-17T13:30:40Z</time>
      </trkpt>
      <trkpt lat="45.826646843925118" lon="7.790023628622294">
        <ele>3151.3400000000001</ele>
        <time>2016-07-17T13:30:42Z</time>
      </trkpt>
      <trkpt lat="45.826639300212264" lon="7.790032848715782">
        <ele>3151.3400000000001</ele>
        <time>2016-07-17T13:30:43Z</time>
      </trkpt>
      <trkpt lat="45.826599905267358" lon="7.790021449327469">
        <ele>3149.9000000000001</ele>
        <time>2016-07-17T13:30:55Z</time>
      </trkpt>
      <trkpt lat="45.826593367382884" lon="7.790031339973211">
        <ele>3150.3800000000001</ele>
        <time>2016-07-17T13:31:00Z</time>
      </trkpt>
      <trkpt lat="45.82655992358923" lon="7.790037710219622">
        <ele>3148.9400000000001</ele>
        <time>2016-07-17T13:31:04Z</time>
      </trkpt>
      <trkpt lat="45.826530335471034" lon="7.789926147088409">
        <ele>3146.5300000000002</ele>
        <time>2016-07-17T13:31:12Z</time>
      </trkpt>
      <trkpt lat="45.826432937756181" lon="7.789789941161871">
        <ele>3143.1700000000001</ele>
        <time>2016-07-17T13:31:25Z</time>
      </trkpt>
      <trkpt lat="45.826348448172212" lon="7.789665469899774">
        <ele>3142.6900000000001</ele>
        <time>2016-07-17T13:31:36Z</time>
      </trkpt>
      <trkpt lat="45.826275106519461" lon="7.789549045264721">
        <ele>3141.25</ele>
        <time>2016-07-17T13:31:47Z</time>
      </trkpt>
      <trkpt lat="45.826256247237325" lon="7.78953387401998">
        <ele>3140.2800000000002</ele>
        <time>2016-07-17T13:31:50Z</time>
      </trkpt>
      <trkpt lat="45.826216349378228" lon="7.789517780765891">
        <ele>3139.3200000000002</ele>
        <time>2016-07-17T13:31:54Z</time>
      </trkpt>
      <trkpt lat="45.826156167313457" lon="7.789509566500783">
        <ele>3138.8400000000001</ele>
        <time>2016-07-17T13:32:00Z</time>
      </trkpt>
      <trkpt lat="45.826124316081405" lon="7.789533119648695">
        <ele>3138.3600000000001</ele>
        <time>2016-07-17T13:32:04Z</time>
      </trkpt>
      <trkpt lat="45.826115012168884" lon="7.789560612291098">
        <ele>3137.8800000000001</ele>
        <time>2016-07-17T13:32:06Z</time>
      </trkpt>
      <trkpt lat="45.826110150665045" lon="7.789607802405953">
        <ele>3136.9200000000001</ele>
        <time>2016-07-17T13:32:10Z</time>
      </trkpt>
      <trkpt lat="45.826132278889418" lon="7.789763286709786">
        <ele>3137.8800000000001</ele>
        <time>2016-07-17T13:32:21Z</time>
      </trkpt>
      <trkpt lat="45.826147450134158" lon="7.789880130439997">
        <ele>3137.8800000000001</ele>
        <time>2016-07-17T13:32:29Z</time>
      </trkpt>
      <trkpt lat="45.826151892542839" lon="7.789990436285734">
        <ele>3136.9200000000001</ele>
        <time>2016-07-17T13:32:36Z</time>
      </trkpt>
      <trkpt lat="45.826123645529151" lon="7.790142484009266">
        <ele>3134.04</ele>
        <time>2016-07-17T13:32:47Z</time>
      </trkpt>
      <trkpt lat="45.826122052967548" lon="7.79016955755651">
        <ele>3134.04</ele>
        <time>2016-07-17T13:32:49Z</time>
      </trkpt>
      <trkpt lat="45.826080311089754" lon="7.790308278053999">
        <ele>3135</ele>
        <time>2016-07-17T13:33:00Z</time>
      </trkpt>
      <trkpt lat="45.825968245044351" lon="7.790411124005914">
        <ele>3133.5500000000002</ele>
        <time>2016-07-17T13:33:12Z</time>
      </trkpt>
      <trkpt lat="45.825956258922815" lon="7.790428223088384">
        <ele>3133.0700000000002</ele>
        <time>2016-07-17T13:33:14Z</time>
      </trkpt>
      <trkpt lat="45.825883084908128" lon="7.790558813139796">
        <ele>3133.5500000000002</ele>
        <time>2016-07-17T13:33:26Z</time>
      </trkpt>
      <trkpt lat="45.825877636671066" lon="7.790567697957158">
        <ele>3133.5500000000002</ele>
        <time>2016-07-17T13:33:27Z</time>
      </trkpt>
      <trkpt lat="45.825785435736179" lon="7.790637519210577">
        <ele>3132.1100000000001</ele>
        <time>2016-07-17T13:33:38Z</time>
      </trkpt>
      <trkpt lat="45.825778311118484" lon="7.790643637999892">
        <ele>3132.5900000000001</ele>
        <time>2016-07-17T13:33:39Z</time>
      </trkpt>
      <trkpt lat="45.825737826526165" lon="7.790649253875017">
        <ele>3132.1100000000001</ele>
        <time>2016-07-17T13:33:43Z</time>
      </trkpt>
      <trkpt lat="45.825685104355216" lon="7.790600555017591">
        <ele>3131.1500000000001</ele>
        <time>2016-07-17T13:33:54Z</time>
      </trkpt>
      <trkpt lat="45.825681835412979" lon="7.790600890293717">
        <ele>3130.1900000000001</ele>
        <time>2016-07-17T13:34:07Z</time>
      </trkpt>
      <trkpt lat="45.825657192617655" lon="7.790583791211247">
        <ele>3129.71</ele>
        <time>2016-07-17T13:34:22Z</time>
      </trkpt>
      <trkpt lat="45.825658030807972" lon="7.790559902787209">
        <ele>3129.71</ele>
        <time>2016-07-17T13:34:41Z</time>
      </trkpt>
      <trkpt lat="45.82566037774086" lon="7.790566356852651">
        <ele>3129.71</ele>
        <time>2016-07-17T13:34:54Z</time>
      </trkpt>
      <trkpt lat="45.825659204274416" lon="7.790566859766841">
        <ele>3129.71</ele>
        <time>2016-07-17T13:35:19Z</time>
      </trkpt>
      <trkpt lat="45.825644200667739" lon="7.790561830624938">
        <ele>3129.23</ele>
        <time>2016-07-17T13:35:33Z</time>
      </trkpt>
      <trkpt lat="45.82564084790647" lon="7.790540708228946">
        <ele>3128.27</ele>
        <time>2016-07-17T13:35:49Z</time>
      </trkpt>
      <trkpt lat="45.825651492923498" lon="7.790514305233955">
        <ele>3129.23</ele>
        <time>2016-07-17T13:36:09Z</time>
      </trkpt>
      <trkpt lat="45.825575971975923" lon="7.790535762906075">
        <ele>3128.75</ele>
        <time>2016-07-17T13:36:26Z</time>
      </trkpt>
      <trkpt lat="45.825544958934188" lon="7.790514640510082">
        <ele>3127.79</ele>
        <time>2016-07-17T13:36:29Z</time>
      </trkpt>
      <trkpt lat="45.825517298653722" lon="7.790515646338463">
        <ele>3126.3400000000001</ele>
        <time>2016-07-17T13:36:32Z</time>
      </trkpt>
      <trkpt lat="45.825406825169921" lon="7.790490500628948">
        <ele>3123.46</ele>
        <time>2016-07-17T13:36:43Z</time>
      </trkpt>
      <trkpt lat="45.825284784659743" lon="7.790420930832624">
        <ele>3120.0999999999999</ele>
        <time>2016-07-17T13:36:55Z</time>
      </trkpt>
      <trkpt lat="45.825197277590632" lon="7.790365191176534">
        <ele>3118.1700000000001</ele>
        <time>2016-07-17T13:37:04Z</time>
      </trkpt>
      <trkpt lat="45.825089821591973" lon="7.790259495377541">
        <ele>3116.25</ele>
        <time>2016-07-17T13:37:16Z</time>
      </trkpt>
      <trkpt lat="45.8250383567065" lon="7.79020912013948">
        <ele>3114.3299999999999</ele>
        <time>2016-07-17T13:37:22Z</time>
      </trkpt>
      <trkpt lat="45.824946071952581" lon="7.790117086842656">
        <ele>3110.96</ele>
        <time>2016-07-17T13:37:34Z</time>
      </trkpt>
      <trkpt lat="45.824875831604004" lon="7.790046008303762">
        <ele>3109.04</ele>
        <time>2016-07-17T13:37:43Z</time>
      </trkpt>
      <trkpt lat="45.824771644547582" lon="7.789988508448005">
        <ele>3109.52</ele>
        <time>2016-07-17T13:37:56Z</time>
      </trkpt>
      <trkpt lat="45.824648765847087" lon="7.790004601702094">
        <ele>3109.04</ele>
        <time>2016-07-17T13:38:08Z</time>
      </trkpt>
      <trkpt lat="45.824510380625725" lon="7.789964033290744">
        <ele>3105.6799999999998</ele>
        <time>2016-07-17T13:38:20Z</time>
      </trkpt>
      <trkpt lat="45.82444760017097" lon="7.790001416578889">
        <ele>3105.1999999999998</ele>
        <time>2016-07-17T13:38:26Z</time>
      </trkpt>
      <trkpt lat="45.824288344010711" lon="7.789971074089408">
        <ele>3102.79</ele>
        <time>2016-07-17T13:38:41Z</time>
      </trkpt>
      <trkpt lat="45.824256325140595" lon="7.789978450164199">
        <ele>3102.3099999999999</ele>
        <time>2016-07-17T13:38:44Z</time>
      </trkpt>
      <trkpt lat="45.824227156117558" lon="7.789947856217623">
        <ele>3100.8699999999999</ele>
        <time>2016-07-17T13:38:48Z</time>
      </trkpt>
      <trkpt lat="45.824192203581333" lon="7.789936373010278">
        <ele>3099.9099999999999</ele>
        <time>2016-07-17T13:38:52Z</time>
      </trkpt>
      <trkpt lat="45.82415884360671" lon="7.789914328604937">
        <ele>3097.9899999999998</ele>
        <time>2016-07-17T13:38:56Z</time>
      </trkpt>
      <trkpt lat="45.824027247726917" lon="7.789895553141832">
        <ele>3095.0999999999999</ele>
        <time>2016-07-17T13:39:10Z</time>
      </trkpt>
      <trkpt lat="45.824008220806718" lon="7.789886081591249">
        <ele>3095.0999999999999</ele>
        <time>2016-07-17T13:39:12Z</time>
      </trkpt>
      <trkpt lat="45.823927167803049" lon="7.78993503190577">
        <ele>3092.6999999999998</ele>
        <time>2016-07-17T13:39:23Z</time>
      </trkpt>
      <trkpt lat="45.823888275772333" lon="7.789938719943166">
        <ele>3091.2600000000002</ele>
        <time>2016-07-17T13:39:28Z</time>
      </trkpt>
      <trkpt lat="45.823851060122252" lon="7.78995749540627">
        <ele>3089.8099999999999</ele>
        <time>2016-07-17T13:39:33Z</time>
      </trkpt>
      <trkpt lat="45.823772186413407" lon="7.789966883137822">
        <ele>3087.8899999999999</ele>
        <time>2016-07-17T13:39:41Z</time>
      </trkpt>
      <trkpt lat="45.823688702657819" lon="7.78991692699492">
        <ele>3085.9699999999998</ele>
        <time>2016-07-17T13:39:50Z</time>
      </trkpt>
      <trkpt lat="45.823620641604066" lon="7.78990862891078">
        <ele>3085.0100000000002</ele>
        <time>2016-07-17T13:39:57Z</time>
      </trkpt>
      <trkpt lat="45.823540091514587" lon="7.789863785728812">
        <ele>3082.5999999999999</ele>
        <time>2016-07-17T13:40:06Z</time>
      </trkpt>
      <trkpt lat="45.823504803702235" lon="7.78985096141696">
        <ele>3082.1199999999999</ele>
        <time>2016-07-17T13:40:10Z</time>
      </trkpt>
      <trkpt lat="45.823434479534626" lon="7.789845932275057">
        <ele>3080.1999999999998</ele>
        <time>2016-07-17T13:40:17Z</time>
      </trkpt>
      <trkpt lat="45.823299027979374" lon="7.789834449067712">
        <ele>3079.7199999999998</ele>
        <time>2016-07-17T13:40:29Z</time>
      </trkpt>
      <trkpt lat="45.823230799287558" lon="7.789788264781237">
        <ele>3076.8400000000001</ele>
        <time>2016-07-17T13:40:38Z</time>
      </trkpt>
      <trkpt lat="45.823204396292567" lon="7.789770411327481">
        <ele>3075.8800000000001</ele>
        <time>2016-07-17T13:40:41Z</time>
      </trkpt>
      <trkpt lat="45.82308285869658" lon="7.789766974747181">
        <ele>3072.9899999999998</ele>
        <time>2016-07-17T13:40:54Z</time>
      </trkpt>
      <trkpt lat="45.823050504550338" lon="7.789736045524478">
        <ele>3072.0300000000002</ele>
        <time>2016-07-17T13:40:58Z</time>
      </trkpt>
      <trkpt lat="45.823027957230806" lon="7.789712408557534">
        <ele>3071.5500000000002</ele>
        <time>2016-07-17T13:41:01Z</time>
      </trkpt>
      <trkpt lat="45.822936510667205" lon="7.789622973650694">
        <ele>3068.1900000000001</ele>
        <time>2016-07-17T13:41:13Z</time>
      </trkpt>
      <trkpt lat="45.822937097400427" lon="7.789635378867388">
        <ele>3068.1900000000001</ele>
        <time>2016-07-17T13:41:21Z</time>
      </trkpt>
      <trkpt lat="45.822949502617121" lon="7.789608305320144">
        <ele>3067.2199999999998</ele>
        <time>2016-07-17T13:41:37Z</time>
      </trkpt>
      <trkpt lat="45.82294749096036" lon="7.789608808234334">
        <ele>3067.2199999999998</ele>
        <time>2016-07-17T13:41:38Z</time>
      </trkpt>
      <trkpt lat="45.822951514273882" lon="7.789599755778909">
        <ele>3067.6999999999998</ele>
        <time>2016-07-17T13:41:59Z</time>
      </trkpt>
      <trkpt lat="45.822960063815117" lon="7.789620878174901">
        <ele>3067.2199999999998</ele>
        <time>2016-07-17T13:42:16Z</time>
      </trkpt>
      <trkpt lat="45.822948329150677" lon="7.789621548727155">
        <ele>3068.1900000000001</ele>
        <time>2016-07-17T13:42:31Z</time>
      </trkpt>
      <trkpt lat="45.822952017188072" lon="7.789622638374567">
        <ele>3067.2199999999998</ele>
        <time>2016-07-17T13:42:43Z</time>
      </trkpt>
      <trkpt lat="45.822960650548339" lon="7.789634540677071">
        <ele>3066.7399999999998</ele>
        <time>2016-07-17T13:42:55Z</time>
      </trkpt>
      <trkpt lat="45.822952184826136" lon="7.789635043591261">
        <ele>3066.7399999999998</ele>
        <time>2016-07-17T13:43:14Z</time>
      </trkpt>
      <trkpt lat="45.822945898398757" lon="7.789640324190259">
        <ele>3066.2600000000002</ele>
        <time>2016-07-17T13:43:35Z</time>
      </trkpt>
      <trkpt lat="45.822940953075886" lon="7.789647867903113">
        <ele>3066.2600000000002</ele>
        <time>2016-07-17T13:43:39Z</time>
      </trkpt>
      <trkpt lat="45.82292896695435" lon="7.7897366322577">
        <ele>3064.8200000000002</ele>
        <time>2016-07-17T13:43:46Z</time>
      </trkpt>
      <trkpt lat="45.822969367727637" lon="7.789788264781237">
        <ele>3064.8200000000002</ele>
        <time>2016-07-17T13:43:52Z</time>
      </trkpt>
      <trkpt lat="45.822964338585734" lon="7.789817685261369">
        <ele>3063.8600000000001</ele>
        <time>2016-07-17T13:43:54Z</time>
      </trkpt>
      <trkpt lat="45.822917902842164" lon="7.789883567020297">
        <ele>3060.98</ele>
        <time>2016-07-17T13:44:05Z</time>
      </trkpt>
      <trkpt lat="45.82290155813098" lon="7.789897648617625">
        <ele>3061.46</ele>
        <time>2016-07-17T13:44:10Z</time>
      </trkpt>
      <trkpt lat="45.822876077145338" lon="7.789981635287404">
        <ele>3059.5300000000002</ele>
        <time>2016-07-17T13:44:19Z</time>
      </trkpt>
      <trkpt lat="45.822860654443502" lon="7.789930086582899">
        <ele>3057.1300000000001</ele>
        <time>2016-07-17T13:44:27Z</time>
      </trkpt>
      <trkpt lat="45.82283022813499" lon="7.789939306676388">
        <ele>3054.73</ele>
        <time>2016-07-17T13:44:38Z</time>
      </trkpt>
      <trkpt lat="45.822781277820468" lon="7.789943916723132">
        <ele>3052.3200000000002</ele>
        <time>2016-07-17T13:44:48Z</time>
      </trkpt>
      <trkpt lat="45.822729645296931" lon="7.789945341646671">
        <ele>3050.4000000000001</ele>
        <time>2016-07-17T13:44:58Z</time>
      </trkpt>
      <trkpt lat="45.822687819600105" lon="7.789899995550513">
        <ele>3047.52</ele>
        <time>2016-07-17T13:45:07Z</time>
      </trkpt>
      <trkpt lat="45.822656555101275" lon="7.789903348311782">
        <ele>3045.5900000000001</ele>
        <time>2016-07-17T13:45:17Z</time>
      </trkpt>
      <trkpt lat="45.822638785466552" lon="7.789896475151181">
        <ele>3043.1900000000001</ele>
        <time>2016-07-17T13:45:25Z</time>
      </trkpt>
      <trkpt lat="45.822637947276235" lon="7.789849704131484">
        <ele>3040.79</ele>
        <time>2016-07-17T13:45:33Z</time>
      </trkpt>
      <trkpt lat="45.822628643363714" lon="7.789801759645343">
        <ele>3039.3499999999999</ele>
        <time>2016-07-17T13:45:37Z</time>
      </trkpt>
      <trkpt lat="45.822630738839507" lon="7.789768064394593">
        <ele>3039.3499999999999</ele>
        <time>2016-07-17T13:45:40Z</time>
      </trkpt>
      <trkpt lat="45.822619423270226" lon="7.789678797125816">
        <ele>3036.9400000000001</ele>
        <time>2016-07-17T13:45:51Z</time>
      </trkpt>
      <trkpt lat="45.822616405785084" lon="7.789673432707787">
        <ele>3036.46</ele>
        <time>2016-07-17T13:45:52Z</time>
      </trkpt>
      <trkpt lat="45.822614310309291" lon="7.789653902873397">
        <ele>3035.98</ele>
        <time>2016-07-17T13:45:55Z</time>
      </trkpt>
      <trkpt lat="45.822615986689925" lon="7.789519540965557">
        <ele>3035.02</ele>
        <time>2016-07-17T13:46:04Z</time>
      </trkpt>
      <trkpt lat="45.822627888992429" lon="7.78943027369678">
        <ele>3035.02</ele>
        <time>2016-07-17T13:46:11Z</time>
      </trkpt>
      <trkpt lat="45.822660159319639" lon="7.789356429129839">
        <ele>3033.0999999999999</ele>
        <time>2016-07-17T13:46:20Z</time>
      </trkpt>
      <trkpt lat="45.82266946323216" lon="7.789241848513484">
        <ele>3030.6900000000001</ele>
        <time>2016-07-17T13:46:30Z</time>
      </trkpt>
      <trkpt lat="45.822669630870223" lon="7.789214691147208">
        <ele>3030.6900000000001</ele>
        <time>2016-07-17T13:46:32Z</time>
      </trkpt>
      <trkpt lat="45.822658315300941" lon="7.789068426936865">
        <ele>3028.77</ele>
        <time>2016-07-17T13:46:43Z</time>
      </trkpt>
      <trkpt lat="45.822615902870893" lon="7.788956528529525">
        <ele>3026.3699999999999</ele>
        <time>2016-07-17T13:46:55Z</time>
      </trkpt>
      <trkpt lat="45.822595786303282" lon="7.788928532972932">
        <ele>3024.4400000000001</ele>
        <time>2016-07-17T13:47:05Z</time>
      </trkpt>
      <trkpt lat="45.822586566209793" lon="7.788916127756238">
        <ele>3022.04</ele>
        <time>2016-07-17T13:47:12Z</time>
      </trkpt>
      <trkpt lat="45.822584051638842" lon="7.788906404748559">
        <ele>3021.5599999999999</ele>
        <time>2016-07-17T13:47:18Z</time>
      </trkpt>
      <trkpt lat="45.822555469349027" lon="7.788876816630364">
        <ele>3019.1599999999999</ele>
        <time>2016-07-17T13:47:23Z</time>
      </trkpt>
      <trkpt lat="45.822551278397441" lon="7.78884194791317">
        <ele>3019.1599999999999</ele>
        <time>2016-07-17T13:47:32Z</time>
      </trkpt>
      <trkpt lat="45.822552032768726" lon="7.788811773061752">
        <ele>3017.23</ele>
        <time>2016-07-17T13:47:40Z</time>
      </trkpt>
      <trkpt lat="45.822536190971732" lon="7.788788890466094">
        <ele>3017.23</ele>
        <time>2016-07-17T13:47:49Z</time>
      </trkpt>
      <trkpt lat="45.822548093274236" lon="7.788766510784626">
        <ele>3016.75</ele>
        <time>2016-07-17T13:48:04Z</time>
      </trkpt>
      <trkpt lat="45.822539376094937" lon="7.788757625967264">
        <ele>3017.23</ele>
        <time>2016-07-17T13:48:18Z</time>
      </trkpt>
      <trkpt lat="45.822545243427157" lon="7.788766007870436">
        <ele>3017.23</ele>
        <time>2016-07-17T13:48:33Z</time>
      </trkpt>
      <trkpt lat="45.822530072182417" lon="7.788780089467764">
        <ele>3016.27</ele>
        <time>2016-07-17T13:48:50Z</time>
      </trkpt>
      <trkpt lat="45.822530156001449" lon="7.788771204650402">
        <ele>3016.75</ele>
        <time>2016-07-17T13:49:03Z</time>
      </trkpt>
      <trkpt lat="45.822530407458544" lon="7.78876818716526">
        <ele>3015.79</ele>
        <time>2016-07-17T13:49:16Z</time>
      </trkpt>
      <trkpt lat="45.822527473792434" lon="7.788777742534876">
        <ele>3016.27</ele>
        <time>2016-07-17T13:49:32Z</time>
      </trkpt>
      <trkpt lat="45.822540046647191" lon="7.788751423358917">
        <ele>3016.75</ele>
        <time>2016-07-17T13:49:46Z</time>
      </trkpt>
      <trkpt lat="45.822537448257208" lon="7.788756368681788">
        <ele>3016.27</ele>
        <time>2016-07-17T13:49:47Z</time>
      </trkpt>
      <trkpt lat="45.822514314204454" lon="7.788764918223023">
        <ele>3015.79</ele>
        <time>2016-07-17T13:49:52Z</time>
      </trkpt>
      <trkpt lat="45.822527809068561" lon="7.788729378953576">
        <ele>3014.3499999999999</ele>
        <time>2016-07-17T13:50:00Z</time>
      </trkpt>
      <trkpt lat="45.82253803499043" lon="7.788723595440388">
        <ele>3013.3899999999999</ele>
        <time>2016-07-17T13:50:02Z</time>
      </trkpt>
      <trkpt lat="45.822545830160379" lon="7.788711190223694">
        <ele>3012.9099999999999</ele>
        <time>2016-07-17T13:50:09Z</time>
      </trkpt>
      <trkpt lat="45.822541220113635" lon="7.788683110848069">
        <ele>3011.4699999999998</ele>
        <time>2016-07-17T13:50:20Z</time>
      </trkpt>
      <trkpt lat="45.822567706927657" lon="7.788662407547236">
        <ele>3010.0300000000002</ele>
        <time>2016-07-17T13:50:28Z</time>
      </trkpt>
      <trkpt lat="45.822611041367054" lon="7.788622425869107">
        <ele>3008.5799999999999</ele>
        <time>2016-07-17T13:50:37Z</time>
      </trkpt>
      <trkpt lat="45.822596289217472" lon="7.788625778630376">
        <ele>3009.0599999999999</ele>
        <time>2016-07-17T13:50:45Z</time>
      </trkpt>
      <trkpt lat="45.822629984468222" lon="7.788582276552916">
        <ele>3007.1399999999999</ele>
        <time>2016-07-17T13:50:54Z</time>
      </trkpt>
      <trkpt lat="45.822626380249858" lon="7.788567189127207">
        <ele>3006.1799999999998</ele>
        <time>2016-07-17T13:51:01Z</time>
      </trkpt>
      <trkpt lat="45.822641719132662" lon="7.788568781688809">
        <ele>3006.1799999999998</ele>
        <time>2016-07-17T13:51:03Z</time>
      </trkpt>
      <trkpt lat="45.822675079107285" lon="7.788485465571284">
        <ele>3003.7800000000002</ele>
        <time>2016-07-17T13:51:13Z</time>
      </trkpt>
      <trkpt lat="45.822656638920307" lon="7.78849552385509">
        <ele>3002.8200000000002</ele>
        <time>2016-07-17T13:51:17Z</time>
      </trkpt>
      <trkpt lat="45.822662673890591" lon="7.788440454751253">
        <ele>3000.4099999999999</ele>
        <time>2016-07-17T13:51:26Z</time>
      </trkpt>
      <trkpt lat="45.822686981409788" lon="7.788399048149586">
        <ele>2999.4499999999998</ele>
        <time>2016-07-17T13:51:41Z</time>
      </trkpt>
      <trkpt lat="45.822711624205112" lon="7.788356300443411">
        <ele>2997.5300000000002</ele>
        <time>2016-07-17T13:51:48Z</time>
      </trkpt>
      <trkpt lat="45.822747331112623" lon="7.788325622677803">
        <ele>2995.5999999999999</ele>
        <time>2016-07-17T13:51:56Z</time>
      </trkpt>
      <trkpt lat="45.822734925895929" lon="7.788276337087154">
        <ele>2993.6799999999998</ele>
        <time>2016-07-17T13:52:06Z</time>
      </trkpt>
      <trkpt lat="45.822754455730319" lon="7.788252364844084">
        <ele>2992.2399999999998</ele>
        <time>2016-07-17T13:52:09Z</time>
      </trkpt>
      <trkpt lat="45.82276132889092" lon="7.788203498348594">
        <ele>2990.3200000000002</ele>
        <time>2016-07-17T13:52:18Z</time>
      </trkpt>
      <trkpt lat="45.822781529277563" lon="7.788161924108863">
        <ele>2988.8800000000001</ele>
        <time>2016-07-17T13:52:26Z</time>
      </trkpt>
      <trkpt lat="45.822796281427145" lon="7.788136024028063">
        <ele>2986.4699999999998</ele>
        <time>2016-07-17T13:52:34Z</time>
      </trkpt>
      <trkpt lat="45.822804411873221" lon="7.788098054006696">
        <ele>2985.0300000000002</ele>
        <time>2016-07-17T13:52:42Z</time>
      </trkpt>
      <trkpt lat="45.822778511792421" lon="7.788100149482489">
        <ele>2983.5900000000001</ele>
        <time>2016-07-17T13:52:47Z</time>
      </trkpt>
      <trkpt lat="45.822732411324978" lon="7.788131665438414">
        <ele>2983.1100000000001</ele>
        <time>2016-07-17T13:52:53Z</time>
      </trkpt>
      <trkpt lat="45.82266753539443" lon="7.788113560527563">
        <ele>2982.1500000000001</ele>
        <time>2016-07-17T13:53:02Z</time>
      </trkpt>
      <trkpt lat="45.822647921741009" lon="7.788111129775643">
        <ele>2981.6700000000001</ele>
        <time>2016-07-17T13:53:12Z</time>
      </trkpt>
      <trkpt lat="45.822628559544683" lon="7.788109118118882">
        <ele>2980.71</ele>
        <time>2016-07-17T13:53:22Z</time>
      </trkpt>
      <trkpt lat="45.822578854858875" lon="7.788114231079817">
        <ele>2979.7399999999998</ele>
        <time>2016-07-17T13:53:40Z</time>
      </trkpt>
      <trkpt lat="45.82254390232265" lon="7.788121858611703">
        <ele>2978.3000000000002</ele>
        <time>2016-07-17T13:53:47Z</time>
      </trkpt>
      <trkpt lat="45.822498556226492" lon="7.78811389580369">
        <ele>2976.8600000000001</ele>
        <time>2016-07-17T13:53:56Z</time>
      </trkpt>
      <trkpt lat="45.822511296719313" lon="7.78806452639401">
        <ele>2975.4200000000001</ele>
        <time>2016-07-17T13:54:05Z</time>
      </trkpt>
      <trkpt lat="45.822526048868895" lon="7.788004092872143">
        <ele>2973.98</ele>
        <time>2016-07-17T13:54:11Z</time>
      </trkpt>
      <trkpt lat="45.822509368881583" lon="7.787962518632412">
        <ele>2971.5700000000002</ele>
        <time>2016-07-17T13:54:20Z</time>
      </trkpt>
      <trkpt lat="45.822471063584089" lon="7.787958914414048">
        <ele>2968.6900000000001</ele>
        <time>2016-07-17T13:54:29Z</time>
      </trkpt>
      <trkpt lat="45.822491180151701" lon="7.787912646308541">
        <ele>2967.25</ele>
        <time>2016-07-17T13:54:33Z</time>
      </trkpt>
      <trkpt lat="45.822486067190766" lon="7.787899319082499">
        <ele>2966.29</ele>
        <time>2016-07-17T13:54:40Z</time>
      </trkpt>
      <trkpt lat="45.822481205686927" lon="7.787839556112886">
        <ele>2964.3600000000001</ele>
        <time>2016-07-17T13:54:47Z</time>
      </trkpt>
      <trkpt lat="45.822491515427828" lon="7.787827234715223">
        <ele>2964.3600000000001</ele>
        <time>2016-07-17T13:54:49Z</time>
      </trkpt>
      <trkpt lat="45.822491683065891" lon="7.787794964388013">
        <ele>2961.96</ele>
        <time>2016-07-17T13:54:57Z</time>
      </trkpt>
      <trkpt lat="45.822451449930668" lon="7.787800999358296">
        <ele>2959.5599999999999</ele>
        <time>2016-07-17T13:55:07Z</time>
      </trkpt>
      <trkpt lat="45.822450360283256" lon="7.787760682404041">
        <ele>2959.0799999999999</ele>
        <time>2016-07-17T13:55:15Z</time>
      </trkpt>
      <trkpt lat="45.822451449930668" lon="7.787770321592689">
        <ele>2959.5599999999999</ele>
        <time>2016-07-17T13:55:26Z</time>
      </trkpt>
      <trkpt lat="45.822397386655211" lon="7.787800747901201">
        <ele>2956.6700000000001</ele>
        <time>2016-07-17T13:55:38Z</time>
      </trkpt>
      <trkpt lat="45.822390681132674" lon="7.787800244987011">
        <ele>2957.1500000000001</ele>
        <time>2016-07-17T13:55:39Z</time>
      </trkpt>
      <trkpt lat="45.822323374450207" lon="7.787802927196026">
        <ele>2955.23</ele>
        <time>2016-07-17T13:55:47Z</time>
      </trkpt>
      <trkpt lat="45.82228004001081" lon="7.787823043763638">
        <ele>2952.3499999999999</ele>
        <time>2016-07-17T13:55:55Z</time>
      </trkpt>
      <trkpt lat="45.822286074981093" lon="7.78778993524611">
        <ele>2950.9000000000001</ele>
        <time>2016-07-17T13:55:59Z</time>
      </trkpt>
      <trkpt lat="45.822288757190108" lon="7.787716509774327">
        <ele>2949.46</ele>
        <time>2016-07-17T13:56:09Z</time>
      </trkpt>
      <trkpt lat="45.822286326438189" lon="7.787710390985012">
        <ele>2948.5</ele>
        <time>2016-07-17T13:56:20Z</time>
      </trkpt>
      <trkpt lat="45.822235364466906" lon="7.787700751796365">
        <ele>2945.6199999999999</ele>
        <time>2016-07-17T13:56:32Z</time>
      </trkpt>
      <trkpt lat="45.822227066382766" lon="7.787678120657802">
        <ele>2944.6599999999999</ele>
        <time>2016-07-17T13:56:43Z</time>
      </trkpt>
      <trkpt lat="45.822194796055555" lon="7.787615843117237">
        <ele>2942.25</ele>
        <time>2016-07-17T13:56:52Z</time>
      </trkpt>
      <trkpt lat="45.822191191837192" lon="7.787577956914902">
        <ele>2940.3299999999999</ele>
        <time>2016-07-17T13:56:56Z</time>
      </trkpt>
      <trkpt lat="45.822187755256891" lon="7.787483073771">
        <ele>2936.9699999999998</ele>
        <time>2016-07-17T13:57:06Z</time>
      </trkpt>
      <trkpt lat="45.822156071662903" lon="7.787510650232434">
        <ele>2936</ele>
        <time>2016-07-17T13:57:12Z</time>
      </trkpt>
      <trkpt lat="45.82209681160748" lon="7.787477541714907">
        <ele>2932.6399999999999</ele>
        <time>2016-07-17T13:57:21Z</time>
      </trkpt>
      <trkpt lat="45.822066804394126" lon="7.787453401833773">
        <ele>2930.2399999999998</ele>
        <time>2016-07-17T13:57:29Z</time>
      </trkpt>
      <trkpt lat="45.822026571258903" lon="7.787523474544287">
        <ele>2927.3499999999999</ele>
        <time>2016-07-17T13:57:39Z</time>
      </trkpt>
      <trkpt lat="45.821980973705649" lon="7.787503441795707">
        <ele>2925.4299999999998</ele>
        <time>2016-07-17T13:57:47Z</time>
      </trkpt>
      <trkpt lat="45.821965131908655" lon="7.787529258057475">
        <ele>2923.5100000000002</ele>
        <time>2016-07-17T13:57:50Z</time>
      </trkpt>
      <trkpt lat="45.821929844096303" lon="7.787485169246793">
        <ele>2920.6199999999999</ele>
        <time>2016-07-17T13:57:57Z</time>
      </trkpt>
      <trkpt lat="45.821912912651896" lon="7.78744887560606">
        <ele>2918.6999999999998</ele>
        <time>2016-07-17T13:58:05Z</time>
      </trkpt>
      <trkpt lat="45.821855831891298" lon="7.787433620542288">
        <ele>2915.8200000000002</ele>
        <time>2016-07-17T13:58:15Z</time>
      </trkpt>
      <trkpt lat="45.821792213246226" lon="7.787392633035779">
        <ele>2912.9299999999998</ele>
        <time>2016-07-17T13:58:24Z</time>
      </trkpt>
      <trkpt lat="45.821756841614842" lon="7.787334797903895">
        <ele>2910.5300000000002</ele>
        <time>2016-07-17T13:58:32Z</time>
      </trkpt>
      <trkpt lat="45.821706214919686" lon="7.787273107096553">
        <ele>2907.1599999999999</ele>
        <time>2016-07-17T13:58:43Z</time>
      </trkpt>
      <trkpt lat="45.82169758155942" lon="7.787173865363002">
        <ele>2905.2399999999998</ele>
        <time>2016-07-17T13:58:52Z</time>
      </trkpt>
      <trkpt lat="45.821680314838886" lon="7.787148803472519">
        <ele>2903.3200000000002</ele>
        <time>2016-07-17T13:59:02Z</time>
      </trkpt>
      <trkpt lat="45.821658102795482" lon="7.787166321650147">
        <ele>2902.3600000000001</ele>
        <time>2016-07-17T13:59:06Z</time>
      </trkpt>
      <trkpt lat="45.821604877710342" lon="7.787151820957661">
        <ele>2899.9499999999998</ele>
        <time>2016-07-17T13:59:15Z</time>
      </trkpt>
      <trkpt lat="45.821571769192815" lon="7.7871083188802">
        <ele>2897.5500000000002</ele>
        <time>2016-07-17T13:59:25Z</time>
      </trkpt>
      <trkpt lat="45.821533547714353" lon="7.787115946412087">
        <ele>2896.1100000000001</ele>
        <time>2016-07-17T13:59:30Z</time>
      </trkpt>
      <trkpt lat="45.821521813049912" lon="7.787046628072858">
        <ele>2893.71</ele>
        <time>2016-07-17T13:59:37Z</time>
      </trkpt>
      <trkpt lat="45.821494990959764" lon="7.787022655829787">
        <ele>2891.3000000000002</ele>
        <time>2016-07-17T13:59:47Z</time>
      </trkpt>
      <trkpt lat="45.821477472782135" lon="7.78700714930892">
        <ele>2889.8600000000001</ele>
        <time>2016-07-17T13:59:51Z</time>
      </trkpt>
      <trkpt lat="45.821433216333389" lon="7.786998013034463">
        <ele>2887.46</ele>
        <time>2016-07-17T13:59:59Z</time>
      </trkpt>
      <trkpt lat="45.821391474455595" lon="7.787013100460172">
        <ele>2885.5300000000002</ele>
        <time>2016-07-17T14:00:07Z</time>
      </trkpt>
      <trkpt lat="45.821357192471623" lon="7.786959204822779">
        <ele>2883.1300000000001</ele>
        <time>2016-07-17T14:00:15Z</time>
      </trkpt>
      <trkpt lat="45.821351073682308" lon="7.787023410201073">
        <ele>2882.1700000000001</ele>
        <time>2016-07-17T14:00:21Z</time>
      </trkpt>
      <trkpt lat="45.821307320147753" lon="7.787012178450823">
        <ele>2880.25</ele>
        <time>2016-07-17T14:00:26Z</time>
      </trkpt>
      <trkpt lat="45.821286533027887" lon="7.787066325545311">
        <ele>2878.8099999999999</ele>
        <time>2016-07-17T14:00:34Z</time>
      </trkpt>
      <trkpt lat="45.821255017071962" lon="7.787154503166676">
        <ele>2875.9200000000001</ele>
        <time>2016-07-17T14:00:45Z</time>
      </trkpt>
      <trkpt lat="45.821282844990492" lon="7.787244692444801">
        <ele>2872.5599999999999</ele>
        <time>2016-07-17T14:00:56Z</time>
      </trkpt>
      <trkpt lat="45.821265326812863" lon="7.787354495376349">
        <ele>2870.1500000000001</ele>
        <time>2016-07-17T14:01:06Z</time>
      </trkpt>
      <trkpt lat="45.821231296285987" lon="7.787425322458148">
        <ele>2867.75</ele>
        <time>2016-07-17T14:01:15Z</time>
      </trkpt>
      <trkpt lat="45.821208665147424" lon="7.787503944709897">
        <ele>2865.3499999999999</ele>
        <time>2016-07-17T14:01:23Z</time>
      </trkpt>
      <trkpt lat="45.821181675419211" lon="7.787555912509561">
        <ele>2863.9000000000001</ele>
        <time>2016-07-17T14:01:29Z</time>
      </trkpt>
      <trkpt lat="45.821130713447928" lon="7.787493383511901">
        <ele>2861.02</ele>
        <time>2016-07-17T14:01:41Z</time>
      </trkpt>
      <trkpt lat="45.821108752861619" lon="7.787477457895875">
        <ele>2859.0999999999999</ele>
        <time>2016-07-17T14:01:51Z</time>
      </trkpt>
      <trkpt lat="45.821068184450269" lon="7.787517523393035">
        <ele>2856.6900000000001</ele>
        <time>2016-07-17T14:01:59Z</time>
      </trkpt>
      <trkpt lat="45.821029040962458" lon="7.78752657584846">
        <ele>2854.29</ele>
        <time>2016-07-17T14:02:08Z</time>
      </trkpt>
      <trkpt lat="45.821018815040588" lon="7.78754660859704">
        <ele>2853.8099999999999</ele>
        <time>2016-07-17T14:02:10Z</time>
      </trkpt>
      <trkpt lat="45.820958213880658" lon="7.787586841732264">
        <ele>2850.9299999999998</ele>
        <time>2016-07-17T14:02:20Z</time>
      </trkpt>
      <trkpt lat="45.820955615490675" lon="7.787574855610728">
        <ele>2850.4499999999998</ele>
        <time>2016-07-17T14:02:21Z</time>
      </trkpt>
      <trkpt lat="45.820936420932412" lon="7.787513667717576">
        <ele>2848.52</ele>
        <time>2016-07-17T14:02:30Z</time>
      </trkpt>
      <trkpt lat="45.820921584963799" lon="7.787490701302886">
        <ele>2846.5999999999999</ele>
        <time>2016-07-17T14:02:34Z</time>
      </trkpt>
      <trkpt lat="45.820870790630579" lon="7.787456167861819">
        <ele>2843.7199999999998</ele>
        <time>2016-07-17T14:02:44Z</time>
      </trkpt>
      <trkpt lat="45.820850422605872" lon="7.787471674382687">
        <ele>2842.7600000000002</ele>
        <time>2016-07-17T14:02:47Z</time>
      </trkpt>
      <trkpt lat="45.820843046531081" lon="7.787493132054806">
        <ele>2841.79</ele>
        <time>2016-07-17T14:02:50Z</time>
      </trkpt>
      <trkpt lat="45.820819493383169" lon="7.787435464560986">
        <ele>2839.3899999999999</ele>
        <time>2016-07-17T14:02:58Z</time>
      </trkpt>
      <trkpt lat="45.820818739011884" lon="7.787441080436111">
        <ele>2839.8699999999999</ele>
        <time>2016-07-17T14:02:59Z</time>
      </trkpt>
      <trkpt lat="45.820766938850284" lon="7.787464633584023">
        <ele>2836.9899999999998</ele>
        <time>2016-07-17T14:03:07Z</time>
      </trkpt>
      <trkpt lat="45.82076383754611" lon="7.78744250535965">
        <ele>2836.5100000000002</ele>
        <time>2016-07-17T14:03:09Z</time>
      </trkpt>
      <trkpt lat="45.82072033546865" lon="7.78741174377501">
        <ele>2834.0999999999999</ele>
        <time>2016-07-17T14:03:18Z</time>
      </trkpt>
      <trkpt lat="45.82070130854845" lon="7.787365140393376">
        <ele>2833.6199999999999</ele>
        <time>2016-07-17T14:03:24Z</time>
      </trkpt>
      <trkpt lat="45.820682365447283" lon="7.787379808723927">
        <ele>2833.1399999999999</ele>
        <time>2016-07-17T14:03:26Z</time>
      </trkpt>
      <trkpt lat="45.820634672418237" lon="7.787366397678852">
        <ele>2829.7800000000002</ele>
        <time>2016-07-17T14:03:34Z</time>
      </trkpt>
      <trkpt lat="45.820596199482679" lon="7.787323482334614">
        <ele>2828.3400000000001</ele>
        <time>2016-07-17T14:03:45Z</time>
      </trkpt>
      <trkpt lat="45.820573065429926" lon="7.787321386858821">
        <ele>2826.8899999999999</ele>
        <time>2016-07-17T14:03:49Z</time>
      </trkpt>
      <trkpt lat="45.820545656606555" lon="7.787306467071176">
        <ele>2824.9699999999998</ele>
        <time>2016-07-17T14:03:54Z</time>
      </trkpt>
      <trkpt lat="45.820487653836608" lon="7.787289284169674">
        <ele>2822.5700000000002</ele>
        <time>2016-07-17T14:04:03Z</time>
      </trkpt>
      <trkpt lat="45.820443816483021" lon="7.787260618060827">
        <ele>2820.6500000000001</ele>
        <time>2016-07-17T14:04:11Z</time>
      </trkpt>
      <trkpt lat="45.820397296920419" lon="7.787234466522932">
        <ele>2818.7199999999998</ele>
        <time>2016-07-17T14:04:18Z</time>
      </trkpt>
      <trkpt lat="45.820366451516747" lon="7.787198340520263">
        <ele>2817.2800000000002</ele>
        <time>2016-07-17T14:04:22Z</time>
      </trkpt>
      <trkpt lat="45.820315070450306" lon="7.787144025787711">
        <ele>2815.3600000000001</ele>
        <time>2016-07-17T14:04:32Z</time>
      </trkpt>
      <trkpt lat="45.820247177034616" lon="7.787100775167346">
        <ele>2813.9200000000001</ele>
        <time>2016-07-17T14:04:42Z</time>
      </trkpt>
      <trkpt lat="45.820171572268009" lon="7.787088453769684">
        <ele>2811.5100000000002</ele>
        <time>2016-07-17T14:04:51Z</time>
      </trkpt>
      <trkpt lat="45.820158496499062" lon="7.787100858986378">
        <ele>2810.5500000000002</ele>
        <time>2016-07-17T14:04:53Z</time>
      </trkpt>
      <trkpt lat="45.820139050483704" lon="7.78711368329823">
        <ele>2810.5500000000002</ele>
        <time>2016-07-17T14:04:55Z</time>
      </trkpt>
      <trkpt lat="45.820071576163173" lon="7.787143271416426">
        <ele>2808.1500000000001</ele>
        <time>2016-07-17T14:05:05Z</time>
      </trkpt>
      <trkpt lat="45.820066798478365" lon="7.78714201413095">
        <ele>2807.6700000000001</ele>
        <time>2016-07-17T14:05:06Z</time>
      </trkpt>
      <trkpt lat="45.81998155452311" lon="7.787178140133619">
        <ele>2805.2600000000002</ele>
        <time>2016-07-17T14:05:16Z</time>
      </trkpt>
      <trkpt lat="45.819927407428622" lon="7.787193981930614">
        <ele>2803.3400000000001</ele>
        <time>2016-07-17T14:05:23Z</time>
      </trkpt>
      <trkpt lat="45.819855909794569" lon="7.787219798192382">
        <ele>2803.3400000000001</ele>
        <time>2016-07-17T14:05:33Z</time>
      </trkpt>
      <trkpt lat="45.819817772135139" lon="7.787248883396387">
        <ele>2799.98</ele>
        <time>2016-07-17T14:05:37Z</time>
      </trkpt>
      <trkpt lat="45.819790698587894" lon="7.787239160388708">
        <ele>2799.98</ele>
        <time>2016-07-17T14:05:41Z</time>
      </trkpt>
      <trkpt lat="45.819739568978548" lon="7.787255756556988">
        <ele>2799.98</ele>
        <time>2016-07-17T14:05:46Z</time>
      </trkpt>
      <trkpt lat="45.819695312529802" lon="7.787260953336954">
        <ele>2798.54</ele>
        <time>2016-07-17T14:05:50Z</time>
      </trkpt>
      <trkpt lat="45.819667484611273" lon="7.787296324968338">
        <ele>2799.5</ele>
        <time>2016-07-17T14:05:55Z</time>
      </trkpt>
      <trkpt lat="45.819610320031643" lon="7.787391962483525">
        <ele>2799.5</ele>
        <time>2016-07-17T14:06:05Z</time>
      </trkpt>
      <trkpt lat="45.819600177928805" lon="7.787392046302557">
        <ele>2799.5</ele>
        <time>2016-07-17T14:06:06Z</time>
      </trkpt>
      <trkpt lat="45.819519376382232" lon="7.787373103201389">
        <ele>2798.0500000000002</ele>
        <time>2016-07-17T14:06:17Z</time>
      </trkpt>
      <trkpt lat="45.819499343633652" lon="7.787375114858151">
        <ele>2798.0500000000002</ele>
        <time>2016-07-17T14:06:21Z</time>
      </trkpt>
      <trkpt lat="45.819474700838327" lon="7.787323147058487">
        <ele>2797.5700000000002</ele>
        <time>2016-07-17T14:06:25Z</time>
      </trkpt>
      <trkpt lat="45.819385685026646" lon="7.78718451038003">
        <ele>2797.0900000000001</ele>
        <time>2016-07-17T14:06:37Z</time>
      </trkpt>
      <trkpt lat="45.819329023361206" lon="7.787184007465839">
        <ele>2798.0500000000002</ele>
        <time>2016-07-17T14:06:48Z</time>
      </trkpt>
      <trkpt lat="45.819323742762208" lon="7.787188701331615">
        <ele>2798.0500000000002</ele>
        <time>2016-07-17T14:07:10Z</time>
      </trkpt>
      <trkpt lat="45.819378728047013" lon="7.787195490673184">
        <ele>2797.5700000000002</ele>
        <time>2016-07-17T14:07:31Z</time>
      </trkpt>
      <trkpt lat="45.819390881806612" lon="7.787195658311248">
        <ele>2797.5700000000002</ele>
        <time>2016-07-17T14:07:33Z</time>
      </trkpt>
      <trkpt lat="45.819420805200934" lon="7.787216864526272">
        <ele>2797.0900000000001</ele>
        <time>2016-07-17T14:07:36Z</time>
      </trkpt>
      <trkpt lat="45.81946849822998" lon="7.787248464301229">
        <ele>2796.6100000000001</ele>
        <time>2016-07-17T14:07:44Z</time>
      </trkpt>
      <trkpt lat="45.819501774385571" lon="7.787368576973677">
        <ele>2797.5700000000002</ele>
        <time>2016-07-17T14:07:53Z</time>
      </trkpt>
      <trkpt lat="45.819484172388911" lon="7.78735994361341">
        <ele>2796.6100000000001</ele>
        <time>2016-07-17T14:08:07Z</time>
      </trkpt>
      <trkpt lat="45.819486603140831" lon="7.787347035482526">
        <ele>2796.6100000000001</ele>
        <time>2016-07-17T14:08:34Z</time>
      </trkpt>
      <trkpt lat="45.819452237337828" lon="7.787359021604061">
        <ele>2797.0900000000001</ele>
        <time>2016-07-17T14:09:03Z</time>
      </trkpt>
      <trkpt lat="45.819482244551182" lon="7.787360278889537">
        <ele>2797.5700000000002</ele>
        <time>2016-07-17T14:09:17Z</time>
      </trkpt>
      <trkpt lat="45.819467576220632" lon="7.787375701591373">
        <ele>2797.5700000000002</ele>
        <time>2016-07-17T14:09:26Z</time>
      </trkpt>
      <trkpt lat="45.819436479359865" lon="7.787380982190371">
        <ele>2798.0500000000002</ele>
        <time>2016-07-17T14:09:36Z</time>
      </trkpt>
      <trkpt lat="45.819435305893421" lon="7.787401853129268">
        <ele>2798.0500000000002</ele>
        <time>2016-07-17T14:09:46Z</time>
      </trkpt>
      <trkpt lat="45.819451566785574" lon="7.787368996068835">
        <ele>2798.0500000000002</ele>
        <time>2016-07-17T14:09:59Z</time>
      </trkpt>
      <trkpt lat="45.819454835727811" lon="7.787371091544628">
        <ele>2799.02</ele>
        <time>2016-07-17T14:10:16Z</time>
      </trkpt>
      <trkpt lat="45.819494901224971" lon="7.78742833994329">
        <ele>2797.5700000000002</ele>
        <time>2016-07-17T14:10:25Z</time>
      </trkpt>
      <trkpt lat="45.819496409967542" lon="7.787398584187031">
        <ele>2797.5700000000002</ele>
        <time>2016-07-17T14:10:34Z</time>
      </trkpt>
      <trkpt lat="45.819503869861364" lon="7.787360278889537">
        <ele>2796.6100000000001</ele>
        <time>2016-07-17T14:10:45Z</time>
      </trkpt>
      <trkpt lat="45.819476712495089" lon="7.787317112088203">
        <ele>2796.1300000000001</ele>
        <time>2016-07-17T14:10:58Z</time>
      </trkpt>
      <trkpt lat="45.819498170167208" lon="7.787312837317586">
        <ele>2796.1300000000001</ele>
        <time>2016-07-17T14:11:14Z</time>
      </trkpt>
      <trkpt lat="45.819532535970211" lon="7.787313004955649">
        <ele>2796.1300000000001</ele>
        <time>2016-07-17T14:11:31Z</time>
      </trkpt>
      <trkpt lat="45.819497499614954" lon="7.787396991625428">
        <ele>2796.6100000000001</ele>
        <time>2016-07-17T14:11:39Z</time>
      </trkpt>
      <trkpt lat="45.819489117711782" lon="7.78740051202476">
        <ele>2796.1300000000001</ele>
        <time>2016-07-17T14:11:52Z</time>
      </trkpt>
      <trkpt lat="45.819476963952184" lon="7.787421299144626">
        <ele>2796.1300000000001</ele>
        <time>2016-07-17T14:12:10Z</time>
      </trkpt>
      <trkpt lat="45.819489620625973" lon="7.787408391013742">
        <ele>2796.6100000000001</ele>
        <time>2016-07-17T14:12:24Z</time>
      </trkpt>
      <trkpt lat="45.81949925981462" lon="7.787411911413074">
        <ele>2796.6100000000001</ele>
        <time>2016-07-17T14:12:44Z</time>
      </trkpt>
      <trkpt lat="45.819503366947174" lon="7.787401350215077">
        <ele>2796.6100000000001</ele>
        <time>2016-07-17T14:12:56Z</time>
      </trkpt>
      <trkpt lat="45.819510743021965" lon="7.787392130121589">
        <ele>2796.6100000000001</ele>
        <time>2016-07-17T14:13:12Z</time>
      </trkpt>
      <trkpt lat="45.819498002529144" lon="7.787376372143626">
        <ele>2796.1300000000001</ele>
        <time>2016-07-17T14:13:27Z</time>
      </trkpt>
      <trkpt lat="45.819506049156189" lon="7.787383245304227">
        <ele>2796.1300000000001</ele>
        <time>2016-07-17T14:13:38Z</time>
      </trkpt>
      <trkpt lat="45.81948702223599" lon="7.787385592237115">
        <ele>2796.1300000000001</ele>
        <time>2016-07-17T14:13:49Z</time>
      </trkpt>
      <trkpt lat="45.819472437724471" lon="7.787417443469167">
        <ele>2796.6100000000001</ele>
        <time>2016-07-17T14:14:00Z</time>
      </trkpt>
      <trkpt lat="45.819469336420298" lon="7.787413503974676">
        <ele>2796.1300000000001</ele>
        <time>2016-07-17T14:14:10Z</time>
      </trkpt>
      <trkpt lat="45.819471348077059" lon="7.78741417452693">
        <ele>2796.6100000000001</ele>
        <time>2016-07-17T14:14:23Z</time>
      </trkpt>
      <trkpt lat="45.819464810192585" lon="7.787411576136947">
        <ele>2796.1300000000001</ele>
        <time>2016-07-17T14:14:40Z</time>
      </trkpt>
      <trkpt lat="45.819456931203604" lon="7.787421718239784">
        <ele>2796.6100000000001</ele>
        <time>2016-07-17T14:15:01Z</time>
      </trkpt>
      <trkpt lat="45.819455254822969" lon="7.787417359650135">
        <ele>2796.6100000000001</ele>
        <time>2016-07-17T14:15:15Z</time>
      </trkpt>
      <trkpt lat="45.819454416632652" lon="7.78743420727551">
        <ele>2796.1300000000001</ele>
        <time>2016-07-17T14:15:31Z</time>
      </trkpt>
      <trkpt lat="45.819461960345507" lon="7.787429429590702">
        <ele>2796.1300000000001</ele>
        <time>2016-07-17T14:15:43Z</time>
      </trkpt>
      <trkpt lat="45.819456428289413" lon="7.787417694926262">
        <ele>2795.6500000000001</ele>
        <time>2016-07-17T14:15:53Z</time>
      </trkpt>
      <trkpt lat="45.819467827677727" lon="7.787430016323924">
        <ele>2795.6500000000001</ele>
        <time>2016-07-17T14:16:10Z</time>
      </trkpt>
      <trkpt lat="45.819474114105105" lon="7.787417946383357">
        <ele>2795.6500000000001</ele>
        <time>2016-07-17T14:16:27Z</time>
      </trkpt>
      <trkpt lat="45.8194709289819" lon="7.78740587644279">
        <ele>2796.1300000000001</ele>
        <time>2016-07-17T14:16:35Z</time>
      </trkpt>
      <trkpt lat="45.81948702223599" lon="7.787376707419753">
        <ele>2796.1300000000001</ele>
        <time>2016-07-17T14:16:44Z</time>
      </trkpt>
      <trkpt lat="45.819490291178226" lon="7.787346029654145">
        <ele>2795.6500000000001</ele>
        <time>2016-07-17T14:16:47Z</time>
      </trkpt>
      <trkpt lat="45.819481490179896" lon="7.787349717691541">
        <ele>2795.6500000000001</ele>
        <time>2016-07-17T14:16:59Z</time>
      </trkpt>
      <trkpt lat="45.819477466866374" lon="7.787392800673842">
        <ele>2795.6500000000001</ele>
        <time>2016-07-17T14:17:10Z</time>
      </trkpt>
      <trkpt lat="45.819474784657359" lon="7.787407552823424">
        <ele>2795.6500000000001</ele>
        <time>2016-07-17T14:17:25Z</time>
      </trkpt>
      <trkpt lat="45.819479478523135" lon="7.787378886714578">
        <ele>2795.6500000000001</ele>
        <time>2016-07-17T14:17:34Z</time>
      </trkpt>
      <trkpt lat="45.819481490179896" lon="7.787347370758653">
        <ele>2795.1700000000001</ele>
        <time>2016-07-17T14:17:44Z</time>
      </trkpt>
      <trkpt lat="45.819461960345507" lon="7.787415683269501">
        <ele>2795.6500000000001</ele>
        <time>2016-07-17T14:17:54Z</time>
      </trkpt>
      <trkpt lat="45.819440586492419" lon="7.787432530894876">
        <ele>2794.21</ele>
        <time>2016-07-17T14:18:02Z</time>
      </trkpt>
      <trkpt lat="45.819444106891751" lon="7.787455329671502">
        <ele>2793.25</ele>
        <time>2016-07-17T14:18:15Z</time>
      </trkpt>
      <trkpt lat="45.819441257044673" lon="7.787433369085193">
        <ele>2792.77</ele>
        <time>2016-07-17T14:18:25Z</time>
      </trkpt>
      <trkpt lat="45.819454835727811" lon="7.787434374913573">
        <ele>2793.25</ele>
        <time>2016-07-17T14:18:41Z</time>
      </trkpt>
      <trkpt lat="45.819463972002268" lon="7.787437727674842">
        <ele>2792.77</ele>
        <time>2016-07-17T14:19:01Z</time>
      </trkpt>
      <trkpt lat="45.819460703060031" lon="7.787438817322254">
        <ele>2792.77</ele>
        <time>2016-07-17T14:19:16Z</time>
      </trkpt>
      <trkpt lat="45.819450560957193" lon="7.787451138719916">
        <ele>2793.25</ele>
        <time>2016-07-17T14:19:29Z</time>
      </trkpt>
      <trkpt lat="45.819453243166208" lon="7.787464465945959">
        <ele>2792.77</ele>
        <time>2016-07-17T14:19:48Z</time>
      </trkpt>
      <trkpt lat="45.819459948688745" lon="7.787448037415743">
        <ele>2793.73</ele>
        <time>2016-07-17T14:19:52Z</time>
      </trkpt>
      <trkpt lat="45.819462379440665" lon="7.787448456510902">
        <ele>2792.29</ele>
        <time>2016-07-17T14:19:54Z</time>
      </trkpt>
      <trkpt lat="45.819473695009947" lon="7.787406714633107">
        <ele>2792.77</ele>
        <time>2016-07-17T14:20:08Z</time>
      </trkpt>
      <trkpt lat="45.819458188489079" lon="7.787417359650135">
        <ele>2792.77</ele>
        <time>2016-07-17T14:20:20Z</time>
      </trkpt>
      <trkpt lat="45.819427510723472" lon="7.787427417933941">
        <ele>2793.73</ele>
        <time>2016-07-17T14:20:30Z</time>
      </trkpt>
      <trkpt lat="45.819406136870384" lon="7.787447953596711">
        <ele>2794.21</ele>
        <time>2016-07-17T14:20:45Z</time>
      </trkpt>
      <trkpt lat="45.819432707503438" lon="7.787468992173672">
        <ele>2793.73</ele>
        <time>2016-07-17T14:20:59Z</time>
      </trkpt>
      <trkpt lat="45.819389875978231" lon="7.787511488422751">
        <ele>2792.29</ele>
        <time>2016-07-17T14:21:08Z</time>
      </trkpt>
      <trkpt lat="45.819370932877064" lon="7.787574268877506">
        <ele>2789.8800000000001</ele>
        <time>2016-07-17T14:21:17Z</time>
      </trkpt>
      <trkpt lat="45.819385433569551" lon="7.787648951634765">
        <ele>2788.4400000000001</ele>
        <time>2016-07-17T14:21:26Z</time>
      </trkpt>
      <trkpt lat="45.819330532103777" lon="7.787697650492191">
        <ele>2786.04</ele>
        <time>2016-07-17T14:21:37Z</time>
      </trkpt>
      <trkpt lat="45.819312175735831" lon="7.787717934697866">
        <ele>2784.1199999999999</ele>
        <time>2016-07-17T14:21:44Z</time>
      </trkpt>
      <trkpt lat="45.819265404716134" lon="7.787684071809053">
        <ele>2781.71</ele>
        <time>2016-07-17T14:21:53Z</time>
      </trkpt>
      <trkpt lat="45.819243444129825" lon="7.787703769281507">
        <ele>2780.27</ele>
        <time>2016-07-17T14:22:01Z</time>
      </trkpt>
      <trkpt lat="45.819213185459375" lon="7.787786079570651">
        <ele>2777.3899999999999</ele>
        <time>2016-07-17T14:22:12Z</time>
      </trkpt>
      <trkpt lat="45.819198936223984" lon="7.78782656416297">
        <ele>2775.9400000000001</ele>
        <time>2016-07-17T14:22:19Z</time>
      </trkpt>
      <trkpt lat="45.819171108305454" lon="7.787878783419728">
        <ele>2773.54</ele>
        <time>2016-07-17T14:22:28Z</time>
      </trkpt>
      <trkpt lat="45.819146130234003" lon="7.787872329354286">
        <ele>2772.0999999999999</ele>
        <time>2016-07-17T14:22:36Z</time>
      </trkpt>
      <trkpt lat="45.819134395569563" lon="7.787914071232081">
        <ele>2770.6599999999999</ele>
        <time>2016-07-17T14:22:44Z</time>
      </trkpt>
      <trkpt lat="45.819118721410632" lon="7.787989508360624">
        <ele>2768.25</ele>
        <time>2016-07-17T14:22:54Z</time>
      </trkpt>
      <trkpt lat="45.819072537124157" lon="7.788034770637751">
        <ele>2766.3299999999999</ele>
        <time>2016-07-17T14:23:03Z</time>
      </trkpt>
      <trkpt lat="45.819044709205627" lon="7.788108866661787">
        <ele>2763.9299999999998</ele>
        <time>2016-07-17T14:23:14Z</time>
      </trkpt>
      <trkpt lat="45.818999530747533" lon="7.788120098412037">
        <ele>2761.52</ele>
        <time>2016-07-17T14:23:23Z</time>
      </trkpt>
      <trkpt lat="45.818988550454378" lon="7.788166534155607">
        <ele>2760.0799999999999</ele>
        <time>2016-07-17T14:23:29Z</time>
      </trkpt>
      <trkpt lat="45.818937923759222" lon="7.788215316832066">
        <ele>2757.1999999999998</ele>
        <time>2016-07-17T14:23:39Z</time>
      </trkpt>
      <trkpt lat="45.818899618461728" lon="7.788288909941912">
        <ele>2754.8000000000002</ele>
        <time>2016-07-17T14:23:49Z</time>
      </trkpt>
      <trkpt lat="45.818858630955219" lon="7.788347667083144">
        <ele>2752.3899999999999</ele>
        <time>2016-07-17T14:23:58Z</time>
      </trkpt>
      <trkpt lat="45.818842956796288" lon="7.788375746458769">
        <ele>2750.9499999999998</ele>
        <time>2016-07-17T14:24:03Z</time>
      </trkpt>
      <trkpt lat="45.81880004145205" lon="7.788369543850422">
        <ele>2749.0300000000002</ele>
        <time>2016-07-17T14:24:10Z</time>
      </trkpt>
      <trkpt lat="45.818787552416325" lon="7.788386223837733">
        <ele>2747.5900000000001</ele>
        <time>2016-07-17T14:24:15Z</time>
      </trkpt>
      <trkpt lat="45.818750923499465" lon="7.788425451144576">
        <ele>2745.6599999999999</ele>
        <time>2016-07-17T14:24:24Z</time>
      </trkpt>
      <trkpt lat="45.81873650662601" lon="7.788488734513521">
        <ele>2743.7399999999998</ele>
        <time>2016-07-17T14:24:31Z</time>
      </trkpt>
      <trkpt lat="45.818666517734528" lon="7.788575068116188">
        <ele>2740.8600000000001</ele>
        <time>2016-07-17T14:24:43Z</time>
      </trkpt>
      <trkpt lat="45.818607090041041" lon="7.788624940440059">
        <ele>2737.9699999999998</ele>
        <time>2016-07-17T14:24:55Z</time>
      </trkpt>
      <trkpt lat="45.818556882441044" lon="7.788693923503161">
        <ele>2734.6100000000001</ele>
        <time>2016-07-17T14:25:06Z</time>
      </trkpt>
      <trkpt lat="45.818503489717841" lon="7.788759302347899">
        <ele>2731.2399999999998</ele>
        <time>2016-07-17T14:25:17Z</time>
      </trkpt>
      <trkpt lat="45.818435596302152" lon="7.788816718384624">
        <ele>2728.3600000000001</ele>
        <time>2016-07-17T14:25:28Z</time>
      </trkpt>
      <trkpt lat="45.818401565775275" lon="7.788908164948225">
        <ele>2725.96</ele>
        <time>2016-07-17T14:25:40Z</time>
      </trkpt>
      <trkpt lat="45.818345071747899" lon="7.788906656205654">
        <ele>2723.5500000000002</ele>
        <time>2016-07-17T14:25:49Z</time>
      </trkpt>
      <trkpt lat="45.81831724382937" lon="7.788956025615335">
        <ele>2721.6300000000001</ele>
        <time>2016-07-17T14:25:58Z</time>
      </trkpt>
      <trkpt lat="45.818266784772277" lon="7.789004640653729">
        <ele>2718.75</ele>
        <time>2016-07-17T14:26:08Z</time>
      </trkpt>
      <trkpt lat="45.818214733153582" lon="7.789057865738869">
        <ele>2715.3800000000001</ele>
        <time>2016-07-17T14:26:18Z</time>
      </trkpt>
      <trkpt lat="45.81818824633956" lon="7.78914637863636">
        <ele>2712.5</ele>
        <time>2016-07-17T14:26:27Z</time>
      </trkpt>
      <trkpt lat="45.81812328658998" lon="7.78919130563736">
        <ele>2710.0900000000001</ele>
        <time>2016-07-17T14:26:36Z</time>
      </trkpt>
      <trkpt lat="45.818109959363937" lon="7.789217624813318">
        <ele>2708.1700000000001</ele>
        <time>2016-07-17T14:26:44Z</time>
      </trkpt>
      <trkpt lat="45.818091602995992" lon="7.789264898747206">
        <ele>2706.25</ele>
        <time>2016-07-17T14:26:52Z</time>
      </trkpt>
      <trkpt lat="45.818062433972955" lon="7.789249811321497">
        <ele>2704.8099999999999</ele>
        <time>2016-07-17T14:27:00Z</time>
      </trkpt>
      <trkpt lat="45.818044999614358" lon="7.789295325055718">
        <ele>2702.8800000000001</ele>
        <time>2016-07-17T14:27:08Z</time>
      </trkpt>
      <trkpt lat="45.818013483658433" lon="7.789305802434683">
        <ele>2701.4400000000001</ele>
        <time>2016-07-17T14:27:17Z</time>
      </trkpt>
      <trkpt lat="45.817986158654094" lon="7.789321728050709">
        <ele>2699.52</ele>
        <time>2016-07-17T14:27:26Z</time>
      </trkpt>
      <trkpt lat="45.817962102591991" lon="7.789399093016982">
        <ele>2697.1199999999999</ele>
        <time>2016-07-17T14:27:35Z</time>
      </trkpt>
      <trkpt lat="45.817923629656434" lon="7.789449384436011">
        <ele>2694.71</ele>
        <time>2016-07-17T14:27:44Z</time>
      </trkpt>
      <trkpt lat="45.817886162549257" lon="7.78950453735888">
        <ele>2692.79</ele>
        <time>2016-07-17T14:27:54Z</time>
      </trkpt>
      <trkpt lat="45.817826734855771" lon="7.789526833221316">
        <ele>2689.9099999999999</ele>
        <time>2016-07-17T14:28:02Z</time>
      </trkpt>
      <trkpt lat="45.817785328254104" lon="7.789535382762551">
        <ele>2687.98</ele>
        <time>2016-07-17T14:28:09Z</time>
      </trkpt>
      <trkpt lat="45.817721541970968" lon="7.789517948403955">
        <ele>2685.0999999999999</ele>
        <time>2016-07-17T14:28:20Z</time>
      </trkpt>
      <trkpt lat="45.817709052935243" lon="7.789469249546528">
        <ele>2683.1799999999998</ele>
        <time>2016-07-17T14:28:25Z</time>
      </trkpt>
      <trkpt lat="45.817662365734577" lon="7.789490707218647">
        <ele>2681.25</ele>
        <time>2016-07-17T14:28:32Z</time>
      </trkpt>
      <trkpt lat="45.817613247781992" lon="7.78953387401998">
        <ele>2677.8899999999999</ele>
        <time>2016-07-17T14:28:43Z</time>
      </trkpt>
      <trkpt lat="45.817548790946603" lon="7.78953823260963">
        <ele>2675.4899999999998</ele>
        <time>2016-07-17T14:28:53Z</time>
      </trkpt>
      <trkpt lat="45.817483244463801" lon="7.789570586755872">
        <ele>2672.5999999999999</ele>
        <time>2016-07-17T14:29:04Z</time>
      </trkpt>
      <trkpt lat="45.817452482879162" lon="7.789587937295437">
        <ele>2670.6799999999998</ele>
        <time>2016-07-17T14:29:09Z</time>
      </trkpt>
      <trkpt lat="45.817436221987009" lon="7.789577627554536">
        <ele>2669.2399999999998</ele>
        <time>2016-07-17T14:29:13Z</time>
      </trkpt>
      <trkpt lat="45.817400934174657" lon="7.78951283544302">
        <ele>2668.2800000000002</ele>
        <time>2016-07-17T14:29:20Z</time>
      </trkpt>
      <trkpt lat="45.817330526188016" lon="7.789599923416972">
        <ele>2664.9099999999999</ele>
        <time>2016-07-17T14:29:32Z</time>
      </trkpt>
      <trkpt lat="45.817307056859136" lon="7.7896882686764">
        <ele>2662.5100000000002</ele>
        <time>2016-07-17T14:29:42Z</time>
      </trkpt>
      <trkpt lat="45.817222902551293" lon="7.789770914241672">
        <ele>2659.1399999999999</ele>
        <time>2016-07-17T14:29:53Z</time>
      </trkpt>
      <trkpt lat="45.81718903966248" lon="7.789883147925139">
        <ele>2656.2600000000002</ele>
        <time>2016-07-17T14:30:05Z</time>
      </trkpt>
      <trkpt lat="45.817183926701546" lon="7.789888260886073">
        <ele>2655.7800000000002</ele>
        <time>2016-07-17T14:30:06Z</time>
      </trkpt>
      <trkpt lat="45.817163977771997" lon="7.789921620860696">
        <ele>2654.3400000000001</ele>
        <time>2016-07-17T14:30:09Z</time>
      </trkpt>
      <trkpt lat="45.817155679687858" lon="7.789965542033315">
        <ele>2654.3400000000001</ele>
        <time>2016-07-17T14:30:13Z</time>
      </trkpt>
      <trkpt lat="45.817123241722584" lon="7.789992280304432">
        <ele>2652.9000000000001</ele>
        <time>2016-07-17T14:30:17Z</time>
      </trkpt>
      <trkpt lat="45.817029699683189" lon="7.790033603087068">
        <ele>2650.4899999999998</ele>
        <time>2016-07-17T14:30:30Z</time>
      </trkpt>
      <trkpt lat="45.817011427134275" lon="7.790067130699754">
        <ele>2649.5300000000002</ele>
        <time>2016-07-17T14:30:33Z</time>
      </trkpt>
      <trkpt lat="45.816902797669172" lon="7.790160086005926">
        <ele>2646.1700000000001</ele>
        <time>2016-07-17T14:30:46Z</time>
      </trkpt>
      <trkpt lat="45.816862983629107" lon="7.790222195908427">
        <ele>2645.21</ele>
        <time>2016-07-17T14:30:53Z</time>
      </trkpt>
      <trkpt lat="45.816802214831114" lon="7.790329400449991">
        <ele>2643.2800000000002</ele>
        <time>2016-07-17T14:31:04Z</time>
      </trkpt>
      <trkpt lat="45.816758461296558" lon="7.79038798995316">
        <ele>2641.8400000000001</ele>
        <time>2016-07-17T14:31:11Z</time>
      </trkpt>
      <trkpt lat="45.816740524023771" lon="7.79043534770608">
        <ele>2641.3600000000001</ele>
        <time>2016-07-17T14:31:15Z</time>
      </trkpt>
      <trkpt lat="45.816701799631119" lon="7.790501061826944">
        <ele>2639.9200000000001</ele>
        <time>2016-07-17T14:31:22Z</time>
      </trkpt>
      <trkpt lat="45.816659806296229" lon="7.790589323267341">
        <ele>2637.9899999999998</ele>
        <time>2016-07-17T14:31:31Z</time>
      </trkpt>
      <trkpt lat="45.81662074662745" lon="7.790643554180861">
        <ele>2636.5500000000002</ele>
        <time>2016-07-17T14:31:37Z</time>
      </trkpt>
      <trkpt lat="45.816592080518603" lon="7.790677165612578">
        <ele>2635.5900000000001</ele>
        <time>2016-07-17T14:31:43Z</time>
      </trkpt>
      <trkpt lat="45.816551595926285" lon="7.790705412626267">
        <ele>2634.1500000000001</ele>
        <time>2016-07-17T14:31:48Z</time>
      </trkpt>
      <trkpt lat="45.816464005038142" lon="7.790764002129436">
        <ele>2631.75</ele>
        <time>2016-07-17T14:31:59Z</time>
      </trkpt>
      <trkpt lat="45.816429639235139" lon="7.790783867239952">
        <ele>2631.27</ele>
        <time>2016-07-17T14:32:03Z</time>
      </trkpt>
      <trkpt lat="45.816367026418447" lon="7.790787220001221">
        <ele>2629.3400000000001</ele>
        <time>2016-07-17T14:32:09Z</time>
      </trkpt>
      <trkpt lat="45.816271221265197" lon="7.790886461734772">
        <ele>2626.46</ele>
        <time>2016-07-17T14:32:21Z</time>
      </trkpt>
      <trkpt lat="45.816212799400091" lon="7.790948152542114">
        <ele>2624.0599999999999</ele>
        <time>2016-07-17T14:32:29Z</time>
      </trkpt>
      <trkpt lat="45.816113641485572" lon="7.79101780615747">
        <ele>2622.6100000000001</ele>
        <time>2016-07-17T14:32:40Z</time>
      </trkpt>
      <trkpt lat="45.816066032275558" lon="7.791023505851626">
        <ele>2622.6100000000001</ele>
        <time>2016-07-17T14:32:44Z</time>
      </trkpt>
      <trkpt lat="45.816046083346009" lon="7.791109420359135">
        <ele>2618.77</ele>
        <time>2016-07-17T14:32:50Z</time>
      </trkpt>
      <trkpt lat="45.815992103889585" lon="7.791253589093685">
        <ele>2616.3699999999999</ele>
        <time>2016-07-17T14:33:02Z</time>
      </trkpt>
      <trkpt lat="45.815985901281238" lon="7.791266078129411">
        <ele>2616.3699999999999</ele>
        <time>2016-07-17T14:33:03Z</time>
      </trkpt>
      <trkpt lat="45.815924964845181" lon="7.791392980143428">
        <ele>2615.4000000000001</ele>
        <time>2016-07-17T14:33:15Z</time>
      </trkpt>
      <trkpt lat="45.815885066986084" lon="7.791457017883658">
        <ele>2613</ele>
        <time>2016-07-17T14:33:21Z</time>
      </trkpt>
      <trkpt lat="45.815793704241514" lon="7.791596995666623">
        <ele>2610.5999999999999</ele>
        <time>2016-07-17T14:33:34Z</time>
      </trkpt>
      <trkpt lat="45.815758584067225" lon="7.791734039783478">
        <ele>2608.6700000000001</ele>
        <time>2016-07-17T14:33:44Z</time>
      </trkpt>
      <trkpt lat="45.815754560753703" lon="7.791783409193158">
        <ele>2607.71</ele>
        <time>2016-07-17T14:33:48Z</time>
      </trkpt>
      <trkpt lat="45.815741568803787" lon="7.791975857689977">
        <ele>2604.8299999999999</ele>
        <time>2016-07-17T14:34:01Z</time>
      </trkpt>
      <trkpt lat="45.81570066511631" lon="7.792146597057581">
        <ele>2601.9499999999998</ele>
        <time>2016-07-17T14:34:13Z</time>
      </trkpt>
      <trkpt lat="45.815646182745695" lon="7.792255477979779">
        <ele>2600.5</ele>
        <time>2016-07-17T14:34:21Z</time>
      </trkpt>
      <trkpt lat="45.815621791407466" lon="7.792288083583117">
        <ele>2598.5799999999999</ele>
        <time>2016-07-17T14:34:24Z</time>
      </trkpt>
      <trkpt lat="45.815557334572077" lon="7.792400987818837">
        <ele>2597.1399999999999</ele>
        <time>2016-07-17T14:34:35Z</time>
      </trkpt>
      <trkpt lat="45.815517101436853" lon="7.792456559836865">
        <ele>2596.1799999999998</ele>
        <time>2016-07-17T14:34:41Z</time>
      </trkpt>
      <trkpt lat="45.815478209406137" lon="7.792490338906646">
        <ele>2594.7399999999998</ele>
        <time>2016-07-17T14:34:46Z</time>
      </trkpt>
      <trkpt lat="45.815453818067908" lon="7.792542390525341">
        <ele>2593.29</ele>
        <time>2016-07-17T14:34:51Z</time>
      </trkpt>
      <trkpt lat="45.815421799197793" lon="7.792726708576083">
        <ele>2590.4099999999999</ele>
        <time>2016-07-17T14:35:04Z</time>
      </trkpt>
      <trkpt lat="45.815346110612154" lon="7.792824106290937">
        <ele>2587.5300000000002</ele>
        <time>2016-07-17T14:35:14Z</time>
      </trkpt>
      <trkpt lat="45.815265057608485" lon="7.792826620861888">
        <ele>2586.0799999999999</ele>
        <time>2016-07-17T14:35:22Z</time>
      </trkpt>
      <trkpt lat="45.815219124779105" lon="7.792878169566393">
        <ele>2583.1999999999998</ele>
        <time>2016-07-17T14:35:33Z</time>
      </trkpt>
      <trkpt lat="45.815207725390792" lon="7.792929382994771">
        <ele>2581.7600000000002</ele>
        <time>2016-07-17T14:35:38Z</time>
      </trkpt>
      <trkpt lat="45.815126169472933" lon="7.793069612234831">
        <ele>2577.9099999999999</ele>
        <time>2016-07-17T14:35:52Z</time>
      </trkpt>
      <trkpt lat="45.815114686265588" lon="7.793122250586748">
        <ele>2576.4699999999998</ele>
        <time>2016-07-17T14:35:58Z</time>
      </trkpt>
      <trkpt lat="45.815036483108997" lon="7.793148569762707">
        <ele>2573.5900000000001</ele>
        <time>2016-07-17T14:36:07Z</time>
      </trkpt>
      <trkpt lat="45.815013097599149" lon="7.793187126517296">
        <ele>2572.1399999999999</ele>
        <time>2016-07-17T14:36:13Z</time>
      </trkpt>
      <trkpt lat="45.814993651583791" lon="7.793279495090246">
        <ele>2569.2600000000002</ele>
        <time>2016-07-17T14:36:23Z</time>
      </trkpt>
      <trkpt lat="45.814979234710336" lon="7.793307909741998">
        <ele>2567.8200000000002</ele>
        <time>2016-07-17T14:36:26Z</time>
      </trkpt>
      <trkpt lat="45.815026424825191" lon="7.793381921947002">
        <ele>2564.9299999999998</ele>
        <time>2016-07-17T14:36:36Z</time>
      </trkpt>
      <trkpt lat="45.815039416775107" lon="7.793470518663526">
        <ele>2562.0500000000002</ele>
        <time>2016-07-17T14:36:46Z</time>
      </trkpt>
      <trkpt lat="45.814989125356078" lon="7.79348879121244">
        <ele>2560.6100000000001</ele>
        <time>2016-07-17T14:36:54Z</time>
      </trkpt>
      <trkpt lat="45.815009409561753" lon="7.793545704334974">
        <ele>2559.1700000000001</ele>
        <time>2016-07-17T14:37:01Z</time>
      </trkpt>
      <trkpt lat="45.814984515309334" lon="7.79355769045651">
        <ele>2558.21</ele>
        <time>2016-07-17T14:37:04Z</time>
      </trkpt>
      <trkpt lat="45.814946796745062" lon="7.793588368222117">
        <ele>2554.8400000000001</ele>
        <time>2016-07-17T14:37:14Z</time>
      </trkpt>
      <trkpt lat="45.814914358779788" lon="7.793626002967358">
        <ele>2552.4400000000001</ele>
        <time>2016-07-17T14:37:23Z</time>
      </trkpt>
      <trkpt lat="45.814920393750072" lon="7.793647795915604">
        <ele>2551.48</ele>
        <time>2016-07-17T14:37:25Z</time>
      </trkpt>
      <trkpt lat="45.814887117594481" lon="7.793694986030459">
        <ele>2549.5500000000002</ele>
        <time>2016-07-17T14:37:35Z</time>
      </trkpt>
      <trkpt lat="45.814853422343731" lon="7.793672271072865">
        <ele>2547.6300000000001</ele>
        <time>2016-07-17T14:37:40Z</time>
      </trkpt>
      <trkpt lat="45.814720233902335" lon="7.793621309101582">
        <ele>2545.23</ele>
        <time>2016-07-17T14:37:52Z</time>
      </trkpt>
      <trkpt lat="45.81470875069499" lon="7.793622734025121">
        <ele>2545.23</ele>
        <time>2016-07-17T14:37:53Z</time>
      </trkpt>
      <trkpt lat="45.814691903069615" lon="7.793637318536639">
        <ele>2544.75</ele>
        <time>2016-07-17T14:37:55Z</time>
      </trkpt>
      <trkpt lat="45.814673211425543" lon="7.793666403740645">
        <ele>2543.79</ele>
        <time>2016-07-17T14:37:59Z</time>
      </trkpt>
      <trkpt lat="45.814631972461939" lon="7.793669085949659">
        <ele>2542.8200000000002</ele>
        <time>2016-07-17T14:38:03Z</time>
      </trkpt>
      <trkpt lat="45.814536921679974" lon="7.79370772652328">
        <ele>2542.3400000000001</ele>
        <time>2016-07-17T14:38:12Z</time>
      </trkpt>
      <trkpt lat="45.814477829262614" lon="7.79373069293797">
        <ele>2541.3800000000001</ele>
        <time>2016-07-17T14:38:17Z</time>
      </trkpt>
      <trkpt lat="45.814414126798511" lon="7.79376832768321">
        <ele>2540.9000000000001</ele>
        <time>2016-07-17T14:38:23Z</time>
      </trkpt>
      <trkpt lat="45.814383868128061" lon="7.793816858902574">
        <ele>2540.4200000000001</ele>
        <time>2016-07-17T14:38:27Z</time>
      </trkpt>
      <trkpt lat="45.814244979992509" lon="7.793904449790716">
        <ele>2538.5</ele>
        <time>2016-07-17T14:38:41Z</time>
      </trkpt>
      <trkpt lat="45.814235173165798" lon="7.793910065665841">
        <ele>2538.02</ele>
        <time>2016-07-17T14:38:42Z</time>
      </trkpt>
      <trkpt lat="45.814097207039595" lon="7.793972510844469">
        <ele>2535.6100000000001</ele>
        <time>2016-07-17T14:38:55Z</time>
      </trkpt>
      <trkpt lat="45.813957648351789" lon="7.793963961303234">
        <ele>2533.21</ele>
        <time>2016-07-17T14:39:08Z</time>
      </trkpt>
      <trkpt lat="45.813875421881676" lon="7.793914256617427">
        <ele>2531.29</ele>
        <time>2016-07-17T14:39:17Z</time>
      </trkpt>
      <trkpt lat="45.81385706551373" lon="7.793920040130615">
        <ele>2530.8099999999999</ele>
        <time>2016-07-17T14:39:20Z</time>
      </trkpt>
      <trkpt lat="45.813773330301046" lon="7.793927835300565">
        <ele>2528.4000000000001</ele>
        <time>2016-07-17T14:39:29Z</time>
      </trkpt>
      <trkpt lat="45.813737288117409" lon="7.793911993503571">
        <ele>2526.48</ele>
        <time>2016-07-17T14:39:38Z</time>
      </trkpt>
      <trkpt lat="45.813690517097712" lon="7.793946862220764">
        <ele>2523.5999999999999</ele>
        <time>2016-07-17T14:39:48Z</time>
      </trkpt>
      <trkpt lat="45.813669478520751" lon="7.793942335993052">
        <ele>2523.1199999999999</ele>
        <time>2016-07-17T14:39:50Z</time>
      </trkpt>
      <trkpt lat="45.813549617305398" lon="7.793945772573352">
        <ele>2519.75</ele>
        <time>2016-07-17T14:40:02Z</time>
      </trkpt>
      <trkpt lat="45.813473593443632" lon="7.793992124497891">
        <ele>2518.3099999999999</ele>
        <time>2016-07-17T14:40:10Z</time>
      </trkpt>
      <trkpt lat="45.813378961756825" lon="7.793966894969344">
        <ele>2516.3899999999999</ele>
        <time>2016-07-17T14:40:20Z</time>
      </trkpt>
      <trkpt lat="45.813358845189214" lon="7.793972846120596">
        <ele>2515.9099999999999</ele>
        <time>2016-07-17T14:40:22Z</time>
      </trkpt>
      <trkpt lat="45.813302602618933" lon="7.793993214145303">
        <ele>2514.9499999999998</ele>
        <time>2016-07-17T14:40:28Z</time>
      </trkpt>
      <trkpt lat="45.813196823000908" lon="7.79408298432827">
        <ele>2511.0999999999999</ele>
        <time>2016-07-17T14:40:41Z</time>
      </trkpt>
      <trkpt lat="45.813106717541814" lon="7.794154901057482">
        <ele>2510.1399999999999</ele>
        <time>2016-07-17T14:40:50Z</time>
      </trkpt>
      <trkpt lat="45.813058940693736" lon="7.794199157506228">
        <ele>2509.1799999999998</ele>
        <time>2016-07-17T14:40:55Z</time>
      </trkpt>
      <trkpt lat="45.812960956245661" lon="7.794325556606054">
        <ele>2507.2600000000002</ele>
        <time>2016-07-17T14:41:07Z</time>
      </trkpt>
      <trkpt lat="45.812931535765529" lon="7.794366208836436">
        <ele>2506.77</ele>
        <time>2016-07-17T14:41:11Z</time>
      </trkpt>
      <trkpt lat="45.812845705077052" lon="7.794548263773322">
        <ele>2504.3699999999999</ele>
        <time>2016-07-17T14:41:24Z</time>
      </trkpt>
      <trkpt lat="45.812785690650344" lon="7.794708274304867">
        <ele>2502.9299999999998</ele>
        <time>2016-07-17T14:41:36Z</time>
      </trkpt>
      <trkpt lat="45.812730202451348" lon="7.794881192967296">
        <ele>2501.0100000000002</ele>
        <time>2016-07-17T14:41:48Z</time>
      </trkpt>
      <trkpt lat="45.812657363712788" lon="7.795070121064782">
        <ele>2499.0799999999999</ele>
        <time>2016-07-17T14:42:01Z</time>
      </trkpt>
      <trkpt lat="45.812652418389916" lon="7.795150419697166">
        <ele>2498.5999999999999</ele>
        <time>2016-07-17T14:42:06Z</time>
      </trkpt>
      <trkpt lat="45.81264085136354" lon="7.795178079977632">
        <ele>2496.6799999999998</ele>
        <time>2016-07-17T14:42:08Z</time>
      </trkpt>
      <trkpt lat="45.81263305619359" lon="7.795193586498499">
        <ele>2496.6799999999998</ele>
        <time>2016-07-17T14:42:09Z</time>
      </trkpt>
      <trkpt lat="45.812615035101771" lon="7.795240273699164">
        <ele>2496.6799999999998</ele>
        <time>2016-07-17T14:42:12Z</time>
      </trkpt>
      <trkpt lat="45.812611179426312" lon="7.795277070254087">
        <ele>2496.6799999999998</ele>
        <time>2016-07-17T14:42:14Z</time>
      </trkpt>
      <trkpt lat="45.8125617261976" lon="7.795458370819688">
        <ele>2497.1599999999999</ele>
        <time>2016-07-17T14:42:25Z</time>
      </trkpt>
      <trkpt lat="45.812574550509453" lon="7.795625003054738">
        <ele>2493.8000000000002</ele>
        <time>2016-07-17T14:42:36Z</time>
      </trkpt>
      <trkpt lat="45.812579831108451" lon="7.79565685428679">
        <ele>2492.8400000000001</ele>
        <time>2016-07-17T14:42:38Z</time>
      </trkpt>
      <trkpt lat="45.812581591308117" lon="7.795715611428022">
        <ele>2491.3899999999999</ele>
        <time>2016-07-17T14:42:42Z</time>
      </trkpt>
      <trkpt lat="45.812587039545178" lon="7.79573799110949">
        <ele>2491.3899999999999</ele>
        <time>2016-07-17T14:42:44Z</time>
      </trkpt>
      <trkpt lat="45.812560133635998" lon="7.795798508450389">
        <ele>2491.3899999999999</ele>
        <time>2016-07-17T14:42:48Z</time>
      </trkpt>
      <trkpt lat="45.812584944069386" lon="7.795926751568914">
        <ele>2488.5100000000002</ele>
        <time>2016-07-17T14:42:59Z</time>
      </trkpt>
      <trkpt lat="45.812588296830654" lon="7.795938067138195">
        <ele>2488.5100000000002</ele>
        <time>2016-07-17T14:43:00Z</time>
      </trkpt>
      <trkpt lat="45.812518643215299" lon="7.796012163162231">
        <ele>2485.6300000000001</ele>
        <time>2016-07-17T14:43:10Z</time>
      </trkpt>
      <trkpt lat="45.812518559396267" lon="7.79603311792016">
        <ele>2484.6599999999999</ele>
        <time>2016-07-17T14:43:12Z</time>
      </trkpt>
      <trkpt lat="45.812543788924813" lon="7.796122133731842">
        <ele>2482.2600000000002</ele>
        <time>2016-07-17T14:43:23Z</time>
      </trkpt>
      <trkpt lat="45.812533898279071" lon="7.796229673549533">
        <ele>2479.8600000000001</ele>
        <time>2016-07-17T14:43:32Z</time>
      </trkpt>
      <trkpt lat="45.812562648206949" lon="7.796272840350866">
        <ele>2478.4200000000001</ele>
        <time>2016-07-17T14:43:38Z</time>
      </trkpt>
      <trkpt lat="45.812612436711788" lon="7.79636537656188">
        <ele>2477.4499999999998</ele>
        <time>2016-07-17T14:43:46Z</time>
      </trkpt>
      <trkpt lat="45.812588715925813" lon="7.7965197712183">
        <ele>2475.0500000000002</ele>
        <time>2016-07-17T14:43:57Z</time>
      </trkpt>
      <trkpt lat="45.81260715611279" lon="7.796683302149177">
        <ele>2474.0900000000001</ele>
        <time>2016-07-17T14:44:08Z</time>
      </trkpt>
      <trkpt lat="45.812640683725476" lon="7.796782627701759">
        <ele>2470.73</ele>
        <time>2016-07-17T14:44:17Z</time>
      </trkpt>
      <trkpt lat="45.812624925747514" lon="7.796811629086733">
        <ele>2470.2399999999998</ele>
        <time>2016-07-17T14:44:21Z</time>
      </trkpt>
      <trkpt lat="45.812539346516132" lon="7.796908859163523">
        <ele>2467.3600000000001</ele>
        <time>2016-07-17T14:44:33Z</time>
      </trkpt>
      <trkpt lat="45.812494335696101" lon="7.797003239393234">
        <ele>2464.48</ele>
        <time>2016-07-17T14:44:43Z</time>
      </trkpt>
      <trkpt lat="45.812471704557538" lon="7.797047160565853">
        <ele>2463.52</ele>
        <time>2016-07-17T14:44:47Z</time>
      </trkpt>
      <trkpt lat="45.812428537756205" lon="7.797088483348489">
        <ele>2462.5500000000002</ele>
        <time>2016-07-17T14:44:52Z</time>
      </trkpt>
      <trkpt lat="45.812363661825657" lon="7.797220246866345">
        <ele>2459.1900000000001</ele>
        <time>2016-07-17T14:45:04Z</time>
      </trkpt>
      <trkpt lat="45.812333486974239" lon="7.797357877716422">
        <ele>2456.3099999999999</ele>
        <time>2016-07-17T14:45:15Z</time>
      </trkpt>
      <trkpt lat="45.812355447560549" lon="7.797401882708073">
        <ele>2454.3800000000001</ele>
        <time>2016-07-17T14:45:21Z</time>
      </trkpt>
      <trkpt lat="45.812383191660047" lon="7.797410096973181">
        <ele>2453.9000000000001</ele>
        <time>2016-07-17T14:45:24Z</time>
      </trkpt>
      <trkpt lat="45.812401045113802" lon="7.79746868647635">
        <ele>2453.4200000000001</ele>
        <time>2016-07-17T14:45:28Z</time>
      </trkpt>
      <trkpt lat="45.812333151698112" lon="7.797591229900718">
        <ele>2450.54</ele>
        <time>2016-07-17T14:45:39Z</time>
      </trkpt>
      <trkpt lat="45.812343126162887" lon="7.797593073919416">
        <ele>2450.54</ele>
        <time>2016-07-17T14:45:40Z</time>
      </trkpt>
      <trkpt lat="45.812370115891099" lon="7.797602964565158">
        <ele>2449.5799999999999</ele>
        <time>2016-07-17T14:45:43Z</time>
      </trkpt>
      <trkpt lat="45.81241118721664" lon="7.797652082517743">
        <ele>2448.1300000000001</ele>
        <time>2016-07-17T14:45:49Z</time>
      </trkpt>
      <trkpt lat="45.81243272870779" lon="7.79768074862659">
        <ele>2447.6500000000001</ele>
        <time>2016-07-17T14:45:52Z</time>
      </trkpt>
      <trkpt lat="45.812391489744186" lon="7.797766411677003">
        <ele>2445.73</ele>
        <time>2016-07-17T14:45:59Z</time>
      </trkpt>
      <trkpt lat="45.812421245500445" lon="7.797766579315066">
        <ele>2445.73</ele>
        <time>2016-07-17T14:46:02Z</time>
      </trkpt>
      <trkpt lat="45.812493413686752" lon="7.797782337293029">
        <ele>2443.8099999999999</ele>
        <time>2016-07-17T14:46:11Z</time>
      </trkpt>
      <trkpt lat="45.812447648495436" lon="7.797840675339103">
        <ele>2441.8899999999999</ele>
        <time>2016-07-17T14:46:17Z</time>
      </trkpt>
      <trkpt lat="45.81238872371614" lon="7.797892140224576">
        <ele>2441.4099999999999</ele>
        <time>2016-07-17T14:46:23Z</time>
      </trkpt>
      <trkpt lat="45.812349496409297" lon="7.798069920390844">
        <ele>2441.8899999999999</ele>
        <time>2016-07-17T14:46:36Z</time>
      </trkpt>
      <trkpt lat="45.812299959361553" lon="7.798238061368465">
        <ele>2440.9200000000001</ele>
        <time>2016-07-17T14:46:47Z</time>
      </trkpt>
      <trkpt lat="45.812186803668737" lon="7.798392539843917">
        <ele>2440.4400000000001</ele>
        <time>2016-07-17T14:47:00Z</time>
      </trkpt>
      <trkpt lat="45.81215369515121" lon="7.798440400511026">
        <ele>2438.04</ele>
        <time>2016-07-17T14:47:04Z</time>
      </trkpt>
      <trkpt lat="45.812068870291114" lon="7.798520028591156">
        <ele>2438.52</ele>
        <time>2016-07-17T14:47:13Z</time>
      </trkpt>
      <trkpt lat="45.811996534466743" lon="7.798556070774794">
        <ele>2437.5599999999999</ele>
        <time>2016-07-17T14:47:19Z</time>
      </trkpt>
      <trkpt lat="45.811937777325511" lon="7.798587754368782">
        <ele>2437.0799999999999</ele>
        <time>2016-07-17T14:47:24Z</time>
      </trkpt>
      <trkpt lat="45.811869632452726" lon="7.798526231199503">
        <ele>2436.1199999999999</ele>
        <time>2016-07-17T14:47:31Z</time>
      </trkpt>
      <trkpt lat="45.811787489801645" lon="7.79851290397346">
        <ele>2435.1599999999999</ele>
        <time>2016-07-17T14:47:39Z</time>
      </trkpt>
      <trkpt lat="45.811734767630696" lon="7.79853193089366">
        <ele>2433.71</ele>
        <time>2016-07-17T14:47:44Z</time>
      </trkpt>
      <trkpt lat="45.811668466776609" lon="7.798520447686315">
        <ele>2432.27</ele>
        <time>2016-07-17T14:47:50Z</time>
      </trkpt>
      <trkpt lat="45.811616918072104" lon="7.798492200672627">
        <ele>2431.3099999999999</ele>
        <time>2016-07-17T14:47:55Z</time>
      </trkpt>
      <trkpt lat="45.8115688059479" lon="7.798498403280973">
        <ele>2430.8299999999999</ele>
        <time>2016-07-17T14:47:59Z</time>
      </trkpt>
      <trkpt lat="45.811496302485466" lon="7.798424139618874">
        <ele>2429.8699999999999</ele>
        <time>2016-07-17T14:48:08Z</time>
      </trkpt>
      <trkpt lat="45.811478700488806" lon="7.798383571207523">
        <ele>2429.8699999999999</ele>
        <time>2016-07-17T14:48:13Z</time>
      </trkpt>
      <trkpt lat="45.811418015509844" lon="7.798268739134073">
        <ele>2428.9099999999999</ele>
        <time>2016-07-17T14:48:23Z</time>
      </trkpt>
      <trkpt lat="45.811340818181634" lon="7.79818207025528">
        <ele>2428.4299999999998</ele>
        <time>2016-07-17T14:48:32Z</time>
      </trkpt>
      <trkpt lat="45.811304524540901" lon="7.798164049163461">
        <ele>2427.9499999999998</ele>
        <time>2016-07-17T14:48:37Z</time>
      </trkpt>
      <trkpt lat="45.811185585334897" lon="7.798106968402863">
        <ele>2426.5</ele>
        <time>2016-07-17T14:48:49Z</time>
      </trkpt>
      <trkpt lat="45.811154572293162" lon="7.798088109120727">
        <ele>2426.02</ele>
        <time>2016-07-17T14:48:52Z</time>
      </trkpt>
      <trkpt lat="45.811035465449095" lon="7.798016611486673">
        <ele>2424.0999999999999</ele>
        <time>2016-07-17T14:49:04Z</time>
      </trkpt>
      <trkpt lat="45.8109091501683" lon="7.798069082200527">
        <ele>2421.6999999999998</ele>
        <time>2016-07-17T14:49:17Z</time>
      </trkpt>
      <trkpt lat="45.81087788566947" lon="7.798093557357788">
        <ele>2421.2199999999998</ele>
        <time>2016-07-17T14:49:21Z</time>
      </trkpt>
      <trkpt lat="45.81076992675662" lon="7.798177963122726">
        <ele>2418.3299999999999</ele>
        <time>2016-07-17T14:49:33Z</time>
      </trkpt>
      <trkpt lat="45.810681749135256" lon="7.798249293118715">
        <ele>2416.4099999999999</ele>
        <time>2016-07-17T14:49:43Z</time>
      </trkpt>
      <trkpt lat="45.810645120218396" lon="7.798284497112036">
        <ele>2415.4499999999998</ele>
        <time>2016-07-17T14:49:48Z</time>
      </trkpt>
      <trkpt lat="45.810619806870818" lon="7.798345182090998">
        <ele>2414.0100000000002</ele>
        <time>2016-07-17T14:49:53Z</time>
      </trkpt>
      <trkpt lat="45.810599103569984" lon="7.798360856249929">
        <ele>2413.5300000000002</ele>
        <time>2016-07-17T14:49:55Z</time>
      </trkpt>
      <trkpt lat="45.810547638684511" lon="7.798383319750428">
        <ele>2412.5700000000002</ele>
        <time>2016-07-17T14:50:06Z</time>
      </trkpt>
      <trkpt lat="45.810555350035429" lon="7.798366136848927">
        <ele>2412.0900000000001</ele>
        <time>2016-07-17T14:50:20Z</time>
      </trkpt>
      <trkpt lat="45.810547890141606" lon="7.798383068293333">
        <ele>2411.5999999999999</ele>
        <time>2016-07-17T14:50:40Z</time>
      </trkpt>
      <trkpt lat="45.810534646734595" lon="7.798387762159109">
        <ele>2411.5999999999999</ele>
        <time>2016-07-17T14:50:53Z</time>
      </trkpt>
      <trkpt lat="45.810545375570655" lon="7.798395222052932">
        <ele>2411.1199999999999</ele>
        <time>2016-07-17T14:51:08Z</time>
      </trkpt>
      <trkpt lat="45.810541352257133" lon="7.798375859856606">
        <ele>2411.1199999999999</ele>
        <time>2016-07-17T14:51:28Z</time>
      </trkpt>
      <trkpt lat="45.810549901798368" lon="7.79837409965694">
        <ele>2411.1199999999999</ele>
        <time>2016-07-17T14:51:51Z</time>
      </trkpt>
      <trkpt lat="45.810550907626748" lon="7.798376614227891">
        <ele>2410.6399999999999</ele>
        <time>2016-07-17T14:52:08Z</time>
      </trkpt>
      <trkpt lat="45.810569850727916" lon="7.798364209011197">
        <ele>2410.6399999999999</ele>
        <time>2016-07-17T14:52:30Z</time>
      </trkpt>
      <trkpt lat="45.810556942597032" lon="7.79838876798749">
        <ele>2410.1599999999999</ele>
        <time>2016-07-17T14:52:53Z</time>
      </trkpt>
      <trkpt lat="45.810540681704879" lon="7.798388432711363">
        <ele>2409.6799999999998</ele>
        <time>2016-07-17T14:53:12Z</time>
      </trkpt>
      <trkpt lat="45.810488713905215" lon="7.798504941165447">
        <ele>2408.2399999999998</ele>
        <time>2016-07-17T14:53:21Z</time>
      </trkpt>
      <trkpt lat="45.81046792678535" lon="7.798533188179135">
        <ele>2407.2800000000002</ele>
        <time>2016-07-17T14:53:24Z</time>
      </trkpt>
      <trkpt lat="45.810434482991695" lon="7.798594124615192">
        <ele>2407.2800000000002</ele>
        <time>2016-07-17T14:53:29Z</time>
      </trkpt>
      <trkpt lat="45.810425765812397" lon="7.798716332763434">
        <ele>2405.3600000000001</ele>
        <time>2016-07-17T14:53:38Z</time>
      </trkpt>
      <trkpt lat="45.810409337282181" lon="7.798784980550408">
        <ele>2404.3899999999999</ele>
        <time>2016-07-17T14:53:43Z</time>
      </trkpt>
      <trkpt lat="45.810386873781681" lon="7.798819178715348">
        <ele>2402.4699999999998</ele>
        <time>2016-07-17T14:53:46Z</time>
      </trkpt>
      <trkpt lat="45.810311520472169" lon="7.798949601128697">
        <ele>2400.5500000000002</ele>
        <time>2016-07-17T14:53:57Z</time>
      </trkpt>
      <trkpt lat="45.810285452753305" lon="7.798968963325024">
        <ele>2399.5900000000001</ele>
        <time>2016-07-17T14:54:00Z</time>
      </trkpt>
      <trkpt lat="45.810282183811069" lon="7.799011543393135">
        <ele>2398.6300000000001</ele>
        <time>2016-07-17T14:54:03Z</time>
      </trkpt>
      <trkpt lat="45.810212614014745" lon="7.799099301919341">
        <ele>2397.1799999999998</ele>
        <time>2016-07-17T14:54:13Z</time>
      </trkpt>
      <trkpt lat="45.810184953734279" lon="7.79912025667727">
        <ele>2395.2600000000002</ele>
        <time>2016-07-17T14:54:16Z</time>
      </trkpt>
      <trkpt lat="45.810134075582027" lon="7.799186473712325">
        <ele>2394.3000000000002</ele>
        <time>2016-07-17T14:54:23Z</time>
      </trkpt>
      <trkpt lat="45.810081185773015" lon="7.799234837293625">
        <ele>2393.3400000000001</ele>
        <time>2016-07-17T14:54:28Z</time>
      </trkpt>
      <trkpt lat="45.810064002871513" lon="7.799254199489951">
        <ele>2391.9000000000001</ele>
        <time>2016-07-17T14:54:30Z</time>
      </trkpt>
      <trkpt lat="45.809998121112585" lon="7.799349250271916">
        <ele>2391.9000000000001</ele>
        <time>2016-07-17T14:54:38Z</time>
      </trkpt>
      <trkpt lat="45.809949589893222" lon="7.799351681023836">
        <ele>2390.46</ele>
        <time>2016-07-17T14:54:42Z</time>
      </trkpt>
      <trkpt lat="45.809910949319601" lon="7.799369199201465">
        <ele>2389.4899999999998</ele>
        <time>2016-07-17T14:54:46Z</time>
      </trkpt>
      <trkpt lat="45.809864597395062" lon="7.799453856423497">
        <ele>2389.0100000000002</ele>
        <time>2016-07-17T14:54:53Z</time>
      </trkpt>
      <trkpt lat="45.809822352603078" lon="7.799482857808471">
        <ele>2387.0900000000001</ele>
        <time>2016-07-17T14:54:57Z</time>
      </trkpt>
      <trkpt lat="45.809769127517939" lon="7.799532478675246">
        <ele>2386.6100000000001</ele>
        <time>2016-07-17T14:55:02Z</time>
      </trkpt>
      <trkpt lat="45.809738617390394" lon="7.799521246924996">
        <ele>2385.6500000000001</ele>
        <time>2016-07-17T14:55:05Z</time>
      </trkpt>
      <trkpt lat="45.809694863855839" lon="7.799596516415477">
        <ele>2384.21</ele>
        <time>2016-07-17T14:55:12Z</time>
      </trkpt>
      <trkpt lat="45.809665527194738" lon="7.799642365425825">
        <ele>2383.25</ele>
        <time>2016-07-17T14:55:16Z</time>
      </trkpt>
      <trkpt lat="45.809598555788398" lon="7.799624260514975">
        <ele>2381.3200000000002</ele>
        <time>2016-07-17T14:55:22Z</time>
      </trkpt>
      <trkpt lat="45.809521609917283" lon="7.799577740952373">
        <ele>2379.4000000000001</ele>
        <time>2016-07-17T14:55:29Z</time>
      </trkpt>
      <trkpt lat="45.809508953243494" lon="7.79954731464386">
        <ele>2379.8800000000001</ele>
        <time>2016-07-17T14:55:31Z</time>
      </trkpt>
      <trkpt lat="45.809422116726637" lon="7.799555193632841">
        <ele>2377.96</ele>
        <time>2016-07-17T14:55:40Z</time>
      </trkpt>
      <trkpt lat="45.809403844177723" lon="7.799533568322659">
        <ele>2377.48</ele>
        <time>2016-07-17T14:55:42Z</time>
      </trkpt>
      <trkpt lat="45.809350116178393" lon="7.799520408734679">
        <ele>2377.48</ele>
        <time>2016-07-17T14:55:47Z</time>
      </trkpt>
      <trkpt lat="45.809320108965039" lon="7.799525186419487">
        <ele>2377</ele>
        <time>2016-07-17T14:55:50Z</time>
      </trkpt>
      <trkpt lat="45.809279205277562" lon="7.799469195306301">
        <ele>2376.04</ele>
        <time>2016-07-17T14:55:55Z</time>
      </trkpt>
      <trkpt lat="45.809199074283242" lon="7.799434410408139">
        <ele>2376.04</ele>
        <time>2016-07-17T14:56:04Z</time>
      </trkpt>
      <trkpt lat="45.809182813391089" lon="7.799447402358055">
        <ele>2375.5500000000002</ele>
        <time>2016-07-17T14:56:06Z</time>
      </trkpt>
      <trkpt lat="45.809169318526983" lon="7.799460897222161">
        <ele>2375.5500000000002</ele>
        <time>2016-07-17T14:56:08Z</time>
      </trkpt>
      <trkpt lat="45.809123888611794" lon="7.799454862251878">
        <ele>2375.5500000000002</ele>
        <time>2016-07-17T14:56:13Z</time>
      </trkpt>
      <trkpt lat="45.809091283008456" lon="7.799468440935016">
        <ele>2375.0700000000002</ele>
        <time>2016-07-17T14:56:17Z</time>
      </trkpt>
      <trkpt lat="45.809021797031164" lon="7.799577824771404">
        <ele>2372.6700000000001</ele>
        <time>2016-07-17T14:56:28Z</time>
      </trkpt>
      <trkpt lat="45.809000674635172" lon="7.799607161432505">
        <ele>2372.6700000000001</ele>
        <time>2016-07-17T14:56:31Z</time>
      </trkpt>
      <trkpt lat="45.808975612744689" lon="7.799655608832836">
        <ele>2372.1900000000001</ele>
        <time>2016-07-17T14:56:36Z</time>
      </trkpt>
      <trkpt lat="45.808959016576409" lon="7.799686957150698">
        <ele>2371.23</ele>
        <time>2016-07-17T14:56:39Z</time>
      </trkpt>
      <trkpt lat="45.808971505612135" lon="7.799741858616471">
        <ele>2370.27</ele>
        <time>2016-07-17T14:56:43Z</time>
      </trkpt>
      <trkpt lat="45.808926494792104" lon="7.799814697355032">
        <ele>2370.27</ele>
        <time>2016-07-17T14:56:49Z</time>
      </trkpt>
      <trkpt lat="45.808914927765727" lon="7.799928355962038">
        <ele>2368.8299999999999</ele>
        <time>2016-07-17T14:56:57Z</time>
      </trkpt>
      <trkpt lat="45.808860110118985" lon="7.800017790868878">
        <ele>2368.3499999999999</ele>
        <time>2016-07-17T14:57:05Z</time>
      </trkpt>
      <trkpt lat="45.808788947761059" lon="7.800132874399424">
        <ele>2365.46</ele>
        <time>2016-07-17T14:57:17Z</time>
      </trkpt>
      <trkpt lat="45.80877042375505" lon="7.80016447417438">
        <ele>2364.5</ele>
        <time>2016-07-17T14:57:21Z</time>
      </trkpt>
      <trkpt lat="45.808679396286607" lon="7.800237312912941">
        <ele>2361.1399999999999</ele>
        <time>2016-07-17T14:57:31Z</time>
      </trkpt>
      <trkpt lat="45.808636900037527" lon="7.800275534391403">
        <ele>2360.1700000000001</ele>
        <time>2016-07-17T14:57:36Z</time>
      </trkpt>
      <trkpt lat="45.808607144281268" lon="7.800307385623455">
        <ele>2359.21</ele>
        <time>2016-07-17T14:57:40Z</time>
      </trkpt>
      <trkpt lat="45.808575628325343" lon="7.800320377573371">
        <ele>2358.73</ele>
        <time>2016-07-17T14:57:43Z</time>
      </trkpt>
      <trkpt lat="45.808548638597131" lon="7.800364131107926">
        <ele>2357.77</ele>
        <time>2016-07-17T14:57:48Z</time>
      </trkpt>
      <trkpt lat="45.808550734072924" lon="7.800470581278205">
        <ele>2355.3699999999999</ele>
        <time>2016-07-17T14:57:58Z</time>
      </trkpt>
      <trkpt lat="45.808546794578433" lon="7.800502935424447">
        <ele>2354.4099999999999</ele>
        <time>2016-07-17T14:58:01Z</time>
      </trkpt>
      <trkpt lat="45.80849583260715" lon="7.800578959286213">
        <ele>2352.96</ele>
        <time>2016-07-17T14:58:09Z</time>
      </trkpt>
      <trkpt lat="45.808429028838873" lon="7.80063059180975">
        <ele>2351.04</ele>
        <time>2016-07-17T14:58:17Z</time>
      </trkpt>
      <trkpt lat="45.808425089344382" lon="7.800653055310249">
        <ele>2350.5599999999999</ele>
        <time>2016-07-17T14:58:19Z</time>
      </trkpt>
      <trkpt lat="45.808447804301977" lon="7.800688091665506">
        <ele>2350.0799999999999</ele>
        <time>2016-07-17T14:58:24Z</time>
      </trkpt>
      <trkpt lat="45.808389466255903" lon="7.800765037536621">
        <ele>2348.1599999999999</ele>
        <time>2016-07-17T14:58:32Z</time>
      </trkpt>
      <trkpt lat="45.80834730528295" lon="7.800754895433784">
        <ele>2347.1999999999998</ele>
        <time>2016-07-17T14:58:36Z</time>
      </trkpt>
      <trkpt lat="45.808221325278282" lon="7.800764702260494">
        <ele>2344.79</ele>
        <time>2016-07-17T14:58:48Z</time>
      </trkpt>
      <trkpt lat="45.808153431862593" lon="7.800770569592714">
        <ele>2343.8299999999999</ele>
        <time>2016-07-17T14:58:55Z</time>
      </trkpt>
      <trkpt lat="45.808124095201492" lon="7.800824381411076">
        <ele>2341.9099999999999</ele>
        <time>2016-07-17T14:59:04Z</time>
      </trkpt>
      <trkpt lat="45.808179918676615" lon="7.800863441079855">
        <ele>2340.9499999999998</ele>
        <time>2016-07-17T14:59:11Z</time>
      </trkpt>
      <trkpt lat="45.808192659169436" lon="7.800901243463159">
        <ele>2339.9899999999998</ele>
        <time>2016-07-17T14:59:14Z</time>
      </trkpt>
      <trkpt lat="45.808145720511675" lon="7.800963521003723">
        <ele>2338.54</ele>
        <time>2016-07-17T14:59:20Z</time>
      </trkpt>
      <trkpt lat="45.808123257011175" lon="7.80097559094429">
        <ele>2337.5799999999999</ele>
        <time>2016-07-17T14:59:24Z</time>
      </trkpt>
      <trkpt lat="45.808179415762424" lon="7.800989001989365">
        <ele>2336.1399999999999</ele>
        <time>2016-07-17T14:59:29Z</time>
      </trkpt>
      <trkpt lat="45.808194587007165" lon="7.801044993102551">
        <ele>2335.1799999999998</ele>
        <time>2016-07-17T14:59:33Z</time>
      </trkpt>
      <trkpt lat="45.808078497648239" lon="7.80107919126749">
        <ele>2332.7800000000002</ele>
        <time>2016-07-17T14:59:44Z</time>
      </trkpt>
      <trkpt lat="45.807998450472951" lon="7.801102576777339">
        <ele>2330.8499999999999</ele>
        <time>2016-07-17T14:59:53Z</time>
      </trkpt>
      <trkpt lat="45.807987553998828" lon="7.801114730536938">
        <ele>2330.8499999999999</ele>
        <time>2016-07-17T14:59:55Z</time>
      </trkpt>
      <trkpt lat="45.807935502380133" lon="7.801174242049456">
        <ele>2329.4099999999999</ele>
        <time>2016-07-17T15:00:03Z</time>
      </trkpt>
      <trkpt lat="45.807957295328379" lon="7.80119888484478">
        <ele>2328.9299999999998</ele>
        <time>2016-07-17T15:00:06Z</time>
      </trkpt>
      <trkpt lat="45.807939190417528" lon="7.801262168213725">
        <ele>2327.9699999999998</ele>
        <time>2016-07-17T15:00:10Z</time>
      </trkpt>
      <trkpt lat="45.807848749682307" lon="7.801390076056123">
        <ele>2326.5300000000002</ele>
        <time>2016-07-17T15:00:21Z</time>
      </trkpt>
      <trkpt lat="45.807843217626214" lon="7.801419328898192">
        <ele>2327.0100000000002</ele>
        <time>2016-07-17T15:00:23Z</time>
      </trkpt>
      <trkpt lat="45.807841708883643" lon="7.801478672772646">
        <ele>2327.0100000000002</ele>
        <time>2016-07-17T15:00:27Z</time>
      </trkpt>
      <trkpt lat="45.807856796309352" lon="7.801635749638081">
        <ele>2325.5700000000002</ele>
        <time>2016-07-17T15:00:37Z</time>
      </trkpt>
      <trkpt lat="45.807855958119035" lon="7.801696602255106">
        <ele>2324.1199999999999</ele>
        <time>2016-07-17T15:00:41Z</time>
      </trkpt>
      <trkpt lat="45.807832488790154" lon="7.801764998584986">
        <ele>2323.1599999999999</ele>
        <time>2016-07-17T15:00:46Z</time>
      </trkpt>
      <trkpt lat="45.807823855429888" lon="7.801806991919875">
        <ele>2322.6799999999998</ele>
        <time>2016-07-17T15:00:49Z</time>
      </trkpt>
      <trkpt lat="45.807764176279306" lon="7.801819397136569">
        <ele>2321.2399999999998</ele>
        <time>2016-07-17T15:00:54Z</time>
      </trkpt>
      <trkpt lat="45.807727128267288" lon="7.801860636100173">
        <ele>2320.7600000000002</ele>
        <time>2016-07-17T15:00:59Z</time>
      </trkpt>
      <trkpt lat="45.807680692523718" lon="7.801911933347583">
        <ele>2319.3200000000002</ele>
        <time>2016-07-17T15:01:04Z</time>
      </trkpt>
      <trkpt lat="45.807647667825222" lon="7.801988376304507">
        <ele>2318.8400000000001</ele>
        <time>2016-07-17T15:01:09Z</time>
      </trkpt>
      <trkpt lat="45.807595532387495" lon="7.802101699635387">
        <ele>2318.3600000000001</ele>
        <time>2016-07-17T15:01:18Z</time>
      </trkpt>
      <trkpt lat="45.807583965361118" lon="7.802163222804666">
        <ele>2317.4000000000001</ele>
        <time>2016-07-17T15:01:22Z</time>
      </trkpt>
      <trkpt lat="45.807564686983824" lon="7.8022391628474">
        <ele>2316.9099999999999</ele>
        <time>2016-07-17T15:01:27Z</time>
      </trkpt>
      <trkpt lat="45.807578014209867" lon="7.802259866148233">
        <ele>2316.4299999999998</ele>
        <time>2016-07-17T15:01:29Z</time>
      </trkpt>
      <trkpt lat="45.807623695582151" lon="7.8022684995085">
        <ele>2314.5100000000002</ele>
        <time>2016-07-17T15:01:34Z</time>
      </trkpt>
      <trkpt lat="45.807650769129395" lon="7.802239917218685">
        <ele>2314.5100000000002</ele>
        <time>2016-07-17T15:01:37Z</time>
      </trkpt>
      <trkpt lat="45.807691505178809" lon="7.802197588607669">
        <ele>2313.0700000000002</ele>
        <time>2016-07-17T15:01:42Z</time>
      </trkpt>
      <trkpt lat="45.807722182944417" lon="7.802162636071444">
        <ele>2312.5900000000001</ele>
        <time>2016-07-17T15:01:46Z</time>
      </trkpt>
      <trkpt lat="45.807769121602178" lon="7.802166407927871">
        <ele>2311.6300000000001</ele>
        <time>2016-07-17T15:01:50Z</time>
      </trkpt>
      <trkpt lat="45.807811785489321" lon="7.80218149535358">
        <ele>2310.6700000000001</ele>
        <time>2016-07-17T15:01:55Z</time>
      </trkpt>
      <trkpt lat="45.807902058586478" lon="7.802279479801655">
        <ele>2307.7800000000002</ele>
        <time>2016-07-17T15:02:07Z</time>
      </trkpt>
      <trkpt lat="45.807907339185476" lon="7.802290879189968">
        <ele>2307.7800000000002</ele>
        <time>2016-07-17T15:02:08Z</time>
      </trkpt>
      <trkpt lat="45.807921253144741" lon="7.802350055426359">
        <ele>2306.8200000000002</ele>
        <time>2016-07-17T15:02:12Z</time>
      </trkpt>
      <trkpt lat="45.807882696390152" lon="7.802501516416669">
        <ele>2303.9400000000001</ele>
        <time>2016-07-17T15:02:24Z</time>
      </trkpt>
      <trkpt lat="45.807870291173458" lon="7.802542587742209">
        <ele>2302.98</ele>
        <time>2016-07-17T15:02:28Z</time>
      </trkpt>
      <trkpt lat="45.807879427447915" lon="7.802576953545213">
        <ele>2302.0100000000002</ele>
        <time>2016-07-17T15:02:31Z</time>
      </trkpt>
      <trkpt lat="45.807882696390152" lon="7.802674183622003">
        <ele>2299.6100000000001</ele>
        <time>2016-07-17T15:02:40Z</time>
      </trkpt>
      <trkpt lat="45.807881690561771" lon="7.802719278261066">
        <ele>2298.1700000000001</ele>
        <time>2016-07-17T15:02:44Z</time>
      </trkpt>
      <trkpt lat="45.807860400527716" lon="7.802755907177925">
        <ele>2297.21</ele>
        <time>2016-07-17T15:02:48Z</time>
      </trkpt>
      <trkpt lat="45.807847157120705" lon="7.802814329043031">
        <ele>2296.25</ele>
        <time>2016-07-17T15:02:53Z</time>
      </trkpt>
      <trkpt lat="45.807862663641572" lon="7.802968304604292">
        <ele>2293.3600000000001</ele>
        <time>2016-07-17T15:03:05Z</time>
      </trkpt>
      <trkpt lat="45.807856796309352" lon="7.803020523861051">
        <ele>2291.9200000000001</ele>
        <time>2016-07-17T15:03:10Z</time>
      </trkpt>
      <trkpt lat="45.807834835723042" lon="7.803056733682752">
        <ele>2290.48</ele>
        <time>2016-07-17T15:03:13Z</time>
      </trkpt>
      <trkpt lat="45.807775240391493" lon="7.803130578249693">
        <ele>2288.0799999999999</ele>
        <time>2016-07-17T15:03:23Z</time>
      </trkpt>
      <trkpt lat="45.807715645059943" lon="7.803174499422312">
        <ele>2286.1500000000001</ele>
        <time>2016-07-17T15:03:32Z</time>
      </trkpt>
      <trkpt lat="45.807696115225554" lon="7.803153293207288">
        <ele>2285.1900000000001</ele>
        <time>2016-07-17T15:03:36Z</time>
      </trkpt>
      <trkpt lat="45.807612966746092" lon="7.803135439753532">
        <ele>2282.3099999999999</ele>
        <time>2016-07-17T15:03:47Z</time>
      </trkpt>
      <trkpt lat="45.807564184069633" lon="7.803154550492764">
        <ele>2280.3800000000001</ele>
        <time>2016-07-17T15:03:57Z</time>
      </trkpt>
      <trkpt lat="45.807539122179151" lon="7.803224958479404">
        <ele>2277.98</ele>
        <time>2016-07-17T15:04:05Z</time>
      </trkpt>
      <trkpt lat="45.807479107752442" lon="7.803267370909452">
        <ele>2275.5799999999999</ele>
        <time>2016-07-17T15:04:13Z</time>
      </trkpt>
      <trkpt lat="45.807472318410873" lon="7.803303832188249">
        <ele>2275.5799999999999</ele>
        <time>2016-07-17T15:04:17Z</time>
      </trkpt>
      <trkpt lat="45.807434096932411" lon="7.803340964019299">
        <ele>2273.1700000000001</ele>
        <time>2016-07-17T15:04:22Z</time>
      </trkpt>
      <trkpt lat="45.8073690533638" lon="7.803437691181898">
        <ele>2270.77</ele>
        <time>2016-07-17T15:04:32Z</time>
      </trkpt>
      <trkpt lat="45.807293448597193" lon="7.803494436666369">
        <ele>2268.8499999999999</ele>
        <time>2016-07-17T15:04:42Z</time>
      </trkpt>
      <trkpt lat="45.807204600423574" lon="7.80355897732079">
        <ele>2266.4499999999998</ele>
        <time>2016-07-17T15:04:55Z</time>
      </trkpt>
      <trkpt lat="45.807148357853293" lon="7.803661907091737">
        <ele>2264.04</ele>
        <time>2016-07-17T15:05:05Z</time>
      </trkpt>
      <trkpt lat="45.807145675644279" lon="7.803755113855004">
        <ele>2262.1199999999999</ele>
        <time>2016-07-17T15:05:14Z</time>
      </trkpt>
      <trkpt lat="45.807198313996196" lon="7.803872041404247">
        <ele>2260.1999999999998</ele>
        <time>2016-07-17T15:05:24Z</time>
      </trkpt>
      <trkpt lat="45.807232176885009" lon="7.803956614807248">
        <ele>2258.27</ele>
        <time>2016-07-17T15:05:33Z</time>
      </trkpt>
      <trkpt lat="45.807232931256294" lon="7.803979329764843">
        <ele>2257.3099999999999</ele>
        <time>2016-07-17T15:05:35Z</time>
      </trkpt>
      <trkpt lat="45.807197475805879" lon="7.803999530151486">
        <ele>2256.8299999999999</ele>
        <time>2016-07-17T15:05:39Z</time>
      </trkpt>
      <trkpt lat="45.807163612917066" lon="7.803992237895727">
        <ele>2255.8699999999999</ele>
        <time>2016-07-17T15:05:42Z</time>
      </trkpt>
      <trkpt lat="45.807117260992527" lon="7.804001206532121">
        <ele>2254.9099999999999</ele>
        <time>2016-07-17T15:05:48Z</time>
      </trkpt>
      <trkpt lat="45.807062778621912" lon="7.804042780771852">
        <ele>2253.4699999999998</ele>
        <time>2016-07-17T15:05:56Z</time>
      </trkpt>
      <trkpt lat="45.807061353698373" lon="7.804100448265672">
        <ele>2251.54</ele>
        <time>2016-07-17T15:06:04Z</time>
      </trkpt>
      <trkpt lat="45.807048697024584" lon="7.804223578423262">
        <ele>2247.6999999999998</ele>
        <time>2016-07-17T15:06:15Z</time>
      </trkpt>
      <trkpt lat="45.807043584063649" lon="7.804258028045297">
        <ele>2247.2199999999998</ele>
        <time>2016-07-17T15:06:18Z</time>
      </trkpt>
      <trkpt lat="45.807032100856304" lon="7.804304799064994">
        <ele>2245.7800000000002</ele>
        <time>2016-07-17T15:06:21Z</time>
      </trkpt>
      <trkpt lat="45.807021707296371" lon="7.80435492284596">
        <ele>2245.3000000000002</ele>
        <time>2016-07-17T15:06:25Z</time>
      </trkpt>
      <trkpt lat="45.806923471391201" lon="7.804475957527757">
        <ele>2244.3299999999999</ele>
        <time>2016-07-17T15:06:36Z</time>
      </trkpt>
      <trkpt lat="45.806910647079349" lon="7.804490709677339">
        <ele>2244.3299999999999</ele>
        <time>2016-07-17T15:06:38Z</time>
      </trkpt>
      <trkpt lat="45.806881813332438" lon="7.80457335524261">
        <ele>2243.3699999999999</ele>
        <time>2016-07-17T15:06:44Z</time>
      </trkpt>
      <trkpt lat="45.806874940171838" lon="7.8046446852386">
        <ele>2241.9299999999998</ele>
        <time>2016-07-17T15:06:51Z</time>
      </trkpt>
      <trkpt lat="45.806822385638952" lon="7.80476781539619">
        <ele>2238.5700000000002</ele>
        <time>2016-07-17T15:07:03Z</time>
      </trkpt>
      <trkpt lat="45.806773183867335" lon="7.804862698540092">
        <ele>2236.1599999999999</ele>
        <time>2016-07-17T15:07:12Z</time>
      </trkpt>
      <trkpt lat="45.80671526491642" lon="7.804960766807199">
        <ele>2234.2399999999998</ele>
        <time>2016-07-17T15:07:22Z</time>
      </trkpt>
      <trkpt lat="45.806710738688707" lon="7.804989432916045">
        <ele>2234.2399999999998</ele>
        <time>2016-07-17T15:07:24Z</time>
      </trkpt>
      <trkpt lat="45.806643683463335" lon="7.805068138986826">
        <ele>2232.3200000000002</ele>
        <time>2016-07-17T15:07:32Z</time>
      </trkpt>
      <trkpt lat="45.806616777554154" lon="7.805191772058606">
        <ele>2230.8800000000001</ele>
        <time>2016-07-17T15:07:41Z</time>
      </trkpt>
      <trkpt lat="45.806554416194558" lon="7.805304592475295">
        <ele>2229.4299999999998</ele>
        <time>2016-07-17T15:07:51Z</time>
      </trkpt>
      <trkpt lat="45.806527426466346" lon="7.805333090946078">
        <ele>2227.0300000000002</ele>
        <time>2016-07-17T15:07:54Z</time>
      </trkpt>
      <trkpt lat="45.806444445624948" lon="7.805408779531717">
        <ele>2225.5900000000001</ele>
        <time>2016-07-17T15:08:04Z</time>
      </trkpt>
      <trkpt lat="45.806409576907754" lon="7.805465189740062">
        <ele>2223.6700000000001</ele>
        <time>2016-07-17T15:08:12Z</time>
      </trkpt>
      <trkpt lat="45.80649733543396" lon="7.805533250793815">
        <ele>2222.71</ele>
        <time>2016-07-17T15:08:21Z</time>
      </trkpt>
      <trkpt lat="45.806511584669352" lon="7.805553367361426">
        <ele>2221.7399999999998</ele>
        <time>2016-07-17T15:08:23Z</time>
      </trkpt>
      <trkpt lat="45.806525414809585" lon="7.80555889941752">
        <ele>2221.2600000000002</ele>
        <time>2016-07-17T15:08:25Z</time>
      </trkpt>
      <trkpt lat="45.806530443951488" lon="7.805580776184797">
        <ele>2220.7800000000002</ele>
        <time>2016-07-17T15:08:27Z</time>
      </trkpt>
      <trkpt lat="45.806492641568184" lon="7.805620254948735">
        <ele>2219.8200000000002</ele>
        <time>2016-07-17T15:08:32Z</time>
      </trkpt>
      <trkpt lat="45.806454671546817" lon="7.805664511397481">
        <ele>2218.8600000000001</ele>
        <time>2016-07-17T15:08:37Z</time>
      </trkpt>
      <trkpt lat="45.806408319622278" lon="7.805710947141051">
        <ele>2216.9400000000001</ele>
        <time>2016-07-17T15:08:43Z</time>
      </trkpt>
      <trkpt lat="45.806361129507422" lon="7.805803818628192">
        <ele>2213.5700000000002</ele>
        <time>2016-07-17T15:08:52Z</time>
      </trkpt>
      <trkpt lat="45.806339588016272" lon="7.805848745629191">
        <ele>2212.6100000000001</ele>
        <time>2016-07-17T15:08:56Z</time>
      </trkpt>
      <trkpt lat="45.806325674057007" lon="7.80582963488996">
        <ele>2212.1300000000001</ele>
        <time>2016-07-17T15:08:58Z</time>
      </trkpt>
      <trkpt lat="45.80626180395484" lon="7.805807087570429">
        <ele>2210.21</ele>
        <time>2016-07-17T15:09:05Z</time>
      </trkpt>
      <trkpt lat="45.80622224137187" lon="7.805864922702313">
        <ele>2206.3600000000001</ele>
        <time>2016-07-17T15:09:17Z</time>
      </trkpt>
      <trkpt lat="45.806232551112771" lon="7.805879255756736">
        <ele>2205.8800000000001</ele>
        <time>2016-07-17T15:09:19Z</time>
      </trkpt>
      <trkpt lat="45.806278986856341" lon="7.805950250476599">
        <ele>2204.4400000000001</ele>
        <time>2016-07-17T15:09:26Z</time>
      </trkpt>
      <trkpt lat="45.806303042918444" lon="7.80600112862885">
        <ele>2203</ele>
        <time>2016-07-17T15:09:31Z</time>
      </trkpt>
      <trkpt lat="45.806303210556507" lon="7.806062316522002">
        <ele>2200.5900000000001</ele>
        <time>2016-07-17T15:09:39Z</time>
      </trkpt>
      <trkpt lat="45.806229449808598" lon="7.806071033701301">
        <ele>2198.1900000000001</ele>
        <time>2016-07-17T15:09:49Z</time>
      </trkpt>
      <trkpt lat="45.80622173845768" lon="7.806075140833855">
        <ele>2197.71</ele>
        <time>2016-07-17T15:09:50Z</time>
      </trkpt>
      <trkpt lat="45.806175218895078" lon="7.806113781407476">
        <ele>2195.3099999999999</ele>
        <time>2016-07-17T15:10:01Z</time>
      </trkpt>
      <trkpt lat="45.806209417060018" lon="7.806158792227507">
        <ele>2193.8699999999999</ele>
        <time>2016-07-17T15:10:07Z</time>
      </trkpt>
      <trkpt lat="45.80625400878489" lon="7.806259458884597">
        <ele>2190.98</ele>
        <time>2016-07-17T15:10:17Z</time>
      </trkpt>
      <trkpt lat="45.806209668517113" lon="7.80629675835371">
        <ele>2188.5799999999999</ele>
        <time>2016-07-17T15:10:23Z</time>
      </trkpt>
      <trkpt lat="45.806183684617281" lon="7.806312013417482">
        <ele>2187.6199999999999</ele>
        <time>2016-07-17T15:10:26Z</time>
      </trkpt>
      <trkpt lat="45.806136997416615" lon="7.806302290409803">
        <ele>2186.1799999999998</ele>
        <time>2016-07-17T15:10:30Z</time>
      </trkpt>
      <trkpt lat="45.806099865585566" lon="7.806328274309635">
        <ele>2184.73</ele>
        <time>2016-07-17T15:10:38Z</time>
      </trkpt>
      <trkpt lat="45.806146636605263" lon="7.806391976773739">
        <ele>2182.3299999999999</ele>
        <time>2016-07-17T15:10:46Z</time>
      </trkpt>
      <trkpt lat="45.806170608848333" lon="7.806485770270228">
        <ele>2179.9299999999998</ele>
        <time>2016-07-17T15:10:55Z</time>
      </trkpt>
      <trkpt lat="45.806111348792911" lon="7.806564643979073">
        <ele>2176.5599999999999</ele>
        <time>2016-07-17T15:11:04Z</time>
      </trkpt>
      <trkpt lat="45.806107074022293" lon="7.806601272895932">
        <ele>2176.0799999999999</ele>
        <time>2016-07-17T15:11:07Z</time>
      </trkpt>
      <trkpt lat="45.806028535589576" lon="7.806715099141002">
        <ele>2173.1999999999998</ele>
        <time>2016-07-17T15:11:18Z</time>
      </trkpt>
      <trkpt lat="45.80600431188941" lon="7.806751476600766">
        <ele>2172.2399999999998</ele>
        <time>2016-07-17T15:11:22Z</time>
      </trkpt>
      <trkpt lat="45.806007497012615" lon="7.806781819090247">
        <ele>2171.27</ele>
        <time>2016-07-17T15:11:24Z</time>
      </trkpt>
      <trkpt lat="45.805968856438994" lon="7.806878378614783">
        <ele>2168.8699999999999</ele>
        <time>2016-07-17T15:11:33Z</time>
      </trkpt>
      <trkpt lat="45.805965336039662" lon="7.806891286745668">
        <ele>2168.8699999999999</ele>
        <time>2016-07-17T15:11:34Z</time>
      </trkpt>
      <trkpt lat="45.805927785113454" lon="7.806921880692244">
        <ele>2167.9099999999999</ele>
        <time>2016-07-17T15:11:38Z</time>
      </trkpt>
      <trkpt lat="45.805897694081068" lon="7.806870751082897">
        <ele>2166.9499999999998</ele>
        <time>2016-07-17T15:11:42Z</time>
      </trkpt>
      <trkpt lat="45.805861903354526" lon="7.806903105229139">
        <ele>2165.0300000000002</ele>
        <time>2016-07-17T15:11:49Z</time>
      </trkpt>
      <trkpt lat="45.8058459777385" lon="7.806954653933644">
        <ele>2164.0599999999999</ele>
        <time>2016-07-17T15:11:53Z</time>
      </trkpt>
      <trkpt lat="45.805768612772226" lon="7.807058421894908">
        <ele>2163.5799999999999</ele>
        <time>2016-07-17T15:12:03Z</time>
      </trkpt>
      <trkpt lat="45.805752770975232" lon="7.807295210659504">
        <ele>2161.6599999999999</ele>
        <time>2016-07-17T15:12:18Z</time>
      </trkpt>
      <trkpt lat="45.805673645809293" lon="7.807467961683869">
        <ele>2160.2199999999998</ele>
        <time>2016-07-17T15:12:30Z</time>
      </trkpt>
      <trkpt lat="45.805653445422649" lon="7.807508446276188">
        <ele>2159.7399999999998</ele>
        <time>2016-07-17T15:12:33Z</time>
      </trkpt>
      <trkpt lat="45.805664006620646" lon="7.807656386867166">
        <ele>2159.2600000000002</ele>
        <time>2016-07-17T15:12:43Z</time>
      </trkpt>
      <trkpt lat="45.805647661909461" lon="7.807834669947624">
        <ele>2156.8600000000001</ele>
        <time>2016-07-17T15:12:55Z</time>
      </trkpt>
      <trkpt lat="45.805584210902452" lon="7.808006079867482">
        <ele>2154.9299999999998</ele>
        <time>2016-07-17T15:13:07Z</time>
      </trkpt>
      <trkpt lat="45.805576834827662" lon="7.808016473427415">
        <ele>2154.9299999999998</ele>
        <time>2016-07-17T15:13:08Z</time>
      </trkpt>
      <trkpt lat="45.805458817631006" lon="7.808095933869481">
        <ele>2152.0500000000002</ele>
        <time>2016-07-17T15:13:20Z</time>
      </trkpt>
      <trkpt lat="45.805358067154884" lon="7.80810615979135">
        <ele>2149.1599999999999</ele>
        <time>2016-07-17T15:13:31Z</time>
      </trkpt>
      <trkpt lat="45.805272739380598" lon="7.808112530037761">
        <ele>2146.7600000000002</ele>
        <time>2016-07-17T15:13:40Z</time>
      </trkpt>
      <trkpt lat="45.805272487923503" lon="7.808130132034421">
        <ele>2146.2800000000002</ele>
        <time>2016-07-17T15:13:42Z</time>
      </trkpt>
      <trkpt lat="45.805272990837693" lon="7.808156199753285">
        <ele>2146.2800000000002</ele>
        <time>2016-07-17T15:13:44Z</time>
      </trkpt>
      <trkpt lat="45.805281205102801" lon="7.808220321312547">
        <ele>2144.3600000000001</ele>
        <time>2016-07-17T15:13:50Z</time>
      </trkpt>
      <trkpt lat="45.805201325565577" lon="7.808360466733575">
        <ele>2142.9200000000001</ele>
        <time>2016-07-17T15:14:01Z</time>
      </trkpt>
      <trkpt lat="45.805176347494125" lon="7.808420900255442">
        <ele>2142.9200000000001</ele>
        <time>2016-07-17T15:14:10Z</time>
      </trkpt>
      <trkpt lat="45.805183639749885" lon="7.808461971580982">
        <ele>2141.4699999999998</ele>
        <time>2016-07-17T15:14:26Z</time>
      </trkpt>
      <trkpt lat="45.805177940055728" lon="7.808473454788327">
        <ele>2141.4699999999998</ele>
        <time>2016-07-17T15:14:27Z</time>
      </trkpt>
      <trkpt lat="45.805159248411655" lon="7.808607900515199">
        <ele>2140.9899999999998</ele>
        <time>2016-07-17T15:14:37Z</time>
      </trkpt>
      <trkpt lat="45.805163774639368" lon="7.808721642941237">
        <ele>2139.5500000000002</ele>
        <time>2016-07-17T15:14:44Z</time>
      </trkpt>
      <trkpt lat="45.805167378857732" lon="7.808796660974622">
        <ele>2139.0700000000002</ele>
        <time>2016-07-17T15:14:48Z</time>
      </trkpt>
      <trkpt lat="45.805156566202641" lon="7.808846868574619">
        <ele>2138.5900000000001</ele>
        <time>2016-07-17T15:14:51Z</time>
      </trkpt>
      <trkpt lat="45.805104346945882" lon="7.809023391455412">
        <ele>2137.1500000000001</ele>
        <time>2016-07-17T15:15:02Z</time>
      </trkpt>
      <trkpt lat="45.805067215114832" lon="7.809139816090465">
        <ele>2135.71</ele>
        <time>2016-07-17T15:15:09Z</time>
      </trkpt>
      <trkpt lat="45.805046008899808" lon="7.809279961511493">
        <ele>2137.6300000000001</ele>
        <time>2016-07-17T15:15:20Z</time>
      </trkpt>
      <trkpt lat="45.804967889562249" lon="7.809378616511822">
        <ele>2135.23</ele>
        <time>2016-07-17T15:15:30Z</time>
      </trkpt>
      <trkpt lat="45.804950036108494" lon="7.809394961223006">
        <ele>2134.2600000000002</ele>
        <time>2016-07-17T15:15:32Z</time>
      </trkpt>
      <trkpt lat="45.804882729426026" lon="7.8095558937639">
        <ele>2130.9000000000001</ele>
        <time>2016-07-17T15:15:46Z</time>
      </trkpt>
      <trkpt lat="45.804824307560921" lon="7.809668630361557">
        <ele>2128.02</ele>
        <time>2016-07-17T15:15:56Z</time>
      </trkpt>
      <trkpt lat="45.804738476872444" lon="7.809849595651031">
        <ele>2124.6500000000001</ele>
        <time>2016-07-17T15:16:10Z</time>
      </trkpt>
      <trkpt lat="45.804669409990311" lon="7.809972725808621">
        <ele>2122.25</ele>
        <time>2016-07-17T15:16:19Z</time>
      </trkpt>
      <trkpt lat="45.804654490202665" lon="7.810082444921136">
        <ele>2120.8099999999999</ele>
        <time>2016-07-17T15:16:25Z</time>
      </trkpt>
      <trkpt lat="45.804649209603667" lon="7.810111194849014">
        <ele>2120.3200000000002</ele>
        <time>2016-07-17T15:16:27Z</time>
      </trkpt>
      <trkpt lat="45.804645773023367" lon="7.810123935341835">
        <ele>2119.8400000000001</ele>
        <time>2016-07-17T15:16:28Z</time>
      </trkpt>
      <trkpt lat="45.804631691426039" lon="7.810144051909447">
        <ele>2119.3600000000001</ele>
        <time>2016-07-17T15:16:30Z</time>
      </trkpt>
      <trkpt lat="45.804604114964604" lon="7.810211610049009">
        <ele>2117.9200000000001</ele>
        <time>2016-07-17T15:16:35Z</time>
      </trkpt>
      <trkpt lat="45.804606210440397" lon="7.810254860669375">
        <ele>2117.4400000000001</ele>
        <time>2016-07-17T15:16:38Z</time>
      </trkpt>
      <trkpt lat="45.80463320016861" lon="7.810329124331474">
        <ele>2116.48</ele>
        <time>2016-07-17T15:16:43Z</time>
      </trkpt>
      <trkpt lat="45.804632026702166" lon="7.810403974726796">
        <ele>2115.04</ele>
        <time>2016-07-17T15:16:48Z</time>
      </trkpt>
      <trkpt lat="45.804638061672449" lon="7.810434233397245">
        <ele>2114.5599999999999</ele>
        <time>2016-07-17T15:16:50Z</time>
      </trkpt>
      <trkpt lat="45.804606042802334" lon="7.810479076579213">
        <ele>2114.0799999999999</ele>
        <time>2016-07-17T15:16:54Z</time>
      </trkpt>
      <trkpt lat="45.804571341723204" lon="7.810458121821284">
        <ele>2112.6300000000001</ele>
        <time>2016-07-17T15:16:57Z</time>
      </trkpt>
      <trkpt lat="45.80449397675693" lon="7.810287130996585">
        <ele>2111.1900000000001</ele>
        <time>2016-07-17T15:17:09Z</time>
      </trkpt>
      <trkpt lat="45.804448630660772" lon="7.810176908969879">
        <ele>2109.27</ele>
        <time>2016-07-17T15:17:19Z</time>
      </trkpt>
      <trkpt lat="45.804435890167952" lon="7.810201635584235">
        <ele>2108.3099999999999</ele>
        <time>2016-07-17T15:17:21Z</time>
      </trkpt>
      <trkpt lat="45.804368248209357" lon="7.81020624563098">
        <ele>2106.3899999999999</ele>
        <time>2016-07-17T15:17:28Z</time>
      </trkpt>
      <trkpt lat="45.804332792758942" lon="7.810185709968209">
        <ele>2104.46</ele>
        <time>2016-07-17T15:17:32Z</time>
      </trkpt>
      <trkpt lat="45.80432097427547" lon="7.810236755758524">
        <ele>2102.54</ele>
        <time>2016-07-17T15:17:38Z</time>
      </trkpt>
      <trkpt lat="45.804304964840412" lon="7.810341864824295">
        <ele>2099.6599999999999</ele>
        <time>2016-07-17T15:17:49Z</time>
      </trkpt>
      <trkpt lat="45.804248219355941" lon="7.810428366065025">
        <ele>2095.8099999999999</ele>
        <time>2016-07-17T15:17:59Z</time>
      </trkpt>
      <trkpt lat="45.804229862987995" lon="7.810493828728795">
        <ele>2092.9299999999998</ele>
        <time>2016-07-17T15:18:06Z</time>
      </trkpt>
      <trkpt lat="45.804223157465458" lon="7.810502294450998">
        <ele>2092.9299999999998</ele>
        <time>2016-07-17T15:18:07Z</time>
      </trkpt>
      <trkpt lat="45.804163226857781" lon="7.81058250926435">
        <ele>2089.5599999999999</ele>
        <time>2016-07-17T15:18:17Z</time>
      </trkpt>
      <trkpt lat="45.804227516055107" lon="7.810627520084381">
        <ele>2086.1999999999998</ele>
        <time>2016-07-17T15:18:27Z</time>
      </trkpt>
      <trkpt lat="45.804236736148596" lon="7.810629867017269">
        <ele>2086.1999999999998</ele>
        <time>2016-07-17T15:18:28Z</time>
      </trkpt>
      <trkpt lat="45.804304964840412" lon="7.810686361044645">
        <ele>2083.3099999999999</ele>
        <time>2016-07-17T15:18:36Z</time>
      </trkpt>
      <trkpt lat="45.804364560171962" lon="7.810766659677029">
        <ele>2079.9499999999998</ele>
        <time>2016-07-17T15:18:47Z</time>
      </trkpt>
      <trkpt lat="45.804384257644415" lon="7.810803791508079">
        <ele>2078.5100000000002</ele>
        <time>2016-07-17T15:18:51Z</time>
      </trkpt>
      <trkpt lat="45.804445026442409" lon="7.810883754864335">
        <ele>2075.6199999999999</ele>
        <time>2016-07-17T15:19:02Z</time>
      </trkpt>
      <trkpt lat="45.804519457742572" lon="7.810928765684366">
        <ele>2073.2199999999998</ele>
        <time>2016-07-17T15:19:12Z</time>
      </trkpt>
      <trkpt lat="45.804614424705505" lon="7.810985427349806">
        <ele>2070.8200000000002</ele>
        <time>2016-07-17T15:19:23Z</time>
      </trkpt>
      <trkpt lat="45.804747529327869" lon="7.811118867248297">
        <ele>2068.8899999999999</ele>
        <time>2016-07-17T15:19:38Z</time>
      </trkpt>
      <trkpt lat="45.804753983393312" lon="7.811125991865993">
        <ele>2068.4099999999999</ele>
        <time>2016-07-17T15:19:39Z</time>
      </trkpt>
      <trkpt lat="45.804768148809671" lon="7.811161698773503">
        <ele>2067.9299999999998</ele>
        <time>2016-07-17T15:19:42Z</time>
      </trkpt>
      <trkpt lat="45.804885243996978" lon="7.811302347108722">
        <ele>2064.5700000000002</ele>
        <time>2016-07-17T15:19:56Z</time>
      </trkpt>
      <trkpt lat="45.804948443546891" lon="7.811399912461639">
        <ele>2063.1300000000001</ele>
        <time>2016-07-17T15:20:04Z</time>
      </trkpt>
      <trkpt lat="45.804994208738208" lon="7.811484485864639">
        <ele>2061.6799999999998</ele>
        <time>2016-07-17T15:20:12Z</time>
      </trkpt>
      <trkpt lat="45.805020108819008" lon="7.811520276591182">
        <ele>2060.2399999999998</ele>
        <time>2016-07-17T15:20:16Z</time>
      </trkpt>
      <trkpt lat="45.805000830441713" lon="7.811563611030579">
        <ele>2059.2800000000002</ele>
        <time>2016-07-17T15:20:21Z</time>
      </trkpt>
      <trkpt lat="45.804895637556911" lon="7.811590516939759">
        <ele>2057.3600000000001</ele>
        <time>2016-07-17T15:20:32Z</time>
      </trkpt>
      <trkpt lat="45.804890608415008" lon="7.811598228290677">
        <ele>2056.8800000000001</ele>
        <time>2016-07-17T15:20:33Z</time>
      </trkpt>
      <trkpt lat="45.804774686694145" lon="7.811578782275319">
        <ele>2053.9899999999998</ele>
        <time>2016-07-17T15:20:44Z</time>
      </trkpt>
      <trkpt lat="45.804754067212343" lon="7.811575094237924">
        <ele>2053.5100000000002</ele>
        <time>2016-07-17T15:20:46Z</time>
      </trkpt>
      <trkpt lat="45.804711319506168" lon="7.81157249584794">
        <ele>2052.0700000000002</ele>
        <time>2016-07-17T15:20:51Z</time>
      </trkpt>
      <trkpt lat="45.804629428312182" lon="7.811575010418892">
        <ele>2049.6700000000001</ele>
        <time>2016-07-17T15:20:59Z</time>
      </trkpt>
      <trkpt lat="45.804519122466445" lon="7.811575680971146">
        <ele>2047.26</ele>
        <time>2016-07-17T15:21:09Z</time>
      </trkpt>
      <trkpt lat="45.80439817160368" lon="7.811625050380826">
        <ele>2043.9000000000001</ele>
        <time>2016-07-17T15:21:21Z</time>
      </trkpt>
      <trkpt lat="45.804320303723216" lon="7.811694703996182">
        <ele>2041.02</ele>
        <time>2016-07-17T15:21:30Z</time>
      </trkpt>
      <trkpt lat="45.804268838837743" lon="7.811764189973474">
        <ele>2040.05</ele>
        <time>2016-07-17T15:21:37Z</time>
      </trkpt>
      <trkpt lat="45.80421008169651" lon="7.811825713142753">
        <ele>2039.0899999999999</ele>
        <time>2016-07-17T15:21:44Z</time>
      </trkpt>
      <trkpt lat="45.80416314303875" lon="7.811869382858276">
        <ele>2038.1300000000001</ele>
        <time>2016-07-17T15:21:49Z</time>
      </trkpt>
      <trkpt lat="45.804159455001354" lon="7.811909532174468">
        <ele>2037.6500000000001</ele>
        <time>2016-07-17T15:21:52Z</time>
      </trkpt>
      <trkpt lat="45.804081670939922" lon="7.812050515785813">
        <ele>2035.25</ele>
        <time>2016-07-17T15:22:04Z</time>
      </trkpt>
      <trkpt lat="45.804061805829406" lon="7.812091168016195">
        <ele>2034.77</ele>
        <time>2016-07-17T15:22:07Z</time>
      </trkpt>
      <trkpt lat="45.804073624312878" lon="7.812130814418197">
        <ele>2033.8099999999999</ele>
        <time>2016-07-17T15:22:11Z</time>
      </trkpt>
      <trkpt lat="45.804199604317546" lon="7.812040960416198">
        <ele>2032.8399999999999</ele>
        <time>2016-07-17T15:22:23Z</time>
      </trkpt>
      <trkpt lat="45.804251404479146" lon="7.812020592391491">
        <ele>2031.8800000000001</ele>
        <time>2016-07-17T15:22:28Z</time>
      </trkpt>
      <trkpt lat="45.80423891544342" lon="7.81211094930768">
        <ele>2030.4400000000001</ele>
        <time>2016-07-17T15:22:36Z</time>
      </trkpt>
      <trkpt lat="45.804222822189331" lon="7.812122516334057">
        <ele>2030.4400000000001</ele>
        <time>2016-07-17T15:22:38Z</time>
      </trkpt>
      <trkpt lat="45.804156102240086" lon="7.812246819958091">
        <ele>2029</ele>
        <time>2016-07-17T15:22:50Z</time>
      </trkpt>
      <trkpt lat="45.804133806377649" lon="7.812255118042231">
        <ele>2027.0799999999999</ele>
        <time>2016-07-17T15:22:59Z</time>
      </trkpt>
      <trkpt lat="45.804113522171974" lon="7.812255369499326">
        <ele>2027.5599999999999</ele>
        <time>2016-07-17T15:23:23Z</time>
      </trkpt>
      <trkpt lat="45.804135985672474" lon="7.812256710603833">
        <ele>2027.5599999999999</ele>
        <time>2016-07-17T15:23:44Z</time>
      </trkpt>
      <trkpt lat="45.804145792499185" lon="7.81227464787662">
        <ele>2027.5599999999999</ele>
        <time>2016-07-17T15:24:15Z</time>
      </trkpt>
      <trkpt lat="45.804148893803358" lon="7.812258386984468">
        <ele>2027.0799999999999</ele>
        <time>2016-07-17T15:24:38Z</time>
      </trkpt>
      <trkpt lat="45.804154677316546" lon="7.812259392812848">
        <ele>2027.0799999999999</ele>
        <time>2016-07-17T15:25:04Z</time>
      </trkpt>
      <trkpt lat="45.804151324555278" lon="7.812258554622531">
        <ele>2027.0799999999999</ele>
        <time>2016-07-17T15:25:32Z</time>
      </trkpt>
      <trkpt lat="45.804144283756614" lon="7.812255118042231">
        <ele>2026.5999999999999</ele>
        <time>2016-07-17T15:25:59Z</time>
      </trkpt>
      <trkpt lat="45.804151659831405" lon="7.812257464975119">
        <ele>2027.5599999999999</ele>
        <time>2016-07-17T15:26:28Z</time>
      </trkpt>
      <trkpt lat="45.804130034521222" lon="7.812270037829876">
        <ele>2026.5999999999999</ele>
        <time>2016-07-17T15:26:55Z</time>
      </trkpt>
      <trkpt lat="45.804133303463459" lon="7.812267020344734">
        <ele>2026.5999999999999</ele>
        <time>2016-07-17T15:27:26Z</time>
      </trkpt>
      <trkpt lat="45.804146127775311" lon="7.81225654296577">
        <ele>2026.1199999999999</ele>
        <time>2016-07-17T15:27:49Z</time>
      </trkpt>
      <trkpt lat="45.804143361747265" lon="7.81225067563355">
        <ele>2026.1199999999999</ele>
        <time>2016-07-17T15:28:19Z</time>
      </trkpt>
      <trkpt lat="45.804142020642757" lon="7.812265511602163">
        <ele>2026.1199999999999</ele>
        <time>2016-07-17T15:28:41Z</time>
      </trkpt>
      <trkpt lat="45.80413187853992" lon="7.812283281236887">
        <ele>2026.1199999999999</ele>
        <time>2016-07-17T15:28:54Z</time>
      </trkpt>
      <trkpt lat="45.804139589890838" lon="7.812271462753415">
        <ele>2006.4100000000001</ele>
        <time>2016-07-17T15:30:08Z</time>
      </trkpt>
      <trkpt lat="45.804158030077815" lon="7.81225604005158">
        <ele>2008.8099999999999</ele>
        <time>2016-07-17T15:30:15Z</time>
      </trkpt>
      <trkpt lat="45.804164232686162" lon="7.812261739745736">
        <ele>2026.5999999999999</ele>
        <time>2016-07-17T15:30:17Z</time>
      </trkpt>
      <trkpt lat="45.80413187853992" lon="7.8122653439641">
        <ele>2024.6700000000001</ele>
        <time>2016-07-17T15:30:35Z</time>
      </trkpt>
      <trkpt lat="45.804133890196681" lon="7.812254028394818">
        <ele>2024.1900000000001</ele>
        <time>2016-07-17T15:31:00Z</time>
      </trkpt>
      <trkpt lat="45.804140344262123" lon="7.812273390591145">
        <ele>2024.1900000000001</ele>
        <time>2016-07-17T15:31:31Z</time>
      </trkpt>
      <trkpt lat="45.804144954308867" lon="7.812257884070277">
        <ele>2023.71</ele>
        <time>2016-07-17T15:32:00Z</time>
      </trkpt>
      <trkpt lat="45.804145876318216" lon="7.812260566279292">
        <ele>2023.71</ele>
        <time>2016-07-17T15:32:30Z</time>
      </trkpt>
      <trkpt lat="45.804150570183992" lon="7.812267439439893">
        <ele>2023.71</ele>
        <time>2016-07-17T15:33:00Z</time>
      </trkpt>
      <trkpt lat="45.804141853004694" lon="7.812269283458591">
        <ele>2023.23</ele>
        <time>2016-07-17T15:33:13Z</time>
      </trkpt>
      <trkpt lat="45.804127100855112" lon="7.812280766665936">
        <ele>2024.1900000000001</ele>
        <time>2016-07-17T15:33:19Z</time>
      </trkpt>
      <trkpt lat="45.804132046177983" lon="7.812290824949741">
        <ele>2022.75</ele>
        <time>2016-07-17T15:33:29Z</time>
      </trkpt>
      <trkpt lat="45.804133303463459" lon="7.812289232388139">
        <ele>2022.75</ele>
        <time>2016-07-17T15:33:30Z</time>
      </trkpt>
      <trkpt lat="45.804134057834744" lon="7.812294512987137">
        <ele>2024.1900000000001</ele>
        <time>2016-07-17T15:33:35Z</time>
      </trkpt>
      <trkpt lat="45.804148558527231" lon="7.812290405854583">
        <ele>2025.1500000000001</ele>
        <time>2016-07-17T15:33:47Z</time>
      </trkpt>
      <trkpt lat="45.804140511900187" lon="7.812299206852913">
        <ele>2023.71</ele>
        <time>2016-07-17T15:34:01Z</time>
      </trkpt>
      <trkpt lat="45.804135147482157" lon="7.812293004244566">
        <ele>2026.1199999999999</ele>
        <time>2016-07-17T15:34:12Z</time>
      </trkpt>
      <trkpt lat="45.804142775014043" lon="7.812295351177454">
        <ele>2025.1500000000001</ele>
        <time>2016-07-17T15:34:24Z</time>
      </trkpt>
      <trkpt lat="45.804143529385328" lon="7.812302224338055">
        <ele>2024.1900000000001</ele>
        <time>2016-07-17T15:34:36Z</time>
      </trkpt>
      <trkpt lat="45.804139170795679" lon="7.812305744737387">
        <ele>2024.6700000000001</ele>
        <time>2016-07-17T15:34:49Z</time>
      </trkpt>
      <trkpt lat="45.804143948480487" lon="7.812315970659256">
        <ele>2024.1900000000001</ele>
        <time>2016-07-17T15:35:03Z</time>
      </trkpt>
      <trkpt lat="45.804152581840754" lon="7.812299877405167">
        <ele>2024.1900000000001</ele>
        <time>2016-07-17T15:35:18Z</time>
      </trkpt>
      <trkpt lat="45.804137410596013" lon="7.812294848263264">
        <ele>2024.1900000000001</ele>
        <time>2016-07-17T15:35:38Z</time>
      </trkpt>
      <trkpt lat="45.804132968187332" lon="7.812299793586135">
        <ele>2024.1900000000001</ele>
        <time>2016-07-17T15:35:48Z</time>
      </trkpt>
      <trkpt lat="45.804153587669134" lon="7.812315300107002">
        <ele>2023.71</ele>
        <time>2016-07-17T15:35:59Z</time>
      </trkpt>
      <trkpt lat="45.804147468879819" lon="7.812325693666935">
        <ele>2023.71</ele>
        <time>2016-07-17T15:36:11Z</time>
      </trkpt>
      <trkpt lat="45.804145960137248" lon="7.812332902103663">
        <ele>2023.23</ele>
        <time>2016-07-17T15:36:24Z</time>
      </trkpt>
      <trkpt lat="45.804168675094843" lon="7.812309265136719">
        <ele>2022.27</ele>
        <time>2016-07-17T15:36:36Z</time>
      </trkpt>
      <trkpt lat="45.80415484495461" lon="7.81234597787261">
        <ele>2022.27</ele>
        <time>2016-07-17T15:36:48Z</time>
      </trkpt>
      <trkpt lat="45.804160879924893" lon="7.812374643981457">
        <ele>2020.8299999999999</ele>
        <time>2016-07-17T15:36:54Z</time>
      </trkpt>
      <trkpt lat="45.804153671488166" lon="7.812432982027531">
        <ele>2020.3499999999999</ele>
        <time>2016-07-17T15:36:58Z</time>
      </trkpt>
      <trkpt lat="45.804144870489836" lon="7.812530715018511">
        <ele>2019.3900000000001</ele>
        <time>2016-07-17T15:37:08Z</time>
      </trkpt>
      <trkpt lat="45.804151659831405" lon="7.812560554593802">
        <ele>2018.4300000000001</ele>
        <time>2016-07-17T15:37:10Z</time>
      </trkpt>
      <trkpt lat="45.804183343425393" lon="7.812596680596471">
        <ele>2016.98</ele>
        <time>2016-07-17T15:37:15Z</time>
      </trkpt>
      <trkpt lat="45.804208321496844" lon="7.812580838799477">
        <ele>2016.5</ele>
        <time>2016-07-17T15:37:18Z</time>
      </trkpt>
      <trkpt lat="45.804229443892837" lon="7.812630627304316">
        <ele>2015.54</ele>
        <time>2016-07-17T15:37:27Z</time>
      </trkpt>
      <trkpt lat="45.80422718077898" lon="7.812632219865918">
        <ele>2016.02</ele>
        <time>2016-07-17T15:37:37Z</time>
      </trkpt>
      <trkpt lat="45.80422181636095" lon="7.812658036127687">
        <ele>2016.02</ele>
        <time>2016-07-17T15:37:46Z</time>
      </trkpt>
      <trkpt lat="45.804288536310196" lon="7.812834056094289">
        <ele>2014.0999999999999</ele>
        <time>2016-07-17T15:37:58Z</time>
      </trkpt>
      <trkpt lat="45.804313765838742" lon="7.812921227887273">
        <ele>2013.1400000000001</ele>
        <time>2016-07-17T15:38:04Z</time>
      </trkpt>
      <trkpt lat="45.804310329258442" lon="7.81297436915338">
        <ele>2011.7</ele>
        <time>2016-07-17T15:38:08Z</time>
      </trkpt>
      <trkpt lat="45.804342599585652" lon="7.813129518181086">
        <ele>2008.8099999999999</ele>
        <time>2016-07-17T15:38:19Z</time>
      </trkpt>
      <trkpt lat="45.804394651204348" lon="7.813314003869891">
        <ele>2006.4100000000001</ele>
        <time>2016-07-17T15:38:33Z</time>
      </trkpt>
      <trkpt lat="45.804426586255431" lon="7.813455406576395">
        <ele>2003.52</ele>
        <time>2016-07-17T15:38:44Z</time>
      </trkpt>
      <trkpt lat="45.804433962330222" lon="7.813488179817796">
        <ele>2002.5599999999999</ele>
        <time>2016-07-17T15:38:46Z</time>
      </trkpt>
      <trkpt lat="45.804452318698168" lon="7.813645340502262">
        <ele>1999.6800000000001</ele>
        <time>2016-07-17T15:38:58Z</time>
      </trkpt>
      <trkpt lat="45.804452737793326" lon="7.813657745718956">
        <ele>1999.2</ele>
        <time>2016-07-17T15:38:59Z</time>
      </trkpt>
      <trkpt lat="45.804459862411022" lon="7.813697392120957">
        <ele>1998.24</ele>
        <time>2016-07-17T15:39:03Z</time>
      </trkpt>
      <trkpt lat="45.804455000907183" lon="7.813726477324963">
        <ele>1997.76</ele>
        <time>2016-07-17T15:39:05Z</time>
      </trkpt>
      <trkpt lat="45.804430022835732" lon="7.813762351870537">
        <ele>1995.3499999999999</ele>
        <time>2016-07-17T15:39:09Z</time>
      </trkpt>
      <trkpt lat="45.804420467466116" lon="7.813782384619117">
        <ele>1996.3199999999999</ele>
        <time>2016-07-17T15:39:11Z</time>
      </trkpt>
      <trkpt lat="45.804374031722546" lon="7.813854971900582">
        <ele>1993.9100000000001</ele>
        <time>2016-07-17T15:39:17Z</time>
      </trkpt>
      <trkpt lat="45.804284596815705" lon="7.813954884186387">
        <ele>1990.55</ele>
        <time>2016-07-17T15:39:27Z</time>
      </trkpt>
      <trkpt lat="45.804182756692171" lon="7.814081870019436">
        <ele>1987.1800000000001</ele>
        <time>2016-07-17T15:39:40Z</time>
      </trkpt>
      <trkpt lat="45.804077479988337" lon="7.814178178086877">
        <ele>1984.3</ele>
        <time>2016-07-17T15:39:52Z</time>
      </trkpt>
      <trkpt lat="45.804041270166636" lon="7.814179435372353">
        <ele>1982.8599999999999</ele>
        <time>2016-07-17T15:39:55Z</time>
      </trkpt>
      <trkpt lat="45.803964827209711" lon="7.814173065125942">
        <ele>1979.97</ele>
        <time>2016-07-17T15:40:02Z</time>
      </trkpt>
      <trkpt lat="45.803855946287513" lon="7.814179938286543">
        <ele>1978.05</ele>
        <time>2016-07-17T15:40:12Z</time>
      </trkpt>
      <trkpt lat="45.80381085164845" lon="7.814178010448813">
        <ele>1976.1300000000001</ele>
        <time>2016-07-17T15:40:16Z</time>
      </trkpt>
      <trkpt lat="45.803688392043114" lon="7.814209358766675">
        <ele>1973.24</ele>
        <time>2016-07-17T15:40:28Z</time>
      </trkpt>
      <trkpt lat="45.803619828075171" lon="7.814238192513585">
        <ele>1970.8399999999999</ele>
        <time>2016-07-17T15:40:35Z</time>
      </trkpt>
      <trkpt lat="45.80358705483377" lon="7.814229475334287">
        <ele>1969.8800000000001</ele>
        <time>2016-07-17T15:40:38Z</time>
      </trkpt>
      <trkpt lat="45.80344975925982" lon="7.814189158380032">
        <ele>1966.99</ele>
        <time>2016-07-17T15:40:50Z</time>
      </trkpt>
      <trkpt lat="45.803429139778018" lon="7.814177172258496">
        <ele>1966.03</ele>
        <time>2016-07-17T15:40:52Z</time>
      </trkpt>
      <trkpt lat="45.803304752334952" lon="7.814070386812091">
        <ele>1964.5899999999999</ele>
        <time>2016-07-17T15:41:04Z</time>
      </trkpt>
      <trkpt lat="45.803205678239465" lon="7.814007438719273">
        <ele>1963.1500000000001</ele>
        <time>2016-07-17T15:41:13Z</time>
      </trkpt>
      <trkpt lat="45.803148346021771" lon="7.813957147300243">
        <ele>1961.71</ele>
        <time>2016-07-17T15:41:20Z</time>
      </trkpt>
      <trkpt lat="45.803050445392728" lon="7.813894785940647">
        <ele>1958.8199999999999</ele>
        <time>2016-07-17T15:41:30Z</time>
      </trkpt>
      <trkpt lat="45.802974086254835" lon="7.81389445066452">
        <ele>1957.3800000000001</ele>
        <time>2016-07-17T15:41:38Z</time>
      </trkpt>
      <trkpt lat="45.802821703255177" lon="7.813876094296575">
        <ele>1954.98</ele>
        <time>2016-07-17T15:41:51Z</time>
      </trkpt>
      <trkpt lat="45.802784906700253" lon="7.813864527270198">
        <ele>1954.98</ele>
        <time>2016-07-17T15:41:55Z</time>
      </trkpt>
      <trkpt lat="45.802737129852176" lon="7.813876094296575">
        <ele>1954.02</ele>
        <time>2016-07-17T15:41:59Z</time>
      </trkpt>
      <trkpt lat="45.802663955837488" lon="7.813870562240481">
        <ele>1953.0599999999999</ele>
        <time>2016-07-17T15:42:10Z</time>
      </trkpt>
      <trkpt lat="45.802617184817791" lon="7.813849356025457">
        <ele>1951.6099999999999</ele>
        <time>2016-07-17T15:42:19Z</time>
      </trkpt>
      <trkpt lat="45.802544597536325" lon="7.813852624967694">
        <ele>1949.6900000000001</ele>
        <time>2016-07-17T15:42:28Z</time>
      </trkpt>
      <trkpt lat="45.802508890628815" lon="7.813856229186058">
        <ele>1948.25</ele>
        <time>2016-07-17T15:42:31Z</time>
      </trkpt>
      <trkpt lat="45.802501011639833" lon="7.813869472593069">
        <ele>1946.8099999999999</ele>
        <time>2016-07-17T15:42:39Z</time>
      </trkpt>
      <trkpt lat="45.802517859265208" lon="7.813904425129294">
        <ele>1946.3299999999999</ele>
        <time>2016-07-17T15:42:42Z</time>
      </trkpt>
      <trkpt lat="45.802525822073221" lon="7.813998302444816">
        <ele>1944.4000000000001</ele>
        <time>2016-07-17T15:42:52Z</time>
      </trkpt>
      <trkpt lat="45.802556667476892" lon="7.81409720890224">
        <ele>1941.04</ele>
        <time>2016-07-17T15:43:03Z</time>
      </trkpt>
      <trkpt lat="45.802536718547344" lon="7.814100729301572">
        <ele>1940.5599999999999</ele>
        <time>2016-07-17T15:43:05Z</time>
      </trkpt>
      <trkpt lat="45.802403027191758" lon="7.814113972708583">
        <ele>1937.1900000000001</ele>
        <time>2016-07-17T15:43:18Z</time>
      </trkpt>
      <trkpt lat="45.802344689145684" lon="7.814147835597396">
        <ele>1935.27</ele>
        <time>2016-07-17T15:43:27Z</time>
      </trkpt>
      <trkpt lat="45.802349047735333" lon="7.814173735678196">
        <ele>1934.79</ele>
        <time>2016-07-17T15:43:29Z</time>
      </trkpt>
      <trkpt lat="45.802352735772729" lon="7.81421447172761">
        <ele>1933.8299999999999</ele>
        <time>2016-07-17T15:43:32Z</time>
      </trkpt>
      <trkpt lat="45.802361872047186" lon="7.814271049574018">
        <ele>1932.8699999999999</ele>
        <time>2016-07-17T15:43:40Z</time>
      </trkpt>
      <trkpt lat="45.802327338606119" lon="7.814313629642129">
        <ele>1930.95</ele>
        <time>2016-07-17T15:43:50Z</time>
      </trkpt>
      <trkpt lat="45.802295655012131" lon="7.814419157803059">
        <ele>1928.54</ele>
        <time>2016-07-17T15:44:00Z</time>
      </trkpt>
      <trkpt lat="45.802284171804786" lon="7.81444170512259">
        <ele>1927.5799999999999</ele>
        <time>2016-07-17T15:44:02Z</time>
      </trkpt>
      <trkpt lat="45.802170597016811" lon="7.814460815861821">
        <ele>1924.22</ele>
        <time>2016-07-17T15:44:13Z</time>
      </trkpt>
      <trkpt lat="45.802120808511972" lon="7.814474813640118">
        <ele>1921.8099999999999</ele>
        <time>2016-07-17T15:44:19Z</time>
      </trkpt>
      <trkpt lat="45.802086107432842" lon="7.814433239400387">
        <ele>1919.8900000000001</ele>
        <time>2016-07-17T15:44:23Z</time>
      </trkpt>
      <trkpt lat="45.802067331969738" lon="7.814452601596713">
        <ele>1919.4100000000001</ele>
        <time>2016-07-17T15:44:28Z</time>
      </trkpt>
      <trkpt lat="45.802033049985766" lon="7.814576234668493">
        <ele>1916.53</ele>
        <time>2016-07-17T15:44:39Z</time>
      </trkpt>
      <trkpt lat="45.80201318487525" lon="7.814552765339613">
        <ele>1915.0799999999999</ele>
        <time>2016-07-17T15:44:47Z</time>
      </trkpt>
      <trkpt lat="45.802000360563397" lon="7.814532648772001">
        <ele>1914.5999999999999</ele>
        <time>2016-07-17T15:44:49Z</time>
      </trkpt>
      <trkpt lat="45.801962055265903" lon="7.814494594931603">
        <ele>1912.6800000000001</ele>
        <time>2016-07-17T15:44:53Z</time>
      </trkpt>
      <trkpt lat="45.801919056102633" lon="7.814444471150637">
        <ele>1911.24</ele>
        <time>2016-07-17T15:44:58Z</time>
      </trkpt>
      <trkpt lat="45.801867507398129" lon="7.814408009871841">
        <ele>1909.8</ele>
        <time>2016-07-17T15:45:03Z</time>
      </trkpt>
      <trkpt lat="45.801838506013155" lon="7.814382612705231">
        <ele>1909.8</ele>
        <time>2016-07-17T15:45:06Z</time>
      </trkpt>
      <trkpt lat="45.801805565133691" lon="7.814377415925264">
        <ele>1909.3199999999999</ele>
        <time>2016-07-17T15:45:09Z</time>
      </trkpt>
      <trkpt lat="45.801721159368753" lon="7.814330058172345">
        <ele>1906.4300000000001</ele>
        <time>2016-07-17T15:45:20Z</time>
      </trkpt>
      <trkpt lat="45.801680674776435" lon="7.814322263002396">
        <ele>1904.51</ele>
        <time>2016-07-17T15:45:27Z</time>
      </trkpt>
      <trkpt lat="45.801663743332028" lon="7.814332153648138">
        <ele>1904.03</ele>
        <time>2016-07-17T15:45:29Z</time>
      </trkpt>
      <trkpt lat="45.801631808280945" lon="7.814328046515584">
        <ele>1902.5899999999999</ele>
        <time>2016-07-17T15:45:32Z</time>
      </trkpt>
      <trkpt lat="45.801601801067591" lon="7.814340032637119">
        <ele>1902.1099999999999</ele>
        <time>2016-07-17T15:45:36Z</time>
      </trkpt>
      <trkpt lat="45.801559975370765" lon="7.814377751201391">
        <ele>1901.1400000000001</ele>
        <time>2016-07-17T15:45:41Z</time>
      </trkpt>
      <trkpt lat="45.801520999521017" lon="7.814472718164325">
        <ele>1898.26</ele>
        <time>2016-07-17T15:45:50Z</time>
      </trkpt>
      <trkpt lat="45.801406837999821" lon="7.814523763954639">
        <ele>1895.3800000000001</ele>
        <time>2016-07-17T15:46:02Z</time>
      </trkpt>
      <trkpt lat="45.801331903785467" lon="7.814558632671833">
        <ele>1893.45</ele>
        <time>2016-07-17T15:46:14Z</time>
      </trkpt>
      <trkpt lat="45.801298459991813" lon="7.814572714269161">
        <ele>1892.49</ele>
        <time>2016-07-17T15:46:21Z</time>
      </trkpt>
      <trkpt lat="45.801240121945739" lon="7.81458780169487">
        <ele>1891.05</ele>
        <time>2016-07-17T15:46:27Z</time>
      </trkpt>
      <trkpt lat="45.801205839961767" lon="7.814592998474836">
        <ele>1890.0899999999999</ele>
        <time>2016-07-17T15:46:33Z</time>
      </trkpt>
      <trkpt lat="45.80114976502955" lon="7.814634740352631">
        <ele>1887.21</ele>
        <time>2016-07-17T15:46:40Z</time>
      </trkpt>
      <trkpt lat="45.801143646240234" lon="7.814703891053796">
        <ele>1886.24</ele>
        <time>2016-07-17T15:46:48Z</time>
      </trkpt>
      <trkpt lat="45.801143143326044" lon="7.814770946279168">
        <ele>1883.8399999999999</ele>
        <time>2016-07-17T15:46:57Z</time>
      </trkpt>
      <trkpt lat="45.801153788343072" lon="7.814782345667481">
        <ele>1883.8399999999999</ele>
        <time>2016-07-17T15:46:59Z</time>
      </trkpt>
      <trkpt lat="45.801173401996493" lon="7.814831295982003">
        <ele>1882.4000000000001</ele>
        <time>2016-07-17T15:47:03Z</time>
      </trkpt>
      <trkpt lat="45.801155716180801" lon="7.814847724512219">
        <ele>1881.9200000000001</ele>
        <time>2016-07-17T15:47:05Z</time>
      </trkpt>
      <trkpt lat="45.801094612106681" lon="7.814849652349949">
        <ele>1880</ele>
        <time>2016-07-17T15:47:12Z</time>
      </trkpt>
      <trkpt lat="45.801079021766782" lon="7.814891980960965">
        <ele>1878.55</ele>
        <time>2016-07-17T15:47:18Z</time>
      </trkpt>
      <trkpt lat="45.801039459183812" lon="7.814969681203365">
        <ele>1876.1500000000001</ele>
        <time>2016-07-17T15:47:27Z</time>
      </trkpt>
      <trkpt lat="45.800962345674634" lon="7.815034724771977">
        <ele>1872.79</ele>
        <time>2016-07-17T15:47:37Z</time>
      </trkpt>
      <trkpt lat="45.800955891609192" lon="7.815044615417719">
        <ele>1871.3399999999999</ele>
        <time>2016-07-17T15:47:43Z</time>
      </trkpt>
      <trkpt lat="45.800980199128389" lon="7.815060624852777">
        <ele>1870.8599999999999</ele>
        <time>2016-07-17T15:47:46Z</time>
      </trkpt>
      <trkpt lat="45.80094113945961" lon="7.815073700621724">
        <ele>1869.9000000000001</ele>
        <time>2016-07-17T15:47:54Z</time>
      </trkpt>
      <trkpt lat="45.800916496664286" lon="7.815079651772976">
        <ele>1869.4200000000001</ele>
        <time>2016-07-17T15:48:01Z</time>
      </trkpt>
      <trkpt lat="45.800834856927395" lon="7.815157184377313">
        <ele>1866.54</ele>
        <time>2016-07-17T15:48:11Z</time>
      </trkpt>
      <trkpt lat="45.800772244110703" lon="7.815196998417378">
        <ele>1864.1300000000001</ele>
        <time>2016-07-17T15:48:19Z</time>
      </trkpt>
      <trkpt lat="45.800676438957453" lon="7.815204039216042">
        <ele>1861.73</ele>
        <time>2016-07-17T15:48:30Z</time>
      </trkpt>
      <trkpt lat="45.800628159195185" lon="7.815194986760616">
        <ele>1860.77</ele>
        <time>2016-07-17T15:48:40Z</time>
      </trkpt>
      <trkpt lat="45.800546854734421" lon="7.815199512988329">
        <ele>1857.8900000000001</ele>
        <time>2016-07-17T15:48:50Z</time>
      </trkpt>
      <trkpt lat="45.800451971590519" lon="7.815186772495508">
        <ele>1856.4400000000001</ele>
        <time>2016-07-17T15:49:00Z</time>
      </trkpt>
      <trkpt lat="45.800408301874995" lon="7.815193478018045">
        <ele>1855</ele>
        <time>2016-07-17T15:49:05Z</time>
      </trkpt>
      <trkpt lat="45.800318950787187" lon="7.815253408625722">
        <ele>1852.5999999999999</ele>
        <time>2016-07-17T15:49:16Z</time>
      </trkpt>
      <trkpt lat="45.800245190039277" lon="7.815257599577308">
        <ele>1851.6400000000001</ele>
        <time>2016-07-17T15:49:24Z</time>
      </trkpt>
      <trkpt lat="45.80019791610539" lon="7.815321804955602">
        <ele>1848.75</ele>
        <time>2016-07-17T15:49:34Z</time>
      </trkpt>
      <trkpt lat="45.800170339643955" lon="7.815351476892829">
        <ele>1847.3099999999999</ele>
        <time>2016-07-17T15:49:41Z</time>
      </trkpt>
      <trkpt lat="45.80016078427434" lon="7.815393889322877">
        <ele>1844.4300000000001</ele>
        <time>2016-07-17T15:49:51Z</time>
      </trkpt>
      <trkpt lat="45.800176877528429" lon="7.815487431362271">
        <ele>1841.0599999999999</ele>
        <time>2016-07-17T15:50:01Z</time>
      </trkpt>
      <trkpt lat="45.800072439014912" lon="7.815515343099833">
        <ele>1838.1800000000001</ele>
        <time>2016-07-17T15:50:12Z</time>
      </trkpt>
      <trkpt lat="45.799986105412245" lon="7.815519953146577">
        <ele>1836.26</ele>
        <time>2016-07-17T15:50:22Z</time>
      </trkpt>
      <trkpt lat="45.799928186461329" lon="7.815510984510183">
        <ele>1835.77</ele>
        <time>2016-07-17T15:50:28Z</time>
      </trkpt>
      <trkpt lat="45.799862304702401" lon="7.81553328037262">
        <ele>1836.26</ele>
        <time>2016-07-17T15:50:35Z</time>
      </trkpt>
      <trkpt lat="45.799780078232288" lon="7.815474104136229">
        <ele>1835.77</ele>
        <time>2016-07-17T15:50:43Z</time>
      </trkpt>
      <trkpt lat="45.799703383818269" lon="7.815505200996995">
        <ele>1833.3699999999999</ele>
        <time>2016-07-17T15:50:55Z</time>
      </trkpt>
      <trkpt lat="45.799729032441974" lon="7.815518360584974">
        <ele>1833.3699999999999</ele>
        <time>2016-07-17T15:51:05Z</time>
      </trkpt>
      <trkpt lat="45.799856269732118" lon="7.81562858261168">
        <ele>1830.49</ele>
        <time>2016-07-17T15:51:19Z</time>
      </trkpt>
      <trkpt lat="45.799859957769513" lon="7.81568088568747">
        <ele>1827.5999999999999</ele>
        <time>2016-07-17T15:51:27Z</time>
      </trkpt>
      <trkpt lat="45.799844786524773" lon="7.815742744132876">
        <ele>1824.72</ele>
        <time>2016-07-17T15:51:35Z</time>
      </trkpt>
      <trkpt lat="45.799823915585876" lon="7.815796472132206">
        <ele>1822.8</ele>
        <time>2016-07-17T15:51:42Z</time>
      </trkpt>
      <trkpt lat="45.799836907535791" lon="7.815860928967595">
        <ele>1820.8699999999999</ele>
        <time>2016-07-17T15:51:47Z</time>
      </trkpt>
      <trkpt lat="45.799819054082036" lon="7.815972240641713">
        <ele>1818.95</ele>
        <time>2016-07-17T15:51:55Z</time>
      </trkpt>
      <trkpt lat="45.799770019948483" lon="7.816099813207984">
        <ele>1815.5899999999999</ele>
        <time>2016-07-17T15:52:06Z</time>
      </trkpt>
      <trkpt lat="45.799757950007915" lon="7.816175082698464">
        <ele>1813.1800000000001</ele>
        <time>2016-07-17T15:52:16Z</time>
      </trkpt>
      <trkpt lat="45.799752753227949" lon="7.816182123497129">
        <ele>1813.1800000000001</ele>
        <time>2016-07-17T15:52:17Z</time>
      </trkpt>
      <trkpt lat="45.799617636948824" lon="7.81615823507309">
        <ele>1812.22</ele>
        <time>2016-07-17T15:52:29Z</time>
      </trkpt>
      <trkpt lat="45.79956860281527" lon="7.816171310842037">
        <ele>1810.78</ele>
        <time>2016-07-17T15:52:41Z</time>
      </trkpt>
      <trkpt lat="45.799469780176878" lon="7.816143650561571">
        <ele>1808.3800000000001</ele>
        <time>2016-07-17T15:52:51Z</time>
      </trkpt>
      <trkpt lat="45.799414124339819" lon="7.816114062443376">
        <ele>1806.9400000000001</ele>
        <time>2016-07-17T15:52:56Z</time>
      </trkpt>
      <trkpt lat="45.799371879547834" lon="7.81612453982234">
        <ele>1806.45</ele>
        <time>2016-07-17T15:53:00Z</time>
      </trkpt>
      <trkpt lat="45.799326449632645" lon="7.816150858998299">
        <ele>1806.45</ele>
        <time>2016-07-17T15:53:04Z</time>
      </trkpt>
      <trkpt lat="45.799218993633986" lon="7.816250771284103">
        <ele>1805.01</ele>
        <time>2016-07-17T15:53:16Z</time>
      </trkpt>
      <trkpt lat="45.799199379980564" lon="7.816284969449043">
        <ele>1804.53</ele>
        <time>2016-07-17T15:53:19Z</time>
      </trkpt>
      <trkpt lat="45.799138275906444" lon="7.81635906547308">
        <ele>1805.01</ele>
        <time>2016-07-17T15:53:28Z</time>
      </trkpt>
      <trkpt lat="45.799124361947179" lon="7.816350432112813">
        <ele>1805.01</ele>
        <time>2016-07-17T15:53:37Z</time>
      </trkpt>
      <trkpt lat="45.799073651432991" lon="7.816282957792282">
        <ele>1804.05</ele>
        <time>2016-07-17T15:53:46Z</time>
      </trkpt>
      <trkpt lat="45.799057306721807" lon="7.81630533747375">
        <ele>1804.05</ele>
        <time>2016-07-17T15:53:57Z</time>
      </trkpt>
      <trkpt lat="45.799027048051357" lon="7.816288322210312">
        <ele>1804.05</ele>
        <time>2016-07-17T15:54:08Z</time>
      </trkpt>
      <trkpt lat="45.798981785774231" lon="7.816277677193284">
        <ele>1803.0899999999999</ele>
        <time>2016-07-17T15:54:20Z</time>
      </trkpt>
      <trkpt lat="45.79898371361196" lon="7.816243059933186">
        <ele>1802.6099999999999</ele>
        <time>2016-07-17T15:54:38Z</time>
      </trkpt>
      <trkpt lat="45.798964686691761" lon="7.816255046054721">
        <ele>1802.1300000000001</ele>
        <time>2016-07-17T15:54:53Z</time>
      </trkpt>
      <trkpt lat="45.798938702791929" lon="7.816234594210982">
        <ele>1801.6500000000001</ele>
        <time>2016-07-17T15:55:12Z</time>
      </trkpt>
      <trkpt lat="45.798913892358541" lon="7.816258314996958">
        <ele>1801.1700000000001</ele>
        <time>2016-07-17T15:55:36Z</time>
      </trkpt>
      <trkpt lat="45.798887070268393" lon="7.816231157630682">
        <ele>1800.21</ele>
        <time>2016-07-17T15:55:50Z</time>
      </trkpt>
      <trkpt lat="45.798812303692102" lon="7.816255129873753">
        <ele>1797.8</ele>
        <time>2016-07-17T15:56:02Z</time>
      </trkpt>
      <trkpt lat="45.798822361975908" lon="7.816123617812991">
        <ele>1794.9200000000001</ele>
        <time>2016-07-17T15:56:12Z</time>
      </trkpt>
      <trkpt lat="45.798798305913806" lon="7.816015826538205">
        <ele>1793</ele>
        <time>2016-07-17T15:56:25Z</time>
      </trkpt>
      <trkpt lat="45.798722868785262" lon="7.815905353054404">
        <ele>1789.6300000000001</ele>
        <time>2016-07-17T15:56:37Z</time>
      </trkpt>
      <trkpt lat="45.798695962876081" lon="7.815859755501151">
        <ele>1788.6700000000001</ele>
        <time>2016-07-17T15:56:42Z</time>
      </trkpt>
      <trkpt lat="45.79864994622767" lon="7.815856235101819">
        <ele>1787.23</ele>
        <time>2016-07-17T15:56:48Z</time>
      </trkpt>
      <trkpt lat="45.798617508262396" lon="7.815855816006661">
        <ele>1785.79</ele>
        <time>2016-07-17T15:56:52Z</time>
      </trkpt>
      <trkpt lat="45.798578532412648" lon="7.815843746066093">
        <ele>1783.3800000000001</ele>
        <time>2016-07-17T15:56:57Z</time>
      </trkpt>
      <trkpt lat="45.798546262085438" lon="7.815843410789967">
        <ele>1781.9400000000001</ele>
        <time>2016-07-17T15:57:04Z</time>
      </trkpt>
      <trkpt lat="45.79854148440063" lon="7.815844248980284">
        <ele>1781.9400000000001</ele>
        <time>2016-07-17T15:57:05Z</time>
      </trkpt>
      <trkpt lat="45.798474764451385" lon="7.815814157947898">
        <ele>1780.02</ele>
        <time>2016-07-17T15:57:15Z</time>
      </trkpt>
      <trkpt lat="45.798469483852386" lon="7.815816001966596">
        <ele>1779.0599999999999</ele>
        <time>2016-07-17T15:57:17Z</time>
      </trkpt>
      <trkpt lat="45.798378121107817" lon="7.815774846822023">
        <ele>1776.6500000000001</ele>
        <time>2016-07-17T15:57:28Z</time>
      </trkpt>
      <trkpt lat="45.798353226855397" lon="7.815767722204328">
        <ele>1775.21</ele>
        <time>2016-07-17T15:57:39Z</time>
      </trkpt>
      <trkpt lat="45.798352137207985" lon="7.81579471193254">
        <ele>1773.77</ele>
        <time>2016-07-17T15:57:42Z</time>
      </trkpt>
      <trkpt lat="45.798328164964914" lon="7.815857576206327">
        <ele>1771.3699999999999</ele>
        <time>2016-07-17T15:57:53Z</time>
      </trkpt>
      <trkpt lat="45.798332439735532" lon="7.815915830433369">
        <ele>1769.9200000000001</ele>
        <time>2016-07-17T15:58:02Z</time>
      </trkpt>
      <trkpt lat="45.798289105296135" lon="7.815976096317172">
        <ele>1766.5599999999999</ele>
        <time>2016-07-17T15:58:10Z</time>
      </trkpt>
      <trkpt lat="45.79828692600131" lon="7.815972995012999">
        <ele>1766.0799999999999</ele>
        <time>2016-07-17T15:58:20Z</time>
      </trkpt>
      <trkpt lat="45.79829522408545" lon="7.815975844860077">
        <ele>1766.5599999999999</ele>
        <time>2016-07-17T15:58:24Z</time>
      </trkpt>
      <trkpt lat="45.798355238512158" lon="7.816133424639702">
        <ele>1762.23</ele>
        <time>2016-07-17T15:58:37Z</time>
      </trkpt>
      <trkpt lat="45.798379629850388" lon="7.816213052719832">
        <ele>1760.79</ele>
        <time>2016-07-17T15:58:43Z</time>
      </trkpt>
      <trkpt lat="45.798334702849388" lon="7.816324280574918">
        <ele>1758.3900000000001</ele>
        <time>2016-07-17T15:58:55Z</time>
      </trkpt>
      <trkpt lat="45.798316011205316" lon="7.816364681348205">
        <ele>1756.95</ele>
        <time>2016-07-17T15:59:04Z</time>
      </trkpt>
      <trkpt lat="45.798344928771257" lon="7.816416984423995">
        <ele>1754.54</ele>
        <time>2016-07-17T15:59:14Z</time>
      </trkpt>
      <trkpt lat="45.798363955691457" lon="7.816498707979918">
        <ele>1751.6600000000001</ele>
        <time>2016-07-17T15:59:23Z</time>
      </trkpt>
      <trkpt lat="45.798378875479102" lon="7.816569367423654">
        <ele>1748.78</ele>
        <time>2016-07-17T15:59:33Z</time>
      </trkpt>
      <trkpt lat="45.798300839960575" lon="7.816554196178913">
        <ele>1745.8900000000001</ele>
        <time>2016-07-17T15:59:44Z</time>
      </trkpt>
      <trkpt lat="45.798248033970594" lon="7.816527374088764">
        <ele>1744.45</ele>
        <time>2016-07-17T15:59:52Z</time>
      </trkpt>
      <trkpt lat="45.798216434195638" lon="7.816569702699781">
        <ele>1743.01</ele>
        <time>2016-07-17T15:59:57Z</time>
      </trkpt>
      <trkpt lat="45.798160191625357" lon="7.816550340503454">
        <ele>1741.0799999999999</ele>
        <time>2016-07-17T16:00:08Z</time>
      </trkpt>
      <trkpt lat="45.798165136948228" lon="7.816615048795939">
        <ele>1739.6400000000001</ele>
        <time>2016-07-17T16:00:16Z</time>
      </trkpt>
      <trkpt lat="45.798167064785957" lon="7.816717475652695">
        <ele>1737.24</ele>
        <time>2016-07-17T16:00:26Z</time>
      </trkpt>
      <trkpt lat="45.798105876892805" lon="7.81667523086071">
        <ele>1735.8</ele>
        <time>2016-07-17T16:00:34Z</time>
      </trkpt>
      <trkpt lat="45.798070253804326" lon="7.816690821200609">
        <ele>1733.8800000000001</ele>
        <time>2016-07-17T16:00:45Z</time>
      </trkpt>
      <trkpt lat="45.798061201348901" lon="7.816838258877397">
        <ele>1730.99</ele>
        <time>2016-07-17T16:00:58Z</time>
      </trkpt>
      <trkpt lat="45.798002276569605" lon="7.816912438720465">
        <ele>1728.1099999999999</ele>
        <time>2016-07-17T16:01:10Z</time>
      </trkpt>
      <trkpt lat="45.797998504713178" lon="7.816897602751851">
        <ele>1726.1800000000001</ele>
        <time>2016-07-17T16:01:20Z</time>
      </trkpt>
      <trkpt lat="45.798050891608" lon="7.816990138962865">
        <ele>1723.78</ele>
        <time>2016-07-17T16:01:31Z</time>
      </trkpt>
      <trkpt lat="45.798116773366928" lon="7.817025929689407">
        <ele>1721.3800000000001</ele>
        <time>2016-07-17T16:01:41Z</time>
      </trkpt>
      <trkpt lat="45.798075785860419" lon="7.817097678780556">
        <ele>1718.49</ele>
        <time>2016-07-17T16:01:51Z</time>
      </trkpt>
      <trkpt lat="45.798012502491474" lon="7.81713992357254">
        <ele>1716.0899999999999</ele>
        <time>2016-07-17T16:02:02Z</time>
      </trkpt>
      <trkpt lat="45.797970928251743" lon="7.81718292273581">
        <ele>1713.6900000000001</ele>
        <time>2016-07-17T16:02:11Z</time>
      </trkpt>
      <trkpt lat="45.797904627397656" lon="7.817218042910099">
        <ele>1711.76</ele>
        <time>2016-07-17T16:02:20Z</time>
      </trkpt>
      <trkpt lat="45.79789993353188" lon="7.817217037081718">
        <ele>1711.28</ele>
        <time>2016-07-17T16:02:22Z</time>
      </trkpt>
      <trkpt lat="45.797838158905506" lon="7.817191807553172">
        <ele>1709.3599999999999</ele>
        <time>2016-07-17T16:02:33Z</time>
      </trkpt>
      <trkpt lat="45.797813767567277" lon="7.817223910242319">
        <ele>1706.96</ele>
        <time>2016-07-17T16:02:44Z</time>
      </trkpt>
      <trkpt lat="45.797835057601333" lon="7.817248133942485">
        <ele>1705.04</ele>
        <time>2016-07-17T16:02:54Z</time>
      </trkpt>
      <trkpt lat="45.797801865264773" lon="7.817279230803251">
        <ele>1703.1099999999999</ele>
        <time>2016-07-17T16:03:02Z</time>
      </trkpt>
      <trkpt lat="45.797720644623041" lon="7.817185604944825">
        <ele>1701.1900000000001</ele>
        <time>2016-07-17T16:03:15Z</time>
      </trkpt>
      <trkpt lat="45.797684602439404" lon="7.817097343504429">
        <ele>1698.79</ele>
        <time>2016-07-17T16:03:27Z</time>
      </trkpt>
      <trkpt lat="45.797682758420706" lon="7.817197758704424">
        <ele>1696.3800000000001</ele>
        <time>2016-07-17T16:03:37Z</time>
      </trkpt>
      <trkpt lat="45.797673789784312" lon="7.817235728725791">
        <ele>1695.9000000000001</ele>
        <time>2016-07-17T16:03:41Z</time>
      </trkpt>
      <trkpt lat="45.797670101746917" lon="7.817342849448323">
        <ele>1693.5</ele>
        <time>2016-07-17T16:03:52Z</time>
      </trkpt>
      <trkpt lat="45.797634981572628" lon="7.817426919937134">
        <ele>1691.0999999999999</ele>
        <time>2016-07-17T16:04:03Z</time>
      </trkpt>
      <trkpt lat="45.797578822821379" lon="7.81728501431644">
        <ele>1688.21</ele>
        <time>2016-07-17T16:04:17Z</time>
      </trkpt>
      <trkpt lat="45.797595251351595" lon="7.817344358190894">
        <ele>1688.21</ele>
        <time>2016-07-17T16:04:26Z</time>
      </trkpt>
      <trkpt lat="45.797582343220711" lon="7.81740034930408">
        <ele>1684.8499999999999</ele>
        <time>2016-07-17T16:04:33Z</time>
      </trkpt>
      <trkpt lat="45.797514282166958" lon="7.817356092855334">
        <ele>1682.4400000000001</ele>
        <time>2016-07-17T16:04:43Z</time>
      </trkpt>
      <trkpt lat="45.797530543059111" lon="7.817392470315099">
        <ele>1680.52</ele>
        <time>2016-07-17T16:04:51Z</time>
      </trkpt>
      <trkpt lat="45.797582846134901" lon="7.817467069253326">
        <ele>1678.5999999999999</ele>
        <time>2016-07-17T16:05:01Z</time>
      </trkpt>
      <trkpt lat="45.797616373747587" lon="7.817593971267343">
        <ele>1675.72</ele>
        <time>2016-07-17T16:05:12Z</time>
      </trkpt>
      <trkpt lat="45.797624252736568" lon="7.817716430872679">
        <ele>1674.27</ele>
        <time>2016-07-17T16:05:23Z</time>
      </trkpt>
      <trkpt lat="45.797653421759605" lon="7.817769488319755">
        <ele>1672.8299999999999</ele>
        <time>2016-07-17T16:05:33Z</time>
      </trkpt>
      <trkpt lat="45.797544037923217" lon="7.817745264619589">
        <ele>1670.9100000000001</ele>
        <time>2016-07-17T16:05:45Z</time>
      </trkpt>
      <trkpt lat="45.797544708475471" lon="7.817778792232275">
        <ele>1669.47</ele>
        <time>2016-07-17T16:05:53Z</time>
      </trkpt>
      <trkpt lat="45.797535320743918" lon="7.817852301523089">
        <ele>1666.5799999999999</ele>
        <time>2016-07-17T16:06:04Z</time>
      </trkpt>
      <trkpt lat="45.797488549724221" lon="7.81782791018486">
        <ele>1664.6600000000001</ele>
        <time>2016-07-17T16:06:15Z</time>
      </trkpt>
      <trkpt lat="45.79750900156796" lon="7.817904017865658">
        <ele>1662.74</ele>
        <time>2016-07-17T16:06:23Z</time>
      </trkpt>
      <trkpt lat="45.797556946054101" lon="7.817966798320413">
        <ele>1661.3</ele>
        <time>2016-07-17T16:06:30Z</time>
      </trkpt>
      <trkpt lat="45.797480503097177" lon="7.817963110283017">
        <ele>1659.3699999999999</ele>
        <time>2016-07-17T16:06:39Z</time>
      </trkpt>
      <trkpt lat="45.797472624108195" lon="7.817982723936439">
        <ele>1658.4100000000001</ele>
        <time>2016-07-17T16:06:44Z</time>
      </trkpt>
      <trkpt lat="45.797416716814041" lon="7.817954476922751">
        <ele>1656.97</ele>
        <time>2016-07-17T16:06:54Z</time>
      </trkpt>
      <trkpt lat="45.797382770106196" lon="7.817925224080682">
        <ele>1655.05</ele>
        <time>2016-07-17T16:07:09Z</time>
      </trkpt>
      <trkpt lat="45.79739173874259" lon="7.817942490801215">
        <ele>1655.05</ele>
        <time>2016-07-17T16:07:12Z</time>
      </trkpt>
      <trkpt lat="45.797448065131903" lon="7.818068638443947">
        <ele>1651.2</ele>
        <time>2016-07-17T16:07:24Z</time>
      </trkpt>
      <trkpt lat="45.797405233606696" lon="7.818117924034596">
        <ele>1649.28</ele>
        <time>2016-07-17T16:07:31Z</time>
      </trkpt>
      <trkpt lat="45.79735703766346" lon="7.81815086491406">
        <ele>1647.8399999999999</ele>
        <time>2016-07-17T16:07:40Z</time>
      </trkpt>
      <trkpt lat="45.797328539192677" lon="7.818192690610886">
        <ele>1644.95</ele>
        <time>2016-07-17T16:07:48Z</time>
      </trkpt>
      <trkpt lat="45.797345386818051" lon="7.818235438317061">
        <ele>1643.99</ele>
        <time>2016-07-17T16:07:54Z</time>
      </trkpt>
      <trkpt lat="45.797394085675478" lon="7.818266535177827">
        <ele>1641.1099999999999</ele>
        <time>2016-07-17T16:08:05Z</time>
      </trkpt>
      <trkpt lat="45.797401797026396" lon="7.818342642858625">
        <ele>1638.7</ele>
        <time>2016-07-17T16:08:13Z</time>
      </trkpt>
      <trkpt lat="45.797435911372304" lon="7.818414978682995">
        <ele>1636.3</ele>
        <time>2016-07-17T16:08:24Z</time>
      </trkpt>
      <trkpt lat="45.797451250255108" lon="7.818463761359453">
        <ele>1633.9000000000001</ele>
        <time>2016-07-17T16:08:31Z</time>
      </trkpt>
      <trkpt lat="45.797418812289834" lon="7.81850659288466">
        <ele>1631.49</ele>
        <time>2016-07-17T16:08:40Z</time>
      </trkpt>
      <trkpt lat="45.797394504770637" lon="7.8184958640486">
        <ele>1630.53</ele>
        <time>2016-07-17T16:08:49Z</time>
      </trkpt>
      <trkpt lat="45.797447059303522" lon="7.818546993657947">
        <ele>1628.1300000000001</ele>
        <time>2016-07-17T16:08:59Z</time>
      </trkpt>
      <trkpt lat="45.797466672956944" lon="7.818621005862951">
        <ele>1626.21</ele>
        <time>2016-07-17T16:09:07Z</time>
      </trkpt>
      <trkpt lat="45.797483688220382" lon="7.818703483790159">
        <ele>1623.8</ele>
        <time>2016-07-17T16:09:17Z</time>
      </trkpt>
      <trkpt lat="45.797488801181316" lon="7.818824434652925">
        <ele>1620.9200000000001</ele>
        <time>2016-07-17T16:09:29Z</time>
      </trkpt>
      <trkpt lat="45.79749433323741" lon="7.818882605060935">
        <ele>1619</ele>
        <time>2016-07-17T16:09:37Z</time>
      </trkpt>
      <trkpt lat="45.797524340450764" lon="7.818953096866608">
        <ele>1617.0699999999999</ele>
        <time>2016-07-17T16:09:47Z</time>
      </trkpt>
      <trkpt lat="45.797562981024384" lon="7.819013111293316">
        <ele>1614.1900000000001</ele>
        <time>2016-07-17T16:09:59Z</time>
      </trkpt>
      <trkpt lat="45.797617882490158" lon="7.819049237295985">
        <ele>1612.75</ele>
        <time>2016-07-17T16:10:12Z</time>
      </trkpt>
      <trkpt lat="45.79764436930418" lon="7.819092320278287">
        <ele>1610.8299999999999</ele>
        <time>2016-07-17T16:10:22Z</time>
      </trkpt>
      <trkpt lat="45.797660127282143" lon="7.819127440452576">
        <ele>1608.9000000000001</ele>
        <time>2016-07-17T16:10:34Z</time>
      </trkpt>
      <trkpt lat="45.797727350145578" lon="7.819150825962424">
        <ele>1606.98</ele>
        <time>2016-07-17T16:10:43Z</time>
      </trkpt>
      <trkpt lat="45.797803206369281" lon="7.819181671366096">
        <ele>1604.5799999999999</ele>
        <time>2016-07-17T16:10:54Z</time>
      </trkpt>
      <trkpt lat="45.797882666811347" lon="7.819241434335709">
        <ele>1602.6600000000001</ele>
        <time>2016-07-17T16:11:02Z</time>
      </trkpt>
      <trkpt lat="45.797938657924533" lon="7.819294240325689">
        <ele>1599.77</ele>
        <time>2016-07-17T16:11:11Z</time>
      </trkpt>
      <trkpt lat="45.79796296544373" lon="7.819317961111665">
        <ele>1597.8499999999999</ele>
        <time>2016-07-17T16:11:19Z</time>
      </trkpt>
      <trkpt lat="45.79797176644206" lon="7.819403205066919">
        <ele>1595.45</ele>
        <time>2016-07-17T16:11:29Z</time>
      </trkpt>
      <trkpt lat="45.798029685392976" lon="7.8194525744766">
        <ele>1593.04</ele>
        <time>2016-07-17T16:11:39Z</time>
      </trkpt>
      <trkpt lat="45.79795952886343" lon="7.819537650793791">
        <ele>1590.6400000000001</ele>
        <time>2016-07-17T16:11:48Z</time>
      </trkpt>
      <trkpt lat="45.798003450036049" lon="7.819557180628181">
        <ele>1587.75</ele>
        <time>2016-07-17T16:11:58Z</time>
      </trkpt>
      <trkpt lat="45.798012251034379" lon="7.819556510075927">
        <ele>1587.27</ele>
        <time>2016-07-17T16:11:59Z</time>
      </trkpt>
      <trkpt lat="45.798056088387966" lon="7.819577464833856">
        <ele>1586.79</ele>
        <time>2016-07-17T16:12:03Z</time>
      </trkpt>
      <trkpt lat="45.797985680401325" lon="7.819656757637858">
        <ele>1585.3499999999999</ele>
        <time>2016-07-17T16:12:12Z</time>
      </trkpt>
      <trkpt lat="45.79800546169281" lon="7.8196788020432">
        <ele>1583.4300000000001</ele>
        <time>2016-07-17T16:12:19Z</time>
      </trkpt>
      <trkpt lat="45.798085425049067" lon="7.81967394053936">
        <ele>1581.51</ele>
        <time>2016-07-17T16:12:28Z</time>
      </trkpt>
      <trkpt lat="45.798143343999982" lon="7.819631779566407">
        <ele>1578.6199999999999</ele>
        <time>2016-07-17T16:12:38Z</time>
      </trkpt>
      <trkpt lat="45.798219284042716" lon="7.819553995504975">
        <ele>1575.74</ele>
        <time>2016-07-17T16:12:48Z</time>
      </trkpt>
      <trkpt lat="45.798264881595969" lon="7.819559527561069">
        <ele>1574.78</ele>
        <time>2016-07-17T16:12:52Z</time>
      </trkpt>
      <trkpt lat="45.798337804153562" lon="7.819650638848543">
        <ele>1573.3299999999999</ele>
        <time>2016-07-17T16:12:57Z</time>
      </trkpt>
      <trkpt lat="45.798347527161241" lon="7.819802267476916">
        <ele>1571.4100000000001</ele>
        <time>2016-07-17T16:13:06Z</time>
      </trkpt>
      <trkpt lat="45.798353813588619" lon="7.819897318258882">
        <ele>1569.49</ele>
        <time>2016-07-17T16:13:14Z</time>
      </trkpt>
      <trkpt lat="45.798402931541204" lon="7.819824563339353">
        <ele>1566.6099999999999</ele>
        <time>2016-07-17T16:13:24Z</time>
      </trkpt>
      <trkpt lat="45.798463197425008" lon="7.819840405136347">
        <ele>1564.6800000000001</ele>
        <time>2016-07-17T16:13:34Z</time>
      </trkpt>
      <trkpt lat="45.79846914857626" lon="7.81995439901948">
        <ele>1562.76</ele>
        <time>2016-07-17T16:13:43Z</time>
      </trkpt>
      <trkpt lat="45.798501670360565" lon="7.82004676759243">
        <ele>1560.3599999999999</ele>
        <time>2016-07-17T16:13:54Z</time>
      </trkpt>
      <trkpt lat="45.798508292064071" lon="7.820050539448857">
        <ele>1559.8800000000001</ele>
        <time>2016-07-17T16:13:55Z</time>
      </trkpt>
      <trkpt lat="45.798518350347877" lon="7.819946939125657">
        <ele>1557.47</ele>
        <time>2016-07-17T16:14:05Z</time>
      </trkpt>
      <trkpt lat="45.798584232106805" lon="7.819936126470566">
        <ele>1555.0699999999999</ele>
        <time>2016-07-17T16:14:12Z</time>
      </trkpt>
      <trkpt lat="45.798637708649039" lon="7.820033859461546">
        <ele>1553.1500000000001</ele>
        <time>2016-07-17T16:14:21Z</time>
      </trkpt>
      <trkpt lat="45.798655562102795" lon="7.820091610774398">
        <ele>1552.1900000000001</ele>
        <time>2016-07-17T16:14:30Z</time>
      </trkpt>
      <trkpt lat="45.798711972311139" lon="7.820102591067553">
        <ele>1549.3</ele>
        <time>2016-07-17T16:14:38Z</time>
      </trkpt>
      <trkpt lat="45.798804424703121" lon="7.820067722350359">
        <ele>1546.9000000000001</ele>
        <time>2016-07-17T16:14:48Z</time>
      </trkpt>
      <trkpt lat="45.798830660060048" lon="7.820172077044845">
        <ele>1544.98</ele>
        <time>2016-07-17T16:14:58Z</time>
      </trkpt>
      <trkpt lat="45.798824960365891" lon="7.820282215252519">
        <ele>1542.0899999999999</ele>
        <time>2016-07-17T16:15:10Z</time>
      </trkpt>
      <trkpt lat="45.798791432753205" lon="7.820346169173718">
        <ele>1540.1700000000001</ele>
        <time>2016-07-17T16:15:17Z</time>
      </trkpt>
      <trkpt lat="45.798771567642689" lon="7.820392772555351">
        <ele>1537.77</ele>
        <time>2016-07-17T16:15:25Z</time>
      </trkpt>
      <trkpt lat="45.798772908747196" lon="7.820417247712612">
        <ele>1537.29</ele>
        <time>2016-07-17T16:15:28Z</time>
      </trkpt>
      <trkpt lat="45.798830492421985" lon="7.820477345958352">
        <ele>1534.8800000000001</ele>
        <time>2016-07-17T16:15:38Z</time>
      </trkpt>
      <trkpt lat="45.798908695578575" lon="7.820473071187735">
        <ele>1532.96</ele>
        <time>2016-07-17T16:15:48Z</time>
      </trkpt>
      <trkpt lat="45.798987736925483" lon="7.820577090606093">
        <ele>1530.0799999999999</ele>
        <time>2016-07-17T16:15:59Z</time>
      </trkpt>
      <trkpt lat="45.798529498279095" lon="7.820466617122293">
        <ele>1528.6300000000001</ele>
        <time>2016-07-17T16:16:08Z</time>
      </trkpt>
      <trkpt lat="45.79859621822834" lon="7.820548508316279">
        <ele>1526.23</ele>
        <time>2016-07-17T16:16:17Z</time>
      </trkpt>
      <trkpt lat="45.798639133572578" lon="7.820636015385389">
        <ele>1522.8699999999999</ele>
        <time>2016-07-17T16:16:28Z</time>
      </trkpt>
      <trkpt lat="45.798642067238688" lon="7.820638949051499">
        <ele>1522.3900000000001</ele>
        <time>2016-07-17T16:16:38Z</time>
      </trkpt>
      <trkpt lat="45.798583813011646" lon="7.820636769756675">
        <ele>1519.98</ele>
        <time>2016-07-17T16:16:48Z</time>
      </trkpt>
      <trkpt lat="45.798520278185606" lon="7.820647833868861">
        <ele>1517.0999999999999</ele>
        <time>2016-07-17T16:16:57Z</time>
      </trkpt>
      <trkpt lat="45.798487504944205" lon="7.820656383410096">
        <ele>1516.1400000000001</ele>
        <time>2016-07-17T16:17:01Z</time>
      </trkpt>
      <trkpt lat="45.798445176333189" lon="7.820681277662516">
        <ele>1514.6900000000001</ele>
        <time>2016-07-17T16:17:04Z</time>
      </trkpt>
      <trkpt lat="45.798337887972593" lon="7.820690246298909">
        <ele>1512.77</ele>
        <time>2016-07-17T16:17:12Z</time>
      </trkpt>
      <trkpt lat="45.79828105866909" lon="7.820669794455171">
        <ele>1509.4100000000001</ele>
        <time>2016-07-17T16:17:22Z</time>
      </trkpt>
      <trkpt lat="45.798195730894804" lon="7.820715140551329">
        <ele>1506.52</ele>
        <time>2016-07-17T16:17:33Z</time>
      </trkpt>
      <trkpt lat="45.798139907419682" lon="7.820789320394397">
        <ele>1503.6400000000001</ele>
        <time>2016-07-17T16:17:43Z</time>
      </trkpt>
      <trkpt lat="45.798097746446729" lon="7.820839863270521">
        <ele>1501.24</ele>
        <time>2016-07-17T16:17:50Z</time>
      </trkpt>
      <trkpt lat="45.798049466684461" lon="7.820897111669183">
        <ele>1499.3099999999999</ele>
        <time>2016-07-17T16:17:59Z</time>
      </trkpt>
      <trkpt lat="45.797954332083464" lon="7.820918988436461">
        <ele>1495.95</ele>
        <time>2016-07-17T16:18:10Z</time>
      </trkpt>
      <trkpt lat="45.79787889495492" lon="7.820933908224106">
        <ele>1494.03</ele>
        <time>2016-07-17T16:18:18Z</time>
      </trkpt>
      <trkpt lat="45.797926001250744" lon="7.820997945964336">
        <ele>1492.0999999999999</ele>
        <time>2016-07-17T16:18:27Z</time>
      </trkpt>
      <trkpt lat="45.797969587147236" lon="7.821026779711247">
        <ele>1490.6600000000001</ele>
        <time>2016-07-17T16:18:33Z</time>
      </trkpt>
      <trkpt lat="45.797975705936551" lon="7.821048321202397">
        <ele>1490.1800000000001</ele>
        <time>2016-07-17T16:18:34Z</time>
      </trkpt>
      <trkpt lat="45.797921055927873" lon="7.821090649813414">
        <ele>1488.26</ele>
        <time>2016-07-17T16:18:43Z</time>
      </trkpt>
      <trkpt lat="45.797893982380629" lon="7.821087129414082">
        <ele>1486.8199999999999</ele>
        <time>2016-07-17T16:18:47Z</time>
      </trkpt>
      <trkpt lat="45.797827010974288" lon="7.821072209626436">
        <ele>1484.8900000000001</ele>
        <time>2016-07-17T16:18:56Z</time>
      </trkpt>
      <trkpt lat="45.797757441177964" lon="7.821078831329942">
        <ele>1481.53</ele>
        <time>2016-07-17T16:19:07Z</time>
      </trkpt>
      <trkpt lat="45.797722488641739" lon="7.821075897663832">
        <ele>1479.6099999999999</ele>
        <time>2016-07-17T16:19:16Z</time>
      </trkpt>
      <trkpt lat="45.79773522913456" lon="7.821186203509569">
        <ele>1476.72</ele>
        <time>2016-07-17T16:19:27Z</time>
      </trkpt>
      <trkpt lat="45.797703042626381" lon="7.821262981742621">
        <ele>1474.3199999999999</ele>
        <time>2016-07-17T16:19:36Z</time>
      </trkpt>
      <trkpt lat="45.797728272154927" lon="7.821400361135602">
        <ele>1470.95</ele>
        <time>2016-07-17T16:19:47Z</time>
      </trkpt>
      <trkpt lat="45.79775677062571" lon="7.821432799100876">
        <ele>1470.95</ele>
        <time>2016-07-17T16:19:51Z</time>
      </trkpt>
      <trkpt lat="45.797700947150588" lon="7.821460291743279">
        <ele>1469.03</ele>
        <time>2016-07-17T16:19:58Z</time>
      </trkpt>
      <trkpt lat="45.797629281878471" lon="7.821476384997368">
        <ele>1468.0699999999999</ele>
        <time>2016-07-17T16:20:06Z</time>
      </trkpt>
      <trkpt lat="45.797514952719212" lon="7.821454424411058">
        <ele>1464.71</ele>
        <time>2016-07-17T16:20:19Z</time>
      </trkpt>
      <trkpt lat="45.797489807009697" lon="7.82149993814528">
        <ele>1462.78</ele>
        <time>2016-07-17T16:20:29Z</time>
      </trkpt>
      <trkpt lat="45.797479664906859" lon="7.821566741913557">
        <ele>1461.8199999999999</ele>
        <time>2016-07-17T16:20:38Z</time>
      </trkpt>
      <trkpt lat="45.797454686835408" lon="7.821634635329247">
        <ele>1460.8599999999999</ele>
        <time>2016-07-17T16:20:47Z</time>
      </trkpt>
      <trkpt lat="45.797451417893171" lon="7.821652069687843">
        <ele>1460.3800000000001</ele>
        <time>2016-07-17T16:20:56Z</time>
      </trkpt>
      <trkpt lat="45.797455357387662" lon="7.821651482954621">
        <ele>1460.3800000000001</ele>
        <time>2016-07-17T16:21:02Z</time>
      </trkpt>
      <trkpt lat="45.797452926635742" lon="7.821827419102192">
        <ele>1458.9400000000001</ele>
        <time>2016-07-17T16:21:12Z</time>
      </trkpt>
      <trkpt lat="45.797437336295843" lon="7.821896485984325">
        <ele>1457.98</ele>
        <time>2016-07-17T16:21:22Z</time>
      </trkpt>
      <trkpt lat="45.797427361831069" lon="7.821853067725897">
        <ele>1457.98</ele>
        <time>2016-07-17T16:21:33Z</time>
      </trkpt>
      <trkpt lat="45.797395678237081" lon="7.821832280606031">
        <ele>1457.5</ele>
        <time>2016-07-17T16:21:49Z</time>
      </trkpt>
      <trkpt lat="45.797395762056112" lon="7.821923140436411">
        <ele>1457.98</ele>
        <time>2016-07-17T16:22:03Z</time>
      </trkpt>
      <trkpt lat="45.797402551397681" lon="7.821975024417043">
        <ele>1457.5</ele>
        <time>2016-07-17T16:22:06Z</time>
      </trkpt>
      <trkpt lat="45.797388972714543" lon="7.82202816568315">
        <ele>1457.5</ele>
        <time>2016-07-17T16:22:10Z</time>
      </trkpt>
      <trkpt lat="45.797344045713544" lon="7.822213489562273">
        <ele>1455.5699999999999</ele>
        <time>2016-07-17T16:22:23Z</time>
      </trkpt>
      <trkpt lat="45.797339687123895" lon="7.822369728237391">
        <ele>1454.1300000000001</ele>
        <time>2016-07-17T16:22:33Z</time>
      </trkpt>
      <trkpt lat="45.797325856983662" lon="7.822537450119853">
        <ele>1452.21</ele>
        <time>2016-07-17T16:22:44Z</time>
      </trkpt>
      <trkpt lat="45.797328120097518" lon="7.82252948731184">
        <ele>1452.6900000000001</ele>
        <time>2016-07-17T16:22:54Z</time>
      </trkpt>
      <trkpt lat="45.797350248321891" lon="7.822560500353575">
        <ele>1451.73</ele>
        <time>2016-07-17T16:23:04Z</time>
      </trkpt>
      <trkpt lat="45.797356199473143" lon="7.822631914168596">
        <ele>1451.25</ele>
        <time>2016-07-17T16:23:14Z</time>
      </trkpt>
      <trkpt lat="45.797334322705865" lon="7.822645157575607">
        <ele>1450.29</ele>
        <time>2016-07-17T16:23:23Z</time>
      </trkpt>
      <trkpt lat="45.797333987429738" lon="7.822587741538882">
        <ele>1449.8099999999999</ele>
        <time>2016-07-17T16:23:31Z</time>
      </trkpt>
      <trkpt lat="45.79736391082406" lon="7.822643732652068">
        <ele>1449.8099999999999</ele>
        <time>2016-07-17T16:23:39Z</time>
      </trkpt>
      <trkpt lat="45.797423170879483" lon="7.822633255273104">
        <ele>1449.8099999999999</ele>
        <time>2016-07-17T16:23:49Z</time>
      </trkpt>
      <trkpt lat="45.797404395416379" lon="7.822648258879781">
        <ele>1449.8099999999999</ele>
        <time>2016-07-17T16:23:54Z</time>
      </trkpt>
      <trkpt lat="45.797344464808702" lon="7.822591681033373">
        <ele>1449.3199999999999</ele>
        <time>2016-07-17T16:24:02Z</time>
      </trkpt>
      <trkpt lat="45.797417806461453" lon="7.822507442906499">
        <ele>1449.3199999999999</ele>
        <time>2016-07-17T16:24:12Z</time>
      </trkpt>
      <trkpt lat="45.797419147565961" lon="7.822507191449404">
        <ele>1449.3199999999999</ele>
        <time>2016-07-17T16:24:22Z</time>
      </trkpt>
      <trkpt lat="45.797417052090168" lon="7.822515657171607">
        <ele>1448.3599999999999</ele>
        <time>2016-07-17T16:24:24Z</time>
      </trkpt>
      <trkpt lat="45.79745183698833" lon="7.822554800659418">
        <ele>1449.3199999999999</ele>
        <time>2016-07-17T16:24:34Z</time>
      </trkpt>
      <trkpt lat="45.797460889443755" lon="7.822550442069769">
        <ele>1448.8399999999999</ele>
        <time>2016-07-17T16:24:47Z</time>
      </trkpt>
      <trkpt lat="45.797482095658779" lon="7.82256418839097">
        <ele>1448.8399999999999</ele>
        <time>2016-07-17T16:25:07Z</time>
      </trkpt>
      <trkpt lat="45.797487879171968" lon="7.822538791224361">
        <ele>1448.3599999999999</ele>
        <time>2016-07-17T16:25:30Z</time>
      </trkpt>
      <trkpt lat="45.797493327409029" lon="7.822552705183625">
        <ele>1447.8800000000001</ele>
        <time>2016-07-17T16:25:47Z</time>
      </trkpt>
      <trkpt lat="45.797499781474471" lon="7.822532001882792">
        <ele>1447.8800000000001</ele>
        <time>2016-07-17T16:26:02Z</time>
      </trkpt>
      <trkpt lat="45.797480754554272" lon="7.822527308017016">
        <ele>1447.4000000000001</ele>
        <time>2016-07-17T16:26:20Z</time>
      </trkpt>
      <trkpt lat="45.797453597187996" lon="7.822523536160588">
        <ele>1447.4000000000001</ele>
        <time>2016-07-17T16:26:44Z</time>
      </trkpt>
      <trkpt lat="45.797448232769966" lon="7.822528062388301">
        <ele>1447.4000000000001</ele>
        <time>2016-07-17T16:27:04Z</time>
      </trkpt>
      <trkpt lat="45.797433312982321" lon="7.822539126500487">
        <ele>1447.4000000000001</ele>
        <time>2016-07-17T16:27:33Z</time>
      </trkpt>
      <trkpt lat="45.797432139515877" lon="7.822530409321189">
        <ele>1447.4000000000001</ele>
        <time>2016-07-17T16:27:53Z</time>
      </trkpt>
      <trkpt lat="45.797428786754608" lon="7.822505766525865">
        <ele>1446.4400000000001</ele>
        <time>2016-07-17T16:28:21Z</time>
      </trkpt>
      <trkpt lat="45.797420991584659" lon="7.822503503412008">
        <ele>1446.9200000000001</ele>
        <time>2016-07-17T16:28:44Z</time>
      </trkpt>
      <trkpt lat="45.797418477013707" lon="7.822504928335547">
        <ele>1446.4400000000001</ele>
        <time>2016-07-17T16:29:09Z</time>
      </trkpt>
      <trkpt lat="45.797428032383323" lon="7.8225143160671">
        <ele>1446.4400000000001</ele>
        <time>2016-07-17T16:29:36Z</time>
      </trkpt>
      <trkpt lat="45.797447310760617" lon="7.822524961084127">
        <ele>1446.4400000000001</ele>
        <time>2016-07-17T16:30:02Z</time>
      </trkpt>
      <trkpt lat="45.797461643815041" lon="7.822510795667768">
        <ele>1445.96</ele>
        <time>2016-07-17T16:30:24Z</time>
      </trkpt>
      <trkpt lat="45.79745820723474" lon="7.82248598523438">
        <ele>1445.96</ele>
        <time>2016-07-17T16:30:45Z</time>
      </trkpt>
      <trkpt lat="45.797449490055442" lon="7.822490176185966">
        <ele>1445.96</ele>
        <time>2016-07-17T16:31:07Z</time>
      </trkpt>
      <trkpt lat="45.797453597187996" lon="7.822506604716182">
        <ele>1445.48</ele>
        <time>2016-07-17T16:31:36Z</time>
      </trkpt>
      <trkpt lat="45.797463236376643" lon="7.822522614151239">
        <ele>1445.48</ele>
        <time>2016-07-17T16:31:56Z</time>
      </trkpt>
      <trkpt lat="45.797450998798013" lon="7.822532001882792">
        <ele>1445.48</ele>
        <time>2016-07-17T16:32:15Z</time>
      </trkpt>
      <trkpt lat="45.797453178092837" lon="7.822520518675447">
        <ele>1445</ele>
        <time>2016-07-17T16:32:32Z</time>
      </trkpt>
      <trkpt lat="45.797449825331569" lon="7.822510795667768">
        <ele>1445</ele>
        <time>2016-07-17T16:32:50Z</time>
      </trkpt>
      <trkpt lat="45.79744840040803" lon="7.8225143160671">
        <ele>1445</ele>
        <time>2016-07-17T16:33:10Z</time>
      </trkpt>
      <trkpt lat="45.79746407456696" lon="7.822550274431706">
        <ele>1445</ele>
        <time>2016-07-17T16:33:31Z</time>
      </trkpt>
      <trkpt lat="45.797440186142921" lon="7.822531079873443">
        <ele>1444.52</ele>
        <time>2016-07-17T16:33:49Z</time>
      </trkpt>
      <trkpt lat="45.797452256083488" lon="7.822543233633041">
        <ele>1445.48</ele>
        <time>2016-07-17T16:34:00Z</time>
      </trkpt>
    </trkseg>
  </trk>

</gpx>